<?xml version="1.0" encoding="UTF-8"?><gpx version="1.1" creator="Exported from Strava via extension e-ivanov.ru"  xsi:schemaLocation="http://www.topografix.com/GPX/1/1 http://www.topografix.com/GPX/1/1/gpx.xsd http://www.garmin.com/xmlschemas/GpxExtensions/v3 http://www.garmin.com/xmlschemas/GpxExtensionsv3.xsd http://www.garmin.com/xmlschemas/TrackPointExtension/v1 http://www.garmin.com/xmlschemas/TrackPointExtensionv1.xsd"  xmlns="http://www.topografix.com/GPX/1/1"  xmlns:gpxtpx="http://www.garmin.com/xmlschemas/TrackPointExtension/v1"  xmlns:gpxx="http://www.garmin.com/xmlschemas/GpxExtensions/v3" xmlns:xsi="http://www.w3.org/2001/XMLSchema-instance"><metadata><link href="http://e-ivanov.ru/projects/strava-export-gpx/"><text>Strava gpx export</text></link><time>2022-08-07T15:50:46.159Z</time></metadata><trk><name>RR Geulle-Slingerberg-Moorveld | Fietsrit | Strava</name><trkseg><trkpt lon="5.740411" lat="51.13975"><ele>31.8</ele><time>2022-08-07T05:54:00.000Z</time></trkpt><trkpt lon="5.740403" lat="51.139756"><ele>31.8</ele><time>2022-08-07T05:54:01.000Z</time></trkpt><trkpt lon="5.74026" lat="51.139794"><ele>31.8</ele><time>2022-08-07T05:54:08.000Z</time></trkpt><trkpt lon="5.740206" lat="51.13981"><ele>31.8</ele><time>2022-08-07T05:54:10.000Z</time></trkpt><trkpt lon="5.740135" lat="51.139839"><ele>31.8</ele><time>2022-08-07T05:54:12.000Z</time></trkpt><trkpt lon="5.740102" lat="51.139925"><ele>31.8</ele><time>2022-08-07T05:54:14.000Z</time></trkpt><trkpt lon="5.7402" lat="51.140095"><ele>31.7</ele><time>2022-08-07T05:54:18.000Z</time></trkpt><trkpt lon="5.740228" lat="51.14014"><ele>31.7</ele><time>2022-08-07T05:54:19.000Z</time></trkpt><trkpt lon="5.740256" lat="51.140188"><ele>31.7</ele><time>2022-08-07T05:54:20.000Z</time></trkpt><trkpt lon="5.740409" lat="51.140396"><ele>31.7</ele><time>2022-08-07T05:54:24.000Z</time></trkpt><trkpt lon="5.740658" lat="51.140785"><ele>31.5</ele><time>2022-08-07T05:54:31.000Z</time></trkpt><trkpt lon="5.74073" lat="51.140901"><ele>31.4</ele><time>2022-08-07T05:54:33.000Z</time></trkpt><trkpt lon="5.740904" lat="51.141205"><ele>31.4</ele><time>2022-08-07T05:54:39.000Z</time></trkpt><trkpt lon="5.741215" lat="51.141685"><ele>31.4</ele><time>2022-08-07T05:54:48.000Z</time></trkpt><trkpt lon="5.741447" lat="51.14206"><ele>31.5</ele><time>2022-08-07T05:54:55.000Z</time></trkpt><trkpt lon="5.741519" lat="51.142164"><ele>31.4</ele><time>2022-08-07T05:54:57.000Z</time></trkpt><trkpt lon="5.741752" lat="51.142664"><ele>31.4</ele><time>2022-08-07T05:55:06.000Z</time></trkpt><trkpt lon="5.74185" lat="51.142949"><ele>31.4</ele><time>2022-08-07T05:55:11.000Z</time></trkpt><trkpt lon="5.741882" lat="51.143063"><ele>31.4</ele><time>2022-08-07T05:55:13.000Z</time></trkpt><trkpt lon="5.741909" lat="51.14318"><ele>31.5</ele><time>2022-08-07T05:55:15.000Z</time></trkpt><trkpt lon="5.741968" lat="51.143732"><ele>31.8</ele><time>2022-08-07T05:55:25.000Z</time></trkpt><trkpt lon="5.741971" lat="51.144038"><ele>32.1</ele><time>2022-08-07T05:55:31.000Z</time></trkpt><trkpt lon="5.741957" lat="51.144083"><ele>32.1</ele><time>2022-08-07T05:55:32.000Z</time></trkpt><trkpt lon="5.741924" lat="51.144169"><ele>32.2</ele><time>2022-08-07T05:55:34.000Z</time></trkpt><trkpt lon="5.741917" lat="51.14426"><ele>32.2</ele><time>2022-08-07T05:55:36.000Z</time></trkpt><trkpt lon="5.741914" lat="51.144298"><ele>32.2</ele><time>2022-08-07T05:55:37.000Z</time></trkpt><trkpt lon="5.7419" lat="51.144481"><ele>32.1</ele><time>2022-08-07T05:55:41.000Z</time></trkpt><trkpt lon="5.741853" lat="51.1448"><ele>32.2</ele><time>2022-08-07T05:55:49.000Z</time></trkpt><trkpt lon="5.741864" lat="51.144837"><ele>32.2</ele><time>2022-08-07T05:55:50.000Z</time></trkpt><trkpt lon="5.741965" lat="51.144927"><ele>32.3</ele><time>2022-08-07T05:55:53.000Z</time></trkpt><trkpt lon="5.742" lat="51.144942"><ele>32.3</ele><time>2022-08-07T05:55:54.000Z</time></trkpt><trkpt lon="5.742174" lat="51.144951"><ele>32.3</ele><time>2022-08-07T05:55:58.000Z</time></trkpt><trkpt lon="5.742202" lat="51.14493"><ele>32.3</ele><time>2022-08-07T05:56:00.000Z</time></trkpt><trkpt lon="5.742209" lat="51.144913"><ele>32.3</ele><time>2022-08-07T05:56:03.000Z</time></trkpt><trkpt lon="5.742209" lat="51.144913"><ele>32.3</ele><time>2022-08-07T05:56:04.000Z</time></trkpt><trkpt lon="5.742255" lat="51.144951"><ele>32.2</ele><time>2022-08-07T06:00:06.000Z</time></trkpt><trkpt lon="5.742293" lat="51.144953"><ele>32.2</ele><time>2022-08-07T06:00:07.000Z</time></trkpt><trkpt lon="5.742336" lat="51.144954"><ele>32.2</ele><time>2022-08-07T06:00:08.000Z</time></trkpt><trkpt lon="5.742633" lat="51.144963"><ele>32.2</ele><time>2022-08-07T06:00:14.000Z</time></trkpt><trkpt lon="5.742682" lat="51.144949"><ele>32.2</ele><time>2022-08-07T06:00:15.000Z</time></trkpt><trkpt lon="5.742797" lat="51.144864"><ele>32.1</ele><time>2022-08-07T06:00:18.000Z</time></trkpt><trkpt lon="5.743108" lat="51.144654"><ele>31.9</ele><time>2022-08-07T06:00:24.000Z</time></trkpt><trkpt lon="5.743418" lat="51.144441"><ele>31.8</ele><time>2022-08-07T06:00:30.000Z</time></trkpt><trkpt lon="5.743469" lat="51.144408"><ele>31.8</ele><time>2022-08-07T06:00:31.000Z</time></trkpt><trkpt lon="5.743812" lat="51.144153"><ele>32</ele><time>2022-08-07T06:00:38.000Z</time></trkpt><trkpt lon="5.743828" lat="51.14412"><ele>32</ele><time>2022-08-07T06:00:39.000Z</time></trkpt><trkpt lon="5.743839" lat="51.144069"><ele>32</ele><time>2022-08-07T06:00:40.000Z</time></trkpt><trkpt lon="5.743854" lat="51.143989"><ele>32</ele><time>2022-08-07T06:00:42.000Z</time></trkpt><trkpt lon="5.743906" lat="51.143926"><ele>31.9</ele><time>2022-08-07T06:00:44.000Z</time></trkpt><trkpt lon="5.743951" lat="51.143904"><ele>31.9</ele><time>2022-08-07T06:00:45.000Z</time></trkpt><trkpt lon="5.744017" lat="51.143891"><ele>31.9</ele><time>2022-08-07T06:00:46.000Z</time></trkpt><trkpt lon="5.744328" lat="51.143839"><ele>31.9</ele><time>2022-08-07T06:00:50.000Z</time></trkpt><trkpt lon="5.744596" lat="51.143689"><ele>31.7</ele><time>2022-08-07T06:00:54.000Z</time></trkpt><trkpt lon="5.745155" lat="51.14331"><ele>31.6</ele><time>2022-08-07T06:01:02.000Z</time></trkpt><trkpt lon="5.745785" lat="51.142897"><ele>31.6</ele><time>2022-08-07T06:01:11.000Z</time></trkpt><trkpt lon="5.745857" lat="51.142851"><ele>31.6</ele><time>2022-08-07T06:01:12.000Z</time></trkpt><trkpt lon="5.745997" lat="51.142756"><ele>31.5</ele><time>2022-08-07T06:01:14.000Z</time></trkpt><trkpt lon="5.746067" lat="51.142711"><ele>31.5</ele><time>2022-08-07T06:01:15.000Z</time></trkpt><trkpt lon="5.746697" lat="51.142295"><ele>31.4</ele><time>2022-08-07T06:01:24.000Z</time></trkpt><trkpt lon="5.746962" lat="51.142093"><ele>31.3</ele><time>2022-08-07T06:01:28.000Z</time></trkpt><trkpt lon="5.747033" lat="51.142042"><ele>31.3</ele><time>2022-08-07T06:01:29.000Z</time></trkpt><trkpt lon="5.747174" lat="51.141949"><ele>31.3</ele><time>2022-08-07T06:01:31.000Z</time></trkpt><trkpt lon="5.747244" lat="51.141901"><ele>31.3</ele><time>2022-08-07T06:01:32.000Z</time></trkpt><trkpt lon="5.747683" lat="51.141611"><ele>31.2</ele><time>2022-08-07T06:01:38.000Z</time></trkpt><trkpt lon="5.747828" lat="51.141513"><ele>31.2</ele><time>2022-08-07T06:01:40.000Z</time></trkpt><trkpt lon="5.748269" lat="51.141224"><ele>31.2</ele><time>2022-08-07T06:01:46.000Z</time></trkpt><trkpt lon="5.748488" lat="51.141085"><ele>31.2</ele><time>2022-08-07T06:01:49.000Z</time></trkpt><trkpt lon="5.748845" lat="51.140859"><ele>31.2</ele><time>2022-08-07T06:01:54.000Z</time></trkpt><trkpt lon="5.749146" lat="51.140675"><ele>31.2</ele><time>2022-08-07T06:01:58.000Z</time></trkpt><trkpt lon="5.749216" lat="51.140627"><ele>31.1</ele><time>2022-08-07T06:01:59.000Z</time></trkpt><trkpt lon="5.749535" lat="51.140367"><ele>31</ele><time>2022-08-07T06:02:04.000Z</time></trkpt><trkpt lon="5.749899" lat="51.140118"><ele>30.9</ele><time>2022-08-07T06:02:09.000Z</time></trkpt><trkpt lon="5.750193" lat="51.139925"><ele>30.9</ele><time>2022-08-07T06:02:13.000Z</time></trkpt><trkpt lon="5.750842" lat="51.139484"><ele>30.9</ele><time>2022-08-07T06:02:22.000Z</time></trkpt><trkpt lon="5.751045" lat="51.139349"><ele>30.9</ele><time>2022-08-07T06:02:25.000Z</time></trkpt><trkpt lon="5.75119" lat="51.139252"><ele>30.9</ele><time>2022-08-07T06:02:27.000Z</time></trkpt><trkpt lon="5.751793" lat="51.138851"><ele>31.1</ele><time>2022-08-07T06:02:35.000Z</time></trkpt><trkpt lon="5.751922" lat="51.138762"><ele>31.1</ele><time>2022-08-07T06:02:37.000Z</time></trkpt><trkpt lon="5.75252" lat="51.13836"><ele>31.1</ele><time>2022-08-07T06:02:45.000Z</time></trkpt><trkpt lon="5.752725" lat="51.138225"><ele>31.1</ele><time>2022-08-07T06:02:48.000Z</time></trkpt><trkpt lon="5.753327" lat="51.137826"><ele>31.2</ele><time>2022-08-07T06:02:56.000Z</time></trkpt><trkpt lon="5.753398" lat="51.137779"><ele>31.3</ele><time>2022-08-07T06:02:57.000Z</time></trkpt><trkpt lon="5.753629" lat="51.137643"><ele>31.3</ele><time>2022-08-07T06:03:00.000Z</time></trkpt><trkpt lon="5.753845" lat="51.137514"><ele>31.4</ele><time>2022-08-07T06:03:03.000Z</time></trkpt><trkpt lon="5.754357" lat="51.137182"><ele>31.5</ele><time>2022-08-07T06:03:10.000Z</time></trkpt><trkpt lon="5.754587" lat="51.137031"><ele>31.5</ele><time>2022-08-07T06:03:13.000Z</time></trkpt><trkpt lon="5.754951" lat="51.136791"><ele>31.5</ele><time>2022-08-07T06:03:18.000Z</time></trkpt><trkpt lon="5.755451" lat="51.136464"><ele>31.6</ele><time>2022-08-07T06:03:25.000Z</time></trkpt><trkpt lon="5.755816" lat="51.136223"><ele>31.6</ele><time>2022-08-07T06:03:30.000Z</time></trkpt><trkpt lon="5.75631" lat="51.135875"><ele>31.6</ele><time>2022-08-07T06:03:37.000Z</time></trkpt><trkpt lon="5.75692" lat="51.135466"><ele>31.6</ele><time>2022-08-07T06:03:45.000Z</time></trkpt><trkpt lon="5.757125" lat="51.135324"><ele>31.7</ele><time>2022-08-07T06:03:48.000Z</time></trkpt><trkpt lon="5.757713" lat="51.134894"><ele>31.6</ele><time>2022-08-07T06:03:56.000Z</time></trkpt><trkpt lon="5.757813" lat="51.134797"><ele>31.5</ele><time>2022-08-07T06:03:58.000Z</time></trkpt><trkpt lon="5.758108" lat="51.134434"><ele>31.4</ele><time>2022-08-07T06:04:04.000Z</time></trkpt><trkpt lon="5.75816" lat="51.13436"><ele>31.5</ele><time>2022-08-07T06:04:05.000Z</time></trkpt><trkpt lon="5.758423" lat="51.133976"><ele>31.7</ele><time>2022-08-07T06:04:12.000Z</time></trkpt><trkpt lon="5.758472" lat="51.133863"><ele>31.7</ele><time>2022-08-07T06:04:15.000Z</time></trkpt><trkpt lon="5.758443" lat="51.133819"><ele>31.5</ele><time>2022-08-07T06:04:16.000Z</time></trkpt><trkpt lon="5.758393" lat="51.133785"><ele>31.4</ele><time>2022-08-07T06:04:17.000Z</time></trkpt><trkpt lon="5.758279" lat="51.133711"><ele>31.1</ele><time>2022-08-07T06:04:19.000Z</time></trkpt><trkpt lon="5.758219" lat="51.13366"><ele>30.9</ele><time>2022-08-07T06:04:20.000Z</time></trkpt><trkpt lon="5.757643" lat="51.133217"><ele>30.8</ele><time>2022-08-07T06:04:29.000Z</time></trkpt><trkpt lon="5.75708" lat="51.132732"><ele>31.2</ele><time>2022-08-07T06:04:38.000Z</time></trkpt><trkpt lon="5.75666" lat="51.132287"><ele>31.2</ele><time>2022-08-07T06:04:46.000Z</time></trkpt><trkpt lon="5.756493" lat="51.131988"><ele>31.2</ele><time>2022-08-07T06:04:51.000Z</time></trkpt><trkpt lon="5.756445" lat="51.131849"><ele>31.2</ele><time>2022-08-07T06:04:53.000Z</time></trkpt><trkpt lon="5.75629" lat="51.131266"><ele>31.1</ele><time>2022-08-07T06:05:02.000Z</time></trkpt><trkpt lon="5.75627" lat="51.1312"><ele>31.1</ele><time>2022-08-07T06:05:03.000Z</time></trkpt><trkpt lon="5.756231" lat="51.131052"><ele>31.1</ele><time>2022-08-07T06:05:05.000Z</time></trkpt><trkpt lon="5.756111" lat="51.13058"><ele>31</ele><time>2022-08-07T06:05:12.000Z</time></trkpt><trkpt lon="5.756071" lat="51.130445"><ele>31</ele><time>2022-08-07T06:05:14.000Z</time></trkpt><trkpt lon="5.755904" lat="51.129907"><ele>31</ele><time>2022-08-07T06:05:22.000Z</time></trkpt><trkpt lon="5.755882" lat="51.129841"><ele>31</ele><time>2022-08-07T06:05:23.000Z</time></trkpt><trkpt lon="5.755632" lat="51.12927"><ele>31.1</ele><time>2022-08-07T06:05:32.000Z</time></trkpt><trkpt lon="5.755601" lat="51.129206"><ele>31.1</ele><time>2022-08-07T06:05:33.000Z</time></trkpt><trkpt lon="5.755371" lat="51.128692"><ele>31</ele><time>2022-08-07T06:05:41.000Z</time></trkpt><trkpt lon="5.755229" lat="51.128363"><ele>31</ele><time>2022-08-07T06:05:46.000Z</time></trkpt><trkpt lon="5.75511" lat="51.128096"><ele>30.9</ele><time>2022-08-07T06:05:50.000Z</time></trkpt><trkpt lon="5.754846" lat="51.127575"><ele>30.9</ele><time>2022-08-07T06:05:58.000Z</time></trkpt><trkpt lon="5.754704" lat="51.127309"><ele>31</ele><time>2022-08-07T06:06:02.000Z</time></trkpt><trkpt lon="5.754669" lat="51.127246"><ele>31</ele><time>2022-08-07T06:06:03.000Z</time></trkpt><trkpt lon="5.754533" lat="51.126987"><ele>31</ele><time>2022-08-07T06:06:07.000Z</time></trkpt><trkpt lon="5.754398" lat="51.12673"><ele>31</ele><time>2022-08-07T06:06:11.000Z</time></trkpt><trkpt lon="5.754115" lat="51.126212"><ele>31</ele><time>2022-08-07T06:06:19.000Z</time></trkpt><trkpt lon="5.753959" lat="51.125967"><ele>31</ele><time>2022-08-07T06:06:23.000Z</time></trkpt><trkpt lon="5.753651" lat="51.125548"><ele>31</ele><time>2022-08-07T06:06:30.000Z</time></trkpt><trkpt lon="5.753658" lat="51.125366"><ele>30.9</ele><time>2022-08-07T06:06:33.000Z</time></trkpt><trkpt lon="5.753684" lat="51.125304"><ele>30.9</ele><time>2022-08-07T06:06:34.000Z</time></trkpt><trkpt lon="5.753862" lat="51.124987"><ele>30.9</ele><time>2022-08-07T06:06:39.000Z</time></trkpt><trkpt lon="5.754043" lat="51.12469"><ele>31.4</ele><time>2022-08-07T06:06:44.000Z</time></trkpt><trkpt lon="5.754035" lat="51.124634"><ele>31.2</ele><time>2022-08-07T06:06:45.000Z</time></trkpt><trkpt lon="5.753997" lat="51.124579"><ele>31.2</ele><time>2022-08-07T06:06:46.000Z</time></trkpt><trkpt lon="5.753823" lat="51.124427"><ele>30.9</ele><time>2022-08-07T06:06:49.000Z</time></trkpt><trkpt lon="5.753524" lat="51.124095"><ele>30.7</ele><time>2022-08-07T06:06:55.000Z</time></trkpt><trkpt lon="5.753183" lat="51.123749"><ele>31.3</ele><time>2022-08-07T06:07:02.000Z</time></trkpt><trkpt lon="5.753189" lat="51.123661"><ele>31.3</ele><time>2022-08-07T06:07:04.000Z</time></trkpt><trkpt lon="5.753329" lat="51.123613"><ele>31.1</ele><time>2022-08-07T06:07:06.000Z</time></trkpt><trkpt lon="5.753424" lat="51.123597"><ele>31</ele><time>2022-08-07T06:07:07.000Z</time></trkpt><trkpt lon="5.754142" lat="51.123468"><ele>30.7</ele><time>2022-08-07T06:07:14.000Z</time></trkpt><trkpt lon="5.754972" lat="51.123285"><ele>30.8</ele><time>2022-08-07T06:07:22.000Z</time></trkpt><trkpt lon="5.755078" lat="51.123262"><ele>30.9</ele><time>2022-08-07T06:07:23.000Z</time></trkpt><trkpt lon="5.755466" lat="51.123139"><ele>31.3</ele><time>2022-08-07T06:07:27.000Z</time></trkpt><trkpt lon="5.755549" lat="51.123097"><ele>31.4</ele><time>2022-08-07T06:07:28.000Z</time></trkpt><trkpt lon="5.755685" lat="51.122998"><ele>31.5</ele><time>2022-08-07T06:07:30.000Z</time></trkpt><trkpt lon="5.755772" lat="51.122875"><ele>31.6</ele><time>2022-08-07T06:07:32.000Z</time></trkpt><trkpt lon="5.755805" lat="51.122742"><ele>31.7</ele><time>2022-08-07T06:07:34.000Z</time></trkpt><trkpt lon="5.755839" lat="51.122545"><ele>31.8</ele><time>2022-08-07T06:07:37.000Z</time></trkpt><trkpt lon="5.755866" lat="51.122485"><ele>31.8</ele><time>2022-08-07T06:07:38.000Z</time></trkpt><trkpt lon="5.755944" lat="51.12236"><ele>31.9</ele><time>2022-08-07T06:07:40.000Z</time></trkpt><trkpt lon="5.756069" lat="51.122247"><ele>32</ele><time>2022-08-07T06:07:41.000Z</time></trkpt><trkpt lon="5.756714" lat="51.121794"><ele>32.3</ele><time>2022-08-07T06:07:51.000Z</time></trkpt><trkpt lon="5.757251" lat="51.121343"><ele>32.3</ele><time>2022-08-07T06:07:59.000Z</time></trkpt><trkpt lon="5.75751" lat="51.121116"><ele>32.2</ele><time>2022-08-07T06:08:03.000Z</time></trkpt><trkpt lon="5.757907" lat="51.120796"><ele>32</ele><time>2022-08-07T06:08:09.000Z</time></trkpt><trkpt lon="5.758073" lat="51.120695"><ele>31.7</ele><time>2022-08-07T06:08:11.000Z</time></trkpt><trkpt lon="5.758162" lat="51.120647"><ele>31.6</ele><time>2022-08-07T06:08:12.000Z</time></trkpt><trkpt lon="5.758252" lat="51.120601"><ele>31.5</ele><time>2022-08-07T06:08:13.000Z</time></trkpt><trkpt lon="5.758462" lat="51.120438"><ele>31.2</ele><time>2022-08-07T06:08:16.000Z</time></trkpt><trkpt lon="5.758966" lat="51.120038"><ele>30.9</ele><time>2022-08-07T06:08:23.000Z</time></trkpt><trkpt lon="5.759107" lat="51.119937"><ele>30.9</ele><time>2022-08-07T06:08:25.000Z</time></trkpt><trkpt lon="5.759179" lat="51.11981"><ele>30.8</ele><time>2022-08-07T06:08:27.000Z</time></trkpt><trkpt lon="5.759186" lat="51.11966"><ele>30.6</ele><time>2022-08-07T06:08:29.000Z</time></trkpt><trkpt lon="5.75916" lat="51.119586"><ele>30.6</ele><time>2022-08-07T06:08:30.000Z</time></trkpt><trkpt lon="5.759007" lat="51.119309"><ele>30.5</ele><time>2022-08-07T06:08:34.000Z</time></trkpt><trkpt lon="5.758855" lat="51.119125"><ele>30.6</ele><time>2022-08-07T06:08:37.000Z</time></trkpt><trkpt lon="5.758456" lat="51.118699"><ele>30.7</ele><time>2022-08-07T06:08:44.000Z</time></trkpt><trkpt lon="5.758137" lat="51.118333"><ele>30.7</ele><time>2022-08-07T06:08:50.000Z</time></trkpt><trkpt lon="5.75787" lat="51.117794"><ele>30.8</ele><time>2022-08-07T06:08:58.000Z</time></trkpt><trkpt lon="5.757774" lat="51.117664"><ele>30.8</ele><time>2022-08-07T06:09:00.000Z</time></trkpt><trkpt lon="5.757713" lat="51.117606"><ele>30.9</ele><time>2022-08-07T06:09:01.000Z</time></trkpt><trkpt lon="5.757484" lat="51.117449"><ele>30.8</ele><time>2022-08-07T06:09:04.000Z</time></trkpt><trkpt lon="5.756833" lat="51.117074"><ele>31</ele><time>2022-08-07T06:09:12.000Z</time></trkpt><trkpt lon="5.756758" lat="51.117027"><ele>31</ele><time>2022-08-07T06:09:13.000Z</time></trkpt><trkpt lon="5.756459" lat="51.116835"><ele>31</ele><time>2022-08-07T06:09:17.000Z</time></trkpt><trkpt lon="5.756265" lat="51.116672"><ele>30.8</ele><time>2022-08-07T06:09:20.000Z</time></trkpt><trkpt lon="5.756099" lat="51.116349"><ele>30.8</ele><time>2022-08-07T06:09:25.000Z</time></trkpt><trkpt lon="5.756075" lat="51.116223"><ele>30.8</ele><time>2022-08-07T06:09:27.000Z</time></trkpt><trkpt lon="5.756128" lat="51.116121"><ele>30.9</ele><time>2022-08-07T06:09:29.000Z</time></trkpt><trkpt lon="5.75627" lat="51.116062"><ele>30.9</ele><time>2022-08-07T06:09:31.000Z</time></trkpt><trkpt lon="5.756368" lat="51.11605"><ele>30.9</ele><time>2022-08-07T06:09:32.000Z</time></trkpt><trkpt lon="5.756687" lat="51.116027"><ele>30.9</ele><time>2022-08-07T06:09:35.000Z</time></trkpt><trkpt lon="5.756888" lat="51.115983"><ele>30.9</ele><time>2022-08-07T06:09:37.000Z</time></trkpt><trkpt lon="5.757081" lat="51.115827"><ele>30.9</ele><time>2022-08-07T06:09:39.000Z</time></trkpt><trkpt lon="5.757081" lat="51.115827"><ele>30.9</ele><time>2022-08-07T06:09:40.000Z</time></trkpt><trkpt lon="5.757472" lat="51.115314"><ele>31.1</ele><time>2022-08-07T06:09:48.000Z</time></trkpt><trkpt lon="5.757523" lat="51.115254"><ele>31.1</ele><time>2022-08-07T06:09:49.000Z</time></trkpt><trkpt lon="5.757952" lat="51.11476"><ele>31.2</ele><time>2022-08-07T06:09:57.000Z</time></trkpt><trkpt lon="5.758049" lat="51.114651"><ele>31.2</ele><time>2022-08-07T06:09:59.000Z</time></trkpt><trkpt lon="5.758253" lat="51.114387"><ele>31.3</ele><time>2022-08-07T06:10:03.000Z</time></trkpt><trkpt lon="5.758492" lat="51.114083"><ele>31.3</ele><time>2022-08-07T06:10:08.000Z</time></trkpt><trkpt lon="5.758585" lat="51.11396"><ele>31.3</ele><time>2022-08-07T06:10:10.000Z</time></trkpt><trkpt lon="5.758686" lat="51.113835"><ele>31.3</ele><time>2022-08-07T06:10:12.000Z</time></trkpt><trkpt lon="5.758951" lat="51.113509"><ele>31.3</ele><time>2022-08-07T06:10:17.000Z</time></trkpt><trkpt lon="5.759344" lat="51.113019"><ele>31.4</ele><time>2022-08-07T06:10:25.000Z</time></trkpt><trkpt lon="5.759724" lat="51.112527"><ele>31.3</ele><time>2022-08-07T06:10:33.000Z</time></trkpt><trkpt lon="5.760132" lat="51.112009"><ele>31.3</ele><time>2022-08-07T06:10:41.000Z</time></trkpt><trkpt lon="5.760238" lat="51.111882"><ele>31.2</ele><time>2022-08-07T06:10:43.000Z</time></trkpt><trkpt lon="5.760654" lat="51.111373"><ele>31.1</ele><time>2022-08-07T06:10:51.000Z</time></trkpt><trkpt lon="5.760755" lat="51.111245"><ele>31</ele><time>2022-08-07T06:10:53.000Z</time></trkpt><trkpt lon="5.760855" lat="51.111118"><ele>31</ele><time>2022-08-07T06:10:55.000Z</time></trkpt><trkpt lon="5.761247" lat="51.110633"><ele>31.5</ele><time>2022-08-07T06:11:03.000Z</time></trkpt><trkpt lon="5.761316" lat="51.110546"><ele>31.7</ele><time>2022-08-07T06:11:05.000Z</time></trkpt><trkpt lon="5.761318" lat="51.11047"><ele>31.8</ele><time>2022-08-07T06:11:07.000Z</time></trkpt><trkpt lon="5.761242" lat="51.110382"><ele>31.7</ele><time>2022-08-07T06:11:09.000Z</time></trkpt><trkpt lon="5.761176" lat="51.110337"><ele>31.6</ele><time>2022-08-07T06:11:10.000Z</time></trkpt><trkpt lon="5.761029" lat="51.110246"><ele>31.5</ele><time>2022-08-07T06:11:12.000Z</time></trkpt><trkpt lon="5.760782" lat="51.110096"><ele>31.4</ele><time>2022-08-07T06:11:15.000Z</time></trkpt><trkpt lon="5.760135" lat="51.109697"><ele>31.6</ele><time>2022-08-07T06:11:23.000Z</time></trkpt><trkpt lon="5.759532" lat="51.109309"><ele>31.9</ele><time>2022-08-07T06:11:31.000Z</time></trkpt><trkpt lon="5.759309" lat="51.109165"><ele>31.9</ele><time>2022-08-07T06:11:34.000Z</time></trkpt><trkpt lon="5.758693" lat="51.108775"><ele>32</ele><time>2022-08-07T06:11:42.000Z</time></trkpt><trkpt lon="5.758316" lat="51.108528"><ele>32</ele><time>2022-08-07T06:11:47.000Z</time></trkpt><trkpt lon="5.757742" lat="51.108106"><ele>31.7</ele><time>2022-08-07T06:11:55.000Z</time></trkpt><trkpt lon="5.757214" lat="51.107644"><ele>31.3</ele><time>2022-08-07T06:12:03.000Z</time></trkpt><trkpt lon="5.757136" lat="51.107592"><ele>31.3</ele><time>2022-08-07T06:12:04.000Z</time></trkpt><trkpt lon="5.756608" lat="51.107353"><ele>31.6</ele><time>2022-08-07T06:12:10.000Z</time></trkpt><trkpt lon="5.756312" lat="51.107228"><ele>31.8</ele><time>2022-08-07T06:12:14.000Z</time></trkpt><trkpt lon="5.756263" lat="51.107187"><ele>31.8</ele><time>2022-08-07T06:12:15.000Z</time></trkpt><trkpt lon="5.756243" lat="51.107137"><ele>31.7</ele><time>2022-08-07T06:12:16.000Z</time></trkpt><trkpt lon="5.756258" lat="51.107083"><ele>31.6</ele><time>2022-08-07T06:12:17.000Z</time></trkpt><trkpt lon="5.75629" lat="51.107026"><ele>31.5</ele><time>2022-08-07T06:12:18.000Z</time></trkpt><trkpt lon="5.756461" lat="51.106769"><ele>31.2</ele><time>2022-08-07T06:12:22.000Z</time></trkpt><trkpt lon="5.756789" lat="51.106315"><ele>31</ele><time>2022-08-07T06:12:29.000Z</time></trkpt><trkpt lon="5.757148" lat="51.105821"><ele>31</ele><time>2022-08-07T06:12:37.000Z</time></trkpt><trkpt lon="5.757396" lat="51.105437"><ele>31.5</ele><time>2022-08-07T06:12:43.000Z</time></trkpt><trkpt lon="5.757405" lat="51.105371"><ele>31.5</ele><time>2022-08-07T06:12:44.000Z</time></trkpt><trkpt lon="5.757423" lat="51.10497"><ele>31.9</ele><time>2022-08-07T06:12:50.000Z</time></trkpt><trkpt lon="5.757458" lat="51.104501"><ele>32</ele><time>2022-08-07T06:12:57.000Z</time></trkpt><trkpt lon="5.757523" lat="51.104159"><ele>31.7</ele><time>2022-08-07T06:13:02.000Z</time></trkpt><trkpt lon="5.75756" lat="51.104092"><ele>31.6</ele><time>2022-08-07T06:13:03.000Z</time></trkpt><trkpt lon="5.757711" lat="51.103809"><ele>31.5</ele><time>2022-08-07T06:13:07.000Z</time></trkpt><trkpt lon="5.75776" lat="51.103599"><ele>31.5</ele><time>2022-08-07T06:13:10.000Z</time></trkpt><trkpt lon="5.757781" lat="51.103191"><ele>31.7</ele><time>2022-08-07T06:13:16.000Z</time></trkpt><trkpt lon="5.757806" lat="51.103122"><ele>31.8</ele><time>2022-08-07T06:13:17.000Z</time></trkpt><trkpt lon="5.757947" lat="51.102712"><ele>31.8</ele><time>2022-08-07T06:13:23.000Z</time></trkpt><trkpt lon="5.757946" lat="51.102643"><ele>31.9</ele><time>2022-08-07T06:13:24.000Z</time></trkpt><trkpt lon="5.757883" lat="51.102074"><ele>31.8</ele><time>2022-08-07T06:13:32.000Z</time></trkpt><trkpt lon="5.757868" lat="51.101484"><ele>32.1</ele><time>2022-08-07T06:13:41.000Z</time></trkpt><trkpt lon="5.757877" lat="51.101421"><ele>32.2</ele><time>2022-08-07T06:13:42.000Z</time></trkpt><trkpt lon="5.757959" lat="51.101078"><ele>32.9</ele><time>2022-08-07T06:13:48.000Z</time></trkpt><trkpt lon="5.758013" lat="51.100944"><ele>33.1</ele><time>2022-08-07T06:13:52.000Z</time></trkpt><trkpt lon="5.75806" lat="51.100814"><ele>32.9</ele><time>2022-08-07T06:13:55.000Z</time></trkpt><trkpt lon="5.758065" lat="51.100757"><ele>32.8</ele><time>2022-08-07T06:13:56.000Z</time></trkpt><trkpt lon="5.758024" lat="51.100388"><ele>32.2</ele><time>2022-08-07T06:14:02.000Z</time></trkpt><trkpt lon="5.757987" lat="51.099847"><ele>32.1</ele><time>2022-08-07T06:14:10.000Z</time></trkpt><trkpt lon="5.758016" lat="51.099378"><ele>32.5</ele><time>2022-08-07T06:14:17.000Z</time></trkpt><trkpt lon="5.758037" lat="51.09931"><ele>32.5</ele><time>2022-08-07T06:14:18.000Z</time></trkpt><trkpt lon="5.758265" lat="51.098759"><ele>32.4</ele><time>2022-08-07T06:14:26.000Z</time></trkpt><trkpt lon="5.758358" lat="51.098554"><ele>32.4</ele><time>2022-08-07T06:14:29.000Z</time></trkpt><trkpt lon="5.75858" lat="51.098071"><ele>32.3</ele><time>2022-08-07T06:14:36.000Z</time></trkpt><trkpt lon="5.75865" lat="51.097931"><ele>32.3</ele><time>2022-08-07T06:14:38.000Z</time></trkpt><trkpt lon="5.758842" lat="51.097521"><ele>32.3</ele><time>2022-08-07T06:14:44.000Z</time></trkpt><trkpt lon="5.758872" lat="51.097449"><ele>32.3</ele><time>2022-08-07T06:14:45.000Z</time></trkpt><trkpt lon="5.758903" lat="51.097377"><ele>32.3</ele><time>2022-08-07T06:14:46.000Z</time></trkpt><trkpt lon="5.759067" lat="51.097039"><ele>32.3</ele><time>2022-08-07T06:14:51.000Z</time></trkpt><trkpt lon="5.759083" lat="51.096967"><ele>32.3</ele><time>2022-08-07T06:14:52.000Z</time></trkpt><trkpt lon="5.759047" lat="51.096681"><ele>32.3</ele><time>2022-08-07T06:14:56.000Z</time></trkpt><trkpt lon="5.759029" lat="51.096611"><ele>32.3</ele><time>2022-08-07T06:14:57.000Z</time></trkpt><trkpt lon="5.758926" lat="51.096259"><ele>32</ele><time>2022-08-07T06:15:02.000Z</time></trkpt><trkpt lon="5.758887" lat="51.096123"><ele>31.9</ele><time>2022-08-07T06:15:04.000Z</time></trkpt><trkpt lon="5.758819" lat="51.095624"><ele>31.7</ele><time>2022-08-07T06:15:11.000Z</time></trkpt><trkpt lon="5.758865" lat="51.095326"><ele>31.6</ele><time>2022-08-07T06:15:15.000Z</time></trkpt><trkpt lon="5.758876" lat="51.095106"><ele>31.6</ele><time>2022-08-07T06:15:18.000Z</time></trkpt><trkpt lon="5.758844" lat="51.094891"><ele>31.6</ele><time>2022-08-07T06:15:21.000Z</time></trkpt><trkpt lon="5.758806" lat="51.094588"><ele>31.7</ele><time>2022-08-07T06:15:25.000Z</time></trkpt><trkpt lon="5.7588" lat="51.094515"><ele>31.7</ele><time>2022-08-07T06:15:26.000Z</time></trkpt><trkpt lon="5.758721" lat="51.094006"><ele>31.5</ele><time>2022-08-07T06:15:33.000Z</time></trkpt><trkpt lon="5.758682" lat="51.09349"><ele>31.5</ele><time>2022-08-07T06:15:40.000Z</time></trkpt><trkpt lon="5.758758" lat="51.092999"><ele>31.5</ele><time>2022-08-07T06:15:47.000Z</time></trkpt><trkpt lon="5.758833" lat="51.09275"><ele>31.9</ele><time>2022-08-07T06:15:51.000Z</time></trkpt><trkpt lon="5.758852" lat="51.092683"><ele>32</ele><time>2022-08-07T06:15:52.000Z</time></trkpt><trkpt lon="5.758914" lat="51.092588"><ele>31.9</ele><time>2022-08-07T06:15:54.000Z</time></trkpt><trkpt lon="5.758982" lat="51.092556"><ele>31.9</ele><time>2022-08-07T06:15:55.000Z</time></trkpt><trkpt lon="5.759071" lat="51.092536"><ele>31.8</ele><time>2022-08-07T06:15:56.000Z</time></trkpt><trkpt lon="5.75917" lat="51.092523"><ele>31.7</ele><time>2022-08-07T06:15:57.000Z</time></trkpt><trkpt lon="5.75928" lat="51.092517"><ele>31.6</ele><time>2022-08-07T06:15:58.000Z</time></trkpt><trkpt lon="5.759617" lat="51.092522"><ele>31.5</ele><time>2022-08-07T06:16:01.000Z</time></trkpt><trkpt lon="5.759939" lat="51.092526"><ele>31.4</ele><time>2022-08-07T06:16:04.000Z</time></trkpt><trkpt lon="5.760051" lat="51.092535"><ele>31.5</ele><time>2022-08-07T06:16:05.000Z</time></trkpt><trkpt lon="5.760515" lat="51.092585"><ele>31.6</ele><time>2022-08-07T06:16:09.000Z</time></trkpt><trkpt lon="5.760631" lat="51.092592"><ele>31.6</ele><time>2022-08-07T06:16:10.000Z</time></trkpt><trkpt lon="5.760849" lat="51.092566"><ele>31.6</ele><time>2022-08-07T06:16:12.000Z</time></trkpt><trkpt lon="5.76113" lat="51.09246"><ele>31.7</ele><time>2022-08-07T06:16:15.000Z</time></trkpt><trkpt lon="5.76131" lat="51.092379"><ele>31.8</ele><time>2022-08-07T06:16:17.000Z</time></trkpt><trkpt lon="5.761616" lat="51.09221"><ele>31.9</ele><time>2022-08-07T06:16:21.000Z</time></trkpt><trkpt lon="5.761671" lat="51.092151"><ele>31.9</ele><time>2022-08-07T06:16:22.000Z</time></trkpt><trkpt lon="5.761703" lat="51.092087"><ele>31.9</ele><time>2022-08-07T06:16:23.000Z</time></trkpt><trkpt lon="5.761709" lat="51.091953"><ele>31.9</ele><time>2022-08-07T06:16:25.000Z</time></trkpt><trkpt lon="5.761716" lat="51.09189"><ele>31.8</ele><time>2022-08-07T06:16:26.000Z</time></trkpt><trkpt lon="5.761792" lat="51.091786"><ele>31.7</ele><time>2022-08-07T06:16:28.000Z</time></trkpt><trkpt lon="5.761995" lat="51.091689"><ele>31.6</ele><time>2022-08-07T06:16:30.000Z</time></trkpt><trkpt lon="5.762103" lat="51.091662"><ele>31.6</ele><time>2022-08-07T06:16:31.000Z</time></trkpt><trkpt lon="5.762434" lat="51.091609"><ele>31.5</ele><time>2022-08-07T06:16:34.000Z</time></trkpt><trkpt lon="5.762543" lat="51.091593"><ele>31.5</ele><time>2022-08-07T06:16:35.000Z</time></trkpt><trkpt lon="5.762653" lat="51.091581"><ele>31.6</ele><time>2022-08-07T06:16:36.000Z</time></trkpt><trkpt lon="5.762759" lat="51.091567"><ele>31.6</ele><time>2022-08-07T06:16:37.000Z</time></trkpt><trkpt lon="5.763408" lat="51.091443"><ele>31.6</ele><time>2022-08-07T06:16:43.000Z</time></trkpt><trkpt lon="5.764245" lat="51.091256"><ele>31.6</ele><time>2022-08-07T06:16:51.000Z</time></trkpt><trkpt lon="5.764354" lat="51.091234"><ele>31.6</ele><time>2022-08-07T06:16:52.000Z</time></trkpt><trkpt lon="5.764566" lat="51.091187"><ele>31.7</ele><time>2022-08-07T06:16:54.000Z</time></trkpt><trkpt lon="5.764673" lat="51.09116"><ele>31.7</ele><time>2022-08-07T06:16:55.000Z</time></trkpt><trkpt lon="5.765511" lat="51.090953"><ele>31.7</ele><time>2022-08-07T06:17:03.000Z</time></trkpt><trkpt lon="5.765833" lat="51.09087"><ele>31.8</ele><time>2022-08-07T06:17:06.000Z</time></trkpt><trkpt lon="5.766562" lat="51.090654"><ele>31.9</ele><time>2022-08-07T06:17:13.000Z</time></trkpt><trkpt lon="5.767205" lat="51.090386"><ele>31.7</ele><time>2022-08-07T06:17:20.000Z</time></trkpt><trkpt lon="5.767288" lat="51.090344"><ele>31.6</ele><time>2022-08-07T06:17:21.000Z</time></trkpt><trkpt lon="5.767625" lat="51.090166"><ele>31.3</ele><time>2022-08-07T06:17:25.000Z</time></trkpt><trkpt lon="5.76791" lat="51.089996"><ele>31.4</ele><time>2022-08-07T06:17:29.000Z</time></trkpt><trkpt lon="5.768116" lat="51.089858"><ele>31.8</ele><time>2022-08-07T06:17:34.000Z</time></trkpt><trkpt lon="5.76818" lat="51.089829"><ele>31.9</ele><time>2022-08-07T06:17:38.000Z</time></trkpt><trkpt lon="5.768383" lat="51.089805"><ele>32</ele><time>2022-08-07T06:17:43.000Z</time></trkpt><trkpt lon="5.768494" lat="51.089816"><ele>31.9</ele><time>2022-08-07T06:17:45.000Z</time></trkpt><trkpt lon="5.768551" lat="51.089838"><ele>31.8</ele><time>2022-08-07T06:17:46.000Z</time></trkpt><trkpt lon="5.768618" lat="51.089867"><ele>31.7</ele><time>2022-08-07T06:17:47.000Z</time></trkpt><trkpt lon="5.768842" lat="51.089974"><ele>31.5</ele><time>2022-08-07T06:17:50.000Z</time></trkpt><trkpt lon="5.769336" lat="51.090197"><ele>31.1</ele><time>2022-08-07T06:17:56.000Z</time></trkpt><trkpt lon="5.769855" lat="51.090436"><ele>31.3</ele><time>2022-08-07T06:18:03.000Z</time></trkpt><trkpt lon="5.770016" lat="51.090422"><ele>31</ele><time>2022-08-07T06:18:05.000Z</time></trkpt><trkpt lon="5.770099" lat="51.090393"><ele>30.8</ele><time>2022-08-07T06:18:06.000Z</time></trkpt><trkpt lon="5.770537" lat="51.090234"><ele>30</ele><time>2022-08-07T06:18:11.000Z</time></trkpt><trkpt lon="5.771235" lat="51.090052"><ele>29.7</ele><time>2022-08-07T06:18:18.000Z</time></trkpt><trkpt lon="5.772064" lat="51.089861"><ele>29.9</ele><time>2022-08-07T06:18:26.000Z</time></trkpt><trkpt lon="5.772742" lat="51.089674"><ele>29.8</ele><time>2022-08-07T06:18:33.000Z</time></trkpt><trkpt lon="5.773531" lat="51.089377"><ele>29.7</ele><time>2022-08-07T06:18:41.000Z</time></trkpt><trkpt lon="5.773726" lat="51.089293"><ele>29.7</ele><time>2022-08-07T06:18:43.000Z</time></trkpt><trkpt lon="5.774489" lat="51.088973"><ele>29.7</ele><time>2022-08-07T06:18:51.000Z</time></trkpt><trkpt lon="5.774886" lat="51.088826"><ele>29.7</ele><time>2022-08-07T06:18:55.000Z</time></trkpt><trkpt lon="5.77549" lat="51.088605"><ele>29.7</ele><time>2022-08-07T06:19:01.000Z</time></trkpt><trkpt lon="5.775816" lat="51.088511"><ele>29.7</ele><time>2022-08-07T06:19:04.000Z</time></trkpt><trkpt lon="5.776045" lat="51.088473"><ele>29.7</ele><time>2022-08-07T06:19:06.000Z</time></trkpt><trkpt lon="5.77628" lat="51.08846"><ele>29.8</ele><time>2022-08-07T06:19:08.000Z</time></trkpt><trkpt lon="5.7764" lat="51.088462"><ele>29.8</ele><time>2022-08-07T06:19:09.000Z</time></trkpt><trkpt lon="5.776965" lat="51.088549"><ele>29.8</ele><time>2022-08-07T06:19:14.000Z</time></trkpt><trkpt lon="5.777407" lat="51.088646"><ele>29.9</ele><time>2022-08-07T06:19:18.000Z</time></trkpt><trkpt lon="5.77785" lat="51.088701"><ele>30.2</ele><time>2022-08-07T06:19:21.000Z</time></trkpt><trkpt lon="5.777891" lat="51.088695"><ele>30.2</ele><time>2022-08-07T06:19:22.000Z</time></trkpt><trkpt lon="5.777933" lat="51.088689"><ele>30.2</ele><time>2022-08-07T06:19:23.000Z</time></trkpt><trkpt lon="5.778124" lat="51.08861"><ele>30.3</ele><time>2022-08-07T06:19:25.000Z</time></trkpt><trkpt lon="5.778348" lat="51.08846"><ele>30.5</ele><time>2022-08-07T06:19:28.000Z</time></trkpt><trkpt lon="5.778518" lat="51.088391"><ele>30.6</ele><time>2022-08-07T06:19:30.000Z</time></trkpt><trkpt lon="5.778715" lat="51.088381"><ele>30.6</ele><time>2022-08-07T06:19:32.000Z</time></trkpt><trkpt lon="5.778809" lat="51.088399"><ele>30.7</ele><time>2022-08-07T06:19:33.000Z</time></trkpt><trkpt lon="5.778892" lat="51.088436"><ele>30.8</ele><time>2022-08-07T06:19:34.000Z</time></trkpt><trkpt lon="5.779023" lat="51.088546"><ele>30.8</ele><time>2022-08-07T06:19:36.000Z</time></trkpt><trkpt lon="5.779163" lat="51.088805"><ele>30.8</ele><time>2022-08-07T06:19:40.000Z</time></trkpt><trkpt lon="5.779435" lat="51.089272"><ele>30.7</ele><time>2022-08-07T06:19:47.000Z</time></trkpt><trkpt lon="5.77986" lat="51.089683"><ele>30.9</ele><time>2022-08-07T06:19:54.000Z</time></trkpt><trkpt lon="5.780469" lat="51.09012"><ele>30.8</ele><time>2022-08-07T06:20:02.000Z</time></trkpt><trkpt lon="5.780615" lat="51.090233"><ele>30.7</ele><time>2022-08-07T06:20:04.000Z</time></trkpt><trkpt lon="5.781276" lat="51.090644"><ele>30.5</ele><time>2022-08-07T06:20:12.000Z</time></trkpt><trkpt lon="5.782036" lat="51.09096"><ele>30.3</ele><time>2022-08-07T06:20:20.000Z</time></trkpt><trkpt lon="5.782765" lat="51.091157"><ele>30.1</ele><time>2022-08-07T06:20:27.000Z</time></trkpt><trkpt lon="5.782871" lat="51.091184"><ele>30.1</ele><time>2022-08-07T06:20:28.000Z</time></trkpt><trkpt lon="5.783706" lat="51.091417"><ele>30</ele><time>2022-08-07T06:20:36.000Z</time></trkpt><trkpt lon="5.784029" lat="51.091496"><ele>29.9</ele><time>2022-08-07T06:20:39.000Z</time></trkpt><trkpt lon="5.784792" lat="51.091666"><ele>29.9</ele><time>2022-08-07T06:20:46.000Z</time></trkpt><trkpt lon="5.784984" lat="51.091708"><ele>29.9</ele><time>2022-08-07T06:20:48.000Z</time></trkpt><trkpt lon="5.785645" lat="51.091829"><ele>29.7</ele><time>2022-08-07T06:20:54.000Z</time></trkpt><trkpt lon="5.785854" lat="51.091861"><ele>29.7</ele><time>2022-08-07T06:20:56.000Z</time></trkpt><trkpt lon="5.786276" lat="51.091937"><ele>29.6</ele><time>2022-08-07T06:21:00.000Z</time></trkpt><trkpt lon="5.786386" lat="51.091952"><ele>29.6</ele><time>2022-08-07T06:21:01.000Z</time></trkpt><trkpt lon="5.786597" lat="51.091982"><ele>29.6</ele><time>2022-08-07T06:21:03.000Z</time></trkpt><trkpt lon="5.787252" lat="51.092044"><ele>29.4</ele><time>2022-08-07T06:21:09.000Z</time></trkpt><trkpt lon="5.788032" lat="51.092064"><ele>29.3</ele><time>2022-08-07T06:21:16.000Z</time></trkpt><trkpt lon="5.788143" lat="51.092062"><ele>29.3</ele><time>2022-08-07T06:21:17.000Z</time></trkpt><trkpt lon="5.789024" lat="51.092064"><ele>29.3</ele><time>2022-08-07T06:21:25.000Z</time></trkpt><trkpt lon="5.789162" lat="51.092071"><ele>29.3</ele><time>2022-08-07T06:21:26.000Z</time></trkpt><trkpt lon="5.789716" lat="51.092083"><ele>29.4</ele><time>2022-08-07T06:21:31.000Z</time></trkpt><trkpt lon="5.790268" lat="51.09212"><ele>29.4</ele><time>2022-08-07T06:21:36.000Z</time></trkpt><trkpt lon="5.790374" lat="51.092126"><ele>29.5</ele><time>2022-08-07T06:21:37.000Z</time></trkpt><trkpt lon="5.790883" lat="51.092162"><ele>29.8</ele><time>2022-08-07T06:21:42.000Z</time></trkpt><trkpt lon="5.791077" lat="51.092183"><ele>30.1</ele><time>2022-08-07T06:21:44.000Z</time></trkpt><trkpt lon="5.791169" lat="51.092192"><ele>30.3</ele><time>2022-08-07T06:21:45.000Z</time></trkpt><trkpt lon="5.791308" lat="51.092176"><ele>30.4</ele><time>2022-08-07T06:21:47.000Z</time></trkpt><trkpt lon="5.791401" lat="51.092105"><ele>30.4</ele><time>2022-08-07T06:21:49.000Z</time></trkpt><trkpt lon="5.791422" lat="51.092048"><ele>30.4</ele><time>2022-08-07T06:21:50.000Z</time></trkpt><trkpt lon="5.791433" lat="51.091989"><ele>30.4</ele><time>2022-08-07T06:21:51.000Z</time></trkpt><trkpt lon="5.791463" lat="51.091803"><ele>30.5</ele><time>2022-08-07T06:21:54.000Z</time></trkpt><trkpt lon="5.791485" lat="51.091738"><ele>30.5</ele><time>2022-08-07T06:21:55.000Z</time></trkpt><trkpt lon="5.791673" lat="51.091358"><ele>30.5</ele><time>2022-08-07T06:22:01.000Z</time></trkpt><trkpt lon="5.792062" lat="51.090888"><ele>30.4</ele><time>2022-08-07T06:22:09.000Z</time></trkpt><trkpt lon="5.792438" lat="51.090445"><ele>30.3</ele><time>2022-08-07T06:22:16.000Z</time></trkpt><trkpt lon="5.792865" lat="51.089944"><ele>30.2</ele><time>2022-08-07T06:22:25.000Z</time></trkpt><trkpt lon="5.792896" lat="51.089897"><ele>30.2</ele><time>2022-08-07T06:22:26.000Z</time></trkpt><trkpt lon="5.792996" lat="51.089759"><ele>30.1</ele><time>2022-08-07T06:22:29.000Z</time></trkpt><trkpt lon="5.793099" lat="51.089698"><ele>30.1</ele><time>2022-08-07T06:22:31.000Z</time></trkpt><trkpt lon="5.793222" lat="51.08965"><ele>29.9</ele><time>2022-08-07T06:22:33.000Z</time></trkpt><trkpt lon="5.793358" lat="51.089642"><ele>29.7</ele><time>2022-08-07T06:22:35.000Z</time></trkpt><trkpt lon="5.793524" lat="51.089681"><ele>29.5</ele><time>2022-08-07T06:22:37.000Z</time></trkpt><trkpt lon="5.793668" lat="51.089749"><ele>29.4</ele><time>2022-08-07T06:22:39.000Z</time></trkpt><trkpt lon="5.793846" lat="51.089987"><ele>29.2</ele><time>2022-08-07T06:22:43.000Z</time></trkpt><trkpt lon="5.794072" lat="51.090418"><ele>29.3</ele><time>2022-08-07T06:22:50.000Z</time></trkpt><trkpt lon="5.794055" lat="51.090535"><ele>29.3</ele><time>2022-08-07T06:22:52.000Z</time></trkpt><trkpt lon="5.794045" lat="51.090602"><ele>29.3</ele><time>2022-08-07T06:22:53.000Z</time></trkpt><trkpt lon="5.794063" lat="51.090671"><ele>29.3</ele><time>2022-08-07T06:22:54.000Z</time></trkpt><trkpt lon="5.794156" lat="51.090856"><ele>29.3</ele><time>2022-08-07T06:22:57.000Z</time></trkpt><trkpt lon="5.794445" lat="51.091397"><ele>29.4</ele><time>2022-08-07T06:23:05.000Z</time></trkpt><trkpt lon="5.794597" lat="51.091645"><ele>29.4</ele><time>2022-08-07T06:23:09.000Z</time></trkpt><trkpt lon="5.794799" lat="51.091971"><ele>29.5</ele><time>2022-08-07T06:23:13.000Z</time></trkpt><trkpt lon="5.794855" lat="51.092033"><ele>29.6</ele><time>2022-08-07T06:23:15.000Z</time></trkpt><trkpt lon="5.794924" lat="51.092088"><ele>29.6</ele><time>2022-08-07T06:23:16.000Z</time></trkpt><trkpt lon="5.795138" lat="51.092244"><ele>29.7</ele><time>2022-08-07T06:23:19.000Z</time></trkpt><trkpt lon="5.795191" lat="51.092302"><ele>29.7</ele><time>2022-08-07T06:23:20.000Z</time></trkpt><trkpt lon="5.795386" lat="51.092557"><ele>29.6</ele><time>2022-08-07T06:23:24.000Z</time></trkpt><trkpt lon="5.795425" lat="51.092608"><ele>29.6</ele><time>2022-08-07T06:23:25.000Z</time></trkpt><trkpt lon="5.79564" lat="51.092857"><ele>29.7</ele><time>2022-08-07T06:23:29.000Z</time></trkpt><trkpt lon="5.795988" lat="51.09321"><ele>29.7</ele><time>2022-08-07T06:23:36.000Z</time></trkpt><trkpt lon="5.796214" lat="51.093452"><ele>29.8</ele><time>2022-08-07T06:23:42.000Z</time></trkpt><trkpt lon="5.796368" lat="51.093474"><ele>29.9</ele><time>2022-08-07T06:23:45.000Z</time></trkpt><trkpt lon="5.796493" lat="51.093424"><ele>30</ele><time>2022-08-07T06:23:47.000Z</time></trkpt><trkpt lon="5.796637" lat="51.093386"><ele>30.2</ele><time>2022-08-07T06:23:49.000Z</time></trkpt><trkpt lon="5.7968" lat="51.0934"><ele>30.3</ele><time>2022-08-07T06:23:51.000Z</time></trkpt><trkpt lon="5.797015" lat="51.093432"><ele>30.6</ele><time>2022-08-07T06:23:53.000Z</time></trkpt><trkpt lon="5.797208" lat="51.093413"><ele>30.8</ele><time>2022-08-07T06:23:55.000Z</time></trkpt><trkpt lon="5.797284" lat="51.093396"><ele>30.9</ele><time>2022-08-07T06:23:56.000Z</time></trkpt><trkpt lon="5.797489" lat="51.093331"><ele>31.2</ele><time>2022-08-07T06:23:58.000Z</time></trkpt><trkpt lon="5.797739" lat="51.093221"><ele>31.7</ele><time>2022-08-07T06:24:01.000Z</time></trkpt><trkpt lon="5.797959" lat="51.093088"><ele>32.3</ele><time>2022-08-07T06:24:04.000Z</time></trkpt><trkpt lon="5.798348" lat="51.092841"><ele>33.6</ele><time>2022-08-07T06:24:10.000Z</time></trkpt><trkpt lon="5.799009" lat="51.09244"><ele>34.5</ele><time>2022-08-07T06:24:19.000Z</time></trkpt><trkpt lon="5.799647" lat="51.092049"><ele>33.6</ele><time>2022-08-07T06:24:27.000Z</time></trkpt><trkpt lon="5.799738" lat="51.091997"><ele>33.4</ele><time>2022-08-07T06:24:28.000Z</time></trkpt><trkpt lon="5.800153" lat="51.091666"><ele>31.5</ele><time>2022-08-07T06:24:33.000Z</time></trkpt><trkpt lon="5.800337" lat="51.091434"><ele>30.5</ele><time>2022-08-07T06:24:36.000Z</time></trkpt><trkpt lon="5.800372" lat="51.091355"><ele>30.2</ele><time>2022-08-07T06:24:37.000Z</time></trkpt><trkpt lon="5.800413" lat="51.09118"><ele>29.8</ele><time>2022-08-07T06:24:38.000Z</time></trkpt><trkpt lon="5.80042" lat="51.091086"><ele>29.6</ele><time>2022-08-07T06:24:40.000Z</time></trkpt><trkpt lon="5.800421" lat="51.090905"><ele>29.4</ele><time>2022-08-07T06:24:42.000Z</time></trkpt><trkpt lon="5.800387" lat="51.090569"><ele>29.4</ele><time>2022-08-07T06:24:46.000Z</time></trkpt><trkpt lon="5.800388" lat="51.090333"><ele>29.6</ele><time>2022-08-07T06:24:49.000Z</time></trkpt><trkpt lon="5.800447" lat="51.090033"><ele>29.6</ele><time>2022-08-07T06:24:53.000Z</time></trkpt><trkpt lon="5.80048" lat="51.089961"><ele>29.6</ele><time>2022-08-07T06:24:54.000Z</time></trkpt><trkpt lon="5.800654" lat="51.089682"><ele>29.5</ele><time>2022-08-07T06:24:58.000Z</time></trkpt><trkpt lon="5.800772" lat="51.08955"><ele>29.5</ele><time>2022-08-07T06:25:00.000Z</time></trkpt><trkpt lon="5.801293" lat="51.089043"><ele>29.4</ele><time>2022-08-07T06:25:08.000Z</time></trkpt><trkpt lon="5.801353" lat="51.088981"><ele>29.3</ele><time>2022-08-07T06:25:09.000Z</time></trkpt><trkpt lon="5.801866" lat="51.088484"><ele>29.5</ele><time>2022-08-07T06:25:17.000Z</time></trkpt><trkpt lon="5.802304" lat="51.088064"><ele>30</ele><time>2022-08-07T06:25:24.000Z</time></trkpt><trkpt lon="5.802801" lat="51.087591"><ele>30.2</ele><time>2022-08-07T06:25:32.000Z</time></trkpt><trkpt lon="5.80305" lat="51.087343"><ele>30.2</ele><time>2022-08-07T06:25:36.000Z</time></trkpt><trkpt lon="5.803187" lat="51.087222"><ele>30.1</ele><time>2022-08-07T06:25:38.000Z</time></trkpt><trkpt lon="5.80372" lat="51.086715"><ele>29.7</ele><time>2022-08-07T06:25:46.000Z</time></trkpt><trkpt lon="5.803788" lat="51.086653"><ele>29.6</ele><time>2022-08-07T06:25:47.000Z</time></trkpt><trkpt lon="5.804118" lat="51.086342"><ele>29.2</ele><time>2022-08-07T06:25:52.000Z</time></trkpt><trkpt lon="5.804316" lat="51.086155"><ele>29</ele><time>2022-08-07T06:25:55.000Z</time></trkpt><trkpt lon="5.804446" lat="51.086028"><ele>28.8</ele><time>2022-08-07T06:25:57.000Z</time></trkpt><trkpt lon="5.80484" lat="51.085656"><ele>28.6</ele><time>2022-08-07T06:26:03.000Z</time></trkpt><trkpt lon="5.805033" lat="51.085482"><ele>28.6</ele><time>2022-08-07T06:26:06.000Z</time></trkpt><trkpt lon="5.805102" lat="51.085427"><ele>28.6</ele><time>2022-08-07T06:26:07.000Z</time></trkpt><trkpt lon="5.80564" lat="51.085059"><ele>28.4</ele><time>2022-08-07T06:26:14.000Z</time></trkpt><trkpt lon="5.806342" lat="51.084687"><ele>28.2</ele><time>2022-08-07T06:26:22.000Z</time></trkpt><trkpt lon="5.806431" lat="51.08464"><ele>28.1</ele><time>2022-08-07T06:26:23.000Z</time></trkpt><trkpt lon="5.807127" lat="51.08428"><ele>28.4</ele><time>2022-08-07T06:26:31.000Z</time></trkpt><trkpt lon="5.807475" lat="51.084034"><ele>28.7</ele><time>2022-08-07T06:26:36.000Z</time></trkpt><trkpt lon="5.807556" lat="51.083984"><ele>28.6</ele><time>2022-08-07T06:26:37.000Z</time></trkpt><trkpt lon="5.807845" lat="51.083841"><ele>28.4</ele><time>2022-08-07T06:26:40.000Z</time></trkpt><trkpt lon="5.808127" lat="51.083701"><ele>28.3</ele><time>2022-08-07T06:26:43.000Z</time></trkpt><trkpt lon="5.808566" lat="51.083463"><ele>28.4</ele><time>2022-08-07T06:26:48.000Z</time></trkpt><trkpt lon="5.808804" lat="51.083307"><ele>28.4</ele><time>2022-08-07T06:26:51.000Z</time></trkpt><trkpt lon="5.809418" lat="51.082882"><ele>28.5</ele><time>2022-08-07T06:26:59.000Z</time></trkpt><trkpt lon="5.809567" lat="51.082776"><ele>28.6</ele><time>2022-08-07T06:27:01.000Z</time></trkpt><trkpt lon="5.810166" lat="51.082437"><ele>28.9</ele><time>2022-08-07T06:27:08.000Z</time></trkpt><trkpt lon="5.810256" lat="51.082394"><ele>29</ele><time>2022-08-07T06:27:09.000Z</time></trkpt><trkpt lon="5.81054" lat="51.082277"><ele>29</ele><time>2022-08-07T06:27:12.000Z</time></trkpt><trkpt lon="5.810945" lat="51.082139"><ele>29</ele><time>2022-08-07T06:27:16.000Z</time></trkpt><trkpt lon="5.811797" lat="51.081877"><ele>28.8</ele><time>2022-08-07T06:27:25.000Z</time></trkpt><trkpt lon="5.811975" lat="51.081837"><ele>28.8</ele><time>2022-08-07T06:27:27.000Z</time></trkpt><trkpt lon="5.812333" lat="51.081755"><ele>28.8</ele><time>2022-08-07T06:27:32.000Z</time></trkpt><trkpt lon="5.812439" lat="51.081715"><ele>28.8</ele><time>2022-08-07T06:27:34.000Z</time></trkpt><trkpt lon="5.812453" lat="51.08169"><ele>28.9</ele><time>2022-08-07T06:27:35.000Z</time></trkpt><trkpt lon="5.812435" lat="51.081635"><ele>28.9</ele><time>2022-08-07T06:27:37.000Z</time></trkpt><trkpt lon="5.812452" lat="51.081605"><ele>28.9</ele><time>2022-08-07T06:27:38.000Z</time></trkpt><trkpt lon="5.812496" lat="51.081581"><ele>28.8</ele><time>2022-08-07T06:27:39.000Z</time></trkpt><trkpt lon="5.812662" lat="51.081528"><ele>28.7</ele><time>2022-08-07T06:27:42.000Z</time></trkpt><trkpt lon="5.812814" lat="51.081555"><ele>28.7</ele><time>2022-08-07T06:27:44.000Z</time></trkpt><trkpt lon="5.812899" lat="51.081578"><ele>28.7</ele><time>2022-08-07T06:27:45.000Z</time></trkpt><trkpt lon="5.812974" lat="51.081594"><ele>28.7</ele><time>2022-08-07T06:27:46.000Z</time></trkpt><trkpt lon="5.813195" lat="51.081596"><ele>28.7</ele><time>2022-08-07T06:27:48.000Z</time></trkpt><trkpt lon="5.813739" lat="51.081476"><ele>28.3</ele><time>2022-08-07T06:27:53.000Z</time></trkpt><trkpt lon="5.814623" lat="51.081275"><ele>28.2</ele><time>2022-08-07T06:28:01.000Z</time></trkpt><trkpt lon="5.815253" lat="51.081156"><ele>28.3</ele><time>2022-08-07T06:28:07.000Z</time></trkpt><trkpt lon="5.816112" lat="51.08102"><ele>28.6</ele><time>2022-08-07T06:28:15.000Z</time></trkpt><trkpt lon="5.816329" lat="51.08099"><ele>28.7</ele><time>2022-08-07T06:28:17.000Z</time></trkpt><trkpt lon="5.816667" lat="51.080959"><ele>28.8</ele><time>2022-08-07T06:28:20.000Z</time></trkpt><trkpt lon="5.817322" lat="51.080886"><ele>28.9</ele><time>2022-08-07T06:28:26.000Z</time></trkpt><trkpt lon="5.818208" lat="51.080826"><ele>28.9</ele><time>2022-08-07T06:28:34.000Z</time></trkpt><trkpt lon="5.818551" lat="51.080812"><ele>29.1</ele><time>2022-08-07T06:28:37.000Z</time></trkpt><trkpt lon="5.818918" lat="51.080794"><ele>29.4</ele><time>2022-08-07T06:28:40.000Z</time></trkpt><trkpt lon="5.819669" lat="51.080764"><ele>30.5</ele><time>2022-08-07T06:28:47.000Z</time></trkpt><trkpt lon="5.819915" lat="51.080759"><ele>31</ele><time>2022-08-07T06:28:49.000Z</time></trkpt><trkpt lon="5.820626" lat="51.080739"><ele>32.8</ele><time>2022-08-07T06:28:56.000Z</time></trkpt><trkpt lon="5.821043" lat="51.080694"><ele>33.8</ele><time>2022-08-07T06:29:00.000Z</time></trkpt><trkpt lon="5.821342" lat="51.080646"><ele>34.6</ele><time>2022-08-07T06:29:03.000Z</time></trkpt><trkpt lon="5.821534" lat="51.080613"><ele>35.1</ele><time>2022-08-07T06:29:05.000Z</time></trkpt><trkpt lon="5.822382" lat="51.080417"><ele>37.3</ele><time>2022-08-07T06:29:14.000Z</time></trkpt><trkpt lon="5.822472" lat="51.080392"><ele>37.5</ele><time>2022-08-07T06:29:15.000Z</time></trkpt><trkpt lon="5.823261" lat="51.08014"><ele>39.7</ele><time>2022-08-07T06:29:24.000Z</time></trkpt><trkpt lon="5.823343" lat="51.080112"><ele>39.9</ele><time>2022-08-07T06:29:25.000Z</time></trkpt><trkpt lon="5.823677" lat="51.079996"><ele>40.8</ele><time>2022-08-07T06:29:29.000Z</time></trkpt><trkpt lon="5.824047" lat="51.07987"><ele>41.6</ele><time>2022-08-07T06:29:33.000Z</time></trkpt><trkpt lon="5.824845" lat="51.079607"><ele>43</ele><time>2022-08-07T06:29:42.000Z</time></trkpt><trkpt lon="5.825405" lat="51.079401"><ele>43.6</ele><time>2022-08-07T06:29:49.000Z</time></trkpt><trkpt lon="5.825764" lat="51.079275"><ele>43.8</ele><time>2022-08-07T06:29:53.000Z</time></trkpt><trkpt lon="5.826295" lat="51.079086"><ele>43.8</ele><time>2022-08-07T06:29:59.000Z</time></trkpt><trkpt lon="5.826952" lat="51.07887"><ele>43.5</ele><time>2022-08-07T06:30:06.000Z</time></trkpt><trkpt lon="5.827351" lat="51.078744"><ele>42.9</ele><time>2022-08-07T06:30:10.000Z</time></trkpt><trkpt lon="5.828105" lat="51.078529"><ele>40.5</ele><time>2022-08-07T06:30:17.000Z</time></trkpt><trkpt lon="5.829004" lat="51.078329"><ele>37.7</ele><time>2022-08-07T06:30:24.000Z</time></trkpt><trkpt lon="5.829134" lat="51.078305"><ele>37.3</ele><time>2022-08-07T06:30:25.000Z</time></trkpt><trkpt lon="5.829526" lat="51.078255"><ele>36.2</ele><time>2022-08-07T06:30:28.000Z</time></trkpt><trkpt lon="5.829867" lat="51.078228"><ele>35.4</ele><time>2022-08-07T06:30:31.000Z</time></trkpt><trkpt lon="5.830248" lat="51.078211"><ele>34.7</ele><time>2022-08-07T06:30:34.000Z</time></trkpt><trkpt lon="5.830558" lat="51.078212"><ele>34.3</ele><time>2022-08-07T06:30:37.000Z</time></trkpt><trkpt lon="5.830955" lat="51.078217"><ele>34.1</ele><time>2022-08-07T06:30:42.000Z</time></trkpt><trkpt lon="5.831011" lat="51.078218"><ele>34</ele><time>2022-08-07T06:30:43.000Z</time></trkpt><trkpt lon="5.831211" lat="51.078218"><ele>33.8</ele><time>2022-08-07T06:30:48.000Z</time></trkpt><trkpt lon="5.831471" lat="51.078231"><ele>33.4</ele><time>2022-08-07T06:30:52.000Z</time></trkpt><trkpt lon="5.831609" lat="51.078236"><ele>33.2</ele><time>2022-08-07T06:30:54.000Z</time></trkpt><trkpt lon="5.831808" lat="51.078268"><ele>32.8</ele><time>2022-08-07T06:30:56.000Z</time></trkpt><trkpt lon="5.831907" lat="51.078277"><ele>32.6</ele><time>2022-08-07T06:30:57.000Z</time></trkpt><trkpt lon="5.832007" lat="51.078281"><ele>32.4</ele><time>2022-08-07T06:30:58.000Z</time></trkpt><trkpt lon="5.832576" lat="51.078285"><ele>31.1</ele><time>2022-08-07T06:31:02.000Z</time></trkpt><trkpt lon="5.833452" lat="51.078309"><ele>29.3</ele><time>2022-08-07T06:31:10.000Z</time></trkpt><trkpt lon="5.834431" lat="51.078272"><ele>28.6</ele><time>2022-08-07T06:31:18.000Z</time></trkpt><trkpt lon="5.835227" lat="51.078157"><ele>28.8</ele><time>2022-08-07T06:31:25.000Z</time></trkpt><trkpt lon="5.835994" lat="51.078003"><ele>29.2</ele><time>2022-08-07T06:31:32.000Z</time></trkpt><trkpt lon="5.836124" lat="51.077979"><ele>29.2</ele><time>2022-08-07T06:31:33.000Z</time></trkpt><trkpt lon="5.836952" lat="51.077809"><ele>29.3</ele><time>2022-08-07T06:31:41.000Z</time></trkpt><trkpt lon="5.837059" lat="51.077787"><ele>29.3</ele><time>2022-08-07T06:31:42.000Z</time></trkpt><trkpt lon="5.837616" lat="51.077672"><ele>29.3</ele><time>2022-08-07T06:31:47.000Z</time></trkpt><trkpt lon="5.838138" lat="51.077536"><ele>29.2</ele><time>2022-08-07T06:31:52.000Z</time></trkpt><trkpt lon="5.838807" lat="51.077268"><ele>29.2</ele><time>2022-08-07T06:31:59.000Z</time></trkpt><trkpt lon="5.839239" lat="51.077029"><ele>29.1</ele><time>2022-08-07T06:32:04.000Z</time></trkpt><trkpt lon="5.839389" lat="51.076923"><ele>29</ele><time>2022-08-07T06:32:06.000Z</time></trkpt><trkpt lon="5.839659" lat="51.076704"><ele>28.9</ele><time>2022-08-07T06:32:10.000Z</time></trkpt><trkpt lon="5.839802" lat="51.076571"><ele>28.8</ele><time>2022-08-07T06:32:12.000Z</time></trkpt><trkpt lon="5.839928" lat="51.076448"><ele>28.8</ele><time>2022-08-07T06:32:14.000Z</time></trkpt><trkpt lon="5.840132" lat="51.076198"><ele>28.7</ele><time>2022-08-07T06:32:18.000Z</time></trkpt><trkpt lon="5.840279" lat="51.075986"><ele>28.6</ele><time>2022-08-07T06:32:21.000Z</time></trkpt><trkpt lon="5.840621" lat="51.07547"><ele>28.6</ele><time>2022-08-07T06:32:29.000Z</time></trkpt><trkpt lon="5.840899" lat="51.075061"><ele>28.6</ele><time>2022-08-07T06:32:35.000Z</time></trkpt><trkpt lon="5.841108" lat="51.074726"><ele>28.5</ele><time>2022-08-07T06:32:40.000Z</time></trkpt><trkpt lon="5.841237" lat="51.074544"><ele>28.5</ele><time>2022-08-07T06:32:43.000Z</time></trkpt><trkpt lon="5.841627" lat="51.074032"><ele>28.5</ele><time>2022-08-07T06:32:51.000Z</time></trkpt><trkpt lon="5.841732" lat="51.073907"><ele>28.5</ele><time>2022-08-07T06:32:53.000Z</time></trkpt><trkpt lon="5.841837" lat="51.073786"><ele>28.6</ele><time>2022-08-07T06:32:55.000Z</time></trkpt><trkpt lon="5.842022" lat="51.073565"><ele>28.9</ele><time>2022-08-07T06:32:58.000Z</time></trkpt><trkpt lon="5.842096" lat="51.073472"><ele>29.1</ele><time>2022-08-07T06:33:01.000Z</time></trkpt><trkpt lon="5.842091" lat="51.073388"><ele>29.1</ele><time>2022-08-07T06:33:03.000Z</time></trkpt><trkpt lon="5.841944" lat="51.073357"><ele>29.1</ele><time>2022-08-07T06:33:05.000Z</time></trkpt><trkpt lon="5.841847" lat="51.07336"><ele>28.9</ele><time>2022-08-07T06:33:06.000Z</time></trkpt><trkpt lon="5.841431" lat="51.073387"><ele>28.3</ele><time>2022-08-07T06:33:10.000Z</time></trkpt><trkpt lon="5.840774" lat="51.07335"><ele>28.1</ele><time>2022-08-07T06:33:16.000Z</time></trkpt><trkpt lon="5.840547" lat="51.073336"><ele>28.1</ele><time>2022-08-07T06:33:18.000Z</time></trkpt><trkpt lon="5.839966" lat="51.073287"><ele>28.2</ele><time>2022-08-07T06:33:23.000Z</time></trkpt><trkpt lon="5.839852" lat="51.073275"><ele>28.3</ele><time>2022-08-07T06:33:24.000Z</time></trkpt><trkpt lon="5.838975" lat="51.073176"><ele>28.9</ele><time>2022-08-07T06:33:32.000Z</time></trkpt><trkpt lon="5.838869" lat="51.07315"><ele>29</ele><time>2022-08-07T06:33:33.000Z</time></trkpt><trkpt lon="5.838081" lat="51.072898"><ele>28.5</ele><time>2022-08-07T06:33:41.000Z</time></trkpt><trkpt lon="5.837293" lat="51.07263"><ele>28.1</ele><time>2022-08-07T06:33:49.000Z</time></trkpt><trkpt lon="5.836965" lat="51.072512"><ele>28.1</ele><time>2022-08-07T06:33:52.000Z</time></trkpt><trkpt lon="5.83641" lat="51.072247"><ele>28.2</ele><time>2022-08-07T06:33:58.000Z</time></trkpt><trkpt lon="5.835718" lat="51.071877"><ele>28</ele><time>2022-08-07T06:34:06.000Z</time></trkpt><trkpt lon="5.835286" lat="51.071648"><ele>28</ele><time>2022-08-07T06:34:11.000Z</time></trkpt><trkpt lon="5.834606" lat="51.071287"><ele>28.1</ele><time>2022-08-07T06:34:19.000Z</time></trkpt><trkpt lon="5.834328" lat="51.07114"><ele>28.2</ele><time>2022-08-07T06:34:22.000Z</time></trkpt><trkpt lon="5.833708" lat="51.07083"><ele>28.5</ele><time>2022-08-07T06:34:29.000Z</time></trkpt><trkpt lon="5.83361" lat="51.070797"><ele>28.6</ele><time>2022-08-07T06:34:30.000Z</time></trkpt><trkpt lon="5.833397" lat="51.070742"><ele>28.9</ele><time>2022-08-07T06:34:32.000Z</time></trkpt><trkpt lon="5.833207" lat="51.070722"><ele>29.2</ele><time>2022-08-07T06:34:34.000Z</time></trkpt><trkpt lon="5.832988" lat="51.070717"><ele>29.4</ele><time>2022-08-07T06:34:36.000Z</time></trkpt><trkpt lon="5.832656" lat="51.070746"><ele>29.5</ele><time>2022-08-07T06:34:39.000Z</time></trkpt><trkpt lon="5.831984" lat="51.070765"><ele>28.8</ele><time>2022-08-07T06:34:45.000Z</time></trkpt><trkpt lon="5.831161" lat="51.070695"><ele>28.9</ele><time>2022-08-07T06:34:52.000Z</time></trkpt><trkpt lon="5.830824" lat="51.070641"><ele>29</ele><time>2022-08-07T06:34:54.000Z</time></trkpt><trkpt lon="5.830604" lat="51.070583"><ele>29.1</ele><time>2022-08-07T06:34:57.000Z</time></trkpt><trkpt lon="5.830029" lat="51.070321"><ele>29.2</ele><time>2022-08-07T06:35:03.000Z</time></trkpt><trkpt lon="5.82962" lat="51.070086"><ele>29.2</ele><time>2022-08-07T06:35:08.000Z</time></trkpt><trkpt lon="5.829384" lat="51.069927"><ele>29.1</ele><time>2022-08-07T06:35:11.000Z</time></trkpt><trkpt lon="5.828738" lat="51.069492"><ele>28.8</ele><time>2022-08-07T06:35:19.000Z</time></trkpt><trkpt lon="5.828514" lat="51.069347"><ele>28.7</ele><time>2022-08-07T06:35:22.000Z</time></trkpt><trkpt lon="5.828014" lat="51.069027"><ele>28.5</ele><time>2022-08-07T06:35:28.000Z</time></trkpt><trkpt lon="5.827657" lat="51.068842"><ele>28.4</ele><time>2022-08-07T06:35:32.000Z</time></trkpt><trkpt lon="5.826966" lat="51.068528"><ele>29.1</ele><time>2022-08-07T06:35:40.000Z</time></trkpt><trkpt lon="5.826805" lat="51.068547"><ele>29.1</ele><time>2022-08-07T06:35:42.000Z</time></trkpt><trkpt lon="5.826651" lat="51.068612"><ele>29.1</ele><time>2022-08-07T06:35:44.000Z</time></trkpt><trkpt lon="5.826403" lat="51.068734"><ele>29.2</ele><time>2022-08-07T06:35:47.000Z</time></trkpt><trkpt lon="5.82626" lat="51.068803"><ele>29.3</ele><time>2022-08-07T06:35:49.000Z</time></trkpt><trkpt lon="5.8261" lat="51.068837"><ele>29.4</ele><time>2022-08-07T06:35:51.000Z</time></trkpt><trkpt lon="5.82594" lat="51.068806"><ele>29.4</ele><time>2022-08-07T06:35:53.000Z</time></trkpt><trkpt lon="5.825865" lat="51.068772"><ele>29.4</ele><time>2022-08-07T06:35:54.000Z</time></trkpt><trkpt lon="5.825561" lat="51.068597"><ele>29.2</ele><time>2022-08-07T06:35:58.000Z</time></trkpt><trkpt lon="5.825407" lat="51.06851"><ele>29.1</ele><time>2022-08-07T06:36:00.000Z</time></trkpt><trkpt lon="5.825305" lat="51.068461"><ele>29.1</ele><time>2022-08-07T06:36:01.000Z</time></trkpt><trkpt lon="5.824869" lat="51.068289"><ele>29.1</ele><time>2022-08-07T06:36:06.000Z</time></trkpt><trkpt lon="5.824627" lat="51.06819"><ele>29</ele><time>2022-08-07T06:36:09.000Z</time></trkpt><trkpt lon="5.824498" lat="51.068102"><ele>29</ele><time>2022-08-07T06:36:11.000Z</time></trkpt><trkpt lon="5.824399" lat="51.067981"><ele>28.9</ele><time>2022-08-07T06:36:13.000Z</time></trkpt><trkpt lon="5.824336" lat="51.06784"><ele>28.7</ele><time>2022-08-07T06:36:15.000Z</time></trkpt><trkpt lon="5.824318" lat="51.067682"><ele>28.6</ele><time>2022-08-07T06:36:17.000Z</time></trkpt><trkpt lon="5.824337" lat="51.067541"><ele>28.6</ele><time>2022-08-07T06:36:19.000Z</time></trkpt><trkpt lon="5.824447" lat="51.066942"><ele>28.5</ele><time>2022-08-07T06:36:27.000Z</time></trkpt><trkpt lon="5.824597" lat="51.066399"><ele>28.4</ele><time>2022-08-07T06:36:34.000Z</time></trkpt><trkpt lon="5.824675" lat="51.066119"><ele>28.4</ele><time>2022-08-07T06:36:38.000Z</time></trkpt><trkpt lon="5.824819" lat="51.065621"><ele>28.3</ele><time>2022-08-07T06:36:45.000Z</time></trkpt><trkpt lon="5.824897" lat="51.065356"><ele>28.3</ele><time>2022-08-07T06:36:49.000Z</time></trkpt><trkpt lon="5.824948" lat="51.06515"><ele>28.4</ele><time>2022-08-07T06:36:52.000Z</time></trkpt><trkpt lon="5.824965" lat="51.065081"><ele>28.4</ele><time>2022-08-07T06:36:53.000Z</time></trkpt><trkpt lon="5.825092" lat="51.064599"><ele>28.9</ele><time>2022-08-07T06:37:00.000Z</time></trkpt><trkpt lon="5.82513" lat="51.064492"><ele>29.1</ele><time>2022-08-07T06:37:02.000Z</time></trkpt><trkpt lon="5.825168" lat="51.064454"><ele>29.2</ele><time>2022-08-07T06:37:03.000Z</time></trkpt><trkpt lon="5.825238" lat="51.064389"><ele>29.2</ele><time>2022-08-07T06:37:05.000Z</time></trkpt><trkpt lon="5.825238" lat="51.064347"><ele>29.2</ele><time>2022-08-07T06:37:06.000Z</time></trkpt><trkpt lon="5.825223" lat="51.064247"><ele>29.2</ele><time>2022-08-07T06:37:08.000Z</time></trkpt><trkpt lon="5.825266" lat="51.064138"><ele>29.3</ele><time>2022-08-07T06:37:10.000Z</time></trkpt><trkpt lon="5.825511" lat="51.063859"><ele>29.2</ele><time>2022-08-07T06:37:15.000Z</time></trkpt><trkpt lon="5.825713" lat="51.063522"><ele>29.2</ele><time>2022-08-07T06:37:20.000Z</time></trkpt><trkpt lon="5.825931" lat="51.063119"><ele>29.2</ele><time>2022-08-07T06:37:26.000Z</time></trkpt><trkpt lon="5.825975" lat="51.063053"><ele>29.3</ele><time>2022-08-07T06:37:27.000Z</time></trkpt><trkpt lon="5.826276" lat="51.062603"><ele>29.3</ele><time>2022-08-07T06:37:34.000Z</time></trkpt><trkpt lon="5.826455" lat="51.062329"><ele>29.3</ele><time>2022-08-07T06:37:38.000Z</time></trkpt><trkpt lon="5.826469" lat="51.062255"><ele>29.3</ele><time>2022-08-07T06:37:39.000Z</time></trkpt><trkpt lon="5.8264" lat="51.061816"><ele>29.2</ele><time>2022-08-07T06:37:46.000Z</time></trkpt><trkpt lon="5.82637" lat="51.061668"><ele>29.3</ele><time>2022-08-07T06:37:48.000Z</time></trkpt><trkpt lon="5.826357" lat="51.061595"><ele>29.3</ele><time>2022-08-07T06:37:49.000Z</time></trkpt><trkpt lon="5.826307" lat="51.061239"><ele>29.7</ele><time>2022-08-07T06:37:54.000Z</time></trkpt><trkpt lon="5.826292" lat="51.061107"><ele>29.8</ele><time>2022-08-07T06:37:56.000Z</time></trkpt><trkpt lon="5.826287" lat="51.061058"><ele>29.8</ele><time>2022-08-07T06:37:57.000Z</time></trkpt><trkpt lon="5.826276" lat="51.06102"><ele>29.8</ele><time>2022-08-07T06:37:58.000Z</time></trkpt><trkpt lon="5.826261" lat="51.060907"><ele>29.9</ele><time>2022-08-07T06:38:02.000Z</time></trkpt><trkpt lon="5.826257" lat="51.060816"><ele>29.9</ele><time>2022-08-07T06:38:04.000Z</time></trkpt><trkpt lon="5.826261" lat="51.060706"><ele>29.9</ele><time>2022-08-07T06:38:06.000Z</time></trkpt><trkpt lon="5.826215" lat="51.060417"><ele>30.1</ele><time>2022-08-07T06:38:11.000Z</time></trkpt><trkpt lon="5.82622" lat="51.059978"><ele>30.2</ele><time>2022-08-07T06:38:18.000Z</time></trkpt><trkpt lon="5.826219" lat="51.059912"><ele>30.2</ele><time>2022-08-07T06:38:19.000Z</time></trkpt><trkpt lon="5.826208" lat="51.059304"><ele>29.7</ele><time>2022-08-07T06:38:28.000Z</time></trkpt><trkpt lon="5.826324" lat="51.058742"><ele>29.7</ele><time>2022-08-07T06:38:36.000Z</time></trkpt><trkpt lon="5.826357" lat="51.058607"><ele>29.7</ele><time>2022-08-07T06:38:38.000Z</time></trkpt><trkpt lon="5.826483" lat="51.058058"><ele>29.7</ele><time>2022-08-07T06:38:46.000Z</time></trkpt><trkpt lon="5.826525" lat="51.057846"><ele>29.7</ele><time>2022-08-07T06:38:49.000Z</time></trkpt><trkpt lon="5.826659" lat="51.057298"><ele>29.8</ele><time>2022-08-07T06:38:57.000Z</time></trkpt><trkpt lon="5.826747" lat="51.056948"><ele>29.8</ele><time>2022-08-07T06:39:02.000Z</time></trkpt><trkpt lon="5.826871" lat="51.056388"><ele>29.9</ele><time>2022-08-07T06:39:10.000Z</time></trkpt><trkpt lon="5.826928" lat="51.056107"><ele>30</ele><time>2022-08-07T06:39:14.000Z</time></trkpt><trkpt lon="5.827071" lat="51.055549"><ele>30</ele><time>2022-08-07T06:39:22.000Z</time></trkpt><trkpt lon="5.827121" lat="51.055336"><ele>30</ele><time>2022-08-07T06:39:25.000Z</time></trkpt><trkpt lon="5.827251" lat="51.054853"><ele>30</ele><time>2022-08-07T06:39:32.000Z</time></trkpt><trkpt lon="5.827305" lat="51.054716"><ele>30</ele><time>2022-08-07T06:39:34.000Z</time></trkpt><trkpt lon="5.827344" lat="51.054648"><ele>30</ele><time>2022-08-07T06:39:35.000Z</time></trkpt><trkpt lon="5.827456" lat="51.054428"><ele>30</ele><time>2022-08-07T06:39:38.000Z</time></trkpt><trkpt lon="5.827456" lat="51.054284"><ele>30.1</ele><time>2022-08-07T06:39:40.000Z</time></trkpt><trkpt lon="5.827431" lat="51.054215"><ele>30.2</ele><time>2022-08-07T06:39:41.000Z</time></trkpt><trkpt lon="5.827317" lat="51.053966"><ele>30.1</ele><time>2022-08-07T06:39:44.000Z</time></trkpt><trkpt lon="5.82731" lat="51.053933"><ele>30.1</ele><time>2022-08-07T06:39:45.000Z</time></trkpt><trkpt lon="5.827304" lat="51.0539"><ele>30</ele><time>2022-08-07T06:39:46.000Z</time></trkpt><trkpt lon="5.827288" lat="51.053761"><ele>30</ele><time>2022-08-07T06:39:48.000Z</time></trkpt><trkpt lon="5.827298" lat="51.053619"><ele>29.9</ele><time>2022-08-07T06:39:50.000Z</time></trkpt><trkpt lon="5.827339" lat="51.053331"><ele>29.8</ele><time>2022-08-07T06:39:54.000Z</time></trkpt><trkpt lon="5.827352" lat="51.053257"><ele>29.8</ele><time>2022-08-07T06:39:55.000Z</time></trkpt><trkpt lon="5.827393" lat="51.052969"><ele>29.8</ele><time>2022-08-07T06:39:59.000Z</time></trkpt><trkpt lon="5.827447" lat="51.052391"><ele>30</ele><time>2022-08-07T06:40:07.000Z</time></trkpt><trkpt lon="5.827481" lat="51.052097"><ele>30</ele><time>2022-08-07T06:40:11.000Z</time></trkpt><trkpt lon="5.827505" lat="51.051517"><ele>30.3</ele><time>2022-08-07T06:40:19.000Z</time></trkpt><trkpt lon="5.827507" lat="51.051379"><ele>30.3</ele><time>2022-08-07T06:40:21.000Z</time></trkpt><trkpt lon="5.827504" lat="51.050953"><ele>30.6</ele><time>2022-08-07T06:40:27.000Z</time></trkpt><trkpt lon="5.827505" lat="51.05074"><ele>30.7</ele><time>2022-08-07T06:40:30.000Z</time></trkpt><trkpt lon="5.827507" lat="51.050668"><ele>30.7</ele><time>2022-08-07T06:40:31.000Z</time></trkpt><trkpt lon="5.827518" lat="51.050527"><ele>30.7</ele><time>2022-08-07T06:40:33.000Z</time></trkpt><trkpt lon="5.827586" lat="51.050243"><ele>30.8</ele><time>2022-08-07T06:40:37.000Z</time></trkpt><trkpt lon="5.827576" lat="51.050171"><ele>30.8</ele><time>2022-08-07T06:40:38.000Z</time></trkpt><trkpt lon="5.827528" lat="51.050031"><ele>31</ele><time>2022-08-07T06:40:40.000Z</time></trkpt><trkpt lon="5.827499" lat="51.049826"><ele>31.1</ele><time>2022-08-07T06:40:43.000Z</time></trkpt><trkpt lon="5.827462" lat="51.049273"><ele>31.5</ele><time>2022-08-07T06:40:51.000Z</time></trkpt><trkpt lon="5.82746" lat="51.049131"><ele>31.6</ele><time>2022-08-07T06:40:53.000Z</time></trkpt><trkpt lon="5.827451" lat="51.048566"><ele>31.9</ele><time>2022-08-07T06:41:01.000Z</time></trkpt><trkpt lon="5.82732" lat="51.048032"><ele>32.3</ele><time>2022-08-07T06:41:09.000Z</time></trkpt><trkpt lon="5.827282" lat="51.047938"><ele>32.4</ele><time>2022-08-07T06:41:11.000Z</time></trkpt><trkpt lon="5.827288" lat="51.047857"><ele>32.4</ele><time>2022-08-07T06:41:13.000Z</time></trkpt><trkpt lon="5.827275" lat="51.047768"><ele>32.4</ele><time>2022-08-07T06:41:15.000Z</time></trkpt><trkpt lon="5.827204" lat="51.047667"><ele>32.3</ele><time>2022-08-07T06:41:17.000Z</time></trkpt><trkpt lon="5.827174" lat="51.04761"><ele>32.2</ele><time>2022-08-07T06:41:18.000Z</time></trkpt><trkpt lon="5.827199" lat="51.047498"><ele>32</ele><time>2022-08-07T06:41:20.000Z</time></trkpt><trkpt lon="5.827245" lat="51.047383"><ele>31.8</ele><time>2022-08-07T06:41:22.000Z</time></trkpt><trkpt lon="5.827247" lat="51.047257"><ele>31.7</ele><time>2022-08-07T06:41:24.000Z</time></trkpt><trkpt lon="5.827175" lat="51.046858"><ele>32</ele><time>2022-08-07T06:41:30.000Z</time></trkpt><trkpt lon="5.827133" lat="51.046378"><ele>32.2</ele><time>2022-08-07T06:41:37.000Z</time></trkpt><trkpt lon="5.827139" lat="51.046309"><ele>32.2</ele><time>2022-08-07T06:41:38.000Z</time></trkpt><trkpt lon="5.827235" lat="51.045897"><ele>32.2</ele><time>2022-08-07T06:41:44.000Z</time></trkpt><trkpt lon="5.827389" lat="51.045485"><ele>32.2</ele><time>2022-08-07T06:41:49.000Z</time></trkpt><trkpt lon="5.827443" lat="51.045275"><ele>32.1</ele><time>2022-08-07T06:41:53.000Z</time></trkpt><trkpt lon="5.827459" lat="51.044844"><ele>32.1</ele><time>2022-08-07T06:41:59.000Z</time></trkpt><trkpt lon="5.827353" lat="51.044273"><ele>32.1</ele><time>2022-08-07T06:42:07.000Z</time></trkpt><trkpt lon="5.827284" lat="51.043929"><ele>32.3</ele><time>2022-08-07T06:42:12.000Z</time></trkpt><trkpt lon="5.827171" lat="51.043348"><ele>32.3</ele><time>2022-08-07T06:42:20.000Z</time></trkpt><trkpt lon="5.827145" lat="51.043201"><ele>32.3</ele><time>2022-08-07T06:42:22.000Z</time></trkpt><trkpt lon="5.827109" lat="51.042981"><ele>32.3</ele><time>2022-08-07T06:42:25.000Z</time></trkpt><trkpt lon="5.826998" lat="51.04238"><ele>32.3</ele><time>2022-08-07T06:42:33.000Z</time></trkpt><trkpt lon="5.826898" lat="51.0418"><ele>32.4</ele><time>2022-08-07T06:42:41.000Z</time></trkpt><trkpt lon="5.826877" lat="51.041667"><ele>32.4</ele><time>2022-08-07T06:42:43.000Z</time></trkpt><trkpt lon="5.82683" lat="51.041359"><ele>32.6</ele><time>2022-08-07T06:42:47.000Z</time></trkpt><trkpt lon="5.826809" lat="51.041144"><ele>32.7</ele><time>2022-08-07T06:42:50.000Z</time></trkpt><trkpt lon="5.826803" lat="51.041003"><ele>32.7</ele><time>2022-08-07T06:42:52.000Z</time></trkpt><trkpt lon="5.826798" lat="51.040947"><ele>32.7</ele><time>2022-08-07T06:42:53.000Z</time></trkpt><trkpt lon="5.826741" lat="51.04058"><ele>32.8</ele><time>2022-08-07T06:42:58.000Z</time></trkpt><trkpt lon="5.826749" lat="51.040511"><ele>32.9</ele><time>2022-08-07T06:42:59.000Z</time></trkpt><trkpt lon="5.826789" lat="51.040374"><ele>33</ele><time>2022-08-07T06:43:01.000Z</time></trkpt><trkpt lon="5.82687" lat="51.040246"><ele>33.1</ele><time>2022-08-07T06:43:03.000Z</time></trkpt><trkpt lon="5.827046" lat="51.040094"><ele>33.1</ele><time>2022-08-07T06:43:06.000Z</time></trkpt><trkpt lon="5.827097" lat="51.040062"><ele>33.1</ele><time>2022-08-07T06:43:07.000Z</time></trkpt><trkpt lon="5.827211" lat="51.040005"><ele>33.1</ele><time>2022-08-07T06:43:09.000Z</time></trkpt><trkpt lon="5.827308" lat="51.039984"><ele>33.1</ele><time>2022-08-07T06:43:11.000Z</time></trkpt><trkpt lon="5.827631" lat="51.039942"><ele>33.2</ele><time>2022-08-07T06:43:17.000Z</time></trkpt><trkpt lon="5.827686" lat="51.03994"><ele>33.2</ele><time>2022-08-07T06:43:18.000Z</time></trkpt><trkpt lon="5.827834" lat="51.039955"><ele>33.2</ele><time>2022-08-07T06:43:20.000Z</time></trkpt><trkpt lon="5.827913" lat="51.039949"><ele>33.2</ele><time>2022-08-07T06:43:21.000Z</time></trkpt><trkpt lon="5.828592" lat="51.039845"><ele>33.1</ele><time>2022-08-07T06:43:29.000Z</time></trkpt><trkpt lon="5.829325" lat="51.039734"><ele>33</ele><time>2022-08-07T06:43:38.000Z</time></trkpt><trkpt lon="5.830109" lat="51.039611"><ele>33</ele><time>2022-08-07T06:43:46.000Z</time></trkpt><trkpt lon="5.830955" lat="51.039491"><ele>33</ele><time>2022-08-07T06:43:54.000Z</time></trkpt><trkpt lon="5.831171" lat="51.03946"><ele>33</ele><time>2022-08-07T06:43:56.000Z</time></trkpt><trkpt lon="5.83128" lat="51.039447"><ele>33</ele><time>2022-08-07T06:43:57.000Z</time></trkpt><trkpt lon="5.832051" lat="51.039321"><ele>33.1</ele><time>2022-08-07T06:44:04.000Z</time></trkpt><trkpt lon="5.832605" lat="51.039229"><ele>33.1</ele><time>2022-08-07T06:44:09.000Z</time></trkpt><trkpt lon="5.833384" lat="51.039109"><ele>33.1</ele><time>2022-08-07T06:44:16.000Z</time></trkpt><trkpt lon="5.834124" lat="51.039045"><ele>33.4</ele><time>2022-08-07T06:44:23.000Z</time></trkpt><trkpt lon="5.834504" lat="51.039061"><ele>33.6</ele><time>2022-08-07T06:44:27.000Z</time></trkpt><trkpt lon="5.834579" lat="51.039051"><ele>33.7</ele><time>2022-08-07T06:44:28.000Z</time></trkpt><trkpt lon="5.834645" lat="51.039037"><ele>33.8</ele><time>2022-08-07T06:44:29.000Z</time></trkpt><trkpt lon="5.834726" lat="51.038982"><ele>33.8</ele><time>2022-08-07T06:44:31.000Z</time></trkpt><trkpt lon="5.834828" lat="51.038871"><ele>34</ele><time>2022-08-07T06:44:34.000Z</time></trkpt><trkpt lon="5.834828" lat="51.038871"><ele>34</ele><time>2022-08-07T06:44:35.000Z</time></trkpt><trkpt lon="5.835047" lat="51.038824"><ele>34.1</ele><time>2022-08-07T06:44:39.000Z</time></trkpt><trkpt lon="5.835163" lat="51.038788"><ele>34.2</ele><time>2022-08-07T06:44:41.000Z</time></trkpt><trkpt lon="5.835195" lat="51.038756"><ele>34.3</ele><time>2022-08-07T06:44:42.000Z</time></trkpt><trkpt lon="5.835178" lat="51.038643"><ele>34.3</ele><time>2022-08-07T06:44:45.000Z</time></trkpt><trkpt lon="5.835015" lat="51.03841"><ele>34.2</ele><time>2022-08-07T06:44:50.000Z</time></trkpt><trkpt lon="5.834901" lat="51.038264"><ele>34</ele><time>2022-08-07T06:44:53.000Z</time></trkpt><trkpt lon="5.834828" lat="51.038234"><ele>33.9</ele><time>2022-08-07T06:44:54.000Z</time></trkpt><trkpt lon="5.834742" lat="51.038227"><ele>33.9</ele><time>2022-08-07T06:44:55.000Z</time></trkpt><trkpt lon="5.834565" lat="51.038235"><ele>33.9</ele><time>2022-08-07T06:44:57.000Z</time></trkpt><trkpt lon="5.83441" lat="51.038208"><ele>33.9</ele><time>2022-08-07T06:44:59.000Z</time></trkpt><trkpt lon="5.834369" lat="51.038172"><ele>33.9</ele><time>2022-08-07T06:45:00.000Z</time></trkpt><trkpt lon="5.834352" lat="51.038127"><ele>34</ele><time>2022-08-07T06:45:01.000Z</time></trkpt><trkpt lon="5.834383" lat="51.038037"><ele>34</ele><time>2022-08-07T06:45:03.000Z</time></trkpt><trkpt lon="5.83455" lat="51.037813"><ele>34</ele><time>2022-08-07T06:45:08.000Z</time></trkpt><trkpt lon="5.834653" lat="51.037714"><ele>34</ele><time>2022-08-07T06:45:10.000Z</time></trkpt><trkpt lon="5.834921" lat="51.037354"><ele>33.9</ele><time>2022-08-07T06:45:16.000Z</time></trkpt><trkpt lon="5.835002" lat="51.037123"><ele>33.9</ele><time>2022-08-07T06:45:19.000Z</time></trkpt><trkpt lon="5.835011" lat="51.037067"><ele>33.9</ele><time>2022-08-07T06:45:20.000Z</time></trkpt><trkpt lon="5.835167" lat="51.036505"><ele>33.9</ele><time>2022-08-07T06:45:28.000Z</time></trkpt><trkpt lon="5.835183" lat="51.036437"><ele>33.9</ele><time>2022-08-07T06:45:29.000Z</time></trkpt><trkpt lon="5.835272" lat="51.036235"><ele>33.9</ele><time>2022-08-07T06:45:32.000Z</time></trkpt><trkpt lon="5.835332" lat="51.036094"><ele>33.8</ele><time>2022-08-07T06:45:34.000Z</time></trkpt><trkpt lon="5.835453" lat="51.035882"><ele>33.8</ele><time>2022-08-07T06:45:37.000Z</time></trkpt><trkpt lon="5.835682" lat="51.035495"><ele>33.9</ele><time>2022-08-07T06:45:43.000Z</time></trkpt><trkpt lon="5.835729" lat="51.035456"><ele>33.9</ele><time>2022-08-07T06:45:44.000Z</time></trkpt><trkpt lon="5.835797" lat="51.035406"><ele>34</ele><time>2022-08-07T06:45:45.000Z</time></trkpt><trkpt lon="5.836066" lat="51.035256"><ele>34</ele><time>2022-08-07T06:45:48.000Z</time></trkpt><trkpt lon="5.836209" lat="51.035137"><ele>34</ele><time>2022-08-07T06:45:50.000Z</time></trkpt><trkpt lon="5.836298" lat="51.034992"><ele>34</ele><time>2022-08-07T06:45:52.000Z</time></trkpt><trkpt lon="5.836502" lat="51.034596"><ele>34.2</ele><time>2022-08-07T06:45:58.000Z</time></trkpt><trkpt lon="5.836665" lat="51.034318"><ele>34.4</ele><time>2022-08-07T06:46:02.000Z</time></trkpt><trkpt lon="5.836726" lat="51.034242"><ele>34.5</ele><time>2022-08-07T06:46:03.000Z</time></trkpt><trkpt lon="5.836857" lat="51.034058"><ele>34.7</ele><time>2022-08-07T06:46:06.000Z</time></trkpt><trkpt lon="5.836948" lat="51.033993"><ele>34.8</ele><time>2022-08-07T06:46:07.000Z</time></trkpt><trkpt lon="5.83716" lat="51.033828"><ele>34.9</ele><time>2022-08-07T06:46:10.000Z</time></trkpt><trkpt lon="5.837232" lat="51.033682"><ele>35</ele><time>2022-08-07T06:46:12.000Z</time></trkpt><trkpt lon="5.837137" lat="51.033261"><ele>35.2</ele><time>2022-08-07T06:46:18.000Z</time></trkpt><trkpt lon="5.837048" lat="51.032693"><ele>35.4</ele><time>2022-08-07T06:46:26.000Z</time></trkpt><trkpt lon="5.836959" lat="51.03219"><ele>35.5</ele><time>2022-08-07T06:46:33.000Z</time></trkpt><trkpt lon="5.83689" lat="51.0316"><ele>35.6</ele><time>2022-08-07T06:46:41.000Z</time></trkpt><trkpt lon="5.83688" lat="51.03145"><ele>35.6</ele><time>2022-08-07T06:46:43.000Z</time></trkpt><trkpt lon="5.836795" lat="51.030868"><ele>35.7</ele><time>2022-08-07T06:46:51.000Z</time></trkpt><trkpt lon="5.836789" lat="51.030794"><ele>35.7</ele><time>2022-08-07T06:46:52.000Z</time></trkpt><trkpt lon="5.836703" lat="51.030214"><ele>35.8</ele><time>2022-08-07T06:47:00.000Z</time></trkpt><trkpt lon="5.836682" lat="51.03007"><ele>35.8</ele><time>2022-08-07T06:47:02.000Z</time></trkpt><trkpt lon="5.83658" lat="51.029493"><ele>36.1</ele><time>2022-08-07T06:47:10.000Z</time></trkpt><trkpt lon="5.836517" lat="51.02906"><ele>36.3</ele><time>2022-08-07T06:47:16.000Z</time></trkpt><trkpt lon="5.836507" lat="51.028987"><ele>36.4</ele><time>2022-08-07T06:47:17.000Z</time></trkpt><trkpt lon="5.836496" lat="51.028918"><ele>36.4</ele><time>2022-08-07T06:47:18.000Z</time></trkpt><trkpt lon="5.836453" lat="51.02855"><ele>36.4</ele><time>2022-08-07T06:47:23.000Z</time></trkpt><trkpt lon="5.836445" lat="51.028334"><ele>36.3</ele><time>2022-08-07T06:47:26.000Z</time></trkpt><trkpt lon="5.836472" lat="51.02784"><ele>36.4</ele><time>2022-08-07T06:47:33.000Z</time></trkpt><trkpt lon="5.836646" lat="51.02759"><ele>36.5</ele><time>2022-08-07T06:47:37.000Z</time></trkpt><trkpt lon="5.836842" lat="51.027406"><ele>36.5</ele><time>2022-08-07T06:47:40.000Z</time></trkpt><trkpt lon="5.837015" lat="51.027222"><ele>36.6</ele><time>2022-08-07T06:47:43.000Z</time></trkpt><trkpt lon="5.837498" lat="51.026768"><ele>36.6</ele><time>2022-08-07T06:47:50.000Z</time></trkpt><trkpt lon="5.83757" lat="51.026693"><ele>36.6</ele><time>2022-08-07T06:47:51.000Z</time></trkpt><trkpt lon="5.837888" lat="51.026409"><ele>36.7</ele><time>2022-08-07T06:47:56.000Z</time></trkpt><trkpt lon="5.838208" lat="51.026105"><ele>36.7</ele><time>2022-08-07T06:48:01.000Z</time></trkpt><trkpt lon="5.838273" lat="51.026041"><ele>36.7</ele><time>2022-08-07T06:48:02.000Z</time></trkpt><trkpt lon="5.83849" lat="51.025788"><ele>36.6</ele><time>2022-08-07T06:48:06.000Z</time></trkpt><trkpt lon="5.838722" lat="51.025583"><ele>36.6</ele><time>2022-08-07T06:48:09.000Z</time></trkpt><trkpt lon="5.839178" lat="51.025178"><ele>36.4</ele><time>2022-08-07T06:48:16.000Z</time></trkpt><trkpt lon="5.839463" lat="51.024889"><ele>36.4</ele><time>2022-08-07T06:48:21.000Z</time></trkpt><trkpt lon="5.839567" lat="51.024763"><ele>36.4</ele><time>2022-08-07T06:48:23.000Z</time></trkpt><trkpt lon="5.839984" lat="51.024362"><ele>36.6</ele><time>2022-08-07T06:48:30.000Z</time></trkpt><trkpt lon="5.840052" lat="51.024301"><ele>36.7</ele><time>2022-08-07T06:48:31.000Z</time></trkpt><trkpt lon="5.840292" lat="51.024068"><ele>36.8</ele><time>2022-08-07T06:48:35.000Z</time></trkpt><trkpt lon="5.840626" lat="51.023708"><ele>37.1</ele><time>2022-08-07T06:48:41.000Z</time></trkpt><trkpt lon="5.841131" lat="51.023192"><ele>37</ele><time>2022-08-07T06:48:49.000Z</time></trkpt><trkpt lon="5.841635" lat="51.022751"><ele>36.6</ele><time>2022-08-07T06:48:56.000Z</time></trkpt><trkpt lon="5.841742" lat="51.022626"><ele>36.7</ele><time>2022-08-07T06:48:58.000Z</time></trkpt><trkpt lon="5.842043" lat="51.022338"><ele>37.1</ele><time>2022-08-07T06:49:03.000Z</time></trkpt><trkpt lon="5.842109" lat="51.022279"><ele>37.2</ele><time>2022-08-07T06:49:04.000Z</time></trkpt><trkpt lon="5.842321" lat="51.022046"><ele>37.7</ele><time>2022-08-07T06:49:08.000Z</time></trkpt><trkpt lon="5.842341" lat="51.02193"><ele>37.9</ele><time>2022-08-07T06:49:10.000Z</time></trkpt><trkpt lon="5.842284" lat="51.021888"><ele>38</ele><time>2022-08-07T06:49:11.000Z</time></trkpt><trkpt lon="5.842203" lat="51.021861"><ele>37.9</ele><time>2022-08-07T06:49:12.000Z</time></trkpt><trkpt lon="5.842004" lat="51.021829"><ele>37.8</ele><time>2022-08-07T06:49:14.000Z</time></trkpt><trkpt lon="5.841242" lat="51.021715"><ele>37.8</ele><time>2022-08-07T06:49:21.000Z</time></trkpt><trkpt lon="5.840723" lat="51.021591"><ele>37.8</ele><time>2022-08-07T06:49:26.000Z</time></trkpt><trkpt lon="5.84063" lat="51.021552"><ele>37.8</ele><time>2022-08-07T06:49:27.000Z</time></trkpt><trkpt lon="5.840545" lat="51.021506"><ele>37.8</ele><time>2022-08-07T06:49:28.000Z</time></trkpt><trkpt lon="5.840406" lat="51.02139"><ele>37.8</ele><time>2022-08-07T06:49:30.000Z</time></trkpt><trkpt lon="5.840373" lat="51.021322"><ele>37.8</ele><time>2022-08-07T06:49:31.000Z</time></trkpt><trkpt lon="5.840365" lat="51.021251"><ele>37.8</ele><time>2022-08-07T06:49:32.000Z</time></trkpt><trkpt lon="5.840387" lat="51.021037"><ele>37.9</ele><time>2022-08-07T06:49:35.000Z</time></trkpt><trkpt lon="5.840478" lat="51.020484"><ele>38.1</ele><time>2022-08-07T06:49:43.000Z</time></trkpt><trkpt lon="5.8405" lat="51.020343"><ele>38.3</ele><time>2022-08-07T06:49:45.000Z</time></trkpt><trkpt lon="5.840539" lat="51.020122"><ele>38.4</ele><time>2022-08-07T06:49:48.000Z</time></trkpt><trkpt lon="5.840561" lat="51.019999"><ele>38.5</ele><time>2022-08-07T06:49:50.000Z</time></trkpt><trkpt lon="5.84063" lat="51.019512"><ele>38.9</ele><time>2022-08-07T06:49:57.000Z</time></trkpt><trkpt lon="5.840724" lat="51.019025"><ele>39.2</ele><time>2022-08-07T06:50:04.000Z</time></trkpt><trkpt lon="5.840791" lat="51.018799"><ele>39.5</ele><time>2022-08-07T06:50:07.000Z</time></trkpt><trkpt lon="5.840845" lat="51.018675"><ele>39.5</ele><time>2022-08-07T06:50:09.000Z</time></trkpt><trkpt lon="5.841113" lat="51.018302"><ele>39.8</ele><time>2022-08-07T06:50:15.000Z</time></trkpt><trkpt lon="5.841556" lat="51.017816"><ele>39.6</ele><time>2022-08-07T06:50:23.000Z</time></trkpt><trkpt lon="5.841614" lat="51.017755"><ele>39.6</ele><time>2022-08-07T06:50:24.000Z</time></trkpt><trkpt lon="5.841737" lat="51.01762"><ele>39.5</ele><time>2022-08-07T06:50:26.000Z</time></trkpt><trkpt lon="5.841835" lat="51.017511"><ele>39.5</ele><time>2022-08-07T06:50:28.000Z</time></trkpt><trkpt lon="5.84193" lat="51.017403"><ele>39.5</ele><time>2022-08-07T06:50:30.000Z</time></trkpt><trkpt lon="5.842051" lat="51.017245"><ele>39.6</ele><time>2022-08-07T06:50:33.000Z</time></trkpt><trkpt lon="5.842038" lat="51.017183"><ele>39.7</ele><time>2022-08-07T06:50:34.000Z</time></trkpt><trkpt lon="5.841988" lat="51.017133"><ele>39.8</ele><time>2022-08-07T06:50:35.000Z</time></trkpt><trkpt lon="5.841869" lat="51.017052"><ele>39.8</ele><time>2022-08-07T06:50:37.000Z</time></trkpt><trkpt lon="5.841513" lat="51.016826"><ele>40.1</ele><time>2022-08-07T06:50:42.000Z</time></trkpt><trkpt lon="5.841365" lat="51.016727"><ele>40.2</ele><time>2022-08-07T06:50:44.000Z</time></trkpt><trkpt lon="5.841223" lat="51.016634"><ele>40.2</ele><time>2022-08-07T06:50:46.000Z</time></trkpt><trkpt lon="5.840848" lat="51.016396"><ele>40.4</ele><time>2022-08-07T06:50:51.000Z</time></trkpt><trkpt lon="5.840237" lat="51.015981"><ele>40.7</ele><time>2022-08-07T06:50:59.000Z</time></trkpt><trkpt lon="5.8401" lat="51.015899"><ele>40.8</ele><time>2022-08-07T06:51:01.000Z</time></trkpt><trkpt lon="5.839637" lat="51.015618"><ele>40.6</ele><time>2022-08-07T06:51:07.000Z</time></trkpt><trkpt lon="5.839363" lat="51.015453"><ele>40.8</ele><time>2022-08-07T06:51:11.000Z</time></trkpt><trkpt lon="5.83911" lat="51.015338"><ele>40.8</ele><time>2022-08-07T06:51:14.000Z</time></trkpt><trkpt lon="5.838975" lat="51.015278"><ele>40.8</ele><time>2022-08-07T06:51:16.000Z</time></trkpt><trkpt lon="5.838789" lat="51.01515"><ele>40.7</ele><time>2022-08-07T06:51:19.000Z</time></trkpt><trkpt lon="5.838669" lat="51.015115"><ele>40.7</ele><time>2022-08-07T06:51:21.000Z</time></trkpt><trkpt lon="5.838578" lat="51.015117"><ele>40.7</ele><time>2022-08-07T06:51:22.000Z</time></trkpt><trkpt lon="5.83852" lat="51.015118"><ele>40.7</ele><time>2022-08-07T06:51:23.000Z</time></trkpt><trkpt lon="5.838393" lat="51.015082"><ele>40.7</ele><time>2022-08-07T06:51:25.000Z</time></trkpt><trkpt lon="5.838211" lat="51.014848"><ele>40.4</ele><time>2022-08-07T06:51:30.000Z</time></trkpt><trkpt lon="5.838156" lat="51.014749"><ele>40.4</ele><time>2022-08-07T06:51:32.000Z</time></trkpt><trkpt lon="5.83814" lat="51.014636"><ele>40.4</ele><time>2022-08-07T06:51:34.000Z</time></trkpt><trkpt lon="5.838147" lat="51.014578"><ele>40.5</ele><time>2022-08-07T06:51:35.000Z</time></trkpt><trkpt lon="5.838188" lat="51.014399"><ele>40.6</ele><time>2022-08-07T06:51:38.000Z</time></trkpt><trkpt lon="5.838156" lat="51.014274"><ele>40.7</ele><time>2022-08-07T06:51:40.000Z</time></trkpt><trkpt lon="5.838068" lat="51.014144"><ele>40.7</ele><time>2022-08-07T06:51:42.000Z</time></trkpt><trkpt lon="5.837969" lat="51.014045"><ele>40.8</ele><time>2022-08-07T06:51:44.000Z</time></trkpt><trkpt lon="5.837399" lat="51.013644"><ele>41</ele><time>2022-08-07T06:51:52.000Z</time></trkpt><trkpt lon="5.836765" lat="51.013261"><ele>41.1</ele><time>2022-08-07T06:52:01.000Z</time></trkpt><trkpt lon="5.836694" lat="51.013221"><ele>41.1</ele><time>2022-08-07T06:52:02.000Z</time></trkpt><trkpt lon="5.836422" lat="51.013073"><ele>41.3</ele><time>2022-08-07T06:52:06.000Z</time></trkpt><trkpt lon="5.836333" lat="51.013018"><ele>41.4</ele><time>2022-08-07T06:52:08.000Z</time></trkpt><trkpt lon="5.836313" lat="51.012953"><ele>41.4</ele><time>2022-08-07T06:52:10.000Z</time></trkpt><trkpt lon="5.836358" lat="51.012852"><ele>41.5</ele><time>2022-08-07T06:52:12.000Z</time></trkpt><trkpt lon="5.836574" lat="51.012683"><ele>41.6</ele><time>2022-08-07T06:52:16.000Z</time></trkpt><trkpt lon="5.837151" lat="51.01232"><ele>42.4</ele><time>2022-08-07T06:52:24.000Z</time></trkpt><trkpt lon="5.837372" lat="51.012186"><ele>42.7</ele><time>2022-08-07T06:52:27.000Z</time></trkpt><trkpt lon="5.837444" lat="51.012066"><ele>43</ele><time>2022-08-07T06:52:29.000Z</time></trkpt><trkpt lon="5.837353" lat="51.011964"><ele>43</ele><time>2022-08-07T06:52:31.000Z</time></trkpt><trkpt lon="5.8373" lat="51.011929"><ele>43.1</ele><time>2022-08-07T06:52:32.000Z</time></trkpt><trkpt lon="5.837155" lat="51.011835"><ele>43.4</ele><time>2022-08-07T06:52:34.000Z</time></trkpt><trkpt lon="5.836931" lat="51.011662"><ele>44</ele><time>2022-08-07T06:52:38.000Z</time></trkpt><trkpt lon="5.8364" lat="51.01121"><ele>45.6</ele><time>2022-08-07T06:52:47.000Z</time></trkpt><trkpt lon="5.836109" lat="51.011027"><ele>46.4</ele><time>2022-08-07T06:52:51.000Z</time></trkpt><trkpt lon="5.835883" lat="51.010902"><ele>46.8</ele><time>2022-08-07T06:52:54.000Z</time></trkpt><trkpt lon="5.835485" lat="51.010726"><ele>47.5</ele><time>2022-08-07T06:52:59.000Z</time></trkpt><trkpt lon="5.835326" lat="51.010654"><ele>47.7</ele><time>2022-08-07T06:53:01.000Z</time></trkpt><trkpt lon="5.835177" lat="51.010578"><ele>47.9</ele><time>2022-08-07T06:53:03.000Z</time></trkpt><trkpt lon="5.83465" lat="51.010348"><ele>48.3</ele><time>2022-08-07T06:53:09.000Z</time></trkpt><trkpt lon="5.834091" lat="51.010103"><ele>48.9</ele><time>2022-08-07T06:53:16.000Z</time></trkpt><trkpt lon="5.83385" lat="51.009997"><ele>49.2</ele><time>2022-08-07T06:53:19.000Z</time></trkpt><trkpt lon="5.833788" lat="51.009999"><ele>49.2</ele><time>2022-08-07T06:53:20.000Z</time></trkpt><trkpt lon="5.833721" lat="51.010025"><ele>49.1</ele><time>2022-08-07T06:53:21.000Z</time></trkpt><trkpt lon="5.833666" lat="51.010065"><ele>49.1</ele><time>2022-08-07T06:53:22.000Z</time></trkpt><trkpt lon="5.83326" lat="51.010513"><ele>48.4</ele><time>2022-08-07T06:53:30.000Z</time></trkpt><trkpt lon="5.832848" lat="51.01097"><ele>47.2</ele><time>2022-08-07T06:53:37.000Z</time></trkpt><trkpt lon="5.832379" lat="51.011483"><ele>46.4</ele><time>2022-08-07T06:53:45.000Z</time></trkpt><trkpt lon="5.832317" lat="51.011548"><ele>46.4</ele><time>2022-08-07T06:53:46.000Z</time></trkpt><trkpt lon="5.831913" lat="51.011914"><ele>46.9</ele><time>2022-08-07T06:53:52.000Z</time></trkpt><trkpt lon="5.831774" lat="51.012024"><ele>47.2</ele><time>2022-08-07T06:53:54.000Z</time></trkpt><trkpt lon="5.831258" lat="51.012466"><ele>48.4</ele><time>2022-08-07T06:54:02.000Z</time></trkpt><trkpt lon="5.830723" lat="51.012894"><ele>49.7</ele><time>2022-08-07T06:54:10.000Z</time></trkpt><trkpt lon="5.830298" lat="51.013092"><ele>50</ele><time>2022-08-07T06:54:15.000Z</time></trkpt><trkpt lon="5.829588" lat="51.013283"><ele>49.7</ele><time>2022-08-07T06:54:22.000Z</time></trkpt><trkpt lon="5.82875" lat="51.013454"><ele>48.9</ele><time>2022-08-07T06:54:29.000Z</time></trkpt><trkpt lon="5.828399" lat="51.013506"><ele>48.7</ele><time>2022-08-07T06:54:32.000Z</time></trkpt><trkpt lon="5.827927" lat="51.013569"><ele>48.5</ele><time>2022-08-07T06:54:36.000Z</time></trkpt><trkpt lon="5.827687" lat="51.013594"><ele>48.4</ele><time>2022-08-07T06:54:38.000Z</time></trkpt><trkpt lon="5.826748" lat="51.013698"><ele>48.6</ele><time>2022-08-07T06:54:46.000Z</time></trkpt><trkpt lon="5.8264" lat="51.013734"><ele>48.7</ele><time>2022-08-07T06:54:49.000Z</time></trkpt><trkpt lon="5.82617" lat="51.013759"><ele>48.7</ele><time>2022-08-07T06:54:51.000Z</time></trkpt><trkpt lon="5.825835" lat="51.013796"><ele>48.8</ele><time>2022-08-07T06:54:54.000Z</time></trkpt><trkpt lon="5.825604" lat="51.013819"><ele>48.7</ele><time>2022-08-07T06:54:56.000Z</time></trkpt><trkpt lon="5.825485" lat="51.013831"><ele>48.7</ele><time>2022-08-07T06:54:57.000Z</time></trkpt><trkpt lon="5.825275" lat="51.013852"><ele>48.7</ele><time>2022-08-07T06:54:59.000Z</time></trkpt><trkpt lon="5.825158" lat="51.013867"><ele>48.7</ele><time>2022-08-07T06:55:00.000Z</time></trkpt><trkpt lon="5.824227" lat="51.013961"><ele>48.9</ele><time>2022-08-07T06:55:08.000Z</time></trkpt><trkpt lon="5.823889" lat="51.013995"><ele>49.1</ele><time>2022-08-07T06:55:11.000Z</time></trkpt><trkpt lon="5.823011" lat="51.014063"><ele>49.5</ele><time>2022-08-07T06:55:19.000Z</time></trkpt><trkpt lon="5.822898" lat="51.014064"><ele>49.5</ele><time>2022-08-07T06:55:20.000Z</time></trkpt><trkpt lon="5.822061" lat="51.01407"><ele>49.2</ele><time>2022-08-07T06:55:28.000Z</time></trkpt><trkpt lon="5.821834" lat="51.01408"><ele>49.2</ele><time>2022-08-07T06:55:30.000Z</time></trkpt><trkpt lon="5.82154" lat="51.014059"><ele>48.8</ele><time>2022-08-07T06:55:33.000Z</time></trkpt><trkpt lon="5.820916" lat="51.014014"><ele>48.4</ele><time>2022-08-07T06:55:39.000Z</time></trkpt><trkpt lon="5.820808" lat="51.014002"><ele>48.3</ele><time>2022-08-07T06:55:40.000Z</time></trkpt><trkpt lon="5.820706" lat="51.013994"><ele>48.3</ele><time>2022-08-07T06:55:41.000Z</time></trkpt><trkpt lon="5.820599" lat="51.013981"><ele>48.2</ele><time>2022-08-07T06:55:42.000Z</time></trkpt><trkpt lon="5.820494" lat="51.013959"><ele>48.1</ele><time>2022-08-07T06:55:43.000Z</time></trkpt><trkpt lon="5.820332" lat="51.013887"><ele>48</ele><time>2022-08-07T06:55:45.000Z</time></trkpt><trkpt lon="5.820171" lat="51.013798"><ele>47.7</ele><time>2022-08-07T06:55:47.000Z</time></trkpt><trkpt lon="5.819891" lat="51.013685"><ele>47.3</ele><time>2022-08-07T06:55:50.000Z</time></trkpt><trkpt lon="5.819205" lat="51.013459"><ele>46.8</ele><time>2022-08-07T06:55:57.000Z</time></trkpt><trkpt lon="5.818911" lat="51.013366"><ele>46.9</ele><time>2022-08-07T06:56:00.000Z</time></trkpt><trkpt lon="5.818531" lat="51.013215"><ele>47.1</ele><time>2022-08-07T06:56:04.000Z</time></trkpt><trkpt lon="5.818143" lat="51.013069"><ele>47</ele><time>2022-08-07T06:56:08.000Z</time></trkpt><trkpt lon="5.818035" lat="51.013055"><ele>46.9</ele><time>2022-08-07T06:56:09.000Z</time></trkpt><trkpt lon="5.817926" lat="51.013053"><ele>46.9</ele><time>2022-08-07T06:56:10.000Z</time></trkpt><trkpt lon="5.817718" lat="51.013095"><ele>46.6</ele><time>2022-08-07T06:56:12.000Z</time></trkpt><trkpt lon="5.817546" lat="51.01318"><ele>46.3</ele><time>2022-08-07T06:56:14.000Z</time></trkpt><trkpt lon="5.817426" lat="51.013274"><ele>46</ele><time>2022-08-07T06:56:16.000Z</time></trkpt><trkpt lon="5.817147" lat="51.013512"><ele>44.8</ele><time>2022-08-07T06:56:21.000Z</time></trkpt><trkpt lon="5.817079" lat="51.013531"><ele>44.5</ele><time>2022-08-07T06:56:22.000Z</time></trkpt><trkpt lon="5.81701" lat="51.013522"><ele>44.5</ele><time>2022-08-07T06:56:23.000Z</time></trkpt><trkpt lon="5.816951" lat="51.013484"><ele>44.5</ele><time>2022-08-07T06:56:24.000Z</time></trkpt><trkpt lon="5.816911" lat="51.013429"><ele>44.5</ele><time>2022-08-07T06:56:25.000Z</time></trkpt><trkpt lon="5.816846" lat="51.013223"><ele>44.6</ele><time>2022-08-07T06:56:28.000Z</time></trkpt><trkpt lon="5.81677" lat="51.012818"><ele>45</ele><time>2022-08-07T06:56:34.000Z</time></trkpt><trkpt lon="5.816737" lat="51.012748"><ele>45.1</ele><time>2022-08-07T06:56:35.000Z</time></trkpt><trkpt lon="5.816551" lat="51.012494"><ele>45.5</ele><time>2022-08-07T06:56:39.000Z</time></trkpt><trkpt lon="5.816332" lat="51.012187"><ele>46.1</ele><time>2022-08-07T06:56:44.000Z</time></trkpt><trkpt lon="5.816277" lat="51.012128"><ele>46.2</ele><time>2022-08-07T06:56:45.000Z</time></trkpt><trkpt lon="5.815896" lat="51.011714"><ele>46.9</ele><time>2022-08-07T06:56:52.000Z</time></trkpt><trkpt lon="5.815762" lat="51.01153"><ele>47.2</ele><time>2022-08-07T06:56:55.000Z</time></trkpt><trkpt lon="5.815683" lat="51.011345"><ele>47.6</ele><time>2022-08-07T06:56:58.000Z</time></trkpt><trkpt lon="5.815636" lat="51.011137"><ele>48</ele><time>2022-08-07T06:57:01.000Z</time></trkpt><trkpt lon="5.815619" lat="51.011005"><ele>48.3</ele><time>2022-08-07T06:57:03.000Z</time></trkpt><trkpt lon="5.815615" lat="51.010938"><ele>48.4</ele><time>2022-08-07T06:57:04.000Z</time></trkpt><trkpt lon="5.815619" lat="51.010808"><ele>48.7</ele><time>2022-08-07T06:57:06.000Z</time></trkpt><trkpt lon="5.815667" lat="51.010255"><ele>49.3</ele><time>2022-08-07T06:57:14.000Z</time></trkpt><trkpt lon="5.815651" lat="51.010114"><ele>49.5</ele><time>2022-08-07T06:57:16.000Z</time></trkpt><trkpt lon="5.815584" lat="51.00991"><ele>49.8</ele><time>2022-08-07T06:57:19.000Z</time></trkpt><trkpt lon="5.815526" lat="51.009775"><ele>50</ele><time>2022-08-07T06:57:21.000Z</time></trkpt><trkpt lon="5.815269" lat="51.009384"><ele>50.8</ele><time>2022-08-07T06:57:27.000Z</time></trkpt><trkpt lon="5.815056" lat="51.009146"><ele>51.4</ele><time>2022-08-07T06:57:31.000Z</time></trkpt><trkpt lon="5.814722" lat="51.008798"><ele>52.4</ele><time>2022-08-07T06:57:37.000Z</time></trkpt><trkpt lon="5.814245" lat="51.008348"><ele>53.3</ele><time>2022-08-07T06:57:45.000Z</time></trkpt><trkpt lon="5.81412" lat="51.008233"><ele>53.5</ele><time>2022-08-07T06:57:47.000Z</time></trkpt><trkpt lon="5.813743" lat="51.007885"><ele>53.9</ele><time>2022-08-07T06:57:53.000Z</time></trkpt><trkpt lon="5.813441" lat="51.007597"><ele>54.3</ele><time>2022-08-07T06:57:58.000Z</time></trkpt><trkpt lon="5.812944" lat="51.007143"><ele>54.3</ele><time>2022-08-07T06:58:06.000Z</time></trkpt><trkpt lon="5.812626" lat="51.006833"><ele>54.3</ele><time>2022-08-07T06:58:11.000Z</time></trkpt><trkpt lon="5.812112" lat="51.006355"><ele>54.8</ele><time>2022-08-07T06:58:19.000Z</time></trkpt><trkpt lon="5.811992" lat="51.006236"><ele>55</ele><time>2022-08-07T06:58:21.000Z</time></trkpt><trkpt lon="5.811501" lat="51.00576"><ele>55.7</ele><time>2022-08-07T06:58:29.000Z</time></trkpt><trkpt lon="5.811259" lat="51.005383"><ele>56.2</ele><time>2022-08-07T06:58:35.000Z</time></trkpt><trkpt lon="5.811168" lat="51.005078"><ele>56.4</ele><time>2022-08-07T06:58:40.000Z</time></trkpt><trkpt lon="5.81102" lat="51.004513"><ele>56.9</ele><time>2022-08-07T06:58:49.000Z</time></trkpt><trkpt lon="5.810894" lat="51.004057"><ele>56.9</ele><time>2022-08-07T06:58:56.000Z</time></trkpt><trkpt lon="5.810854" lat="51.003923"><ele>56.8</ele><time>2022-08-07T06:58:58.000Z</time></trkpt><trkpt lon="5.810698" lat="51.003392"><ele>56.6</ele><time>2022-08-07T06:59:06.000Z</time></trkpt><trkpt lon="5.810536" lat="51.002789"><ele>55.7</ele><time>2022-08-07T06:59:15.000Z</time></trkpt><trkpt lon="5.810397" lat="51.002307"><ele>55.3</ele><time>2022-08-07T06:59:22.000Z</time></trkpt><trkpt lon="5.810319" lat="51.002029"><ele>55.2</ele><time>2022-08-07T06:59:26.000Z</time></trkpt><trkpt lon="5.810233" lat="51.001738"><ele>55.2</ele><time>2022-08-07T06:59:30.000Z</time></trkpt><trkpt lon="5.810219" lat="51.001683"><ele>55.3</ele><time>2022-08-07T06:59:31.000Z</time></trkpt><trkpt lon="5.810062" lat="51.001137"><ele>55.5</ele><time>2022-08-07T06:59:39.000Z</time></trkpt><trkpt lon="5.810028" lat="51.001014"><ele>55.3</ele><time>2022-08-07T06:59:41.000Z</time></trkpt><trkpt lon="5.809986" lat="51.000881"><ele>55.2</ele><time>2022-08-07T06:59:43.000Z</time></trkpt><trkpt lon="5.809914" lat="51.000612"><ele>55.1</ele><time>2022-08-07T06:59:47.000Z</time></trkpt><trkpt lon="5.809765" lat="51.000076"><ele>55</ele><time>2022-08-07T06:59:55.000Z</time></trkpt><trkpt lon="5.809743" lat="50.999997"><ele>55</ele><time>2022-08-07T06:59:56.000Z</time></trkpt><trkpt lon="5.809649" lat="50.999678"><ele>55</ele><time>2022-08-07T07:00:01.000Z</time></trkpt><trkpt lon="5.809521" lat="50.999265"><ele>55</ele><time>2022-08-07T07:00:07.000Z</time></trkpt><trkpt lon="5.809372" lat="50.99873"><ele>54.9</ele><time>2022-08-07T07:00:15.000Z</time></trkpt><trkpt lon="5.809333" lat="50.998595"><ele>54.8</ele><time>2022-08-07T07:00:17.000Z</time></trkpt><trkpt lon="5.809183" lat="50.998073"><ele>54.6</ele><time>2022-08-07T07:00:25.000Z</time></trkpt><trkpt lon="5.809002" lat="50.997487"><ele>55.1</ele><time>2022-08-07T07:00:34.000Z</time></trkpt><trkpt lon="5.808977" lat="50.997427"><ele>55.1</ele><time>2022-08-07T07:00:35.000Z</time></trkpt><trkpt lon="5.808796" lat="50.997095"><ele>55.9</ele><time>2022-08-07T07:00:41.000Z</time></trkpt><trkpt lon="5.808666" lat="50.996853"><ele>56.5</ele><time>2022-08-07T07:00:47.000Z</time></trkpt><trkpt lon="5.808589" lat="50.996805"><ele>56.4</ele><time>2022-08-07T07:00:49.000Z</time></trkpt><trkpt lon="5.80853" lat="50.996808"><ele>56.4</ele><time>2022-08-07T07:00:50.000Z</time></trkpt><trkpt lon="5.808171" lat="50.996894"><ele>56.1</ele><time>2022-08-07T07:00:54.000Z</time></trkpt><trkpt lon="5.80757" lat="50.997029"><ele>55.8</ele><time>2022-08-07T07:01:00.000Z</time></trkpt><trkpt lon="5.806712" lat="50.99722"><ele>55.9</ele><time>2022-08-07T07:01:08.000Z</time></trkpt><trkpt lon="5.806602" lat="50.997246"><ele>55.9</ele><time>2022-08-07T07:01:09.000Z</time></trkpt><trkpt lon="5.806298" lat="50.997313"><ele>56</ele><time>2022-08-07T07:01:12.000Z</time></trkpt><trkpt lon="5.805992" lat="50.997378"><ele>56</ele><time>2022-08-07T07:01:15.000Z</time></trkpt><trkpt lon="5.805596" lat="50.997474"><ele>55.9</ele><time>2022-08-07T07:01:19.000Z</time></trkpt><trkpt lon="5.804755" lat="50.997653"><ele>55.9</ele><time>2022-08-07T07:01:27.000Z</time></trkpt><trkpt lon="5.804562" lat="50.997688"><ele>55.8</ele><time>2022-08-07T07:01:29.000Z</time></trkpt><trkpt lon="5.803755" lat="50.997849"><ele>55.8</ele><time>2022-08-07T07:01:37.000Z</time></trkpt><trkpt lon="5.802951" lat="50.998016"><ele>55.7</ele><time>2022-08-07T07:01:45.000Z</time></trkpt><trkpt lon="5.80222" lat="50.998167"><ele>55.1</ele><time>2022-08-07T07:01:52.000Z</time></trkpt><trkpt lon="5.801369" lat="50.998346"><ele>54.6</ele><time>2022-08-07T07:02:00.000Z</time></trkpt><trkpt lon="5.801266" lat="50.998369"><ele>54.6</ele><time>2022-08-07T07:02:01.000Z</time></trkpt><trkpt lon="5.800647" lat="50.998501"><ele>54.8</ele><time>2022-08-07T07:02:07.000Z</time></trkpt><trkpt lon="5.799825" lat="50.998656"><ele>54.8</ele><time>2022-08-07T07:02:15.000Z</time></trkpt><trkpt lon="5.799724" lat="50.998678"><ele>54.7</ele><time>2022-08-07T07:02:16.000Z</time></trkpt><trkpt lon="5.798997" lat="50.998829"><ele>54.4</ele><time>2022-08-07T07:02:23.000Z</time></trkpt><trkpt lon="5.798576" lat="50.99892"><ele>54.1</ele><time>2022-08-07T07:02:27.000Z</time></trkpt><trkpt lon="5.798157" lat="50.999009"><ele>54</ele><time>2022-08-07T07:02:31.000Z</time></trkpt><trkpt lon="5.797646" lat="50.999106"><ele>54.1</ele><time>2022-08-07T07:02:36.000Z</time></trkpt><trkpt lon="5.797149" lat="50.999206"><ele>54.2</ele><time>2022-08-07T07:02:41.000Z</time></trkpt><trkpt lon="5.79685" lat="50.999272"><ele>54.3</ele><time>2022-08-07T07:02:44.000Z</time></trkpt><trkpt lon="5.796551" lat="50.999336"><ele>54.3</ele><time>2022-08-07T07:02:47.000Z</time></trkpt><trkpt lon="5.795752" lat="50.999505"><ele>54.2</ele><time>2022-08-07T07:02:55.000Z</time></trkpt><trkpt lon="5.795351" lat="50.999589"><ele>54.3</ele><time>2022-08-07T07:02:59.000Z</time></trkpt><trkpt lon="5.795052" lat="50.999654"><ele>54.3</ele><time>2022-08-07T07:03:02.000Z</time></trkpt><trkpt lon="5.794462" lat="50.999783"><ele>54.4</ele><time>2022-08-07T07:03:08.000Z</time></trkpt><trkpt lon="5.79436" lat="50.999804"><ele>54.4</ele><time>2022-08-07T07:03:09.000Z</time></trkpt><trkpt lon="5.793955" lat="50.999888"><ele>54.4</ele><time>2022-08-07T07:03:13.000Z</time></trkpt><trkpt lon="5.793527" lat="50.999975"><ele>54.4</ele><time>2022-08-07T07:03:17.000Z</time></trkpt><trkpt lon="5.793144" lat="51.000053"><ele>54.5</ele><time>2022-08-07T07:03:21.000Z</time></trkpt><trkpt lon="5.792648" lat="51.000153"><ele>54.3</ele><time>2022-08-07T07:03:26.000Z</time></trkpt><trkpt lon="5.792341" lat="51.000213"><ele>54</ele><time>2022-08-07T07:03:29.000Z</time></trkpt><trkpt lon="5.791833" lat="51.000332"><ele>53.8</ele><time>2022-08-07T07:03:34.000Z</time></trkpt><trkpt lon="5.791259" lat="51.000503"><ele>54.1</ele><time>2022-08-07T07:03:40.000Z</time></trkpt><trkpt lon="5.790946" lat="51.000599"><ele>54.7</ele><time>2022-08-07T07:03:44.000Z</time></trkpt><trkpt lon="5.790736" lat="51.000627"><ele>55</ele><time>2022-08-07T07:03:47.000Z</time></trkpt><trkpt lon="5.79068" lat="51.000648"><ele>55</ele><time>2022-08-07T07:03:48.000Z</time></trkpt><trkpt lon="5.790642" lat="51.00068"><ele>55</ele><time>2022-08-07T07:03:49.000Z</time></trkpt><trkpt lon="5.790566" lat="51.000752"><ele>55</ele><time>2022-08-07T07:03:51.000Z</time></trkpt><trkpt lon="5.790264" lat="51.000846"><ele>55.2</ele><time>2022-08-07T07:03:55.000Z</time></trkpt><trkpt lon="5.789525" lat="51.000999"><ele>55.4</ele><time>2022-08-07T07:04:03.000Z</time></trkpt><trkpt lon="5.789421" lat="51.001015"><ele>55.5</ele><time>2022-08-07T07:04:04.000Z</time></trkpt><trkpt lon="5.789107" lat="51.001035"><ele>55.1</ele><time>2022-08-07T07:04:07.000Z</time></trkpt><trkpt lon="5.788206" lat="51.001091"><ele>54</ele><time>2022-08-07T07:04:15.000Z</time></trkpt><trkpt lon="5.788086" lat="51.001104"><ele>53.9</ele><time>2022-08-07T07:04:16.000Z</time></trkpt><trkpt lon="5.787425" lat="51.00121"><ele>54</ele><time>2022-08-07T07:04:22.000Z</time></trkpt><trkpt lon="5.786595" lat="51.001384"><ele>54.5</ele><time>2022-08-07T07:04:30.000Z</time></trkpt><trkpt lon="5.786489" lat="51.001407"><ele>54.5</ele><time>2022-08-07T07:04:31.000Z</time></trkpt><trkpt lon="5.786275" lat="51.001453"><ele>54.5</ele><time>2022-08-07T07:04:33.000Z</time></trkpt><trkpt lon="5.785507" lat="51.001603"><ele>54</ele><time>2022-08-07T07:04:40.000Z</time></trkpt><trkpt lon="5.784649" lat="51.001784"><ele>53.6</ele><time>2022-08-07T07:04:48.000Z</time></trkpt><trkpt lon="5.784227" lat="51.001877"><ele>53.4</ele><time>2022-08-07T07:04:52.000Z</time></trkpt><trkpt lon="5.783378" lat="51.002066"><ele>53</ele><time>2022-08-07T07:05:00.000Z</time></trkpt><trkpt lon="5.78327" lat="51.002087"><ele>53</ele><time>2022-08-07T07:05:01.000Z</time></trkpt><trkpt lon="5.782423" lat="51.002269"><ele>52.7</ele><time>2022-08-07T07:05:09.000Z</time></trkpt><trkpt lon="5.782291" lat="51.002293"><ele>52.7</ele><time>2022-08-07T07:05:10.000Z</time></trkpt><trkpt lon="5.781556" lat="51.002439"><ele>52.4</ele><time>2022-08-07T07:05:17.000Z</time></trkpt><trkpt lon="5.781231" lat="51.002501"><ele>52.3</ele><time>2022-08-07T07:05:20.000Z</time></trkpt><trkpt lon="5.780405" lat="51.002667"><ele>52.8</ele><time>2022-08-07T07:05:28.000Z</time></trkpt><trkpt lon="5.779697" lat="51.00281"><ele>53.5</ele><time>2022-08-07T07:05:35.000Z</time></trkpt><trkpt lon="5.779028" lat="51.002957"><ele>54.3</ele><time>2022-08-07T07:05:42.000Z</time></trkpt><trkpt lon="5.77875" lat="51.003012"><ele>54.7</ele><time>2022-08-07T07:05:45.000Z</time></trkpt><trkpt lon="5.778601" lat="51.003048"><ele>54.9</ele><time>2022-08-07T07:05:47.000Z</time></trkpt><trkpt lon="5.778405" lat="51.00309"><ele>55</ele><time>2022-08-07T07:05:50.000Z</time></trkpt><trkpt lon="5.778344" lat="51.003109"><ele>55</ele><time>2022-08-07T07:05:51.000Z</time></trkpt><trkpt lon="5.778242" lat="51.003169"><ele>55</ele><time>2022-08-07T07:05:53.000Z</time></trkpt><trkpt lon="5.778048" lat="51.003266"><ele>55.1</ele><time>2022-08-07T07:05:56.000Z</time></trkpt><trkpt lon="5.777875" lat="51.00332"><ele>55</ele><time>2022-08-07T07:05:58.000Z</time></trkpt><trkpt lon="5.777267" lat="51.003451"><ele>54.3</ele><time>2022-08-07T07:06:04.000Z</time></trkpt><trkpt lon="5.776638" lat="51.003582"><ele>53.7</ele><time>2022-08-07T07:06:10.000Z</time></trkpt><trkpt lon="5.77653" lat="51.003585"><ele>53.6</ele><time>2022-08-07T07:06:11.000Z</time></trkpt><trkpt lon="5.776434" lat="51.003562"><ele>53.4</ele><time>2022-08-07T07:06:12.000Z</time></trkpt><trkpt lon="5.776351" lat="51.00352"><ele>53.1</ele><time>2022-08-07T07:06:13.000Z</time></trkpt><trkpt lon="5.776276" lat="51.003469"><ele>52.7</ele><time>2022-08-07T07:06:14.000Z</time></trkpt><trkpt lon="5.77597" lat="51.003231"><ele>51.6</ele><time>2022-08-07T07:06:18.000Z</time></trkpt><trkpt lon="5.775466" lat="51.002777"><ele>50.6</ele><time>2022-08-07T07:06:26.000Z</time></trkpt><trkpt lon="5.775411" lat="51.002719"><ele>50.5</ele><time>2022-08-07T07:06:27.000Z</time></trkpt><trkpt lon="5.775164" lat="51.002419"><ele>50</ele><time>2022-08-07T07:06:32.000Z</time></trkpt><trkpt lon="5.775044" lat="51.002224"><ele>49.7</ele><time>2022-08-07T07:06:35.000Z</time></trkpt><trkpt lon="5.774791" lat="51.001803"><ele>49.1</ele><time>2022-08-07T07:06:41.000Z</time></trkpt><trkpt lon="5.774459" lat="51.001245"><ele>48.5</ele><time>2022-08-07T07:06:49.000Z</time></trkpt><trkpt lon="5.774132" lat="51.000693"><ele>48.3</ele><time>2022-08-07T07:06:57.000Z</time></trkpt><trkpt lon="5.774051" lat="51.000555"><ele>48.3</ele><time>2022-08-07T07:06:59.000Z</time></trkpt><trkpt lon="5.773972" lat="51.000419"><ele>48.2</ele><time>2022-08-07T07:07:01.000Z</time></trkpt><trkpt lon="5.773738" lat="51.000024"><ele>48</ele><time>2022-08-07T07:07:07.000Z</time></trkpt><trkpt lon="5.773673" lat="50.999889"><ele>48.1</ele><time>2022-08-07T07:07:09.000Z</time></trkpt><trkpt lon="5.773551" lat="50.999611"><ele>48</ele><time>2022-08-07T07:07:13.000Z</time></trkpt><trkpt lon="5.773498" lat="50.999472"><ele>48</ele><time>2022-08-07T07:07:15.000Z</time></trkpt><trkpt lon="5.773425" lat="50.999249"><ele>48</ele><time>2022-08-07T07:07:18.000Z</time></trkpt><trkpt lon="5.773268" lat="50.998852"><ele>47.9</ele><time>2022-08-07T07:07:24.000Z</time></trkpt><trkpt lon="5.773252" lat="50.998801"><ele>47.9</ele><time>2022-08-07T07:07:25.000Z</time></trkpt><trkpt lon="5.773095" lat="50.998326"><ele>47.8</ele><time>2022-08-07T07:07:32.000Z</time></trkpt><trkpt lon="5.772973" lat="50.99791"><ele>47.9</ele><time>2022-08-07T07:07:38.000Z</time></trkpt><trkpt lon="5.772907" lat="50.997715"><ele>47.9</ele><time>2022-08-07T07:07:41.000Z</time></trkpt><trkpt lon="5.772696" lat="50.997172"><ele>47.9</ele><time>2022-08-07T07:07:49.000Z</time></trkpt><trkpt lon="5.772548" lat="50.996628"><ele>47.7</ele><time>2022-08-07T07:07:57.000Z</time></trkpt><trkpt lon="5.772503" lat="50.99642"><ele>47.6</ele><time>2022-08-07T07:08:00.000Z</time></trkpt><trkpt lon="5.772384" lat="50.995937"><ele>47.4</ele><time>2022-08-07T07:08:07.000Z</time></trkpt><trkpt lon="5.772283" lat="50.995389"><ele>47.1</ele><time>2022-08-07T07:08:15.000Z</time></trkpt><trkpt lon="5.772271" lat="50.995167"><ele>46.9</ele><time>2022-08-07T07:08:18.000Z</time></trkpt><trkpt lon="5.772259" lat="50.99462"><ele>46.4</ele><time>2022-08-07T07:08:26.000Z</time></trkpt><trkpt lon="5.772267" lat="50.994333"><ele>46.2</ele><time>2022-08-07T07:08:30.000Z</time></trkpt><trkpt lon="5.772328" lat="50.993771"><ele>46.1</ele><time>2022-08-07T07:08:38.000Z</time></trkpt><trkpt lon="5.772346" lat="50.993223"><ele>46.1</ele><time>2022-08-07T07:08:46.000Z</time></trkpt><trkpt lon="5.772344" lat="50.992735"><ele>46.1</ele><time>2022-08-07T07:08:53.000Z</time></trkpt><trkpt lon="5.772343" lat="50.992597"><ele>46.1</ele><time>2022-08-07T07:08:55.000Z</time></trkpt><trkpt lon="5.772249" lat="50.992048"><ele>46.2</ele><time>2022-08-07T07:09:03.000Z</time></trkpt><trkpt lon="5.77213" lat="50.991711"><ele>46.5</ele><time>2022-08-07T07:09:08.000Z</time></trkpt><trkpt lon="5.772107" lat="50.991646"><ele>46.5</ele><time>2022-08-07T07:09:09.000Z</time></trkpt><trkpt lon="5.772006" lat="50.991377"><ele>46.8</ele><time>2022-08-07T07:09:13.000Z</time></trkpt><trkpt lon="5.771871" lat="50.99112"><ele>47.2</ele><time>2022-08-07T07:09:17.000Z</time></trkpt><trkpt lon="5.771769" lat="50.990883"><ele>47.6</ele><time>2022-08-07T07:09:21.000Z</time></trkpt><trkpt lon="5.771725" lat="50.990697"><ele>48.1</ele><time>2022-08-07T07:09:24.000Z</time></trkpt><trkpt lon="5.771666" lat="50.990636"><ele>48.2</ele><time>2022-08-07T07:09:25.000Z</time></trkpt><trkpt lon="5.771597" lat="50.990611"><ele>48.2</ele><time>2022-08-07T07:09:26.000Z</time></trkpt><trkpt lon="5.771377" lat="50.99059"><ele>48.3</ele><time>2022-08-07T07:09:28.000Z</time></trkpt><trkpt lon="5.771176" lat="50.990596"><ele>48.6</ele><time>2022-08-07T07:09:30.000Z</time></trkpt><trkpt lon="5.770652" lat="50.990607"><ele>49.6</ele><time>2022-08-07T07:09:35.000Z</time></trkpt><trkpt lon="5.770353" lat="50.990619"><ele>50.3</ele><time>2022-08-07T07:09:38.000Z</time></trkpt><trkpt lon="5.770068" lat="50.990643"><ele>51</ele><time>2022-08-07T07:09:41.000Z</time></trkpt><trkpt lon="5.769972" lat="50.990658"><ele>51.2</ele><time>2022-08-07T07:09:42.000Z</time></trkpt><trkpt lon="5.769872" lat="50.990671"><ele>51.5</ele><time>2022-08-07T07:09:43.000Z</time></trkpt><trkpt lon="5.769755" lat="50.990688"><ele>51.8</ele><time>2022-08-07T07:09:44.000Z</time></trkpt><trkpt lon="5.769591" lat="50.990727"><ele>52.2</ele><time>2022-08-07T07:09:46.000Z</time></trkpt><trkpt lon="5.76951" lat="50.990757"><ele>52.3</ele><time>2022-08-07T07:09:47.000Z</time></trkpt><trkpt lon="5.769426" lat="50.990789"><ele>52.5</ele><time>2022-08-07T07:09:48.000Z</time></trkpt><trkpt lon="5.76908" lat="50.990909"><ele>53</ele><time>2022-08-07T07:09:52.000Z</time></trkpt><trkpt lon="5.768815" lat="50.991005"><ele>52.9</ele><time>2022-08-07T07:09:55.000Z</time></trkpt><trkpt lon="5.768043" lat="50.99126"><ele>52.7</ele><time>2022-08-07T07:10:04.000Z</time></trkpt><trkpt lon="5.768005" lat="50.991306"><ele>52.7</ele><time>2022-08-07T07:10:06.000Z</time></trkpt><trkpt lon="5.768001" lat="50.991409"><ele>52.6</ele><time>2022-08-07T07:10:08.000Z</time></trkpt><trkpt lon="5.768166" lat="50.991584"><ele>51.9</ele><time>2022-08-07T07:10:11.000Z</time></trkpt><trkpt lon="5.768446" lat="50.991879"><ele>50.5</ele><time>2022-08-07T07:10:16.000Z</time></trkpt><trkpt lon="5.76874" lat="50.992216"><ele>49.2</ele><time>2022-08-07T07:10:21.000Z</time></trkpt><trkpt lon="5.769076" lat="50.992644"><ele>47.7</ele><time>2022-08-07T07:10:27.000Z</time></trkpt><trkpt lon="5.769411" lat="50.993147"><ele>46.3</ele><time>2022-08-07T07:10:34.000Z</time></trkpt><trkpt lon="5.769484" lat="50.993378"><ele>46</ele><time>2022-08-07T07:10:37.000Z</time></trkpt><trkpt lon="5.769463" lat="50.993532"><ele>45.8</ele><time>2022-08-07T07:10:39.000Z</time></trkpt><trkpt lon="5.769391" lat="50.993681"><ele>45.6</ele><time>2022-08-07T07:10:41.000Z</time></trkpt><trkpt lon="5.769275" lat="50.993814"><ele>45.6</ele><time>2022-08-07T07:10:43.000Z</time></trkpt><trkpt lon="5.769074" lat="50.993975"><ele>45.5</ele><time>2022-08-07T07:10:46.000Z</time></trkpt><trkpt lon="5.768997" lat="50.994008"><ele>45.5</ele><time>2022-08-07T07:10:47.000Z</time></trkpt><trkpt lon="5.76891" lat="50.994019"><ele>45.4</ele><time>2022-08-07T07:10:48.000Z</time></trkpt><trkpt lon="5.768827" lat="50.994"><ele>45.4</ele><time>2022-08-07T07:10:49.000Z</time></trkpt><trkpt lon="5.768747" lat="50.993965"><ele>45.3</ele><time>2022-08-07T07:10:50.000Z</time></trkpt><trkpt lon="5.768591" lat="50.993853"><ele>45.1</ele><time>2022-08-07T07:10:52.000Z</time></trkpt><trkpt lon="5.768389" lat="50.993574"><ele>44.7</ele><time>2022-08-07T07:10:56.000Z</time></trkpt><trkpt lon="5.768211" lat="50.99324"><ele>44.1</ele><time>2022-08-07T07:11:01.000Z</time></trkpt><trkpt lon="5.768147" lat="50.993109"><ele>43.9</ele><time>2022-08-07T07:11:03.000Z</time></trkpt><trkpt lon="5.768054" lat="50.992983"><ele>43.6</ele><time>2022-08-07T07:11:05.000Z</time></trkpt><trkpt lon="5.767866" lat="50.992805"><ele>43</ele><time>2022-08-07T07:11:08.000Z</time></trkpt><trkpt lon="5.767603" lat="50.992575"><ele>42</ele><time>2022-08-07T07:11:12.000Z</time></trkpt><trkpt lon="5.76741" lat="50.992404"><ele>41.4</ele><time>2022-08-07T07:11:15.000Z</time></trkpt><trkpt lon="5.767282" lat="50.99231"><ele>41.2</ele><time>2022-08-07T07:11:17.000Z</time></trkpt><trkpt lon="5.767194" lat="50.992283"><ele>41.1</ele><time>2022-08-07T07:11:18.000Z</time></trkpt><trkpt lon="5.767089" lat="50.992288"><ele>40.9</ele><time>2022-08-07T07:11:19.000Z</time></trkpt><trkpt lon="5.76701" lat="50.992304"><ele>40.8</ele><time>2022-08-07T07:11:20.000Z</time></trkpt><trkpt lon="5.766913" lat="50.992334"><ele>40.7</ele><time>2022-08-07T07:11:21.000Z</time></trkpt><trkpt lon="5.766716" lat="50.99239"><ele>40.6</ele><time>2022-08-07T07:11:23.000Z</time></trkpt><trkpt lon="5.766503" lat="50.992418"><ele>40.3</ele><time>2022-08-07T07:11:25.000Z</time></trkpt><trkpt lon="5.766041" lat="50.992376"><ele>39.8</ele><time>2022-08-07T07:11:29.000Z</time></trkpt><trkpt lon="5.765405" lat="50.992332"><ele>39</ele><time>2022-08-07T07:11:35.000Z</time></trkpt><trkpt lon="5.765304" lat="50.992313"><ele>38.9</ele><time>2022-08-07T07:11:36.000Z</time></trkpt><trkpt lon="5.765117" lat="50.992254"><ele>38.6</ele><time>2022-08-07T07:11:38.000Z</time></trkpt><trkpt lon="5.764941" lat="50.992156"><ele>38.3</ele><time>2022-08-07T07:11:40.000Z</time></trkpt><trkpt lon="5.764674" lat="50.991998"><ele>37.9</ele><time>2022-08-07T07:11:43.000Z</time></trkpt><trkpt lon="5.764485" lat="50.991887"><ele>37.6</ele><time>2022-08-07T07:11:45.000Z</time></trkpt><trkpt lon="5.76404" lat="50.991554"><ele>36.8</ele><time>2022-08-07T07:11:51.000Z</time></trkpt><trkpt lon="5.763859" lat="50.991383"><ele>36.6</ele><time>2022-08-07T07:11:54.000Z</time></trkpt><trkpt lon="5.763559" lat="50.99107"><ele>36.2</ele><time>2022-08-07T07:11:59.000Z</time></trkpt><trkpt lon="5.763063" lat="50.990566"><ele>35</ele><time>2022-08-07T07:12:07.000Z</time></trkpt><trkpt lon="5.762585" lat="50.990133"><ele>35.9</ele><time>2022-08-07T07:12:15.000Z</time></trkpt><trkpt lon="5.762556" lat="50.990029"><ele>35.9</ele><time>2022-08-07T07:12:17.000Z</time></trkpt><trkpt lon="5.762573" lat="50.989974"><ele>35.7</ele><time>2022-08-07T07:12:18.000Z</time></trkpt><trkpt lon="5.762688" lat="50.989706"><ele>34.5</ele><time>2022-08-07T07:12:22.000Z</time></trkpt><trkpt lon="5.762756" lat="50.989551"><ele>33.9</ele><time>2022-08-07T07:12:24.000Z</time></trkpt><trkpt lon="5.762879" lat="50.989415"><ele>33.7</ele><time>2022-08-07T07:12:26.000Z</time></trkpt><trkpt lon="5.763244" lat="50.989075"><ele>33.8</ele><time>2022-08-07T07:12:32.000Z</time></trkpt><trkpt lon="5.763633" lat="50.988662"><ele>34.3</ele><time>2022-08-07T07:12:39.000Z</time></trkpt><trkpt lon="5.763871" lat="50.988356"><ele>34.6</ele><time>2022-08-07T07:12:44.000Z</time></trkpt><trkpt lon="5.763949" lat="50.988226"><ele>34.6</ele><time>2022-08-07T07:12:46.000Z</time></trkpt><trkpt lon="5.764121" lat="50.987832"><ele>34.5</ele><time>2022-08-07T07:12:52.000Z</time></trkpt><trkpt lon="5.764137" lat="50.987779"><ele>34.5</ele><time>2022-08-07T07:12:53.000Z</time></trkpt><trkpt lon="5.764166" lat="50.98763"><ele>34.4</ele><time>2022-08-07T07:12:55.000Z</time></trkpt><trkpt lon="5.764134" lat="50.987507"><ele>34.3</ele><time>2022-08-07T07:12:57.000Z</time></trkpt><trkpt lon="5.763881" lat="50.987193"><ele>34.3</ele><time>2022-08-07T07:13:02.000Z</time></trkpt><trkpt lon="5.763479" lat="50.986711"><ele>34.8</ele><time>2022-08-07T07:13:10.000Z</time></trkpt><trkpt lon="5.763374" lat="50.986593"><ele>34.8</ele><time>2022-08-07T07:13:12.000Z</time></trkpt><trkpt lon="5.763237" lat="50.986427"><ele>35</ele><time>2022-08-07T07:13:15.000Z</time></trkpt><trkpt lon="5.762885" lat="50.986021"><ele>35.4</ele><time>2022-08-07T07:13:22.000Z</time></trkpt><trkpt lon="5.762632" lat="50.985721"><ele>35.6</ele><time>2022-08-07T07:13:27.000Z</time></trkpt><trkpt lon="5.762536" lat="50.985605"><ele>35.6</ele><time>2022-08-07T07:13:29.000Z</time></trkpt><trkpt lon="5.762089" lat="50.985069"><ele>35.8</ele><time>2022-08-07T07:13:38.000Z</time></trkpt><trkpt lon="5.761996" lat="50.984948"><ele>35.8</ele><time>2022-08-07T07:13:40.000Z</time></trkpt><trkpt lon="5.761601" lat="50.984471"><ele>35.9</ele><time>2022-08-07T07:13:48.000Z</time></trkpt><trkpt lon="5.761419" lat="50.984234"><ele>36</ele><time>2022-08-07T07:13:52.000Z</time></trkpt><trkpt lon="5.761082" lat="50.983826"><ele>36.1</ele><time>2022-08-07T07:13:59.000Z</time></trkpt><trkpt lon="5.76065" lat="50.983293"><ele>35.6</ele><time>2022-08-07T07:14:08.000Z</time></trkpt><trkpt lon="5.760218" lat="50.982754"><ele>35.1</ele><time>2022-08-07T07:14:17.000Z</time></trkpt><trkpt lon="5.760173" lat="50.982694"><ele>35.1</ele><time>2022-08-07T07:14:18.000Z</time></trkpt><trkpt lon="5.760028" lat="50.98252"><ele>35.2</ele><time>2022-08-07T07:14:21.000Z</time></trkpt><trkpt lon="5.759768" lat="50.98224"><ele>36.1</ele><time>2022-08-07T07:14:26.000Z</time></trkpt><trkpt lon="5.75951" lat="50.981916"><ele>36</ele><time>2022-08-07T07:14:32.000Z</time></trkpt><trkpt lon="5.75924" lat="50.981557"><ele>35.4</ele><time>2022-08-07T07:14:37.000Z</time></trkpt><trkpt lon="5.758872" lat="50.981101"><ele>35.8</ele><time>2022-08-07T07:14:44.000Z</time></trkpt><trkpt lon="5.758581" lat="50.980735"><ele>36</ele><time>2022-08-07T07:14:50.000Z</time></trkpt><trkpt lon="5.758178" lat="50.980243"><ele>35.8</ele><time>2022-08-07T07:14:58.000Z</time></trkpt><trkpt lon="5.758082" lat="50.980122"><ele>35.8</ele><time>2022-08-07T07:15:00.000Z</time></trkpt><trkpt lon="5.757696" lat="50.979634"><ele>35.6</ele><time>2022-08-07T07:15:08.000Z</time></trkpt><trkpt lon="5.757597" lat="50.979513"><ele>35.6</ele><time>2022-08-07T07:15:10.000Z</time></trkpt><trkpt lon="5.757148" lat="50.978982"><ele>35.4</ele><time>2022-08-07T07:15:19.000Z</time></trkpt><trkpt lon="5.756757" lat="50.978517"><ele>35.4</ele><time>2022-08-07T07:15:27.000Z</time></trkpt><trkpt lon="5.756325" lat="50.97798"><ele>35.5</ele><time>2022-08-07T07:15:36.000Z</time></trkpt><trkpt lon="5.756224" lat="50.977862"><ele>35.5</ele><time>2022-08-07T07:15:38.000Z</time></trkpt><trkpt lon="5.755783" lat="50.977327"><ele>35.8</ele><time>2022-08-07T07:15:47.000Z</time></trkpt><trkpt lon="5.755405" lat="50.976854"><ele>35.9</ele><time>2022-08-07T07:15:55.000Z</time></trkpt><trkpt lon="5.754991" lat="50.976327"><ele>36</ele><time>2022-08-07T07:16:04.000Z</time></trkpt><trkpt lon="5.754895" lat="50.976207"><ele>36</ele><time>2022-08-07T07:16:06.000Z</time></trkpt><trkpt lon="5.754551" lat="50.975785"><ele>36.1</ele><time>2022-08-07T07:16:13.000Z</time></trkpt><trkpt lon="5.754406" lat="50.975607"><ele>36.2</ele><time>2022-08-07T07:16:16.000Z</time></trkpt><trkpt lon="5.754208" lat="50.975375"><ele>36.2</ele><time>2022-08-07T07:16:20.000Z</time></trkpt><trkpt lon="5.753805" lat="50.974836"><ele>36.1</ele><time>2022-08-07T07:16:29.000Z</time></trkpt><trkpt lon="5.753677" lat="50.974655"><ele>36.2</ele><time>2022-08-07T07:16:32.000Z</time></trkpt><trkpt lon="5.7536" lat="50.974533"><ele>36.2</ele><time>2022-08-07T07:16:34.000Z</time></trkpt><trkpt lon="5.753267" lat="50.974107"><ele>36.2</ele><time>2022-08-07T07:16:41.000Z</time></trkpt><trkpt lon="5.752853" lat="50.973579"><ele>36.4</ele><time>2022-08-07T07:16:50.000Z</time></trkpt><trkpt lon="5.752619" lat="50.97328"><ele>36.5</ele><time>2022-08-07T07:16:56.000Z</time></trkpt><trkpt lon="5.752579" lat="50.973241"><ele>36.5</ele><time>2022-08-07T07:16:57.000Z</time></trkpt><trkpt lon="5.752513" lat="50.97315"><ele>36.5</ele><time>2022-08-07T07:16:59.000Z</time></trkpt><trkpt lon="5.752388" lat="50.972977"><ele>36.3</ele><time>2022-08-07T07:17:02.000Z</time></trkpt><trkpt lon="5.751995" lat="50.972477"><ele>36.2</ele><time>2022-08-07T07:17:10.000Z</time></trkpt><trkpt lon="5.751946" lat="50.972418"><ele>36.2</ele><time>2022-08-07T07:17:11.000Z</time></trkpt><trkpt lon="5.751904" lat="50.972359"><ele>36.2</ele><time>2022-08-07T07:17:12.000Z</time></trkpt><trkpt lon="5.751848" lat="50.972234"><ele>36.3</ele><time>2022-08-07T07:17:14.000Z</time></trkpt><trkpt lon="5.751832" lat="50.972165"><ele>36.3</ele><time>2022-08-07T07:17:15.000Z</time></trkpt><trkpt lon="5.751799" lat="50.972027"><ele>36.5</ele><time>2022-08-07T07:17:17.000Z</time></trkpt><trkpt lon="5.751716" lat="50.971907"><ele>36.6</ele><time>2022-08-07T07:17:19.000Z</time></trkpt><trkpt lon="5.751562" lat="50.971822"><ele>36.7</ele><time>2022-08-07T07:17:21.000Z</time></trkpt><trkpt lon="5.751369" lat="50.971753"><ele>36.5</ele><time>2022-08-07T07:17:23.000Z</time></trkpt><trkpt lon="5.750979" lat="50.971644"><ele>36.3</ele><time>2022-08-07T07:17:27.000Z</time></trkpt><trkpt lon="5.750535" lat="50.971514"><ele>36.5</ele><time>2022-08-07T07:17:32.000Z</time></trkpt><trkpt lon="5.750221" lat="50.9714"><ele>37</ele><time>2022-08-07T07:17:36.000Z</time></trkpt><trkpt lon="5.750162" lat="50.971358"><ele>37.2</ele><time>2022-08-07T07:17:37.000Z</time></trkpt><trkpt lon="5.750129" lat="50.971303"><ele>37.4</ele><time>2022-08-07T07:17:38.000Z</time></trkpt><trkpt lon="5.750106" lat="50.971175"><ele>37.4</ele><time>2022-08-07T07:17:40.000Z</time></trkpt><trkpt lon="5.750086" lat="50.971105"><ele>37.4</ele><time>2022-08-07T07:17:41.000Z</time></trkpt><trkpt lon="5.749999" lat="50.970887"><ele>37.3</ele><time>2022-08-07T07:17:44.000Z</time></trkpt><trkpt lon="5.749968" lat="50.970818"><ele>37.4</ele><time>2022-08-07T07:17:45.000Z</time></trkpt><trkpt lon="5.749792" lat="50.970453"><ele>38.3</ele><time>2022-08-07T07:17:51.000Z</time></trkpt><trkpt lon="5.749762" lat="50.970401"><ele>38.5</ele><time>2022-08-07T07:17:52.000Z</time></trkpt><trkpt lon="5.749654" lat="50.970185"><ele>39.5</ele><time>2022-08-07T07:17:56.000Z</time></trkpt><trkpt lon="5.749539" lat="50.969913"><ele>40.7</ele><time>2022-08-07T07:18:01.000Z</time></trkpt><trkpt lon="5.749349" lat="50.969478"><ele>42.6</ele><time>2022-08-07T07:18:09.000Z</time></trkpt><trkpt lon="5.749199" lat="50.969075"><ele>44.3</ele><time>2022-08-07T07:18:16.000Z</time></trkpt><trkpt lon="5.749122" lat="50.968918"><ele>45</ele><time>2022-08-07T07:18:19.000Z</time></trkpt><trkpt lon="5.749063" lat="50.968802"><ele>45.5</ele><time>2022-08-07T07:18:21.000Z</time></trkpt><trkpt lon="5.749043" lat="50.968756"><ele>45.7</ele><time>2022-08-07T07:18:22.000Z</time></trkpt><trkpt lon="5.749027" lat="50.968662"><ele>46</ele><time>2022-08-07T07:18:24.000Z</time></trkpt><trkpt lon="5.749036" lat="50.96862"><ele>46.1</ele><time>2022-08-07T07:18:25.000Z</time></trkpt><trkpt lon="5.749057" lat="50.968578"><ele>46.2</ele><time>2022-08-07T07:18:26.000Z</time></trkpt><trkpt lon="5.749133" lat="50.968378"><ele>46.3</ele><time>2022-08-07T07:18:31.000Z</time></trkpt><trkpt lon="5.749155" lat="50.96834"><ele>46.4</ele><time>2022-08-07T07:18:32.000Z</time></trkpt><trkpt lon="5.749261" lat="50.968276"><ele>46.5</ele><time>2022-08-07T07:18:35.000Z</time></trkpt><trkpt lon="5.749358" lat="50.968344"><ele>46.6</ele><time>2022-08-07T07:18:38.000Z</time></trkpt><trkpt lon="5.749559" lat="50.968586"><ele>47</ele><time>2022-08-07T07:18:43.000Z</time></trkpt><trkpt lon="5.74965" lat="50.968718"><ele>47.4</ele><time>2022-08-07T07:18:46.000Z</time></trkpt><trkpt lon="5.749765" lat="50.968762"><ele>47.6</ele><time>2022-08-07T07:18:48.000Z</time></trkpt><trkpt lon="5.749812" lat="50.968711"><ele>47.6</ele><time>2022-08-07T07:18:50.000Z</time></trkpt><trkpt lon="5.749796" lat="50.968669"><ele>47.5</ele><time>2022-08-07T07:18:51.000Z</time></trkpt><trkpt lon="5.749726" lat="50.968567"><ele>47.2</ele><time>2022-08-07T07:18:53.000Z</time></trkpt><trkpt lon="5.749504" lat="50.968256"><ele>46.7</ele><time>2022-08-07T07:18:58.000Z</time></trkpt><trkpt lon="5.749232" lat="50.967792"><ele>46.6</ele><time>2022-08-07T07:19:05.000Z</time></trkpt><trkpt lon="5.749044" lat="50.967426"><ele>46.7</ele><time>2022-08-07T07:19:11.000Z</time></trkpt><trkpt lon="5.748883" lat="50.966933"><ele>46.9</ele><time>2022-08-07T07:19:19.000Z</time></trkpt><trkpt lon="5.748868" lat="50.966873"><ele>47</ele><time>2022-08-07T07:19:20.000Z</time></trkpt><trkpt lon="5.748803" lat="50.96633"><ele>47</ele><time>2022-08-07T07:19:28.000Z</time></trkpt><trkpt lon="5.748817" lat="50.965786"><ele>47.3</ele><time>2022-08-07T07:19:36.000Z</time></trkpt><trkpt lon="5.74891" lat="50.965258"><ele>47.2</ele><time>2022-08-07T07:19:44.000Z</time></trkpt><trkpt lon="5.749081" lat="50.964726"><ele>47.2</ele><time>2022-08-07T07:19:52.000Z</time></trkpt><trkpt lon="5.749109" lat="50.96466"><ele>47.2</ele><time>2022-08-07T07:19:53.000Z</time></trkpt><trkpt lon="5.749378" lat="50.964136"><ele>47.2</ele><time>2022-08-07T07:20:01.000Z</time></trkpt><trkpt lon="5.749725" lat="50.963626"><ele>47.3</ele><time>2022-08-07T07:20:09.000Z</time></trkpt><trkpt lon="5.749774" lat="50.963563"><ele>47.4</ele><time>2022-08-07T07:20:10.000Z</time></trkpt><trkpt lon="5.750064" lat="50.963203"><ele>47.4</ele><time>2022-08-07T07:20:16.000Z</time></trkpt><trkpt lon="5.750176" lat="50.963086"><ele>47.4</ele><time>2022-08-07T07:20:18.000Z</time></trkpt><trkpt lon="5.75029" lat="50.962976"><ele>47.5</ele><time>2022-08-07T07:20:20.000Z</time></trkpt><trkpt lon="5.750491" lat="50.962758"><ele>47.5</ele><time>2022-08-07T07:20:24.000Z</time></trkpt><trkpt lon="5.750565" lat="50.962641"><ele>47.5</ele><time>2022-08-07T07:20:26.000Z</time></trkpt><trkpt lon="5.750859" lat="50.96245"><ele>47.5</ele><time>2022-08-07T07:20:30.000Z</time></trkpt><trkpt lon="5.751486" lat="50.962073"><ele>47.5</ele><time>2022-08-07T07:20:38.000Z</time></trkpt><trkpt lon="5.75207" lat="50.961675"><ele>47.5</ele><time>2022-08-07T07:20:46.000Z</time></trkpt><trkpt lon="5.752287" lat="50.961524"><ele>47.6</ele><time>2022-08-07T07:20:49.000Z</time></trkpt><trkpt lon="5.752877" lat="50.961114"><ele>47.4</ele><time>2022-08-07T07:20:57.000Z</time></trkpt><trkpt lon="5.752952" lat="50.961062"><ele>47.3</ele><time>2022-08-07T07:20:58.000Z</time></trkpt><trkpt lon="5.753465" lat="50.960708"><ele>47.1</ele><time>2022-08-07T07:21:05.000Z</time></trkpt><trkpt lon="5.753754" lat="50.960509"><ele>47</ele><time>2022-08-07T07:21:08.000Z</time></trkpt><trkpt lon="5.754397" lat="50.960061"><ele>46.7</ele><time>2022-08-07T07:21:18.000Z</time></trkpt><trkpt lon="5.754543" lat="50.959958"><ele>46.6</ele><time>2022-08-07T07:21:20.000Z</time></trkpt><trkpt lon="5.755161" lat="50.959539"><ele>46.2</ele><time>2022-08-07T07:21:29.000Z</time></trkpt><trkpt lon="5.755666" lat="50.959217"><ele>45.9</ele><time>2022-08-07T07:21:36.000Z</time></trkpt><trkpt lon="5.755875" lat="50.959092"><ele>45.9</ele><time>2022-08-07T07:21:39.000Z</time></trkpt><trkpt lon="5.756007" lat="50.959013"><ele>45.7</ele><time>2022-08-07T07:21:41.000Z</time></trkpt><trkpt lon="5.756142" lat="50.958889"><ele>45.3</ele><time>2022-08-07T07:21:44.000Z</time></trkpt><trkpt lon="5.756315" lat="50.958761"><ele>44.9</ele><time>2022-08-07T07:21:47.000Z</time></trkpt><trkpt lon="5.756386" lat="50.958687"><ele>44.9</ele><time>2022-08-07T07:21:49.000Z</time></trkpt><trkpt lon="5.756467" lat="50.958527"><ele>44.8</ele><time>2022-08-07T07:21:53.000Z</time></trkpt><trkpt lon="5.756502" lat="50.958488"><ele>44.9</ele><time>2022-08-07T07:21:54.000Z</time></trkpt><trkpt lon="5.756559" lat="50.958452"><ele>44.9</ele><time>2022-08-07T07:21:55.000Z</time></trkpt><trkpt lon="5.756779" lat="50.958341"><ele>45.2</ele><time>2022-08-07T07:21:58.000Z</time></trkpt><trkpt lon="5.75712" lat="50.95811"><ele>46</ele><time>2022-08-07T07:22:03.000Z</time></trkpt><trkpt lon="5.757552" lat="50.957776"><ele>47.2</ele><time>2022-08-07T07:22:09.000Z</time></trkpt><trkpt lon="5.758085" lat="50.957362"><ele>48.9</ele><time>2022-08-07T07:22:17.000Z</time></trkpt><trkpt lon="5.758678" lat="50.95689"><ele>49.3</ele><time>2022-08-07T07:22:26.000Z</time></trkpt><trkpt lon="5.759214" lat="50.956484"><ele>49.2</ele><time>2022-08-07T07:22:34.000Z</time></trkpt><trkpt lon="5.759286" lat="50.956435"><ele>49.3</ele><time>2022-08-07T07:22:35.000Z</time></trkpt><trkpt lon="5.759671" lat="50.956125"><ele>49.3</ele><time>2022-08-07T07:22:41.000Z</time></trkpt><trkpt lon="5.759791" lat="50.956018"><ele>49.3</ele><time>2022-08-07T07:22:43.000Z</time></trkpt><trkpt lon="5.760011" lat="50.955794"><ele>49.3</ele><time>2022-08-07T07:22:47.000Z</time></trkpt><trkpt lon="5.760104" lat="50.955681"><ele>49.3</ele><time>2022-08-07T07:22:49.000Z</time></trkpt><trkpt lon="5.760149" lat="50.955621"><ele>49.3</ele><time>2022-08-07T07:22:50.000Z</time></trkpt><trkpt lon="5.760468" lat="50.95519"><ele>49.3</ele><time>2022-08-07T07:22:57.000Z</time></trkpt><trkpt lon="5.760722" lat="50.954741"><ele>49.3</ele><time>2022-08-07T07:23:04.000Z</time></trkpt><trkpt lon="5.760756" lat="50.954673"><ele>49.2</ele><time>2022-08-07T07:23:05.000Z</time></trkpt><trkpt lon="5.760849" lat="50.95447"><ele>49.2</ele><time>2022-08-07T07:23:08.000Z</time></trkpt><trkpt lon="5.760917" lat="50.954216"><ele>49.3</ele><time>2022-08-07T07:23:12.000Z</time></trkpt><trkpt lon="5.760996" lat="50.953864"><ele>49.6</ele><time>2022-08-07T07:23:17.000Z</time></trkpt><trkpt lon="5.761017" lat="50.953673"><ele>50</ele><time>2022-08-07T07:23:20.000Z</time></trkpt><trkpt lon="5.761021" lat="50.953426"><ele>50.5</ele><time>2022-08-07T07:23:24.000Z</time></trkpt><trkpt lon="5.761013" lat="50.953303"><ele>50.8</ele><time>2022-08-07T07:23:26.000Z</time></trkpt><trkpt lon="5.761005" lat="50.953244"><ele>50.9</ele><time>2022-08-07T07:23:27.000Z</time></trkpt><trkpt lon="5.760917" lat="50.952737"><ele>52.2</ele><time>2022-08-07T07:23:35.000Z</time></trkpt><trkpt lon="5.760839" lat="50.952501"><ele>52.7</ele><time>2022-08-07T07:23:39.000Z</time></trkpt><trkpt lon="5.760771" lat="50.952339"><ele>53.2</ele><time>2022-08-07T07:23:42.000Z</time></trkpt><trkpt lon="5.760469" lat="50.951787"><ele>54.3</ele><time>2022-08-07T07:23:52.000Z</time></trkpt><trkpt lon="5.760275" lat="50.951524"><ele>55</ele><time>2022-08-07T07:23:58.000Z</time></trkpt><trkpt lon="5.760145" lat="50.951361"><ele>55.3</ele><time>2022-08-07T07:24:03.000Z</time></trkpt><trkpt lon="5.760138" lat="50.951327"><ele>55.4</ele><time>2022-08-07T07:24:04.000Z</time></trkpt><trkpt lon="5.760211" lat="50.951272"><ele>55.7</ele><time>2022-08-07T07:24:06.000Z</time></trkpt><trkpt lon="5.760284" lat="50.951244"><ele>55.7</ele><time>2022-08-07T07:24:07.000Z</time></trkpt><trkpt lon="5.760466" lat="50.951196"><ele>55.8</ele><time>2022-08-07T07:24:09.000Z</time></trkpt><trkpt lon="5.760858" lat="50.951093"><ele>55.8</ele><time>2022-08-07T07:24:13.000Z</time></trkpt><trkpt lon="5.761301" lat="50.950969"><ele>55.9</ele><time>2022-08-07T07:24:18.000Z</time></trkpt><trkpt lon="5.761859" lat="50.950799"><ele>56.4</ele><time>2022-08-07T07:24:25.000Z</time></trkpt><trkpt lon="5.761923" lat="50.950746"><ele>56.4</ele><time>2022-08-07T07:24:26.000Z</time></trkpt><trkpt lon="5.76191" lat="50.950625"><ele>56.4</ele><time>2022-08-07T07:24:28.000Z</time></trkpt><trkpt lon="5.761873" lat="50.950566"><ele>56.5</ele><time>2022-08-07T07:24:29.000Z</time></trkpt><trkpt lon="5.761831" lat="50.950519"><ele>56.6</ele><time>2022-08-07T07:24:30.000Z</time></trkpt><trkpt lon="5.761566" lat="50.950245"><ele>57.2</ele><time>2022-08-07T07:24:35.000Z</time></trkpt><trkpt lon="5.761419" lat="50.950098"><ele>57.8</ele><time>2022-08-07T07:24:38.000Z</time></trkpt><trkpt lon="5.76133" lat="50.950002"><ele>58.2</ele><time>2022-08-07T07:24:40.000Z</time></trkpt><trkpt lon="5.761102" lat="50.949767"><ele>59.3</ele><time>2022-08-07T07:24:45.000Z</time></trkpt><trkpt lon="5.760942" lat="50.949614"><ele>60</ele><time>2022-08-07T07:24:48.000Z</time></trkpt><trkpt lon="5.760485" lat="50.949222"><ele>62</ele><time>2022-08-07T07:24:57.000Z</time></trkpt><trkpt lon="5.760439" lat="50.949185"><ele>62.2</ele><time>2022-08-07T07:24:58.000Z</time></trkpt><trkpt lon="5.760355" lat="50.949112"><ele>62.6</ele><time>2022-08-07T07:25:00.000Z</time></trkpt><trkpt lon="5.76029" lat="50.949022"><ele>62.9</ele><time>2022-08-07T07:25:02.000Z</time></trkpt><trkpt lon="5.760272" lat="50.948971"><ele>63</ele><time>2022-08-07T07:25:03.000Z</time></trkpt><trkpt lon="5.760315" lat="50.948878"><ele>63.2</ele><time>2022-08-07T07:25:05.000Z</time></trkpt><trkpt lon="5.760349" lat="50.948833"><ele>63.2</ele><time>2022-08-07T07:25:06.000Z</time></trkpt><trkpt lon="5.760369" lat="50.948789"><ele>63.4</ele><time>2022-08-07T07:25:07.000Z</time></trkpt><trkpt lon="5.760357" lat="50.948703"><ele>63.4</ele><time>2022-08-07T07:25:09.000Z</time></trkpt><trkpt lon="5.76031" lat="50.948587"><ele>63.5</ele><time>2022-08-07T07:25:13.000Z</time></trkpt><trkpt lon="5.760104" lat="50.948582"><ele>63.6</ele><time>2022-08-07T07:25:17.000Z</time></trkpt><trkpt lon="5.759909" lat="50.948621"><ele>63.5</ele><time>2022-08-07T07:25:20.000Z</time></trkpt><trkpt lon="5.759766" lat="50.948632"><ele>63.4</ele><time>2022-08-07T07:25:22.000Z</time></trkpt><trkpt lon="5.759631" lat="50.948641"><ele>63.3</ele><time>2022-08-07T07:25:24.000Z</time></trkpt><trkpt lon="5.759495" lat="50.948615"><ele>63.1</ele><time>2022-08-07T07:25:26.000Z</time></trkpt><trkpt lon="5.759177" lat="50.94847"><ele>62.3</ele><time>2022-08-07T07:25:30.000Z</time></trkpt><trkpt lon="5.758589" lat="50.948183"><ele>60.8</ele><time>2022-08-07T07:25:37.000Z</time></trkpt><trkpt lon="5.758367" lat="50.948074"><ele>60.4</ele><time>2022-08-07T07:25:40.000Z</time></trkpt><trkpt lon="5.758324" lat="50.948035"><ele>60.4</ele><time>2022-08-07T07:25:41.000Z</time></trkpt><trkpt lon="5.7583" lat="50.947995"><ele>60.3</ele><time>2022-08-07T07:25:42.000Z</time></trkpt><trkpt lon="5.758315" lat="50.947959"><ele>60.2</ele><time>2022-08-07T07:25:43.000Z</time></trkpt><trkpt lon="5.758426" lat="50.947907"><ele>60.1</ele><time>2022-08-07T07:25:45.000Z</time></trkpt><trkpt lon="5.758564" lat="50.947859"><ele>60</ele><time>2022-08-07T07:25:47.000Z</time></trkpt><trkpt lon="5.759054" lat="50.947693"><ele>60</ele><time>2022-08-07T07:25:55.000Z</time></trkpt><trkpt lon="5.759168" lat="50.947666"><ele>60.1</ele><time>2022-08-07T07:25:57.000Z</time></trkpt><trkpt lon="5.75927" lat="50.947658"><ele>60.1</ele><time>2022-08-07T07:25:59.000Z</time></trkpt><trkpt lon="5.75931" lat="50.947651"><ele>60</ele><time>2022-08-07T07:26:00.000Z</time></trkpt><trkpt lon="5.759498" lat="50.947597"><ele>59.3</ele><time>2022-08-07T07:26:06.000Z</time></trkpt><trkpt lon="5.759499" lat="50.947591"><ele>59.3</ele><time>2022-08-07T07:26:07.000Z</time></trkpt><trkpt lon="5.759451" lat="50.947596"><ele>59</ele><time>2022-08-07T07:26:09.000Z</time></trkpt><trkpt lon="5.75938" lat="50.947621"><ele>58.5</ele><time>2022-08-07T07:26:11.000Z</time></trkpt><trkpt lon="5.759274" lat="50.947653"><ele>57.7</ele><time>2022-08-07T07:26:13.000Z</time></trkpt><trkpt lon="5.759045" lat="50.947697"><ele>55.7</ele><time>2022-08-07T07:26:16.000Z</time></trkpt><trkpt lon="5.758953" lat="50.947714"><ele>54.9</ele><time>2022-08-07T07:26:17.000Z</time></trkpt><trkpt lon="5.758662" lat="50.947765"><ele>52.4</ele><time>2022-08-07T07:26:20.000Z</time></trkpt><trkpt lon="5.758439" lat="50.947777"><ele>50.9</ele><time>2022-08-07T07:26:22.000Z</time></trkpt><trkpt lon="5.758076" lat="50.947752"><ele>48.8</ele><time>2022-08-07T07:26:25.000Z</time></trkpt><trkpt lon="5.757966" lat="50.947762"><ele>48.1</ele><time>2022-08-07T07:26:26.000Z</time></trkpt><trkpt lon="5.757864" lat="50.947783"><ele>47.4</ele><time>2022-08-07T07:26:27.000Z</time></trkpt><trkpt lon="5.757554" lat="50.947868"><ele>45.8</ele><time>2022-08-07T07:26:30.000Z</time></trkpt><trkpt lon="5.757321" lat="50.947862"><ele>44.8</ele><time>2022-08-07T07:26:32.000Z</time></trkpt><trkpt lon="5.757213" lat="50.947827"><ele>44.2</ele><time>2022-08-07T07:26:33.000Z</time></trkpt><trkpt lon="5.757133" lat="50.94779"><ele>43.8</ele><time>2022-08-07T07:26:34.000Z</time></trkpt><trkpt lon="5.756933" lat="50.947654"><ele>42.5</ele><time>2022-08-07T07:26:36.000Z</time></trkpt><trkpt lon="5.756499" lat="50.94728"><ele>41.4</ele><time>2022-08-07T07:26:41.000Z</time></trkpt><trkpt lon="5.756412" lat="50.947203"><ele>41.3</ele><time>2022-08-07T07:26:42.000Z</time></trkpt><trkpt lon="5.755907" lat="50.946818"><ele>41.2</ele><time>2022-08-07T07:26:48.000Z</time></trkpt><trkpt lon="5.755313" lat="50.946395"><ele>41.1</ele><time>2022-08-07T07:26:55.000Z</time></trkpt><trkpt lon="5.754887" lat="50.946034"><ele>41.3</ele><time>2022-08-07T07:27:01.000Z</time></trkpt><trkpt lon="5.754756" lat="50.945924"><ele>41.4</ele><time>2022-08-07T07:27:03.000Z</time></trkpt><trkpt lon="5.754475" lat="50.945661"><ele>41.5</ele><time>2022-08-07T07:27:08.000Z</time></trkpt><trkpt lon="5.754276" lat="50.94545"><ele>41.4</ele><time>2022-08-07T07:27:12.000Z</time></trkpt><trkpt lon="5.754228" lat="50.945399"><ele>41.4</ele><time>2022-08-07T07:27:13.000Z</time></trkpt><trkpt lon="5.754093" lat="50.945235"><ele>41.4</ele><time>2022-08-07T07:27:16.000Z</time></trkpt><trkpt lon="5.75383" lat="50.944911"><ele>41.4</ele><time>2022-08-07T07:27:23.000Z</time></trkpt><trkpt lon="5.753734" lat="50.944776"><ele>41.3</ele><time>2022-08-07T07:27:26.000Z</time></trkpt><trkpt lon="5.753671" lat="50.944629"><ele>41.3</ele><time>2022-08-07T07:27:29.000Z</time></trkpt><trkpt lon="5.753425" lat="50.94421"><ele>41.3</ele><time>2022-08-07T07:27:37.000Z</time></trkpt><trkpt lon="5.753185" lat="50.943785"><ele>41.3</ele><time>2022-08-07T07:27:46.000Z</time></trkpt><trkpt lon="5.752932" lat="50.943266"><ele>41.4</ele><time>2022-08-07T07:27:57.000Z</time></trkpt><trkpt lon="5.752848" lat="50.943113"><ele>41.4</ele><time>2022-08-07T07:28:00.000Z</time></trkpt><trkpt lon="5.752738" lat="50.942867"><ele>41.4</ele><time>2022-08-07T07:28:05.000Z</time></trkpt><trkpt lon="5.752689" lat="50.942756"><ele>41.4</ele><time>2022-08-07T07:28:07.000Z</time></trkpt><trkpt lon="5.752639" lat="50.942651"><ele>41.4</ele><time>2022-08-07T07:28:09.000Z</time></trkpt><trkpt lon="5.752487" lat="50.942357"><ele>41.4</ele><time>2022-08-07T07:28:14.000Z</time></trkpt><trkpt lon="5.752342" lat="50.94208"><ele>41.6</ele><time>2022-08-07T07:28:19.000Z</time></trkpt><trkpt lon="5.75228" lat="50.941957"><ele>41.6</ele><time>2022-08-07T07:28:21.000Z</time></trkpt><trkpt lon="5.752241" lat="50.941882"><ele>41.7</ele><time>2022-08-07T07:28:22.000Z</time></trkpt><trkpt lon="5.75207" lat="50.941531"><ele>41.9</ele><time>2022-08-07T07:28:28.000Z</time></trkpt><trkpt lon="5.751877" lat="50.941106"><ele>41.6</ele><time>2022-08-07T07:28:35.000Z</time></trkpt><trkpt lon="5.751844" lat="50.941029"><ele>41.5</ele><time>2022-08-07T07:28:36.000Z</time></trkpt><trkpt lon="5.751604" lat="50.94051"><ele>41.4</ele><time>2022-08-07T07:28:44.000Z</time></trkpt><trkpt lon="5.751438" lat="50.94014"><ele>41.4</ele><time>2022-08-07T07:28:50.000Z</time></trkpt><trkpt lon="5.751351" lat="50.939944"><ele>41.5</ele><time>2022-08-07T07:28:53.000Z</time></trkpt><trkpt lon="5.751294" lat="50.939833"><ele>41.4</ele><time>2022-08-07T07:28:55.000Z</time></trkpt><trkpt lon="5.751045" lat="50.939292"><ele>41.7</ele><time>2022-08-07T07:29:03.000Z</time></trkpt><trkpt lon="5.751045" lat="50.939292"><ele>41.7</ele><time>2022-08-07T07:29:04.000Z</time></trkpt><trkpt lon="5.750901" lat="50.938994"><ele>41.6</ele><time>2022-08-07T07:29:09.000Z</time></trkpt><trkpt lon="5.750786" lat="50.938738"><ele>41.5</ele><time>2022-08-07T07:29:13.000Z</time></trkpt><trkpt lon="5.750706" lat="50.938563"><ele>41.5</ele><time>2022-08-07T07:29:16.000Z</time></trkpt><trkpt lon="5.75045" lat="50.938012"><ele>41.7</ele><time>2022-08-07T07:29:25.000Z</time></trkpt><trkpt lon="5.750211" lat="50.93752"><ele>41.8</ele><time>2022-08-07T07:29:33.000Z</time></trkpt><trkpt lon="5.749979" lat="50.937019"><ele>41.8</ele><time>2022-08-07T07:29:41.000Z</time></trkpt><trkpt lon="5.749711" lat="50.936475"><ele>41.9</ele><time>2022-08-07T07:29:50.000Z</time></trkpt><trkpt lon="5.749527" lat="50.93607"><ele>42.2</ele><time>2022-08-07T07:29:57.000Z</time></trkpt><trkpt lon="5.749374" lat="50.935725"><ele>42.1</ele><time>2022-08-07T07:30:03.000Z</time></trkpt><trkpt lon="5.749113" lat="50.935185"><ele>41.8</ele><time>2022-08-07T07:30:12.000Z</time></trkpt><trkpt lon="5.749084" lat="50.935127"><ele>41.8</ele><time>2022-08-07T07:30:13.000Z</time></trkpt><trkpt lon="5.748857" lat="50.934652"><ele>41.5</ele><time>2022-08-07T07:30:21.000Z</time></trkpt><trkpt lon="5.748725" lat="50.93441"><ele>41.5</ele><time>2022-08-07T07:30:25.000Z</time></trkpt><trkpt lon="5.748661" lat="50.934276"><ele>41.5</ele><time>2022-08-07T07:30:27.000Z</time></trkpt><trkpt lon="5.748462" lat="50.933856"><ele>41.4</ele><time>2022-08-07T07:30:34.000Z</time></trkpt><trkpt lon="5.748254" lat="50.93343"><ele>41.4</ele><time>2022-08-07T07:30:41.000Z</time></trkpt><trkpt lon="5.74798" lat="50.932886"><ele>40.9</ele><time>2022-08-07T07:30:50.000Z</time></trkpt><trkpt lon="5.747948" lat="50.932822"><ele>40.9</ele><time>2022-08-07T07:30:51.000Z</time></trkpt><trkpt lon="5.747708" lat="50.932295"><ele>40.8</ele><time>2022-08-07T07:30:59.000Z</time></trkpt><trkpt lon="5.747615" lat="50.932111"><ele>40.7</ele><time>2022-08-07T07:31:01.000Z</time></trkpt><trkpt lon="5.747385" lat="50.93162"><ele>40.7</ele><time>2022-08-07T07:31:10.000Z</time></trkpt><trkpt lon="5.747143" lat="50.931117"><ele>43</ele><time>2022-08-07T07:31:19.000Z</time></trkpt><trkpt lon="5.747121" lat="50.931066"><ele>43.4</ele><time>2022-08-07T07:31:20.000Z</time></trkpt><trkpt lon="5.747126" lat="50.930957"><ele>44</ele><time>2022-08-07T07:31:22.000Z</time></trkpt><trkpt lon="5.747181" lat="50.930912"><ele>44</ele><time>2022-08-07T07:31:23.000Z</time></trkpt><trkpt lon="5.747274" lat="50.930873"><ele>44.1</ele><time>2022-08-07T07:31:24.000Z</time></trkpt><trkpt lon="5.747442" lat="50.930832"><ele>44.3</ele><time>2022-08-07T07:31:26.000Z</time></trkpt><trkpt lon="5.747737" lat="50.930767"><ele>44.9</ele><time>2022-08-07T07:31:29.000Z</time></trkpt><trkpt lon="5.747891" lat="50.930713"><ele>45.4</ele><time>2022-08-07T07:31:31.000Z</time></trkpt><trkpt lon="5.747972" lat="50.930679"><ele>45.7</ele><time>2022-08-07T07:31:32.000Z</time></trkpt><trkpt lon="5.748326" lat="50.930496"><ele>47</ele><time>2022-08-07T07:31:37.000Z</time></trkpt><trkpt lon="5.748656" lat="50.930312"><ele>47.5</ele><time>2022-08-07T07:31:42.000Z</time></trkpt><trkpt lon="5.748715" lat="50.930279"><ele>47.6</ele><time>2022-08-07T07:31:43.000Z</time></trkpt><trkpt lon="5.749061" lat="50.930088"><ele>48.1</ele><time>2022-08-07T07:31:49.000Z</time></trkpt><trkpt lon="5.749136" lat="50.930011"><ele>48.3</ele><time>2022-08-07T07:31:51.000Z</time></trkpt><trkpt lon="5.749208" lat="50.929925"><ele>48.5</ele><time>2022-08-07T07:31:53.000Z</time></trkpt><trkpt lon="5.749255" lat="50.929887"><ele>48.5</ele><time>2022-08-07T07:31:54.000Z</time></trkpt><trkpt lon="5.74931" lat="50.929855"><ele>48.6</ele><time>2022-08-07T07:31:55.000Z</time></trkpt><trkpt lon="5.749433" lat="50.929807"><ele>49.1</ele><time>2022-08-07T07:31:57.000Z</time></trkpt><trkpt lon="5.749499" lat="50.929793"><ele>49.4</ele><time>2022-08-07T07:31:58.000Z</time></trkpt><trkpt lon="5.749566" lat="50.929777"><ele>49.7</ele><time>2022-08-07T07:31:59.000Z</time></trkpt><trkpt lon="5.749797" lat="50.929672"><ele>51</ele><time>2022-08-07T07:32:03.000Z</time></trkpt><trkpt lon="5.750167" lat="50.929444"><ele>53.6</ele><time>2022-08-07T07:32:10.000Z</time></trkpt><trkpt lon="5.750219" lat="50.929414"><ele>54</ele><time>2022-08-07T07:32:11.000Z</time></trkpt><trkpt lon="5.750324" lat="50.929362"><ele>54.6</ele><time>2022-08-07T07:32:13.000Z</time></trkpt><trkpt lon="5.750449" lat="50.92934"><ele>55.3</ele><time>2022-08-07T07:32:15.000Z</time></trkpt><trkpt lon="5.750659" lat="50.929353"><ele>56.4</ele><time>2022-08-07T07:32:18.000Z</time></trkpt><trkpt lon="5.750728" lat="50.929353"><ele>56.7</ele><time>2022-08-07T07:32:19.000Z</time></trkpt><trkpt lon="5.750796" lat="50.929358"><ele>57.1</ele><time>2022-08-07T07:32:20.000Z</time></trkpt><trkpt lon="5.750987" lat="50.929369"><ele>57.8</ele><time>2022-08-07T07:32:23.000Z</time></trkpt><trkpt lon="5.751111" lat="50.929398"><ele>58.3</ele><time>2022-08-07T07:32:25.000Z</time></trkpt><trkpt lon="5.75122" lat="50.929444"><ele>58.7</ele><time>2022-08-07T07:32:27.000Z</time></trkpt><trkpt lon="5.751279" lat="50.929499"><ele>59.2</ele><time>2022-08-07T07:32:29.000Z</time></trkpt><trkpt lon="5.751325" lat="50.929588"><ele>59.8</ele><time>2022-08-07T07:32:31.000Z</time></trkpt><trkpt lon="5.751335" lat="50.929677"><ele>60.3</ele><time>2022-08-07T07:32:33.000Z</time></trkpt><trkpt lon="5.751325" lat="50.929719"><ele>60.5</ele><time>2022-08-07T07:32:34.000Z</time></trkpt><trkpt lon="5.751291" lat="50.92979"><ele>60.9</ele><time>2022-08-07T07:32:36.000Z</time></trkpt><trkpt lon="5.751252" lat="50.929928"><ele>61.7</ele><time>2022-08-07T07:32:39.000Z</time></trkpt><trkpt lon="5.751241" lat="50.930009"><ele>62.1</ele><time>2022-08-07T07:32:41.000Z</time></trkpt><trkpt lon="5.751257" lat="50.930157"><ele>63</ele><time>2022-08-07T07:32:44.000Z</time></trkpt><trkpt lon="5.7513" lat="50.930459"><ele>64.8</ele><time>2022-08-07T07:32:51.000Z</time></trkpt><trkpt lon="5.751349" lat="50.93071"><ele>66.3</ele><time>2022-08-07T07:32:57.000Z</time></trkpt><trkpt lon="5.751476" lat="50.931148"><ele>68.9</ele><time>2022-08-07T07:33:07.000Z</time></trkpt><trkpt lon="5.751587" lat="50.931368"><ele>70.5</ele><time>2022-08-07T07:33:12.000Z</time></trkpt><trkpt lon="5.75167" lat="50.931441"><ele>71.1</ele><time>2022-08-07T07:33:14.000Z</time></trkpt><trkpt lon="5.751802" lat="50.931489"><ele>71.8</ele><time>2022-08-07T07:33:16.000Z</time></trkpt><trkpt lon="5.751875" lat="50.931491"><ele>72.1</ele><time>2022-08-07T07:33:17.000Z</time></trkpt><trkpt lon="5.751941" lat="50.931475"><ele>72.5</ele><time>2022-08-07T07:33:18.000Z</time></trkpt><trkpt lon="5.75205" lat="50.931412"><ele>73.1</ele><time>2022-08-07T07:33:20.000Z</time></trkpt><trkpt lon="5.75209" lat="50.931374"><ele>73.5</ele><time>2022-08-07T07:33:21.000Z</time></trkpt><trkpt lon="5.752122" lat="50.931332"><ele>73.8</ele><time>2022-08-07T07:33:22.000Z</time></trkpt><trkpt lon="5.752228" lat="50.931169"><ele>75.2</ele><time>2022-08-07T07:33:26.000Z</time></trkpt><trkpt lon="5.752237" lat="50.931124"><ele>75.5</ele><time>2022-08-07T07:33:27.000Z</time></trkpt><trkpt lon="5.752249" lat="50.931035"><ele>76.2</ele><time>2022-08-07T07:33:29.000Z</time></trkpt><trkpt lon="5.752247" lat="50.930906"><ele>77</ele><time>2022-08-07T07:33:32.000Z</time></trkpt><trkpt lon="5.752187" lat="50.930729"><ele>78.2</ele><time>2022-08-07T07:33:36.000Z</time></trkpt><trkpt lon="5.752058" lat="50.930577"><ele>79.4</ele><time>2022-08-07T07:33:40.000Z</time></trkpt><trkpt lon="5.751895" lat="50.930371"><ele>81</ele><time>2022-08-07T07:33:45.000Z</time></trkpt><trkpt lon="5.751871" lat="50.93028"><ele>81.7</ele><time>2022-08-07T07:33:47.000Z</time></trkpt><trkpt lon="5.751862" lat="50.930197"><ele>82.4</ele><time>2022-08-07T07:33:49.000Z</time></trkpt><trkpt lon="5.751876" lat="50.930113"><ele>83</ele><time>2022-08-07T07:33:51.000Z</time></trkpt><trkpt lon="5.751899" lat="50.930072"><ele>83.3</ele><time>2022-08-07T07:33:52.000Z</time></trkpt><trkpt lon="5.751988" lat="50.929964"><ele>84.1</ele><time>2022-08-07T07:33:55.000Z</time></trkpt><trkpt lon="5.75209" lat="50.929899"><ele>84.7</ele><time>2022-08-07T07:33:57.000Z</time></trkpt><trkpt lon="5.752299" lat="50.929792"><ele>85.8</ele><time>2022-08-07T07:34:01.000Z</time></trkpt><trkpt lon="5.752579" lat="50.929683"><ele>87.1</ele><time>2022-08-07T07:34:06.000Z</time></trkpt><trkpt lon="5.753081" lat="50.929574"><ele>89.3</ele><time>2022-08-07T07:34:14.000Z</time></trkpt><trkpt lon="5.753212" lat="50.92956"><ele>89.8</ele><time>2022-08-07T07:34:16.000Z</time></trkpt><trkpt lon="5.753276" lat="50.929552"><ele>90.1</ele><time>2022-08-07T07:34:17.000Z</time></trkpt><trkpt lon="5.753604" lat="50.92952"><ele>91.5</ele><time>2022-08-07T07:34:22.000Z</time></trkpt><trkpt lon="5.753728" lat="50.929504"><ele>92</ele><time>2022-08-07T07:34:24.000Z</time></trkpt><trkpt lon="5.754192" lat="50.929459"><ele>94</ele><time>2022-08-07T07:34:31.000Z</time></trkpt><trkpt lon="5.754325" lat="50.929443"><ele>94.6</ele><time>2022-08-07T07:34:33.000Z</time></trkpt><trkpt lon="5.754579" lat="50.929388"><ele>95.9</ele><time>2022-08-07T07:34:37.000Z</time></trkpt><trkpt lon="5.754709" lat="50.929353"><ele>96.5</ele><time>2022-08-07T07:34:39.000Z</time></trkpt><trkpt lon="5.754999" lat="50.929256"><ele>97.9</ele><time>2022-08-07T07:34:44.000Z</time></trkpt><trkpt lon="5.755119" lat="50.929227"><ele>98.4</ele><time>2022-08-07T07:34:46.000Z</time></trkpt><trkpt lon="5.755311" lat="50.929218"><ele>99.2</ele><time>2022-08-07T07:34:49.000Z</time></trkpt><trkpt lon="5.755706" lat="50.929228"><ele>100.8</ele><time>2022-08-07T07:34:55.000Z</time></trkpt><trkpt lon="5.755772" lat="50.929224"><ele>101.1</ele><time>2022-08-07T07:34:56.000Z</time></trkpt><trkpt lon="5.756027" lat="50.929225"><ele>102</ele><time>2022-08-07T07:34:59.000Z</time></trkpt><trkpt lon="5.756271" lat="50.929206"><ele>103</ele><time>2022-08-07T07:35:04.000Z</time></trkpt><trkpt lon="5.756603" lat="50.929123"><ele>104.3</ele><time>2022-08-07T07:35:10.000Z</time></trkpt><trkpt lon="5.756815" lat="50.929043"><ele>105.2</ele><time>2022-08-07T07:35:14.000Z</time></trkpt><trkpt lon="5.756971" lat="50.92898"><ele>105.8</ele><time>2022-08-07T07:35:17.000Z</time></trkpt><trkpt lon="5.757193" lat="50.92889"><ele>106.5</ele><time>2022-08-07T07:35:21.000Z</time></trkpt><trkpt lon="5.75741" lat="50.928781"><ele>107.1</ele><time>2022-08-07T07:35:25.000Z</time></trkpt><trkpt lon="5.757734" lat="50.928604"><ele>107.5</ele><time>2022-08-07T07:35:30.000Z</time></trkpt><trkpt lon="5.757865" lat="50.928536"><ele>107.7</ele><time>2022-08-07T07:35:32.000Z</time></trkpt><trkpt lon="5.757939" lat="50.9285"><ele>107.7</ele><time>2022-08-07T07:35:33.000Z</time></trkpt><trkpt lon="5.758085" lat="50.92843"><ele>107.8</ele><time>2022-08-07T07:35:35.000Z</time></trkpt><trkpt lon="5.758153" lat="50.928387"><ele>107.9</ele><time>2022-08-07T07:35:36.000Z</time></trkpt><trkpt lon="5.758379" lat="50.928192"><ele>108</ele><time>2022-08-07T07:35:40.000Z</time></trkpt><trkpt lon="5.758466" lat="50.928089"><ele>108.1</ele><time>2022-08-07T07:35:42.000Z</time></trkpt><trkpt lon="5.758626" lat="50.927895"><ele>108.2</ele><time>2022-08-07T07:35:46.000Z</time></trkpt><trkpt lon="5.758782" lat="50.927697"><ele>108.3</ele><time>2022-08-07T07:35:50.000Z</time></trkpt><trkpt lon="5.758859" lat="50.927601"><ele>108.4</ele><time>2022-08-07T07:35:52.000Z</time></trkpt><trkpt lon="5.759065" lat="50.927391"><ele>108.5</ele><time>2022-08-07T07:35:57.000Z</time></trkpt><trkpt lon="5.759155" lat="50.927329"><ele>108.6</ele><time>2022-08-07T07:35:59.000Z</time></trkpt><trkpt lon="5.759286" lat="50.927228"><ele>108.7</ele><time>2022-08-07T07:36:02.000Z</time></trkpt><trkpt lon="5.759412" lat="50.927128"><ele>108.7</ele><time>2022-08-07T07:36:05.000Z</time></trkpt><trkpt lon="5.759481" lat="50.927068"><ele>108.8</ele><time>2022-08-07T07:36:07.000Z</time></trkpt><trkpt lon="5.759522" lat="50.927038"><ele>108.8</ele><time>2022-08-07T07:36:08.000Z</time></trkpt><trkpt lon="5.759703" lat="50.926872"><ele>108.9</ele><time>2022-08-07T07:36:14.000Z</time></trkpt><trkpt lon="5.759864" lat="50.92664"><ele>109</ele><time>2022-08-07T07:36:21.000Z</time></trkpt><trkpt lon="5.760005" lat="50.926418"><ele>109.1</ele><time>2022-08-07T07:36:27.000Z</time></trkpt><trkpt lon="5.760134" lat="50.926122"><ele>109.3</ele><time>2022-08-07T07:36:34.000Z</time></trkpt><trkpt lon="5.760277" lat="50.925809"><ele>109.3</ele><time>2022-08-07T07:36:41.000Z</time></trkpt><trkpt lon="5.760267" lat="50.925715"><ele>109.2</ele><time>2022-08-07T07:36:43.000Z</time></trkpt><trkpt lon="5.760171" lat="50.925647"><ele>109</ele><time>2022-08-07T07:36:45.000Z</time></trkpt><trkpt lon="5.760092" lat="50.925627"><ele>108.9</ele><time>2022-08-07T07:36:46.000Z</time></trkpt><trkpt lon="5.759618" lat="50.925552"><ele>107.9</ele><time>2022-08-07T07:36:51.000Z</time></trkpt><trkpt lon="5.758901" lat="50.925438"><ele>106.7</ele><time>2022-08-07T07:36:58.000Z</time></trkpt><trkpt lon="5.758276" lat="50.925314"><ele>105.6</ele><time>2022-08-07T07:37:04.000Z</time></trkpt><trkpt lon="5.758173" lat="50.925286"><ele>105.4</ele><time>2022-08-07T07:37:05.000Z</time></trkpt><trkpt lon="5.757986" lat="50.925229"><ele>104.9</ele><time>2022-08-07T07:37:07.000Z</time></trkpt><trkpt lon="5.757629" lat="50.925085"><ele>104.1</ele><time>2022-08-07T07:37:11.000Z</time></trkpt><trkpt lon="5.757169" lat="50.924881"><ele>103.1</ele><time>2022-08-07T07:37:16.000Z</time></trkpt><trkpt lon="5.756815" lat="50.924708"><ele>102.6</ele><time>2022-08-07T07:37:20.000Z</time></trkpt><trkpt lon="5.756316" lat="50.924438"><ele>101.8</ele><time>2022-08-07T07:37:26.000Z</time></trkpt><trkpt lon="5.756045" lat="50.924308"><ele>100.2</ele><time>2022-08-07T07:37:29.000Z</time></trkpt><trkpt lon="5.755523" lat="50.924169"><ele>96.5</ele><time>2022-08-07T07:37:33.000Z</time></trkpt><trkpt lon="5.754698" lat="50.92401"><ele>89.3</ele><time>2022-08-07T07:37:38.000Z</time></trkpt><trkpt lon="5.753827" lat="50.923927"><ele>82.9</ele><time>2022-08-07T07:37:43.000Z</time></trkpt><trkpt lon="5.753239" lat="50.92396"><ele>77.3</ele><time>2022-08-07T07:37:47.000Z</time></trkpt><trkpt lon="5.753099" lat="50.92398"><ele>76</ele><time>2022-08-07T07:37:48.000Z</time></trkpt><trkpt lon="5.75286" lat="50.924044"><ele>73.5</ele><time>2022-08-07T07:37:50.000Z</time></trkpt><trkpt lon="5.752665" lat="50.924145"><ele>71.1</ele><time>2022-08-07T07:37:52.000Z</time></trkpt><trkpt lon="5.752505" lat="50.924268"><ele>69.1</ele><time>2022-08-07T07:37:54.000Z</time></trkpt><trkpt lon="5.752419" lat="50.924324"><ele>68.1</ele><time>2022-08-07T07:37:55.000Z</time></trkpt><trkpt lon="5.752351" lat="50.924346"><ele>67</ele><time>2022-08-07T07:37:56.000Z</time></trkpt><trkpt lon="5.752228" lat="50.924369"><ele>66</ele><time>2022-08-07T07:37:58.000Z</time></trkpt><trkpt lon="5.752172" lat="50.92435"><ele>65.5</ele><time>2022-08-07T07:37:59.000Z</time></trkpt><trkpt lon="5.752125" lat="50.924278"><ele>64.6</ele><time>2022-08-07T07:38:01.000Z</time></trkpt><trkpt lon="5.752111" lat="50.924209"><ele>63.9</ele><time>2022-08-07T07:38:02.000Z</time></trkpt><trkpt lon="5.752133" lat="50.924065"><ele>62.6</ele><time>2022-08-07T07:38:04.000Z</time></trkpt><trkpt lon="5.752174" lat="50.923923"><ele>61.6</ele><time>2022-08-07T07:38:06.000Z</time></trkpt><trkpt lon="5.752239" lat="50.923478"><ele>58.6</ele><time>2022-08-07T07:38:11.000Z</time></trkpt><trkpt lon="5.752328" lat="50.923074"><ele>56.6</ele><time>2022-08-07T07:38:15.000Z</time></trkpt><trkpt lon="5.752338" lat="50.922969"><ele>56.4</ele><time>2022-08-07T07:38:16.000Z</time></trkpt><trkpt lon="5.752293" lat="50.92258"><ele>56.2</ele><time>2022-08-07T07:38:20.000Z</time></trkpt><trkpt lon="5.752218" lat="50.922312"><ele>56.8</ele><time>2022-08-07T07:38:23.000Z</time></trkpt><trkpt lon="5.752226" lat="50.922231"><ele>57</ele><time>2022-08-07T07:38:24.000Z</time></trkpt><trkpt lon="5.752254" lat="50.922155"><ele>57.3</ele><time>2022-08-07T07:38:25.000Z</time></trkpt><trkpt lon="5.75235" lat="50.92203"><ele>57.9</ele><time>2022-08-07T07:38:27.000Z</time></trkpt><trkpt lon="5.752488" lat="50.921908"><ele>58.7</ele><time>2022-08-07T07:38:29.000Z</time></trkpt><trkpt lon="5.752753" lat="50.921698"><ele>60.3</ele><time>2022-08-07T07:38:33.000Z</time></trkpt><trkpt lon="5.753053" lat="50.921516"><ele>62.5</ele><time>2022-08-07T07:38:38.000Z</time></trkpt><trkpt lon="5.753377" lat="50.921349"><ele>65.3</ele><time>2022-08-07T07:38:44.000Z</time></trkpt><trkpt lon="5.753585" lat="50.921215"><ele>67.7</ele><time>2022-08-07T07:38:49.000Z</time></trkpt><trkpt lon="5.753788" lat="50.921057"><ele>70.9</ele><time>2022-08-07T07:38:55.000Z</time></trkpt><trkpt lon="5.753923" lat="50.920954"><ele>73.3</ele><time>2022-08-07T07:39:00.000Z</time></trkpt><trkpt lon="5.753944" lat="50.92094"><ele>73.7</ele><time>2022-08-07T07:39:01.000Z</time></trkpt><trkpt lon="5.754014" lat="50.920896"><ele>74.8</ele><time>2022-08-07T07:39:04.000Z</time></trkpt><trkpt lon="5.754065" lat="50.920772"><ele>76.5</ele><time>2022-08-07T07:39:09.000Z</time></trkpt><trkpt lon="5.754089" lat="50.920717"><ele>77.2</ele><time>2022-08-07T07:39:11.000Z</time></trkpt><trkpt lon="5.754156" lat="50.920628"><ele>78.3</ele><time>2022-08-07T07:39:14.000Z</time></trkpt><trkpt lon="5.754196" lat="50.920499"><ele>79.8</ele><time>2022-08-07T07:39:20.000Z</time></trkpt><trkpt lon="5.754208" lat="50.920421"><ele>80.9</ele><time>2022-08-07T07:39:23.000Z</time></trkpt><trkpt lon="5.754199" lat="50.920368"><ele>81.7</ele><time>2022-08-07T07:39:25.000Z</time></trkpt><trkpt lon="5.754192" lat="50.920343"><ele>82</ele><time>2022-08-07T07:39:26.000Z</time></trkpt><trkpt lon="5.754208" lat="50.920103"><ele>85.2</ele><time>2022-08-07T07:39:35.000Z</time></trkpt><trkpt lon="5.754226" lat="50.919941"><ele>87.4</ele><time>2022-08-07T07:39:41.000Z</time></trkpt><trkpt lon="5.754277" lat="50.919809"><ele>89.2</ele><time>2022-08-07T07:39:47.000Z</time></trkpt><trkpt lon="5.754313" lat="50.919663"><ele>91.2</ele><time>2022-08-07T07:39:54.000Z</time></trkpt><trkpt lon="5.754388" lat="50.919533"><ele>92.9</ele><time>2022-08-07T07:40:01.000Z</time></trkpt><trkpt lon="5.754404" lat="50.919508"><ele>93.2</ele><time>2022-08-07T07:40:02.000Z</time></trkpt><trkpt lon="5.754461" lat="50.919429"><ele>94.3</ele><time>2022-08-07T07:40:05.000Z</time></trkpt><trkpt lon="5.754461" lat="50.919429"><ele>94.3</ele><time>2022-08-07T07:40:06.000Z</time></trkpt><trkpt lon="5.754506" lat="50.919362"><ele>95.1</ele><time>2022-08-07T07:40:09.000Z</time></trkpt><trkpt lon="5.75453" lat="50.91932"><ele>95.6</ele><time>2022-08-07T07:40:11.000Z</time></trkpt><trkpt lon="5.754574" lat="50.919254"><ele>96.4</ele><time>2022-08-07T07:40:14.000Z</time></trkpt><trkpt lon="5.754588" lat="50.919235"><ele>96.6</ele><time>2022-08-07T07:40:15.000Z</time></trkpt><trkpt lon="5.754619" lat="50.919194"><ele>97.1</ele><time>2022-08-07T07:40:17.000Z</time></trkpt><trkpt lon="5.75474" lat="50.918992"><ele>99</ele><time>2022-08-07T07:40:25.000Z</time></trkpt><trkpt lon="5.754867" lat="50.918794"><ele>100.3</ele><time>2022-08-07T07:40:31.000Z</time></trkpt><trkpt lon="5.754893" lat="50.91876"><ele>100.4</ele><time>2022-08-07T07:40:32.000Z</time></trkpt><trkpt lon="5.755018" lat="50.918611"><ele>101.1</ele><time>2022-08-07T07:40:36.000Z</time></trkpt><trkpt lon="5.75504" lat="50.918577"><ele>101.2</ele><time>2022-08-07T07:40:37.000Z</time></trkpt><trkpt lon="5.755177" lat="50.918343"><ele>102</ele><time>2022-08-07T07:40:42.000Z</time></trkpt><trkpt lon="5.755206" lat="50.9183"><ele>102.1</ele><time>2022-08-07T07:40:43.000Z</time></trkpt><trkpt lon="5.75544" lat="50.91792"><ele>103.1</ele><time>2022-08-07T07:40:51.000Z</time></trkpt><trkpt lon="5.755695" lat="50.917566"><ele>103.9</ele><time>2022-08-07T07:40:58.000Z</time></trkpt><trkpt lon="5.756008" lat="50.917162"><ele>104.7</ele><time>2022-08-07T07:41:05.000Z</time></trkpt><trkpt lon="5.756327" lat="50.916766"><ele>104.9</ele><time>2022-08-07T07:41:13.000Z</time></trkpt><trkpt lon="5.756446" lat="50.916658"><ele>104.9</ele><time>2022-08-07T07:41:15.000Z</time></trkpt><trkpt lon="5.75669" lat="50.916511"><ele>104.9</ele><time>2022-08-07T07:41:18.000Z</time></trkpt><trkpt lon="5.757257" lat="50.916169"><ele>105.1</ele><time>2022-08-07T07:41:25.000Z</time></trkpt><trkpt lon="5.757362" lat="50.916059"><ele>105.2</ele><time>2022-08-07T07:41:27.000Z</time></trkpt><trkpt lon="5.757492" lat="50.915866"><ele>105.3</ele><time>2022-08-07T07:41:30.000Z</time></trkpt><trkpt lon="5.757574" lat="50.915732"><ele>105.4</ele><time>2022-08-07T07:41:32.000Z</time></trkpt><trkpt lon="5.757846" lat="50.915411"><ele>105.8</ele><time>2022-08-07T07:41:37.000Z</time></trkpt><trkpt lon="5.758198" lat="50.915156"><ele>106.3</ele><time>2022-08-07T07:41:42.000Z</time></trkpt><trkpt lon="5.758267" lat="50.915114"><ele>106.4</ele><time>2022-08-07T07:41:43.000Z</time></trkpt><trkpt lon="5.758744" lat="50.914806"><ele>107.5</ele><time>2022-08-07T07:41:51.000Z</time></trkpt><trkpt lon="5.758839" lat="50.914745"><ele>107.7</ele><time>2022-08-07T07:41:53.000Z</time></trkpt><trkpt lon="5.758928" lat="50.914726"><ele>107.9</ele><time>2022-08-07T07:41:55.000Z</time></trkpt><trkpt lon="5.759054" lat="50.914747"><ele>107.9</ele><time>2022-08-07T07:41:59.000Z</time></trkpt><trkpt lon="5.759159" lat="50.914795"><ele>107.8</ele><time>2022-08-07T07:42:05.000Z</time></trkpt><trkpt lon="5.759159" lat="50.914795"><ele>107.9</ele><time>2022-08-07T07:42:07.000Z</time></trkpt><trkpt lon="5.759059" lat="50.914775"><ele>107.9</ele><time>2022-08-07T07:44:45.000Z</time></trkpt><trkpt lon="5.759013" lat="50.914757"><ele>107.9</ele><time>2022-08-07T07:44:46.000Z</time></trkpt><trkpt lon="5.758728" lat="50.914655"><ele>108</ele><time>2022-08-07T07:44:51.000Z</time></trkpt><trkpt lon="5.758235" lat="50.91439"><ele>108.3</ele><time>2022-08-07T07:44:59.000Z</time></trkpt><trkpt lon="5.757892" lat="50.914195"><ele>108.5</ele><time>2022-08-07T07:45:04.000Z</time></trkpt><trkpt lon="5.7573" lat="50.913858"><ele>108.9</ele><time>2022-08-07T07:45:12.000Z</time></trkpt><trkpt lon="5.756715" lat="50.913532"><ele>109.4</ele><time>2022-08-07T07:45:20.000Z</time></trkpt><trkpt lon="5.756643" lat="50.913491"><ele>109.5</ele><time>2022-08-07T07:45:21.000Z</time></trkpt><trkpt lon="5.756373" lat="50.913309"><ele>109.7</ele><time>2022-08-07T07:45:25.000Z</time></trkpt><trkpt lon="5.756309" lat="50.913264"><ele>109.8</ele><time>2022-08-07T07:45:26.000Z</time></trkpt><trkpt lon="5.755946" lat="50.912958"><ele>110</ele><time>2022-08-07T07:45:32.000Z</time></trkpt><trkpt lon="5.755502" lat="50.912516"><ele>110.3</ele><time>2022-08-07T07:45:40.000Z</time></trkpt><trkpt lon="5.755097" lat="50.912051"><ele>110.7</ele><time>2022-08-07T07:45:48.000Z</time></trkpt><trkpt lon="5.754939" lat="50.911877"><ele>110.7</ele><time>2022-08-07T07:45:51.000Z</time></trkpt><trkpt lon="5.754619" lat="50.91154"><ele>110.8</ele><time>2022-08-07T07:45:57.000Z</time></trkpt><trkpt lon="5.754505" lat="50.911427"><ele>110.8</ele><time>2022-08-07T07:45:59.000Z</time></trkpt><trkpt lon="5.754255" lat="50.911208"><ele>110.7</ele><time>2022-08-07T07:46:03.000Z</time></trkpt><trkpt lon="5.753921" lat="50.910944"><ele>110.5</ele><time>2022-08-07T07:46:08.000Z</time></trkpt><trkpt lon="5.753641" lat="50.910732"><ele>110.4</ele><time>2022-08-07T07:46:12.000Z</time></trkpt><trkpt lon="5.753184" lat="50.910434"><ele>110.2</ele><time>2022-08-07T07:46:18.000Z</time></trkpt><trkpt lon="5.752544" lat="50.910072"><ele>109.9</ele><time>2022-08-07T07:46:26.000Z</time></trkpt><trkpt lon="5.752148" lat="50.909849"><ele>109.9</ele><time>2022-08-07T07:46:31.000Z</time></trkpt><trkpt lon="5.752007" lat="50.909773"><ele>110</ele><time>2022-08-07T07:46:33.000Z</time></trkpt><trkpt lon="5.751571" lat="50.909508"><ele>110.3</ele><time>2022-08-07T07:46:39.000Z</time></trkpt><trkpt lon="5.751144" lat="50.909204"><ele>110.1</ele><time>2022-08-07T07:46:45.000Z</time></trkpt><trkpt lon="5.750454" lat="50.908787"><ele>109.6</ele><time>2022-08-07T07:46:54.000Z</time></trkpt><trkpt lon="5.749784" lat="50.908424"><ele>109.3</ele><time>2022-08-07T07:47:02.000Z</time></trkpt><trkpt lon="5.749529" lat="50.908284"><ele>109.2</ele><time>2022-08-07T07:47:05.000Z</time></trkpt><trkpt lon="5.749118" lat="50.908033"><ele>109</ele><time>2022-08-07T07:47:10.000Z</time></trkpt><trkpt lon="5.748818" lat="50.907824"><ele>108.8</ele><time>2022-08-07T07:47:14.000Z</time></trkpt><trkpt lon="5.74828" lat="50.907377"><ele>108.5</ele><time>2022-08-07T07:47:22.000Z</time></trkpt><trkpt lon="5.747804" lat="50.906921"><ele>108.2</ele><time>2022-08-07T07:47:30.000Z</time></trkpt><trkpt lon="5.747383" lat="50.906523"><ele>108</ele><time>2022-08-07T07:47:37.000Z</time></trkpt><trkpt lon="5.746887" lat="50.90619"><ele>107.8</ele><time>2022-08-07T07:47:44.000Z</time></trkpt><trkpt lon="5.746235" lat="50.905838"><ele>107.7</ele><time>2022-08-07T07:47:52.000Z</time></trkpt><trkpt lon="5.746088" lat="50.905739"><ele>107.7</ele><time>2022-08-07T07:47:54.000Z</time></trkpt><trkpt lon="5.745677" lat="50.905456"><ele>107.6</ele><time>2022-08-07T07:48:00.000Z</time></trkpt><trkpt lon="5.745357" lat="50.905154"><ele>107.7</ele><time>2022-08-07T07:48:06.000Z</time></trkpt><trkpt lon="5.745315" lat="50.905106"><ele>107.7</ele><time>2022-08-07T07:48:07.000Z</time></trkpt><trkpt lon="5.745229" lat="50.904959"><ele>107.9</ele><time>2022-08-07T07:48:10.000Z</time></trkpt><trkpt lon="5.745252" lat="50.904913"><ele>107.8</ele><time>2022-08-07T07:48:11.000Z</time></trkpt><trkpt lon="5.745397" lat="50.904847"><ele>107.5</ele><time>2022-08-07T07:48:13.000Z</time></trkpt><trkpt lon="5.745489" lat="50.904819"><ele>107.4</ele><time>2022-08-07T07:48:14.000Z</time></trkpt><trkpt lon="5.745597" lat="50.904777"><ele>107.2</ele><time>2022-08-07T07:48:15.000Z</time></trkpt><trkpt lon="5.745911" lat="50.90465"><ele>106.8</ele><time>2022-08-07T07:48:19.000Z</time></trkpt><trkpt lon="5.746529" lat="50.90441"><ele>105.8</ele><time>2022-08-07T07:48:26.000Z</time></trkpt><trkpt lon="5.747049" lat="50.904253"><ele>105.3</ele><time>2022-08-07T07:48:31.000Z</time></trkpt><trkpt lon="5.747169" lat="50.904144"><ele>105.1</ele><time>2022-08-07T07:48:33.000Z</time></trkpt><trkpt lon="5.747195" lat="50.904077"><ele>105</ele><time>2022-08-07T07:48:34.000Z</time></trkpt><trkpt lon="5.747234" lat="50.903944"><ele>105</ele><time>2022-08-07T07:48:36.000Z</time></trkpt><trkpt lon="5.747186" lat="50.903829"><ele>105</ele><time>2022-08-07T07:48:38.000Z</time></trkpt><trkpt lon="5.747002" lat="50.903758"><ele>104.8</ele><time>2022-08-07T07:48:40.000Z</time></trkpt><trkpt lon="5.746915" lat="50.903734"><ele>104.8</ele><time>2022-08-07T07:48:41.000Z</time></trkpt><trkpt lon="5.746745" lat="50.903675"><ele>104.8</ele><time>2022-08-07T07:48:43.000Z</time></trkpt><trkpt lon="5.7466" lat="50.903594"><ele>105</ele><time>2022-08-07T07:48:45.000Z</time></trkpt><trkpt lon="5.746288" lat="50.903374"><ele>105.9</ele><time>2022-08-07T07:48:50.000Z</time></trkpt><trkpt lon="5.746112" lat="50.903226"><ele>106.4</ele><time>2022-08-07T07:48:53.000Z</time></trkpt><trkpt lon="5.745717" lat="50.90286"><ele>106.8</ele><time>2022-08-07T07:49:00.000Z</time></trkpt><trkpt lon="5.745413" lat="50.902611"><ele>106.6</ele><time>2022-08-07T07:49:05.000Z</time></trkpt><trkpt lon="5.745279" lat="50.902528"><ele>106.3</ele><time>2022-08-07T07:49:07.000Z</time></trkpt><trkpt lon="5.745068" lat="50.902399"><ele>105.7</ele><time>2022-08-07T07:49:10.000Z</time></trkpt><trkpt lon="5.744502" lat="50.902123"><ele>103.3</ele><time>2022-08-07T07:49:17.000Z</time></trkpt><trkpt lon="5.744092" lat="50.901944"><ele>100.5</ele><time>2022-08-07T07:49:21.000Z</time></trkpt><trkpt lon="5.743584" lat="50.901678"><ele>95.4</ele><time>2022-08-07T07:49:25.000Z</time></trkpt><trkpt lon="5.742822" lat="50.901302"><ele>87.8</ele><time>2022-08-07T07:49:30.000Z</time></trkpt><trkpt lon="5.742531" lat="50.901196"><ele>85.5</ele><time>2022-08-07T07:49:32.000Z</time></trkpt><trkpt lon="5.742223" lat="50.90111"><ele>83.8</ele><time>2022-08-07T07:49:34.000Z</time></trkpt><trkpt lon="5.742077" lat="50.901057"><ele>83.1</ele><time>2022-08-07T07:49:35.000Z</time></trkpt><trkpt lon="5.741817" lat="50.90092"><ele>81.6</ele><time>2022-08-07T07:49:37.000Z</time></trkpt><trkpt lon="5.741338" lat="50.900501"><ele>78.2</ele><time>2022-08-07T07:49:42.000Z</time></trkpt><trkpt lon="5.74128" lat="50.900407"><ele>77.6</ele><time>2022-08-07T07:49:43.000Z</time></trkpt><trkpt lon="5.741135" lat="50.900004"><ele>74.9</ele><time>2022-08-07T07:49:47.000Z</time></trkpt><trkpt lon="5.740935" lat="50.899823"><ele>73.7</ele><time>2022-08-07T07:49:49.000Z</time></trkpt><trkpt lon="5.74081" lat="50.899752"><ele>73.1</ele><time>2022-08-07T07:49:50.000Z</time></trkpt><trkpt lon="5.740403" lat="50.899568"><ele>71.9</ele><time>2022-08-07T07:49:53.000Z</time></trkpt><trkpt lon="5.740288" lat="50.899498"><ele>71.5</ele><time>2022-08-07T07:49:54.000Z</time></trkpt><trkpt lon="5.740013" lat="50.899277"><ele>70.3</ele><time>2022-08-07T07:49:57.000Z</time></trkpt><trkpt lon="5.739942" lat="50.899201"><ele>69.8</ele><time>2022-08-07T07:49:58.000Z</time></trkpt><trkpt lon="5.739865" lat="50.899133"><ele>69.3</ele><time>2022-08-07T07:49:59.000Z</time></trkpt><trkpt lon="5.739658" lat="50.899009"><ele>68</ele><time>2022-08-07T07:50:01.000Z</time></trkpt><trkpt lon="5.739409" lat="50.898899"><ele>66.7</ele><time>2022-08-07T07:50:03.000Z</time></trkpt><trkpt lon="5.739266" lat="50.898863"><ele>65.9</ele><time>2022-08-07T07:50:04.000Z</time></trkpt><trkpt lon="5.739111" lat="50.898844"><ele>65</ele><time>2022-08-07T07:50:05.000Z</time></trkpt><trkpt lon="5.738788" lat="50.898824"><ele>63</ele><time>2022-08-07T07:50:07.000Z</time></trkpt><trkpt lon="5.738044" lat="50.89875"><ele>58.9</ele><time>2022-08-07T07:50:11.000Z</time></trkpt><trkpt lon="5.737059" lat="50.898658"><ele>55.3</ele><time>2022-08-07T07:50:16.000Z</time></trkpt><trkpt lon="5.736868" lat="50.89865"><ele>54.7</ele><time>2022-08-07T07:50:17.000Z</time></trkpt><trkpt lon="5.736214" lat="50.898611"><ele>53.7</ele><time>2022-08-07T07:50:21.000Z</time></trkpt><trkpt lon="5.735723" lat="50.898578"><ele>52.8</ele><time>2022-08-07T07:50:25.000Z</time></trkpt><trkpt lon="5.735146" lat="50.898542"><ele>51.9</ele><time>2022-08-07T07:50:30.000Z</time></trkpt><trkpt lon="5.734646" lat="50.898506"><ele>51</ele><time>2022-08-07T07:50:34.000Z</time></trkpt><trkpt lon="5.734423" lat="50.898514"><ele>50.7</ele><time>2022-08-07T07:50:36.000Z</time></trkpt><trkpt lon="5.733497" lat="50.898617"><ele>49.6</ele><time>2022-08-07T07:50:44.000Z</time></trkpt><trkpt lon="5.733387" lat="50.898628"><ele>49.5</ele><time>2022-08-07T07:50:45.000Z</time></trkpt><trkpt lon="5.732722" lat="50.898726"><ele>48.6</ele><time>2022-08-07T07:50:51.000Z</time></trkpt><trkpt lon="5.732367" lat="50.8989"><ele>48.2</ele><time>2022-08-07T07:50:55.000Z</time></trkpt><trkpt lon="5.73213" lat="50.899039"><ele>48.1</ele><time>2022-08-07T07:50:58.000Z</time></trkpt><trkpt lon="5.732034" lat="50.899059"><ele>48</ele><time>2022-08-07T07:50:59.000Z</time></trkpt><trkpt lon="5.731933" lat="50.899058"><ele>48</ele><time>2022-08-07T07:51:00.000Z</time></trkpt><trkpt lon="5.731837" lat="50.899029"><ele>47.9</ele><time>2022-08-07T07:51:01.000Z</time></trkpt><trkpt lon="5.731654" lat="50.898964"><ele>47.8</ele><time>2022-08-07T07:51:03.000Z</time></trkpt><trkpt lon="5.731572" lat="50.898957"><ele>47.7</ele><time>2022-08-07T07:51:04.000Z</time></trkpt><trkpt lon="5.731515" lat="50.898968"><ele>47.6</ele><time>2022-08-07T07:51:05.000Z</time></trkpt><trkpt lon="5.731443" lat="50.899018"><ele>47.6</ele><time>2022-08-07T07:51:06.000Z</time></trkpt><trkpt lon="5.731385" lat="50.899096"><ele>47.4</ele><time>2022-08-07T07:51:09.000Z</time></trkpt><trkpt lon="5.731341" lat="50.899194"><ele>47.2</ele><time>2022-08-07T07:51:11.000Z</time></trkpt><trkpt lon="5.731326" lat="50.899303"><ele>47.1</ele><time>2022-08-07T07:51:13.000Z</time></trkpt><trkpt lon="5.731369" lat="50.899416"><ele>46.9</ele><time>2022-08-07T07:51:15.000Z</time></trkpt><trkpt lon="5.731619" lat="50.899835"><ele>46.4</ele><time>2022-08-07T07:51:22.000Z</time></trkpt><trkpt lon="5.731882" lat="50.900356"><ele>46.2</ele><time>2022-08-07T07:51:30.000Z</time></trkpt><trkpt lon="5.731922" lat="50.900416"><ele>46.2</ele><time>2022-08-07T07:51:31.000Z</time></trkpt><trkpt lon="5.732067" lat="50.900613"><ele>46.1</ele><time>2022-08-07T07:51:34.000Z</time></trkpt><trkpt lon="5.732132" lat="50.90075"><ele>46</ele><time>2022-08-07T07:51:36.000Z</time></trkpt><trkpt lon="5.732362" lat="50.901216"><ele>45.9</ele><time>2022-08-07T07:51:43.000Z</time></trkpt><trkpt lon="5.73245" lat="50.901409"><ele>45.8</ele><time>2022-08-07T07:51:46.000Z</time></trkpt><trkpt lon="5.732662" lat="50.901975"><ele>45.7</ele><time>2022-08-07T07:51:55.000Z</time></trkpt><trkpt lon="5.732722" lat="50.9024"><ele>45.6</ele><time>2022-08-07T07:52:02.000Z</time></trkpt><trkpt lon="5.732833" lat="50.902869"><ele>45.5</ele><time>2022-08-07T07:52:10.000Z</time></trkpt><trkpt lon="5.732852" lat="50.902926"><ele>45.5</ele><time>2022-08-07T07:52:11.000Z</time></trkpt><trkpt lon="5.733088" lat="50.903379"><ele>45.5</ele><time>2022-08-07T07:52:19.000Z</time></trkpt><trkpt lon="5.73325" lat="50.903593"><ele>45.5</ele><time>2022-08-07T07:52:23.000Z</time></trkpt><trkpt lon="5.733492" lat="50.903843"><ele>45.4</ele><time>2022-08-07T07:52:28.000Z</time></trkpt><trkpt lon="5.733917" lat="50.904199"><ele>45.4</ele><time>2022-08-07T07:52:36.000Z</time></trkpt><trkpt lon="5.734245" lat="50.904519"><ele>45.3</ele><time>2022-08-07T07:52:42.000Z</time></trkpt><trkpt lon="5.734672" lat="50.904907"><ele>45.4</ele><time>2022-08-07T07:52:49.000Z</time></trkpt><trkpt lon="5.734798" lat="50.905021"><ele>45.4</ele><time>2022-08-07T07:52:51.000Z</time></trkpt><trkpt lon="5.735159" lat="50.905371"><ele>45.3</ele><time>2022-08-07T07:52:57.000Z</time></trkpt><trkpt lon="5.735486" lat="50.905728"><ele>45.3</ele><time>2022-08-07T07:53:02.000Z</time></trkpt><trkpt lon="5.735833" lat="50.906222"><ele>45.3</ele><time>2022-08-07T07:53:11.000Z</time></trkpt><trkpt lon="5.735875" lat="50.906284"><ele>45.3</ele><time>2022-08-07T07:53:12.000Z</time></trkpt><trkpt lon="5.736199" lat="50.906793"><ele>45.1</ele><time>2022-08-07T07:53:20.000Z</time></trkpt><trkpt lon="5.736395" lat="50.907108"><ele>45</ele><time>2022-08-07T07:53:25.000Z</time></trkpt><trkpt lon="5.736708" lat="50.907613"><ele>44.9</ele><time>2022-08-07T07:53:33.000Z</time></trkpt><trkpt lon="5.736749" lat="50.907675"><ele>44.9</ele><time>2022-08-07T07:53:34.000Z</time></trkpt><trkpt lon="5.737085" lat="50.908225"><ele>45.1</ele><time>2022-08-07T07:53:43.000Z</time></trkpt><trkpt lon="5.73711" lat="50.908288"><ele>45.1</ele><time>2022-08-07T07:53:44.000Z</time></trkpt><trkpt lon="5.737183" lat="50.908866"><ele>45</ele><time>2022-08-07T07:53:53.000Z</time></trkpt><trkpt lon="5.737095" lat="50.909322"><ele>44.8</ele><time>2022-08-07T07:54:00.000Z</time></trkpt><trkpt lon="5.737076" lat="50.909389"><ele>44.7</ele><time>2022-08-07T07:54:01.000Z</time></trkpt><trkpt lon="5.736929" lat="50.909907"><ele>44.4</ele><time>2022-08-07T07:54:09.000Z</time></trkpt><trkpt lon="5.736915" lat="50.90997"><ele>44.4</ele><time>2022-08-07T07:54:10.000Z</time></trkpt><trkpt lon="5.73692" lat="50.910345"><ele>44.3</ele><time>2022-08-07T07:54:16.000Z</time></trkpt><trkpt lon="5.737047" lat="50.910768"><ele>44.3</ele><time>2022-08-07T07:54:23.000Z</time></trkpt><trkpt lon="5.737204" lat="50.911113"><ele>44.3</ele><time>2022-08-07T07:54:28.000Z</time></trkpt><trkpt lon="5.737293" lat="50.911255"><ele>44.2</ele><time>2022-08-07T07:54:30.000Z</time></trkpt><trkpt lon="5.737382" lat="50.911472"><ele>44.1</ele><time>2022-08-07T07:54:33.000Z</time></trkpt><trkpt lon="5.737575" lat="50.912026"><ele>44.1</ele><time>2022-08-07T07:54:41.000Z</time></trkpt><trkpt lon="5.737609" lat="50.912164"><ele>44.1</ele><time>2022-08-07T07:54:43.000Z</time></trkpt><trkpt lon="5.737753" lat="50.912707"><ele>43.9</ele><time>2022-08-07T07:54:51.000Z</time></trkpt><trkpt lon="5.738022" lat="50.913148"><ele>43.7</ele><time>2022-08-07T07:54:57.000Z</time></trkpt><trkpt lon="5.738113" lat="50.913196"><ele>43.6</ele><time>2022-08-07T07:54:59.000Z</time></trkpt><trkpt lon="5.73833" lat="50.913276"><ele>43.5</ele><time>2022-08-07T07:55:01.000Z</time></trkpt><trkpt lon="5.738442" lat="50.913307"><ele>43.4</ele><time>2022-08-07T07:55:02.000Z</time></trkpt><trkpt lon="5.739112" lat="50.913432"><ele>43.3</ele><time>2022-08-07T07:55:08.000Z</time></trkpt><trkpt lon="5.739856" lat="50.913559"><ele>43.4</ele><time>2022-08-07T07:55:15.000Z</time></trkpt><trkpt lon="5.739961" lat="50.913578"><ele>43.4</ele><time>2022-08-07T07:55:16.000Z</time></trkpt><trkpt lon="5.740585" lat="50.913691"><ele>43.5</ele><time>2022-08-07T07:55:22.000Z</time></trkpt><trkpt lon="5.741426" lat="50.913828"><ele>43.9</ele><time>2022-08-07T07:55:30.000Z</time></trkpt><trkpt lon="5.742041" lat="50.91391"><ele>44.1</ele><time>2022-08-07T07:55:36.000Z</time></trkpt><trkpt lon="5.742913" lat="50.914063"><ele>44.7</ele><time>2022-08-07T07:55:45.000Z</time></trkpt><trkpt lon="5.743442" lat="50.914252"><ele>45.1</ele><time>2022-08-07T07:55:51.000Z</time></trkpt><trkpt lon="5.743594" lat="50.914346"><ele>45.2</ele><time>2022-08-07T07:55:53.000Z</time></trkpt><trkpt lon="5.743842" lat="50.914562"><ele>45.1</ele><time>2022-08-07T07:55:57.000Z</time></trkpt><trkpt lon="5.744283" lat="50.915038"><ele>44.9</ele><time>2022-08-07T07:56:05.000Z</time></trkpt><trkpt lon="5.744389" lat="50.915158"><ele>44.9</ele><time>2022-08-07T07:56:07.000Z</time></trkpt><trkpt lon="5.744687" lat="50.915525"><ele>45</ele><time>2022-08-07T07:56:13.000Z</time></trkpt><trkpt lon="5.744826" lat="50.915711"><ele>45</ele><time>2022-08-07T07:56:16.000Z</time></trkpt><trkpt lon="5.745149" lat="50.916146"><ele>45</ele><time>2022-08-07T07:56:23.000Z</time></trkpt><trkpt lon="5.745193" lat="50.916209"><ele>45.1</ele><time>2022-08-07T07:56:24.000Z</time></trkpt><trkpt lon="5.745332" lat="50.916395"><ele>45.1</ele><time>2022-08-07T07:56:27.000Z</time></trkpt><trkpt lon="5.745653" lat="50.916823"><ele>45.3</ele><time>2022-08-07T07:56:34.000Z</time></trkpt><trkpt lon="5.74583" lat="50.917146"><ele>45.3</ele><time>2022-08-07T07:56:39.000Z</time></trkpt><trkpt lon="5.74597" lat="50.917407"><ele>45.3</ele><time>2022-08-07T07:56:43.000Z</time></trkpt><trkpt lon="5.746056" lat="50.917538"><ele>45.4</ele><time>2022-08-07T07:56:45.000Z</time></trkpt><trkpt lon="5.746257" lat="50.917782"><ele>45.4</ele><time>2022-08-07T07:56:49.000Z</time></trkpt><trkpt lon="5.746594" lat="50.918124"><ele>45.4</ele><time>2022-08-07T07:56:55.000Z</time></trkpt><trkpt lon="5.746849" lat="50.918429"><ele>45.5</ele><time>2022-08-07T07:57:00.000Z</time></trkpt><trkpt lon="5.746934" lat="50.918557"><ele>45.5</ele><time>2022-08-07T07:57:02.000Z</time></trkpt><trkpt lon="5.747167" lat="50.919075"><ele>45.7</ele><time>2022-08-07T07:57:10.000Z</time></trkpt><trkpt lon="5.747311" lat="50.91953"><ele>45.9</ele><time>2022-08-07T07:57:17.000Z</time></trkpt><trkpt lon="5.747543" lat="50.919995"><ele>46</ele><time>2022-08-07T07:57:24.000Z</time></trkpt><trkpt lon="5.747907" lat="50.920501"><ele>46.1</ele><time>2022-08-07T07:57:32.000Z</time></trkpt><trkpt lon="5.748203" lat="50.920783"><ele>46.2</ele><time>2022-08-07T07:57:37.000Z</time></trkpt><trkpt lon="5.748274" lat="50.920837"><ele>46.2</ele><time>2022-08-07T07:57:38.000Z</time></trkpt><trkpt lon="5.748761" lat="50.921225"><ele>46.6</ele><time>2022-08-07T07:57:45.000Z</time></trkpt><trkpt lon="5.748887" lat="50.921339"><ele>46.7</ele><time>2022-08-07T07:57:47.000Z</time></trkpt><trkpt lon="5.74905" lat="50.92151"><ele>46.9</ele><time>2022-08-07T07:57:50.000Z</time></trkpt><trkpt lon="5.749189" lat="50.921683"><ele>47.1</ele><time>2022-08-07T07:57:53.000Z</time></trkpt><trkpt lon="5.749551" lat="50.922078"><ele>47.5</ele><time>2022-08-07T07:58:00.000Z</time></trkpt><trkpt lon="5.749966" lat="50.922536"><ele>48.2</ele><time>2022-08-07T07:58:08.000Z</time></trkpt><trkpt lon="5.75047" lat="50.923026"><ele>49.5</ele><time>2022-08-07T07:58:17.000Z</time></trkpt><trkpt lon="5.750749" lat="50.923282"><ele>50.1</ele><time>2022-08-07T07:58:22.000Z</time></trkpt><trkpt lon="5.750834" lat="50.923397"><ele>50.3</ele><time>2022-08-07T07:58:24.000Z</time></trkpt><trkpt lon="5.750944" lat="50.923568"><ele>50.8</ele><time>2022-08-07T07:58:27.000Z</time></trkpt><trkpt lon="5.751001" lat="50.923738"><ele>51.3</ele><time>2022-08-07T07:58:30.000Z</time></trkpt><trkpt lon="5.750987" lat="50.923856"><ele>51.5</ele><time>2022-08-07T07:58:32.000Z</time></trkpt><trkpt lon="5.750941" lat="50.923973"><ele>51.7</ele><time>2022-08-07T07:58:34.000Z</time></trkpt><trkpt lon="5.750611" lat="50.924401"><ele>51.4</ele><time>2022-08-07T07:58:41.000Z</time></trkpt><trkpt lon="5.750397" lat="50.924759"><ele>50.7</ele><time>2022-08-07T07:58:46.000Z</time></trkpt><trkpt lon="5.750291" lat="50.925296"><ele>50.1</ele><time>2022-08-07T07:58:52.000Z</time></trkpt><trkpt lon="5.750268" lat="50.925519"><ele>50.1</ele><time>2022-08-07T07:58:56.000Z</time></trkpt><trkpt lon="5.750274" lat="50.926027"><ele>50.4</ele><time>2022-08-07T07:59:03.000Z</time></trkpt><trkpt lon="5.750284" lat="50.926439"><ele>50.5</ele><time>2022-08-07T07:59:09.000Z</time></trkpt><trkpt lon="5.75026" lat="50.927003"><ele>50.5</ele><time>2022-08-07T07:59:17.000Z</time></trkpt><trkpt lon="5.750144" lat="50.927414"><ele>49.9</ele><time>2022-08-07T07:59:23.000Z</time></trkpt><trkpt lon="5.749988" lat="50.927752"><ele>49.1</ele><time>2022-08-07T07:59:28.000Z</time></trkpt><trkpt lon="5.749787" lat="50.928096"><ele>48.2</ele><time>2022-08-07T07:59:33.000Z</time></trkpt><trkpt lon="5.749453" lat="50.928553"><ele>47.5</ele><time>2022-08-07T07:59:40.000Z</time></trkpt><trkpt lon="5.749131" lat="50.928891"><ele>47.2</ele><time>2022-08-07T07:59:46.000Z</time></trkpt><trkpt lon="5.749015" lat="50.929069"><ele>47.2</ele><time>2022-08-07T07:59:50.000Z</time></trkpt><trkpt lon="5.748966" lat="50.92918"><ele>47.2</ele><time>2022-08-07T07:59:54.000Z</time></trkpt><trkpt lon="5.748984" lat="50.929237"><ele>47.2</ele><time>2022-08-07T07:59:58.000Z</time></trkpt><trkpt lon="5.748995" lat="50.929245"><ele>47.2</ele><time>2022-08-07T07:59:59.000Z</time></trkpt><trkpt lon="5.748997" lat="50.929249"><ele>47.2</ele><time>2022-08-07T08:00:02.000Z</time></trkpt><trkpt lon="5.748927" lat="50.929357"><ele>47.2</ele><time>2022-08-07T08:14:58.000Z</time></trkpt><trkpt lon="5.748924" lat="50.929359"><ele>47.2</ele><time>2022-08-07T08:14:59.000Z</time></trkpt><trkpt lon="5.748924" lat="50.929359"><ele>47.2</ele><time>2022-08-07T08:15:01.000Z</time></trkpt><trkpt lon="5.748932" lat="50.929362"><ele>47.2</ele><time>2022-08-07T08:15:45.000Z</time></trkpt><trkpt lon="5.748932" lat="50.929362"><ele>47.2</ele><time>2022-08-07T08:15:46.000Z</time></trkpt><trkpt lon="5.748932" lat="50.929362"><ele>47.2</ele><time>2022-08-07T08:15:47.000Z</time></trkpt><trkpt lon="5.748967" lat="50.929375"><ele>47.2</ele><time>2022-08-07T08:16:03.000Z</time></trkpt><trkpt lon="5.74897" lat="50.929382"><ele>47.2</ele><time>2022-08-07T08:16:04.000Z</time></trkpt><trkpt lon="5.748969" lat="50.929388"><ele>47.2</ele><time>2022-08-07T08:16:05.000Z</time></trkpt><trkpt lon="5.748969" lat="50.929388"><ele>47.2</ele><time>2022-08-07T08:16:06.000Z</time></trkpt><trkpt lon="5.748971" lat="50.929386"><ele>47.2</ele><time>2022-08-07T08:16:07.000Z</time></trkpt><trkpt lon="5.748977" lat="50.929384"><ele>47.2</ele><time>2022-08-07T08:16:09.000Z</time></trkpt><trkpt lon="5.748977" lat="50.929384"><ele>47.2</ele><time>2022-08-07T08:16:10.000Z</time></trkpt><trkpt lon="5.74899" lat="50.929355"><ele>47.2</ele><time>2022-08-07T08:16:45.000Z</time></trkpt><trkpt lon="5.748966" lat="50.929349"><ele>47.2</ele><time>2022-08-07T08:16:48.000Z</time></trkpt><trkpt lon="5.748966" lat="50.929349"><ele>47.2</ele><time>2022-08-07T08:16:49.000Z</time></trkpt><trkpt lon="5.748933" lat="50.929225"><ele>47.2</ele><time>2022-08-07T08:27:53.000Z</time></trkpt><trkpt lon="5.748928" lat="50.929203"><ele>47.2</ele><time>2022-08-07T08:27:54.000Z</time></trkpt><trkpt lon="5.748927" lat="50.929178"><ele>47.2</ele><time>2022-08-07T08:27:55.000Z</time></trkpt><trkpt lon="5.748979" lat="50.929051"><ele>47.2</ele><time>2022-08-07T08:28:00.000Z</time></trkpt><trkpt lon="5.749119" lat="50.928848"><ele>47.3</ele><time>2022-08-07T08:28:06.000Z</time></trkpt><trkpt lon="5.749177" lat="50.92877"><ele>47.4</ele><time>2022-08-07T08:28:08.000Z</time></trkpt><trkpt lon="5.749315" lat="50.928612"><ele>47.5</ele><time>2022-08-07T08:28:12.000Z</time></trkpt><trkpt lon="5.749448" lat="50.928429"><ele>47.7</ele><time>2022-08-07T08:28:16.000Z</time></trkpt><trkpt lon="5.749584" lat="50.928239"><ele>48</ele><time>2022-08-07T08:28:20.000Z</time></trkpt><trkpt lon="5.749621" lat="50.928189"><ele>48</ele><time>2022-08-07T08:28:21.000Z</time></trkpt><trkpt lon="5.749692" lat="50.92808"><ele>48.2</ele><time>2022-08-07T08:28:23.000Z</time></trkpt><trkpt lon="5.749748" lat="50.927976"><ele>48.5</ele><time>2022-08-07T08:28:25.000Z</time></trkpt><trkpt lon="5.749837" lat="50.927802"><ele>48.9</ele><time>2022-08-07T08:28:28.000Z</time></trkpt><trkpt lon="5.749862" lat="50.927749"><ele>49</ele><time>2022-08-07T08:28:29.000Z</time></trkpt><trkpt lon="5.74999" lat="50.927495"><ele>49.7</ele><time>2022-08-07T08:28:34.000Z</time></trkpt><trkpt lon="5.750024" lat="50.927395"><ele>49.9</ele><time>2022-08-07T08:28:36.000Z</time></trkpt><trkpt lon="5.750144" lat="50.927081"><ele>50.4</ele><time>2022-08-07T08:28:42.000Z</time></trkpt><trkpt lon="5.750177" lat="50.926974"><ele>50.5</ele><time>2022-08-07T08:28:44.000Z</time></trkpt><trkpt lon="5.750224" lat="50.926829"><ele>50.6</ele><time>2022-08-07T08:28:47.000Z</time></trkpt><trkpt lon="5.750232" lat="50.926781"><ele>50.6</ele><time>2022-08-07T08:28:48.000Z</time></trkpt><trkpt lon="5.750251" lat="50.926326"><ele>50.5</ele><time>2022-08-07T08:28:56.000Z</time></trkpt><trkpt lon="5.750259" lat="50.925964"><ele>50.4</ele><time>2022-08-07T08:29:02.000Z</time></trkpt><trkpt lon="5.750263" lat="50.925561"><ele>50.1</ele><time>2022-08-07T08:29:08.000Z</time></trkpt><trkpt lon="5.750305" lat="50.92503"><ele>50.2</ele><time>2022-08-07T08:29:16.000Z</time></trkpt><trkpt lon="5.750403" lat="50.924688"><ele>50.8</ele><time>2022-08-07T08:29:22.000Z</time></trkpt><trkpt lon="5.750448" lat="50.924582"><ele>51.1</ele><time>2022-08-07T08:29:24.000Z</time></trkpt><trkpt lon="5.75041" lat="50.924479"><ele>50.7</ele><time>2022-08-07T08:29:26.000Z</time></trkpt><trkpt lon="5.75028" lat="50.924405"><ele>49.7</ele><time>2022-08-07T08:29:28.000Z</time></trkpt><trkpt lon="5.750118" lat="50.924329"><ele>48.7</ele><time>2022-08-07T08:29:30.000Z</time></trkpt><trkpt lon="5.749744" lat="50.924134"><ele>47</ele><time>2022-08-07T08:29:34.000Z</time></trkpt><trkpt lon="5.749326" lat="50.923845"><ele>46.1</ele><time>2022-08-07T08:29:39.000Z</time></trkpt><trkpt lon="5.749179" lat="50.923727"><ele>46</ele><time>2022-08-07T08:29:41.000Z</time></trkpt><trkpt lon="5.748743" lat="50.923413"><ele>45.6</ele><time>2022-08-07T08:29:47.000Z</time></trkpt><trkpt lon="5.748306" lat="50.923032"><ele>45.1</ele><time>2022-08-07T08:29:54.000Z</time></trkpt><trkpt lon="5.748098" lat="50.92274"><ele>45</ele><time>2022-08-07T08:29:59.000Z</time></trkpt><trkpt lon="5.748071" lat="50.922682"><ele>45</ele><time>2022-08-07T08:30:00.000Z</time></trkpt><trkpt lon="5.748042" lat="50.92263"><ele>45</ele><time>2022-08-07T08:30:01.000Z</time></trkpt><trkpt lon="5.747931" lat="50.922552"><ele>45</ele><time>2022-08-07T08:30:03.000Z</time></trkpt><trkpt lon="5.747755" lat="50.922538"><ele>44.8</ele><time>2022-08-07T08:30:05.000Z</time></trkpt><trkpt lon="5.747679" lat="50.922548"><ele>44.8</ele><time>2022-08-07T08:30:06.000Z</time></trkpt><trkpt lon="5.747159" lat="50.92266"><ele>44.6</ele><time>2022-08-07T08:30:11.000Z</time></trkpt><trkpt lon="5.74657" lat="50.922756"><ele>44.8</ele><time>2022-08-07T08:30:17.000Z</time></trkpt><trkpt lon="5.745829" lat="50.922843"><ele>45.3</ele><time>2022-08-07T08:30:24.000Z</time></trkpt><trkpt lon="5.745247" lat="50.922945"><ele>46.1</ele><time>2022-08-07T08:30:30.000Z</time></trkpt><trkpt lon="5.74467" lat="50.923038"><ele>47.1</ele><time>2022-08-07T08:30:36.000Z</time></trkpt><trkpt lon="5.744573" lat="50.923055"><ele>47.3</ele><time>2022-08-07T08:30:37.000Z</time></trkpt><trkpt lon="5.743999" lat="50.923152"><ele>48.2</ele><time>2022-08-07T08:30:43.000Z</time></trkpt><trkpt lon="5.743781" lat="50.923183"><ele>48.6</ele><time>2022-08-07T08:30:45.000Z</time></trkpt><trkpt lon="5.7435" lat="50.923227"><ele>49</ele><time>2022-08-07T08:30:48.000Z</time></trkpt><trkpt lon="5.743293" lat="50.923264"><ele>49.3</ele><time>2022-08-07T08:30:50.000Z</time></trkpt><trkpt lon="5.743123" lat="50.923289"><ele>49.6</ele><time>2022-08-07T08:30:52.000Z</time></trkpt><trkpt lon="5.742419" lat="50.92333"><ele>50.9</ele><time>2022-08-07T08:30:59.000Z</time></trkpt><trkpt lon="5.742172" lat="50.923335"><ele>51.5</ele><time>2022-08-07T08:31:02.000Z</time></trkpt><trkpt lon="5.741826" lat="50.923348"><ele>52.1</ele><time>2022-08-07T08:31:06.000Z</time></trkpt><trkpt lon="5.741638" lat="50.923358"><ele>52.3</ele><time>2022-08-07T08:31:08.000Z</time></trkpt><trkpt lon="5.741492" lat="50.923397"><ele>52.4</ele><time>2022-08-07T08:31:10.000Z</time></trkpt><trkpt lon="5.741346" lat="50.923452"><ele>52.5</ele><time>2022-08-07T08:31:12.000Z</time></trkpt><trkpt lon="5.741145" lat="50.923541"><ele>52.6</ele><time>2022-08-07T08:31:15.000Z</time></trkpt><trkpt lon="5.741007" lat="50.923598"><ele>52.6</ele><time>2022-08-07T08:31:17.000Z</time></trkpt><trkpt lon="5.740734" lat="50.923708"><ele>52.5</ele><time>2022-08-07T08:31:21.000Z</time></trkpt><trkpt lon="5.740588" lat="50.923762"><ele>52.5</ele><time>2022-08-07T08:31:23.000Z</time></trkpt><trkpt lon="5.740411" lat="50.923777"><ele>52.3</ele><time>2022-08-07T08:31:25.000Z</time></trkpt><trkpt lon="5.740353" lat="50.923756"><ele>52.3</ele><time>2022-08-07T08:31:26.000Z</time></trkpt><trkpt lon="5.740293" lat="50.923716"><ele>52.1</ele><time>2022-08-07T08:31:27.000Z</time></trkpt><trkpt lon="5.740198" lat="50.923618"><ele>51.9</ele><time>2022-08-07T08:31:29.000Z</time></trkpt><trkpt lon="5.740163" lat="50.923551"><ele>51.7</ele><time>2022-08-07T08:31:30.000Z</time></trkpt><trkpt lon="5.739975" lat="50.923207"><ele>50.7</ele><time>2022-08-07T08:31:36.000Z</time></trkpt><trkpt lon="5.739928" lat="50.92315"><ele>50.5</ele><time>2022-08-07T08:31:37.000Z</time></trkpt><trkpt lon="5.739444" lat="50.922649"><ele>48.7</ele><time>2022-08-07T08:31:45.000Z</time></trkpt><trkpt lon="5.739145" lat="50.922327"><ele>47.8</ele><time>2022-08-07T08:31:51.000Z</time></trkpt><trkpt lon="5.738994" lat="50.922165"><ele>47.6</ele><time>2022-08-07T08:31:54.000Z</time></trkpt><trkpt lon="5.738886" lat="50.92207"><ele>47.4</ele><time>2022-08-07T08:31:56.000Z</time></trkpt><trkpt lon="5.738811" lat="50.922038"><ele>47.3</ele><time>2022-08-07T08:31:57.000Z</time></trkpt><trkpt lon="5.738725" lat="50.92204"><ele>47.1</ele><time>2022-08-07T08:31:58.000Z</time></trkpt><trkpt lon="5.738644" lat="50.922059"><ele>47</ele><time>2022-08-07T08:31:59.000Z</time></trkpt><trkpt lon="5.73858" lat="50.922104"><ele>46.9</ele><time>2022-08-07T08:32:00.000Z</time></trkpt><trkpt lon="5.738573" lat="50.922153"><ele>46.9</ele><time>2022-08-07T08:32:01.000Z</time></trkpt><trkpt lon="5.738589" lat="50.922215"><ele>46.8</ele><time>2022-08-07T08:32:02.000Z</time></trkpt><trkpt lon="5.738709" lat="50.92233"><ele>46.6</ele><time>2022-08-07T08:32:04.000Z</time></trkpt><trkpt lon="5.739127" lat="50.922614"><ele>45.8</ele><time>2022-08-07T08:32:09.000Z</time></trkpt><trkpt lon="5.739209" lat="50.922682"><ele>45.6</ele><time>2022-08-07T08:32:10.000Z</time></trkpt><trkpt lon="5.739533" lat="50.923021"><ele>44.8</ele><time>2022-08-07T08:32:15.000Z</time></trkpt><trkpt lon="5.73959" lat="50.923091"><ele>44.6</ele><time>2022-08-07T08:32:16.000Z</time></trkpt><trkpt lon="5.739792" lat="50.923365"><ele>44</ele><time>2022-08-07T08:32:20.000Z</time></trkpt><trkpt lon="5.73984" lat="50.923507"><ele>43.7</ele><time>2022-08-07T08:32:22.000Z</time></trkpt><trkpt lon="5.739827" lat="50.923673"><ele>43.4</ele><time>2022-08-07T08:32:24.000Z</time></trkpt><trkpt lon="5.739749" lat="50.923815"><ele>43.2</ele><time>2022-08-07T08:32:26.000Z</time></trkpt><trkpt lon="5.739603" lat="50.924091"><ele>43.2</ele><time>2022-08-07T08:32:30.000Z</time></trkpt><trkpt lon="5.739588" lat="50.924167"><ele>43.2</ele><time>2022-08-07T08:32:31.000Z</time></trkpt><trkpt lon="5.739631" lat="50.924606"><ele>43</ele><time>2022-08-07T08:32:36.000Z</time></trkpt><trkpt lon="5.73971" lat="50.92509"><ele>43.2</ele><time>2022-08-07T08:32:44.000Z</time></trkpt><trkpt lon="5.739721" lat="50.925159"><ele>43.2</ele><time>2022-08-07T08:32:45.000Z</time></trkpt><trkpt lon="5.739744" lat="50.925294"><ele>43.2</ele><time>2022-08-07T08:32:47.000Z</time></trkpt><trkpt lon="5.739797" lat="50.925707"><ele>43.2</ele><time>2022-08-07T08:32:53.000Z</time></trkpt><trkpt lon="5.739851" lat="50.925997"><ele>43</ele><time>2022-08-07T08:32:57.000Z</time></trkpt><trkpt lon="5.73992" lat="50.926423"><ele>42.7</ele><time>2022-08-07T08:33:03.000Z</time></trkpt><trkpt lon="5.739983" lat="50.92686"><ele>42.5</ele><time>2022-08-07T08:33:09.000Z</time></trkpt><trkpt lon="5.739994" lat="50.926932"><ele>42.5</ele><time>2022-08-07T08:33:10.000Z</time></trkpt><trkpt lon="5.740003" lat="50.927017"><ele>42.5</ele><time>2022-08-07T08:33:11.000Z</time></trkpt><trkpt lon="5.739992" lat="50.927142"><ele>42.4</ele><time>2022-08-07T08:33:13.000Z</time></trkpt><trkpt lon="5.739917" lat="50.927269"><ele>42.4</ele><time>2022-08-07T08:33:15.000Z</time></trkpt><trkpt lon="5.739603" lat="50.92745"><ele>42.3</ele><time>2022-08-07T08:33:19.000Z</time></trkpt><trkpt lon="5.739517" lat="50.927489"><ele>42.3</ele><time>2022-08-07T08:33:20.000Z</time></trkpt><trkpt lon="5.73934" lat="50.927565"><ele>42.2</ele><time>2022-08-07T08:33:22.000Z</time></trkpt><trkpt lon="5.739168" lat="50.927639"><ele>42.1</ele><time>2022-08-07T08:33:24.000Z</time></trkpt><trkpt lon="5.738851" lat="50.927778"><ele>42</ele><time>2022-08-07T08:33:28.000Z</time></trkpt><trkpt lon="5.738796" lat="50.927823"><ele>42</ele><time>2022-08-07T08:33:29.000Z</time></trkpt><trkpt lon="5.738759" lat="50.927869"><ele>42</ele><time>2022-08-07T08:33:30.000Z</time></trkpt><trkpt lon="5.738741" lat="50.928003"><ele>41.9</ele><time>2022-08-07T08:33:32.000Z</time></trkpt><trkpt lon="5.738758" lat="50.928222"><ele>41.6</ele><time>2022-08-07T08:33:35.000Z</time></trkpt><trkpt lon="5.738786" lat="50.928306"><ele>41.6</ele><time>2022-08-07T08:33:36.000Z</time></trkpt><trkpt lon="5.738894" lat="50.928572"><ele>41.5</ele><time>2022-08-07T08:33:40.000Z</time></trkpt><trkpt lon="5.738919" lat="50.928707"><ele>41.5</ele><time>2022-08-07T08:33:42.000Z</time></trkpt><trkpt lon="5.738901" lat="50.928845"><ele>41.5</ele><time>2022-08-07T08:33:44.000Z</time></trkpt><trkpt lon="5.738848" lat="50.929042"><ele>41.4</ele><time>2022-08-07T08:33:47.000Z</time></trkpt><trkpt lon="5.738823" lat="50.929181"><ele>41.3</ele><time>2022-08-07T08:33:49.000Z</time></trkpt><trkpt lon="5.738843" lat="50.929336"><ele>41.2</ele><time>2022-08-07T08:33:51.000Z</time></trkpt><trkpt lon="5.738916" lat="50.929537"><ele>41</ele><time>2022-08-07T08:33:54.000Z</time></trkpt><trkpt lon="5.73898" lat="50.929674"><ele>40.8</ele><time>2022-08-07T08:33:56.000Z</time></trkpt><trkpt lon="5.739043" lat="50.92981"><ele>40.6</ele><time>2022-08-07T08:33:58.000Z</time></trkpt><trkpt lon="5.739284" lat="50.930215"><ele>40.3</ele><time>2022-08-07T08:34:04.000Z</time></trkpt><trkpt lon="5.739622" lat="50.930669"><ele>40</ele><time>2022-08-07T08:34:11.000Z</time></trkpt><trkpt lon="5.740043" lat="50.931"><ele>40.2</ele><time>2022-08-07T08:34:17.000Z</time></trkpt><trkpt lon="5.740373" lat="50.931222"><ele>41.4</ele><time>2022-08-07T08:34:22.000Z</time></trkpt><trkpt lon="5.74047" lat="50.93132"><ele>41.8</ele><time>2022-08-07T08:34:25.000Z</time></trkpt><trkpt lon="5.740473" lat="50.93136"><ele>41.8</ele><time>2022-08-07T08:34:26.000Z</time></trkpt><trkpt lon="5.740501" lat="50.931454"><ele>41.6</ele><time>2022-08-07T08:34:28.000Z</time></trkpt><trkpt lon="5.740555" lat="50.931499"><ele>41.5</ele><time>2022-08-07T08:34:29.000Z</time></trkpt><trkpt lon="5.740625" lat="50.931534"><ele>41.3</ele><time>2022-08-07T08:34:30.000Z</time></trkpt><trkpt lon="5.740906" lat="50.931643"><ele>40.6</ele><time>2022-08-07T08:34:33.000Z</time></trkpt><trkpt lon="5.741638" lat="50.931861"><ele>40.3</ele><time>2022-08-07T08:34:40.000Z</time></trkpt><trkpt lon="5.741975" lat="50.931934"><ele>40.3</ele><time>2022-08-07T08:34:43.000Z</time></trkpt><trkpt lon="5.742318" lat="50.931974"><ele>40.3</ele><time>2022-08-07T08:34:46.000Z</time></trkpt><trkpt lon="5.742663" lat="50.931972"><ele>40.4</ele><time>2022-08-07T08:34:49.000Z</time></trkpt><trkpt lon="5.74289" lat="50.931951"><ele>40.4</ele><time>2022-08-07T08:34:51.000Z</time></trkpt><trkpt lon="5.743101" lat="50.931914"><ele>40.4</ele><time>2022-08-07T08:34:53.000Z</time></trkpt><trkpt lon="5.743615" lat="50.931806"><ele>40.6</ele><time>2022-08-07T08:34:58.000Z</time></trkpt><trkpt lon="5.743715" lat="50.931782"><ele>40.6</ele><time>2022-08-07T08:34:59.000Z</time></trkpt><trkpt lon="5.744412" lat="50.9316"><ele>40.7</ele><time>2022-08-07T08:35:06.000Z</time></trkpt><trkpt lon="5.744506" lat="50.931575"><ele>40.7</ele><time>2022-08-07T08:35:07.000Z</time></trkpt><trkpt lon="5.744788" lat="50.931504"><ele>40.6</ele><time>2022-08-07T08:35:10.000Z</time></trkpt><trkpt lon="5.744972" lat="50.93146"><ele>40.7</ele><time>2022-08-07T08:35:12.000Z</time></trkpt><trkpt lon="5.745144" lat="50.931424"><ele>40.7</ele><time>2022-08-07T08:35:14.000Z</time></trkpt><trkpt lon="5.74523" lat="50.931419"><ele>40.7</ele><time>2022-08-07T08:35:15.000Z</time></trkpt><trkpt lon="5.745321" lat="50.931424"><ele>40.7</ele><time>2022-08-07T08:35:16.000Z</time></trkpt><trkpt lon="5.745493" lat="50.931477"><ele>40.6</ele><time>2022-08-07T08:35:18.000Z</time></trkpt><trkpt lon="5.745618" lat="50.931579"><ele>40.3</ele><time>2022-08-07T08:35:20.000Z</time></trkpt><trkpt lon="5.745662" lat="50.931643"><ele>40.2</ele><time>2022-08-07T08:35:21.000Z</time></trkpt><trkpt lon="5.745833" lat="50.93201"><ele>39.9</ele><time>2022-08-07T08:35:26.000Z</time></trkpt><trkpt lon="5.745984" lat="50.93237"><ele>39.9</ele><time>2022-08-07T08:35:31.000Z</time></trkpt><trkpt lon="5.746123" lat="50.93263"><ele>39.9</ele><time>2022-08-07T08:35:35.000Z</time></trkpt><trkpt lon="5.746303" lat="50.933034"><ele>40</ele><time>2022-08-07T08:35:41.000Z</time></trkpt><trkpt lon="5.74635" lat="50.93317"><ele>40.1</ele><time>2022-08-07T08:35:43.000Z</time></trkpt><trkpt lon="5.746499" lat="50.933527"><ele>40.1</ele><time>2022-08-07T08:35:48.000Z</time></trkpt><trkpt lon="5.74662" lat="50.933791"><ele>40.2</ele><time>2022-08-07T08:35:52.000Z</time></trkpt><trkpt lon="5.746857" lat="50.934311"><ele>40.3</ele><time>2022-08-07T08:36:00.000Z</time></trkpt><trkpt lon="5.746883" lat="50.934377"><ele>40.3</ele><time>2022-08-07T08:36:01.000Z</time></trkpt><trkpt lon="5.747117" lat="50.934907"><ele>40.5</ele><time>2022-08-07T08:36:09.000Z</time></trkpt><trkpt lon="5.747367" lat="50.935424"><ele>40.6</ele><time>2022-08-07T08:36:17.000Z</time></trkpt><trkpt lon="5.747428" lat="50.935555"><ele>40.6</ele><time>2022-08-07T08:36:19.000Z</time></trkpt><trkpt lon="5.747678" lat="50.936078"><ele>40.6</ele><time>2022-08-07T08:36:27.000Z</time></trkpt><trkpt lon="5.747777" lat="50.936268"><ele>40.6</ele><time>2022-08-07T08:36:30.000Z</time></trkpt><trkpt lon="5.748029" lat="50.93679"><ele>40.4</ele><time>2022-08-07T08:36:38.000Z</time></trkpt><trkpt lon="5.748089" lat="50.936926"><ele>40.4</ele><time>2022-08-07T08:36:40.000Z</time></trkpt><trkpt lon="5.748167" lat="50.93733"><ele>40.3</ele><time>2022-08-07T08:36:46.000Z</time></trkpt><trkpt lon="5.74828" lat="50.937869"><ele>40.3</ele><time>2022-08-07T08:36:54.000Z</time></trkpt><trkpt lon="5.748305" lat="50.937936"><ele>40.3</ele><time>2022-08-07T08:36:55.000Z</time></trkpt><trkpt lon="5.748575" lat="50.938469"><ele>40.4</ele><time>2022-08-07T08:37:03.000Z</time></trkpt><trkpt lon="5.748775" lat="50.938944"><ele>40.4</ele><time>2022-08-07T08:37:10.000Z</time></trkpt><trkpt lon="5.749019" lat="50.93953"><ele>40.4</ele><time>2022-08-07T08:37:19.000Z</time></trkpt><trkpt lon="5.749045" lat="50.939596"><ele>40.4</ele><time>2022-08-07T08:37:20.000Z</time></trkpt><trkpt lon="5.74924" lat="50.939978"><ele>40.4</ele><time>2022-08-07T08:37:26.000Z</time></trkpt><trkpt lon="5.749424" lat="50.940357"><ele>40.4</ele><time>2022-08-07T08:37:32.000Z</time></trkpt><trkpt lon="5.749508" lat="50.940542"><ele>40.4</ele><time>2022-08-07T08:37:35.000Z</time></trkpt><trkpt lon="5.74973" lat="50.941017"><ele>40.4</ele><time>2022-08-07T08:37:43.000Z</time></trkpt><trkpt lon="5.749757" lat="50.941081"><ele>40.4</ele><time>2022-08-07T08:37:44.000Z</time></trkpt><trkpt lon="5.749938" lat="50.941405"><ele>40.4</ele><time>2022-08-07T08:37:49.000Z</time></trkpt><trkpt lon="5.749967" lat="50.941474"><ele>40.4</ele><time>2022-08-07T08:37:50.000Z</time></trkpt><trkpt lon="5.750222" lat="50.942006"><ele>40.4</ele><time>2022-08-07T08:37:58.000Z</time></trkpt><trkpt lon="5.750283" lat="50.942131"><ele>40.4</ele><time>2022-08-07T08:38:00.000Z</time></trkpt><trkpt lon="5.75039" lat="50.94245"><ele>40.4</ele><time>2022-08-07T08:38:05.000Z</time></trkpt><trkpt lon="5.750423" lat="50.942517"><ele>40.4</ele><time>2022-08-07T08:38:06.000Z</time></trkpt><trkpt lon="5.750578" lat="50.942783"><ele>40.4</ele><time>2022-08-07T08:38:10.000Z</time></trkpt><trkpt lon="5.750676" lat="50.942993"><ele>40.4</ele><time>2022-08-07T08:38:13.000Z</time></trkpt><trkpt lon="5.750919" lat="50.94353"><ele>40.3</ele><time>2022-08-07T08:38:21.000Z</time></trkpt><trkpt lon="5.75098" lat="50.94365"><ele>40.2</ele><time>2022-08-07T08:38:23.000Z</time></trkpt><trkpt lon="5.751178" lat="50.944082"><ele>40.2</ele><time>2022-08-07T08:38:30.000Z</time></trkpt><trkpt lon="5.751201" lat="50.944149"><ele>40.2</ele><time>2022-08-07T08:38:31.000Z</time></trkpt><trkpt lon="5.751262" lat="50.944286"><ele>40.2</ele><time>2022-08-07T08:38:33.000Z</time></trkpt><trkpt lon="5.751371" lat="50.944414"><ele>40.2</ele><time>2022-08-07T08:38:35.000Z</time></trkpt><trkpt lon="5.751875" lat="50.944878"><ele>40</ele><time>2022-08-07T08:38:43.000Z</time></trkpt><trkpt lon="5.752293" lat="50.945375"><ele>40</ele><time>2022-08-07T08:38:51.000Z</time></trkpt><trkpt lon="5.75234" lat="50.945437"><ele>40</ele><time>2022-08-07T08:38:52.000Z</time></trkpt><trkpt lon="5.752763" lat="50.94596"><ele>39.9</ele><time>2022-08-07T08:39:01.000Z</time></trkpt><trkpt lon="5.753166" lat="50.946345"><ele>39.9</ele><time>2022-08-07T08:39:08.000Z</time></trkpt><trkpt lon="5.753646" lat="50.946808"><ele>39.7</ele><time>2022-08-07T08:39:16.000Z</time></trkpt><trkpt lon="5.75371" lat="50.946869"><ele>39.7</ele><time>2022-08-07T08:39:17.000Z</time></trkpt><trkpt lon="5.7542" lat="50.947318"><ele>39.9</ele><time>2022-08-07T08:39:25.000Z</time></trkpt><trkpt lon="5.754263" lat="50.947369"><ele>39.9</ele><time>2022-08-07T08:39:26.000Z</time></trkpt><trkpt lon="5.754539" lat="50.947544"><ele>39.9</ele><time>2022-08-07T08:39:30.000Z</time></trkpt><trkpt lon="5.755097" lat="50.947839"><ele>40.1</ele><time>2022-08-07T08:39:37.000Z</time></trkpt><trkpt lon="5.755712" lat="50.948152"><ele>41.4</ele><time>2022-08-07T08:39:45.000Z</time></trkpt><trkpt lon="5.75578" lat="50.948186"><ele>41.6</ele><time>2022-08-07T08:39:46.000Z</time></trkpt><trkpt lon="5.755911" lat="50.948258"><ele>41.8</ele><time>2022-08-07T08:39:48.000Z</time></trkpt><trkpt lon="5.756111" lat="50.948393"><ele>42.2</ele><time>2022-08-07T08:39:51.000Z</time></trkpt><trkpt lon="5.756604" lat="50.948639"><ele>43.2</ele><time>2022-08-07T08:39:57.000Z</time></trkpt><trkpt lon="5.757222" lat="50.948934"><ele>44.8</ele><time>2022-08-07T08:40:05.000Z</time></trkpt><trkpt lon="5.757498" lat="50.949079"><ele>45.3</ele><time>2022-08-07T08:40:09.000Z</time></trkpt><trkpt lon="5.75779" lat="50.949236"><ele>45.7</ele><time>2022-08-07T08:40:13.000Z</time></trkpt><trkpt lon="5.758325" lat="50.949565"><ele>47.5</ele><time>2022-08-07T08:40:21.000Z</time></trkpt><trkpt lon="5.75868" lat="50.949815"><ele>49</ele><time>2022-08-07T08:40:27.000Z</time></trkpt><trkpt lon="5.759098" lat="50.950132"><ele>50.6</ele><time>2022-08-07T08:40:34.000Z</time></trkpt><trkpt lon="5.759222" lat="50.950243"><ele>51.2</ele><time>2022-08-07T08:40:36.000Z</time></trkpt><trkpt lon="5.759519" lat="50.950529"><ele>52.6</ele><time>2022-08-07T08:40:42.000Z</time></trkpt><trkpt lon="5.759755" lat="50.950785"><ele>53.5</ele><time>2022-08-07T08:40:47.000Z</time></trkpt><trkpt lon="5.759842" lat="50.9509"><ele>54</ele><time>2022-08-07T08:40:49.000Z</time></trkpt><trkpt lon="5.760017" lat="50.951195"><ele>55.1</ele><time>2022-08-07T08:40:55.000Z</time></trkpt><trkpt lon="5.760094" lat="50.951329"><ele>55.4</ele><time>2022-08-07T08:40:58.000Z</time></trkpt><trkpt lon="5.760158" lat="50.951434"><ele>55.2</ele><time>2022-08-07T08:41:00.000Z</time></trkpt><trkpt lon="5.76044" lat="50.951822"><ele>54.3</ele><time>2022-08-07T08:41:07.000Z</time></trkpt><trkpt lon="5.760483" lat="50.951881"><ele>54.1</ele><time>2022-08-07T08:41:08.000Z</time></trkpt><trkpt lon="5.760607" lat="50.95207"><ele>53.7</ele><time>2022-08-07T08:41:11.000Z</time></trkpt><trkpt lon="5.760745" lat="50.95233"><ele>53.2</ele><time>2022-08-07T08:41:15.000Z</time></trkpt><trkpt lon="5.760911" lat="50.952821"><ele>52</ele><time>2022-08-07T08:41:22.000Z</time></trkpt><trkpt lon="5.760953" lat="50.953029"><ele>51.5</ele><time>2022-08-07T08:41:25.000Z</time></trkpt><trkpt lon="5.760986" lat="50.953306"><ele>50.8</ele><time>2022-08-07T08:41:29.000Z</time></trkpt><trkpt lon="5.761005" lat="50.953727"><ele>49.9</ele><time>2022-08-07T08:41:35.000Z</time></trkpt><trkpt lon="5.760929" lat="50.954225"><ele>49.3</ele><time>2022-08-07T08:41:42.000Z</time></trkpt><trkpt lon="5.760791" lat="50.954624"><ele>49.2</ele><time>2022-08-07T08:41:48.000Z</time></trkpt><trkpt lon="5.760726" lat="50.954772"><ele>49.3</ele><time>2022-08-07T08:41:50.000Z</time></trkpt><trkpt lon="5.760376" lat="50.955331"><ele>49.3</ele><time>2022-08-07T08:41:59.000Z</time></trkpt><trkpt lon="5.760065" lat="50.955718"><ele>49.3</ele><time>2022-08-07T08:42:06.000Z</time></trkpt><trkpt lon="5.759747" lat="50.956056"><ele>49.3</ele><time>2022-08-07T08:42:12.000Z</time></trkpt><trkpt lon="5.759265" lat="50.956447"><ele>49.3</ele><time>2022-08-07T08:42:19.000Z</time></trkpt><trkpt lon="5.758801" lat="50.956796"><ele>49.3</ele><time>2022-08-07T08:42:26.000Z</time></trkpt><trkpt lon="5.758734" lat="50.956841"><ele>49.3</ele><time>2022-08-07T08:42:27.000Z</time></trkpt><trkpt lon="5.75831" lat="50.957174"><ele>49.2</ele><time>2022-08-07T08:42:34.000Z</time></trkpt><trkpt lon="5.757849" lat="50.957531"><ele>48.3</ele><time>2022-08-07T08:42:41.000Z</time></trkpt><trkpt lon="5.757533" lat="50.95776"><ele>47.3</ele><time>2022-08-07T08:42:45.000Z</time></trkpt><trkpt lon="5.757383" lat="50.957877"><ele>46.8</ele><time>2022-08-07T08:42:47.000Z</time></trkpt><trkpt lon="5.756754" lat="50.958338"><ele>45.2</ele><time>2022-08-07T08:42:55.000Z</time></trkpt><trkpt lon="5.756478" lat="50.958474"><ele>44.9</ele><time>2022-08-07T08:42:59.000Z</time></trkpt><trkpt lon="5.756402" lat="50.958517"><ele>44.7</ele><time>2022-08-07T08:43:00.000Z</time></trkpt><trkpt lon="5.756348" lat="50.958543"><ele>44.5</ele><time>2022-08-07T08:43:01.000Z</time></trkpt><trkpt lon="5.756272" lat="50.958572"><ele>44.1</ele><time>2022-08-07T08:43:02.000Z</time></trkpt><trkpt lon="5.756172" lat="50.958599"><ele>43.7</ele><time>2022-08-07T08:43:03.000Z</time></trkpt><trkpt lon="5.756038" lat="50.958619"><ele>43.2</ele><time>2022-08-07T08:43:04.000Z</time></trkpt><trkpt lon="5.755651" lat="50.95864"><ele>42.2</ele><time>2022-08-07T08:43:07.000Z</time></trkpt><trkpt lon="5.755411" lat="50.958667"><ele>41.9</ele><time>2022-08-07T08:43:09.000Z</time></trkpt><trkpt lon="5.755122" lat="50.958738"><ele>41.6</ele><time>2022-08-07T08:43:11.000Z</time></trkpt><trkpt lon="5.755122" lat="50.958738"><ele>41.6</ele><time>2022-08-07T08:43:14.000Z</time></trkpt><trkpt lon="5.754926" lat="50.958844"><ele>41.4</ele><time>2022-08-07T08:43:15.000Z</time></trkpt><trkpt lon="5.754535" lat="50.959055"><ele>41.3</ele><time>2022-08-07T08:43:17.000Z</time></trkpt><trkpt lon="5.754011" lat="50.959412"><ele>41.3</ele><time>2022-08-07T08:43:24.000Z</time></trkpt><trkpt lon="5.753692" lat="50.959633"><ele>41.4</ele><time>2022-08-07T08:43:28.000Z</time></trkpt><trkpt lon="5.753401" lat="50.959867"><ele>41.4</ele><time>2022-08-07T08:43:32.000Z</time></trkpt><trkpt lon="5.752985" lat="50.960182"><ele>41.4</ele><time>2022-08-07T08:43:38.000Z</time></trkpt><trkpt lon="5.75282" lat="50.960307"><ele>41.4</ele><time>2022-08-07T08:43:40.000Z</time></trkpt><trkpt lon="5.752671" lat="50.960415"><ele>41.4</ele><time>2022-08-07T08:43:42.000Z</time></trkpt><trkpt lon="5.752075" lat="50.960857"><ele>41.3</ele><time>2022-08-07T08:43:50.000Z</time></trkpt><trkpt lon="5.751926" lat="50.960971"><ele>41.2</ele><time>2022-08-07T08:43:52.000Z</time></trkpt><trkpt lon="5.751326" lat="50.961423"><ele>41.4</ele><time>2022-08-07T08:44:00.000Z</time></trkpt><trkpt lon="5.751127" lat="50.961585"><ele>41.3</ele><time>2022-08-07T08:44:03.000Z</time></trkpt><trkpt lon="5.75051" lat="50.962044"><ele>41.2</ele><time>2022-08-07T08:44:11.000Z</time></trkpt><trkpt lon="5.750432" lat="50.962099"><ele>41.1</ele><time>2022-08-07T08:44:12.000Z</time></trkpt><trkpt lon="5.749969" lat="50.962325"><ele>41</ele><time>2022-08-07T08:44:17.000Z</time></trkpt><trkpt lon="5.749203" lat="50.96254"><ele>41.1</ele><time>2022-08-07T08:44:24.000Z</time></trkpt><trkpt lon="5.74843" lat="50.962764"><ele>40.8</ele><time>2022-08-07T08:44:31.000Z</time></trkpt><trkpt lon="5.747862" lat="50.963016"><ele>40.7</ele><time>2022-08-07T08:44:37.000Z</time></trkpt><trkpt lon="5.747393" lat="50.963235"><ele>39.9</ele><time>2022-08-07T08:44:43.000Z</time></trkpt><trkpt lon="5.747223" lat="50.963319"><ele>39.6</ele><time>2022-08-07T08:44:46.000Z</time></trkpt><trkpt lon="5.747159" lat="50.963321"><ele>39.5</ele><time>2022-08-07T08:44:47.000Z</time></trkpt><trkpt lon="5.747098" lat="50.963304"><ele>39.5</ele><time>2022-08-07T08:44:48.000Z</time></trkpt><trkpt lon="5.746965" lat="50.96323"><ele>39.3</ele><time>2022-08-07T08:44:50.000Z</time></trkpt><trkpt lon="5.746861" lat="50.963173"><ele>39.2</ele><time>2022-08-07T08:44:52.000Z</time></trkpt><trkpt lon="5.746715" lat="50.963164"><ele>39.1</ele><time>2022-08-07T08:44:54.000Z</time></trkpt><trkpt lon="5.746586" lat="50.963233"><ele>38.7</ele><time>2022-08-07T08:44:56.000Z</time></trkpt><trkpt lon="5.746536" lat="50.963282"><ele>38.6</ele><time>2022-08-07T08:44:57.000Z</time></trkpt><trkpt lon="5.746173" lat="50.963597"><ele>38.7</ele><time>2022-08-07T08:45:03.000Z</time></trkpt><trkpt lon="5.745672" lat="50.963964"><ele>38.4</ele><time>2022-08-07T08:45:11.000Z</time></trkpt><trkpt lon="5.74538" lat="50.964147"><ele>38.4</ele><time>2022-08-07T08:45:17.000Z</time></trkpt><trkpt lon="5.745268" lat="50.9642"><ele>38.2</ele><time>2022-08-07T08:45:19.000Z</time></trkpt><trkpt lon="5.745141" lat="50.96429"><ele>37.9</ele><time>2022-08-07T08:45:21.000Z</time></trkpt><trkpt lon="5.744707" lat="50.964593"><ele>37.6</ele><time>2022-08-07T08:45:27.000Z</time></trkpt><trkpt lon="5.744159" lat="50.964951"><ele>37.6</ele><time>2022-08-07T08:45:34.000Z</time></trkpt><trkpt lon="5.743688" lat="50.96527"><ele>37.6</ele><time>2022-08-07T08:45:40.000Z</time></trkpt><trkpt lon="5.743516" lat="50.965361"><ele>37.6</ele><time>2022-08-07T08:45:42.000Z</time></trkpt><trkpt lon="5.743007" lat="50.965644"><ele>37.4</ele><time>2022-08-07T08:45:48.000Z</time></trkpt><trkpt lon="5.742338" lat="50.966026"><ele>37.1</ele><time>2022-08-07T08:45:56.000Z</time></trkpt><trkpt lon="5.742156" lat="50.966123"><ele>37</ele><time>2022-08-07T08:45:58.000Z</time></trkpt><trkpt lon="5.741899" lat="50.96626"><ele>37</ele><time>2022-08-07T08:46:01.000Z</time></trkpt><trkpt lon="5.741611" lat="50.966429"><ele>37.1</ele><time>2022-08-07T08:46:05.000Z</time></trkpt><trkpt lon="5.741623" lat="50.966529"><ele>37.2</ele><time>2022-08-07T08:46:07.000Z</time></trkpt><trkpt lon="5.741846" lat="50.966642"><ele>37.4</ele><time>2022-08-07T08:46:10.000Z</time></trkpt><trkpt lon="5.742269" lat="50.966931"><ele>37.1</ele><time>2022-08-07T08:46:16.000Z</time></trkpt><trkpt lon="5.742591" lat="50.967253"><ele>37</ele><time>2022-08-07T08:46:21.000Z</time></trkpt><trkpt lon="5.742795" lat="50.967523"><ele>37</ele><time>2022-08-07T08:46:25.000Z</time></trkpt><trkpt lon="5.742872" lat="50.967668"><ele>36.9</ele><time>2022-08-07T08:46:27.000Z</time></trkpt><trkpt lon="5.742974" lat="50.967879"><ele>36.9</ele><time>2022-08-07T08:46:30.000Z</time></trkpt><trkpt lon="5.743091" lat="50.968002"><ele>36.9</ele><time>2022-08-07T08:46:32.000Z</time></trkpt><trkpt lon="5.743246" lat="50.968109"><ele>36.9</ele><time>2022-08-07T08:46:34.000Z</time></trkpt><trkpt lon="5.743435" lat="50.968191"><ele>37</ele><time>2022-08-07T08:46:36.000Z</time></trkpt><trkpt lon="5.744179" lat="50.968504"><ele>37.4</ele><time>2022-08-07T08:46:44.000Z</time></trkpt><trkpt lon="5.744436" lat="50.968632"><ele>37.5</ele><time>2022-08-07T08:46:47.000Z</time></trkpt><trkpt lon="5.744744" lat="50.968833"><ele>37.4</ele><time>2022-08-07T08:46:51.000Z</time></trkpt><trkpt lon="5.744902" lat="50.968941"><ele>37.3</ele><time>2022-08-07T08:46:53.000Z</time></trkpt><trkpt lon="5.74514" lat="50.969106"><ele>37</ele><time>2022-08-07T08:46:56.000Z</time></trkpt><trkpt lon="5.745818" lat="50.969525"><ele>36.8</ele><time>2022-08-07T08:47:04.000Z</time></trkpt><trkpt lon="5.745993" lat="50.969623"><ele>36.8</ele><time>2022-08-07T08:47:05.000Z</time></trkpt><trkpt lon="5.746628" lat="50.970065"><ele>36.6</ele><time>2022-08-07T08:47:14.000Z</time></trkpt><trkpt lon="5.746698" lat="50.970121"><ele>36.6</ele><time>2022-08-07T08:47:15.000Z</time></trkpt><trkpt lon="5.747054" lat="50.970403"><ele>36.6</ele><time>2022-08-07T08:47:20.000Z</time></trkpt><trkpt lon="5.747214" lat="50.970509"><ele>36.7</ele><time>2022-08-07T08:47:22.000Z</time></trkpt><trkpt lon="5.747577" lat="50.970677"><ele>36.9</ele><time>2022-08-07T08:47:26.000Z</time></trkpt><trkpt lon="5.747679" lat="50.970709"><ele>36.9</ele><time>2022-08-07T08:47:27.000Z</time></trkpt><trkpt lon="5.748442" lat="50.970862"><ele>37.1</ele><time>2022-08-07T08:47:34.000Z</time></trkpt><trkpt lon="5.749363" lat="50.970952"><ele>36.8</ele><time>2022-08-07T08:47:42.000Z</time></trkpt><trkpt lon="5.749997" lat="50.971026"><ele>37.3</ele><time>2022-08-07T08:47:48.000Z</time></trkpt><trkpt lon="5.750054" lat="50.971045"><ele>37.4</ele><time>2022-08-07T08:47:49.000Z</time></trkpt><trkpt lon="5.750148" lat="50.971115"><ele>37.4</ele><time>2022-08-07T08:47:52.000Z</time></trkpt><trkpt lon="5.750223" lat="50.971253"><ele>37.4</ele><time>2022-08-07T08:47:56.000Z</time></trkpt><trkpt lon="5.750184" lat="50.971384"><ele>37.4</ele><time>2022-08-07T08:47:59.000Z</time></trkpt><trkpt lon="5.750224" lat="50.971428"><ele>37</ele><time>2022-08-07T08:48:00.000Z</time></trkpt><trkpt lon="5.750289" lat="50.971468"><ele>36.8</ele><time>2022-08-07T08:48:01.000Z</time></trkpt><trkpt lon="5.750475" lat="50.97153"><ele>36.5</ele><time>2022-08-07T08:48:03.000Z</time></trkpt><trkpt lon="5.751052" lat="50.971703"><ele>36.3</ele><time>2022-08-07T08:48:09.000Z</time></trkpt><trkpt lon="5.751525" lat="50.971856"><ele>36.7</ele><time>2022-08-07T08:48:14.000Z</time></trkpt><trkpt lon="5.751614" lat="50.971897"><ele>36.6</ele><time>2022-08-07T08:48:15.000Z</time></trkpt><trkpt lon="5.751774" lat="50.971991"><ele>36.5</ele><time>2022-08-07T08:48:17.000Z</time></trkpt><trkpt lon="5.751871" lat="50.972112"><ele>36.4</ele><time>2022-08-07T08:48:19.000Z</time></trkpt><trkpt lon="5.751916" lat="50.972367"><ele>36.2</ele><time>2022-08-07T08:48:23.000Z</time></trkpt><trkpt lon="5.751947" lat="50.972429"><ele>36.2</ele><time>2022-08-07T08:48:24.000Z</time></trkpt><trkpt lon="5.752226" lat="50.972805"><ele>36.2</ele><time>2022-08-07T08:48:30.000Z</time></trkpt><trkpt lon="5.752514" lat="50.973196"><ele>36.5</ele><time>2022-08-07T08:48:37.000Z</time></trkpt><trkpt lon="5.752588" lat="50.973308"><ele>36.5</ele><time>2022-08-07T08:48:39.000Z</time></trkpt><trkpt lon="5.752741" lat="50.973481"><ele>36.4</ele><time>2022-08-07T08:48:42.000Z</time></trkpt><trkpt lon="5.752998" lat="50.973815"><ele>36.3</ele><time>2022-08-07T08:48:47.000Z</time></trkpt><trkpt lon="5.753298" lat="50.974205"><ele>36.2</ele><time>2022-08-07T08:48:53.000Z</time></trkpt><trkpt lon="5.753592" lat="50.974591"><ele>36.2</ele><time>2022-08-07T08:48:59.000Z</time></trkpt><trkpt lon="5.754007" lat="50.975129"><ele>36.1</ele><time>2022-08-07T08:49:07.000Z</time></trkpt><trkpt lon="5.754116" lat="50.97526"><ele>36.2</ele><time>2022-08-07T08:49:09.000Z</time></trkpt><trkpt lon="5.754329" lat="50.975529"><ele>36.2</ele><time>2022-08-07T08:49:13.000Z</time></trkpt><trkpt lon="5.754645" lat="50.975916"><ele>36.1</ele><time>2022-08-07T08:49:19.000Z</time></trkpt><trkpt lon="5.755073" lat="50.976439"><ele>36</ele><time>2022-08-07T08:49:27.000Z</time></trkpt><trkpt lon="5.75512" lat="50.9765"><ele>36</ele><time>2022-08-07T08:49:28.000Z</time></trkpt><trkpt lon="5.755523" lat="50.977009"><ele>35.9</ele><time>2022-08-07T08:49:36.000Z</time></trkpt><trkpt lon="5.755573" lat="50.977074"><ele>35.9</ele><time>2022-08-07T08:49:37.000Z</time></trkpt><trkpt lon="5.75596" lat="50.977572"><ele>35.7</ele><time>2022-08-07T08:49:45.000Z</time></trkpt><trkpt lon="5.756062" lat="50.97771"><ele>35.6</ele><time>2022-08-07T08:49:47.000Z</time></trkpt><trkpt lon="5.756454" lat="50.978198"><ele>35.5</ele><time>2022-08-07T08:49:55.000Z</time></trkpt><trkpt lon="5.756504" lat="50.978261"><ele>35.5</ele><time>2022-08-07T08:49:56.000Z</time></trkpt><trkpt lon="5.756912" lat="50.97875"><ele>35.4</ele><time>2022-08-07T08:50:04.000Z</time></trkpt><trkpt lon="5.757014" lat="50.978872"><ele>35.4</ele><time>2022-08-07T08:50:06.000Z</time></trkpt><trkpt lon="5.757422" lat="50.97939"><ele>35.6</ele><time>2022-08-07T08:50:14.000Z</time></trkpt><trkpt lon="5.757856" lat="50.979916"><ele>35.7</ele><time>2022-08-07T08:50:22.000Z</time></trkpt><trkpt lon="5.75829" lat="50.980439"><ele>35.9</ele><time>2022-08-07T08:50:30.000Z</time></trkpt><trkpt lon="5.75834" lat="50.980504"><ele>35.9</ele><time>2022-08-07T08:50:31.000Z</time></trkpt><trkpt lon="5.758741" lat="50.981008"><ele>35.9</ele><time>2022-08-07T08:50:39.000Z</time></trkpt><trkpt lon="5.759103" lat="50.981443"><ele>35.5</ele><time>2022-08-07T08:50:46.000Z</time></trkpt><trkpt lon="5.759353" lat="50.981744"><ele>35.5</ele><time>2022-08-07T08:50:51.000Z</time></trkpt><trkpt lon="5.759456" lat="50.981886"><ele>35.8</ele><time>2022-08-07T08:50:53.000Z</time></trkpt><trkpt lon="5.759695" lat="50.982225"><ele>36.3</ele><time>2022-08-07T08:50:59.000Z</time></trkpt><trkpt lon="5.760006" lat="50.982556"><ele>35.1</ele><time>2022-08-07T08:51:05.000Z</time></trkpt><trkpt lon="5.760287" lat="50.982895"><ele>35.1</ele><time>2022-08-07T08:51:10.000Z</time></trkpt><trkpt lon="5.760547" lat="50.983212"><ele>35.5</ele><time>2022-08-07T08:51:15.000Z</time></trkpt><trkpt lon="5.760815" lat="50.983543"><ele>35.8</ele><time>2022-08-07T08:51:20.000Z</time></trkpt><trkpt lon="5.761234" lat="50.984044"><ele>36.1</ele><time>2022-08-07T08:51:28.000Z</time></trkpt><trkpt lon="5.761314" lat="50.984154"><ele>36</ele><time>2022-08-07T08:51:30.000Z</time></trkpt><trkpt lon="5.76171" lat="50.984653"><ele>35.9</ele><time>2022-08-07T08:51:38.000Z</time></trkpt><trkpt lon="5.762135" lat="50.985152"><ele>35.8</ele><time>2022-08-07T08:51:46.000Z</time></trkpt><trkpt lon="5.762547" lat="50.985669"><ele>35.6</ele><time>2022-08-07T08:51:54.000Z</time></trkpt><trkpt lon="5.762596" lat="50.98573"><ele>35.6</ele><time>2022-08-07T08:51:55.000Z</time></trkpt><trkpt lon="5.763021" lat="50.986223"><ele>35.2</ele><time>2022-08-07T08:52:03.000Z</time></trkpt><trkpt lon="5.763073" lat="50.986288"><ele>35.1</ele><time>2022-08-07T08:52:04.000Z</time></trkpt><trkpt lon="5.763326" lat="50.986602"><ele>34.8</ele><time>2022-08-07T08:52:09.000Z</time></trkpt><trkpt lon="5.763577" lat="50.986909"><ele>34.6</ele><time>2022-08-07T08:52:14.000Z</time></trkpt><trkpt lon="5.763626" lat="50.986975"><ele>34.5</ele><time>2022-08-07T08:52:15.000Z</time></trkpt><trkpt lon="5.764029" lat="50.987505"><ele>34.3</ele><time>2022-08-07T08:52:23.000Z</time></trkpt><trkpt lon="5.764121" lat="50.987633"><ele>34.4</ele><time>2022-08-07T08:52:25.000Z</time></trkpt><trkpt lon="5.764157" lat="50.987765"><ele>34.5</ele><time>2022-08-07T08:52:27.000Z</time></trkpt><trkpt lon="5.764134" lat="50.987902"><ele>34.6</ele><time>2022-08-07T08:52:29.000Z</time></trkpt><trkpt lon="5.764061" lat="50.988093"><ele>34.6</ele><time>2022-08-07T08:52:31.000Z</time></trkpt><trkpt lon="5.76383" lat="50.988554"><ele>34.5</ele><time>2022-08-07T08:52:39.000Z</time></trkpt><trkpt lon="5.763574" lat="50.988877"><ele>34.1</ele><time>2022-08-07T08:52:44.000Z</time></trkpt><trkpt lon="5.763459" lat="50.988995"><ele>34</ele><time>2022-08-07T08:52:46.000Z</time></trkpt><trkpt lon="5.763038" lat="50.989399"><ele>33.7</ele><time>2022-08-07T08:52:53.000Z</time></trkpt><trkpt lon="5.762852" lat="50.989556"><ele>33.9</ele><time>2022-08-07T08:52:56.000Z</time></trkpt><trkpt lon="5.762771" lat="50.989664"><ele>34.2</ele><time>2022-08-07T08:52:58.000Z</time></trkpt><trkpt lon="5.762718" lat="50.989804"><ele>34.9</ele><time>2022-08-07T08:53:00.000Z</time></trkpt><trkpt lon="5.762663" lat="50.98997"><ele>35.6</ele><time>2022-08-07T08:53:03.000Z</time></trkpt><trkpt lon="5.762603" lat="50.990136"><ele>36</ele><time>2022-08-07T08:53:06.000Z</time></trkpt><trkpt lon="5.762609" lat="50.990173"><ele>35.9</ele><time>2022-08-07T08:53:07.000Z</time></trkpt><trkpt lon="5.762636" lat="50.990222"><ele>35.8</ele><time>2022-08-07T08:53:08.000Z</time></trkpt><trkpt lon="5.762742" lat="50.990318"><ele>35.6</ele><time>2022-08-07T08:53:10.000Z</time></trkpt><trkpt lon="5.763027" lat="50.990572"><ele>35</ele><time>2022-08-07T08:53:14.000Z</time></trkpt><trkpt lon="5.763443" lat="50.990958"><ele>35.8</ele><time>2022-08-07T08:53:20.000Z</time></trkpt><trkpt lon="5.76369" lat="50.99121"><ele>36.3</ele><time>2022-08-07T08:53:24.000Z</time></trkpt><trkpt lon="5.763813" lat="50.991321"><ele>36.5</ele><time>2022-08-07T08:53:25.000Z</time></trkpt><trkpt lon="5.763869" lat="50.99138"><ele>36.6</ele><time>2022-08-07T08:53:27.000Z</time></trkpt><trkpt lon="5.764043" lat="50.991553"><ele>36.8</ele><time>2022-08-07T08:53:30.000Z</time></trkpt><trkpt lon="5.764195" lat="50.991699"><ele>37.1</ele><time>2022-08-07T08:53:33.000Z</time></trkpt><trkpt lon="5.764607" lat="50.992"><ele>37.8</ele><time>2022-08-07T08:53:39.000Z</time></trkpt><trkpt lon="5.764887" lat="50.992168"><ele>38.3</ele><time>2022-08-07T08:53:43.000Z</time></trkpt><trkpt lon="5.765078" lat="50.992284"><ele>38.6</ele><time>2022-08-07T08:53:46.000Z</time></trkpt><trkpt lon="5.76543" lat="50.992392"><ele>39.1</ele><time>2022-08-07T08:53:50.000Z</time></trkpt><trkpt lon="5.765506" lat="50.992399"><ele>39.2</ele><time>2022-08-07T08:53:51.000Z</time></trkpt><trkpt lon="5.766025" lat="50.992428"><ele>39.8</ele><time>2022-08-07T08:53:56.000Z</time></trkpt><trkpt lon="5.766645" lat="50.992492"><ele>40.5</ele><time>2022-08-07T08:54:02.000Z</time></trkpt><trkpt lon="5.766743" lat="50.992474"><ele>40.5</ele><time>2022-08-07T08:54:03.000Z</time></trkpt><trkpt lon="5.766933" lat="50.992432"><ele>40.7</ele><time>2022-08-07T08:54:05.000Z</time></trkpt><trkpt lon="5.767094" lat="50.992371"><ele>40.8</ele><time>2022-08-07T08:54:07.000Z</time></trkpt><trkpt lon="5.767193" lat="50.992344"><ele>41</ele><time>2022-08-07T08:54:08.000Z</time></trkpt><trkpt lon="5.767284" lat="50.992349"><ele>41.1</ele><time>2022-08-07T08:54:09.000Z</time></trkpt><trkpt lon="5.767351" lat="50.992367"><ele>41.4</ele><time>2022-08-07T08:54:10.000Z</time></trkpt><trkpt lon="5.767485" lat="50.992454"><ele>41.6</ele><time>2022-08-07T08:54:12.000Z</time></trkpt><trkpt lon="5.767854" lat="50.99278"><ele>42.9</ele><time>2022-08-07T08:54:18.000Z</time></trkpt><trkpt lon="5.76816" lat="50.993092"><ele>43.9</ele><time>2022-08-07T08:54:24.000Z</time></trkpt><trkpt lon="5.768196" lat="50.993145"><ele>44</ele><time>2022-08-07T08:54:25.000Z</time></trkpt><trkpt lon="5.768355" lat="50.99345"><ele>44.5</ele><time>2022-08-07T08:54:30.000Z</time></trkpt><trkpt lon="5.768566" lat="50.993768"><ele>45</ele><time>2022-08-07T08:54:35.000Z</time></trkpt><trkpt lon="5.76861" lat="50.993826"><ele>45.1</ele><time>2022-08-07T08:54:36.000Z</time></trkpt><trkpt lon="5.768803" lat="50.993963"><ele>45.3</ele><time>2022-08-07T08:54:39.000Z</time></trkpt><trkpt lon="5.768865" lat="50.994005"><ele>45.4</ele><time>2022-08-07T08:54:40.000Z</time></trkpt><trkpt lon="5.768928" lat="50.994103"><ele>45.5</ele><time>2022-08-07T08:54:42.000Z</time></trkpt><trkpt lon="5.768904" lat="50.994218"><ele>45.5</ele><time>2022-08-07T08:54:44.000Z</time></trkpt><trkpt lon="5.768922" lat="50.994342"><ele>45.5</ele><time>2022-08-07T08:54:46.000Z</time></trkpt><trkpt lon="5.769195" lat="50.9949"><ele>45.6</ele><time>2022-08-07T08:54:55.000Z</time></trkpt><trkpt lon="5.769415" lat="50.995396"><ele>46.2</ele><time>2022-08-07T08:55:03.000Z</time></trkpt><trkpt lon="5.769548" lat="50.99564"><ele>46.5</ele><time>2022-08-07T08:55:07.000Z</time></trkpt><trkpt lon="5.769706" lat="50.995887"><ele>46.7</ele><time>2022-08-07T08:55:11.000Z</time></trkpt><trkpt lon="5.769859" lat="50.996193"><ele>46.8</ele><time>2022-08-07T08:55:16.000Z</time></trkpt><trkpt lon="5.769959" lat="50.996392"><ele>46.7</ele><time>2022-08-07T08:55:19.000Z</time></trkpt><trkpt lon="5.770171" lat="50.996777"><ele>46.6</ele><time>2022-08-07T08:55:25.000Z</time></trkpt><trkpt lon="5.770291" lat="50.997054"><ele>46.6</ele><time>2022-08-07T08:55:29.000Z</time></trkpt><trkpt lon="5.770343" lat="50.997407"><ele>46.7</ele><time>2022-08-07T08:55:34.000Z</time></trkpt><trkpt lon="5.770253" lat="50.997952"><ele>46.9</ele><time>2022-08-07T08:55:42.000Z</time></trkpt><trkpt lon="5.770208" lat="50.998156"><ele>46.9</ele><time>2022-08-07T08:55:45.000Z</time></trkpt><trkpt lon="5.770174" lat="50.998288"><ele>46.9</ele><time>2022-08-07T08:55:47.000Z</time></trkpt><trkpt lon="5.770091" lat="50.998708"><ele>47</ele><time>2022-08-07T08:55:53.000Z</time></trkpt><trkpt lon="5.769997" lat="50.999263"><ele>47.1</ele><time>2022-08-07T08:56:01.000Z</time></trkpt><trkpt lon="5.769997" lat="50.999327"><ele>47.1</ele><time>2022-08-07T08:56:02.000Z</time></trkpt><trkpt lon="5.769987" lat="50.999522"><ele>47.1</ele><time>2022-08-07T08:56:05.000Z</time></trkpt><trkpt lon="5.769944" lat="50.999784"><ele>47.1</ele><time>2022-08-07T08:56:09.000Z</time></trkpt><trkpt lon="5.769919" lat="51.000342"><ele>46.7</ele><time>2022-08-07T08:56:17.000Z</time></trkpt><trkpt lon="5.769986" lat="51.000906"><ele>46.2</ele><time>2022-08-07T08:56:25.000Z</time></trkpt><trkpt lon="5.769999" lat="51.000981"><ele>46.1</ele><time>2022-08-07T08:56:26.000Z</time></trkpt><trkpt lon="5.770044" lat="51.001563"><ele>45.9</ele><time>2022-08-07T08:56:34.000Z</time></trkpt><trkpt lon="5.770051" lat="51.002142"><ele>45.7</ele><time>2022-08-07T08:56:42.000Z</time></trkpt><trkpt lon="5.770049" lat="51.002288"><ele>45.7</ele><time>2022-08-07T08:56:44.000Z</time></trkpt><trkpt lon="5.770058" lat="51.002888"><ele>45.7</ele><time>2022-08-07T08:56:52.000Z</time></trkpt><trkpt lon="5.770044" lat="51.002966"><ele>45.7</ele><time>2022-08-07T08:56:53.000Z</time></trkpt><trkpt lon="5.770012" lat="51.003042"><ele>45.7</ele><time>2022-08-07T08:56:54.000Z</time></trkpt><trkpt lon="5.769968" lat="51.003114"><ele>45.7</ele><time>2022-08-07T08:56:55.000Z</time></trkpt><trkpt lon="5.769742" lat="51.003378"><ele>45.6</ele><time>2022-08-07T08:56:59.000Z</time></trkpt><trkpt lon="5.769631" lat="51.003504"><ele>45.6</ele><time>2022-08-07T08:57:01.000Z</time></trkpt><trkpt lon="5.769566" lat="51.003638"><ele>45.6</ele><time>2022-08-07T08:57:03.000Z</time></trkpt><trkpt lon="5.769561" lat="51.003707"><ele>45.5</ele><time>2022-08-07T08:57:04.000Z</time></trkpt><trkpt lon="5.76958" lat="51.004041"><ele>45.4</ele><time>2022-08-07T08:57:09.000Z</time></trkpt><trkpt lon="5.769605" lat="51.004105"><ele>45.3</ele><time>2022-08-07T08:57:10.000Z</time></trkpt><trkpt lon="5.769637" lat="51.004167"><ele>45.2</ele><time>2022-08-07T08:57:11.000Z</time></trkpt><trkpt lon="5.76976" lat="51.004342"><ele>44.9</ele><time>2022-08-07T08:57:14.000Z</time></trkpt><trkpt lon="5.769801" lat="51.004399"><ele>44.8</ele><time>2022-08-07T08:57:15.000Z</time></trkpt><trkpt lon="5.769902" lat="51.004579"><ele>44.4</ele><time>2022-08-07T08:57:18.000Z</time></trkpt><trkpt lon="5.770006" lat="51.004757"><ele>44.1</ele><time>2022-08-07T08:57:21.000Z</time></trkpt><trkpt lon="5.770058" lat="51.004812"><ele>44</ele><time>2022-08-07T08:57:22.000Z</time></trkpt><trkpt lon="5.770234" lat="51.004872"><ele>44.1</ele><time>2022-08-07T08:57:24.000Z</time></trkpt><trkpt lon="5.770451" lat="51.004861"><ele>44.5</ele><time>2022-08-07T08:57:26.000Z</time></trkpt><trkpt lon="5.770551" lat="51.004838"><ele>44.6</ele><time>2022-08-07T08:57:27.000Z</time></trkpt><trkpt lon="5.770653" lat="51.004821"><ele>44.8</ele><time>2022-08-07T08:57:28.000Z</time></trkpt><trkpt lon="5.770964" lat="51.004801"><ele>45.1</ele><time>2022-08-07T08:57:31.000Z</time></trkpt><trkpt lon="5.771066" lat="51.004805"><ele>45.2</ele><time>2022-08-07T08:57:32.000Z</time></trkpt><trkpt lon="5.771636" lat="51.004863"><ele>45.9</ele><time>2022-08-07T08:57:38.000Z</time></trkpt><trkpt lon="5.771813" lat="51.004887"><ele>46.1</ele><time>2022-08-07T08:57:40.000Z</time></trkpt><trkpt lon="5.771893" lat="51.004914"><ele>46.1</ele><time>2022-08-07T08:57:41.000Z</time></trkpt><trkpt lon="5.771991" lat="51.005021"><ele>45.9</ele><time>2022-08-07T08:57:43.000Z</time></trkpt><trkpt lon="5.772049" lat="51.005158"><ele>45.7</ele><time>2022-08-07T08:57:45.000Z</time></trkpt><trkpt lon="5.772182" lat="51.005365"><ele>45.7</ele><time>2022-08-07T08:57:48.000Z</time></trkpt><trkpt lon="5.772337" lat="51.005623"><ele>46</ele><time>2022-08-07T08:57:52.000Z</time></trkpt><trkpt lon="5.772375" lat="51.005753"><ele>46</ele><time>2022-08-07T08:57:54.000Z</time></trkpt><trkpt lon="5.772377" lat="51.005817"><ele>46.1</ele><time>2022-08-07T08:57:55.000Z</time></trkpt><trkpt lon="5.772349" lat="51.006003"><ele>46.1</ele><time>2022-08-07T08:57:58.000Z</time></trkpt><trkpt lon="5.77229" lat="51.006421"><ele>46.2</ele><time>2022-08-07T08:58:04.000Z</time></trkpt><trkpt lon="5.772291" lat="51.006496"><ele>46.2</ele><time>2022-08-07T08:58:05.000Z</time></trkpt><trkpt lon="5.772379" lat="51.006924"><ele>46.1</ele><time>2022-08-07T08:58:11.000Z</time></trkpt><trkpt lon="5.772512" lat="51.007443"><ele>45.1</ele><time>2022-08-07T08:58:19.000Z</time></trkpt><trkpt lon="5.772652" lat="51.007996"><ele>42.7</ele><time>2022-08-07T08:58:27.000Z</time></trkpt><trkpt lon="5.772716" lat="51.008377"><ele>39.9</ele><time>2022-08-07T08:58:32.000Z</time></trkpt><trkpt lon="5.772648" lat="51.008654"><ele>37.7</ele><time>2022-08-07T08:58:35.000Z</time></trkpt><trkpt lon="5.772597" lat="51.008744"><ele>37.1</ele><time>2022-08-07T08:58:36.000Z</time></trkpt><trkpt lon="5.772331" lat="51.009227"><ele>35.5</ele><time>2022-08-07T08:58:41.000Z</time></trkpt><trkpt lon="5.772312" lat="51.009327"><ele>35.3</ele><time>2022-08-07T08:58:42.000Z</time></trkpt><trkpt lon="5.772312" lat="51.009427"><ele>35.2</ele><time>2022-08-07T08:58:43.000Z</time></trkpt><trkpt lon="5.772368" lat="51.00962"><ele>34.9</ele><time>2022-08-07T08:58:45.000Z</time></trkpt><trkpt lon="5.7726" lat="51.009975"><ele>34.8</ele><time>2022-08-07T08:58:49.000Z</time></trkpt><trkpt lon="5.772898" lat="51.010357"><ele>34.9</ele><time>2022-08-07T08:58:54.000Z</time></trkpt><trkpt lon="5.773226" lat="51.010765"><ele>34.9</ele><time>2022-08-07T08:59:00.000Z</time></trkpt><trkpt lon="5.773277" lat="51.01083"><ele>34.9</ele><time>2022-08-07T08:59:01.000Z</time></trkpt><trkpt lon="5.773523" lat="51.011132"><ele>35</ele><time>2022-08-07T08:59:06.000Z</time></trkpt><trkpt lon="5.773742" lat="51.011383"><ele>35.1</ele><time>2022-08-07T08:59:10.000Z</time></trkpt><trkpt lon="5.773864" lat="51.011508"><ele>35.1</ele><time>2022-08-07T08:59:12.000Z</time></trkpt><trkpt lon="5.773935" lat="51.011569"><ele>35.1</ele><time>2022-08-07T08:59:13.000Z</time></trkpt><trkpt lon="5.774194" lat="51.011724"><ele>35.2</ele><time>2022-08-07T08:59:16.000Z</time></trkpt><trkpt lon="5.774753" lat="51.012092"><ele>35.4</ele><time>2022-08-07T08:59:23.000Z</time></trkpt><trkpt lon="5.77527" lat="51.012565"><ele>35.5</ele><time>2022-08-07T08:59:31.000Z</time></trkpt><trkpt lon="5.775671" lat="51.013076"><ele>35.5</ele><time>2022-08-07T08:59:39.000Z</time></trkpt><trkpt lon="5.776067" lat="51.013612"><ele>35.5</ele><time>2022-08-07T08:59:47.000Z</time></trkpt><trkpt lon="5.776379" lat="51.01408"><ele>35.4</ele><time>2022-08-07T08:59:54.000Z</time></trkpt><trkpt lon="5.776667" lat="51.014567"><ele>35.3</ele><time>2022-08-07T09:00:01.000Z</time></trkpt><trkpt lon="5.776702" lat="51.01464"><ele>35.3</ele><time>2022-08-07T09:00:02.000Z</time></trkpt><trkpt lon="5.776826" lat="51.015002"><ele>35.3</ele><time>2022-08-07T09:00:07.000Z</time></trkpt><trkpt lon="5.777092" lat="51.015576"><ele>35.4</ele><time>2022-08-07T09:00:15.000Z</time></trkpt><trkpt lon="5.777479" lat="51.016083"><ele>35.5</ele><time>2022-08-07T09:00:23.000Z</time></trkpt><trkpt lon="5.777566" lat="51.016213"><ele>35.5</ele><time>2022-08-07T09:00:25.000Z</time></trkpt><trkpt lon="5.777749" lat="51.016541"><ele>35.6</ele><time>2022-08-07T09:00:30.000Z</time></trkpt><trkpt lon="5.777914" lat="51.017103"><ele>35.5</ele><time>2022-08-07T09:00:38.000Z</time></trkpt><trkpt lon="5.777928" lat="51.017178"><ele>35.4</ele><time>2022-08-07T09:00:39.000Z</time></trkpt><trkpt lon="5.778027" lat="51.017778"><ele>35.2</ele><time>2022-08-07T09:00:47.000Z</time></trkpt><trkpt lon="5.778048" lat="51.017924"><ele>35.1</ele><time>2022-08-07T09:00:49.000Z</time></trkpt><trkpt lon="5.778134" lat="51.018443"><ele>35.1</ele><time>2022-08-07T09:00:56.000Z</time></trkpt><trkpt lon="5.77817" lat="51.018665"><ele>35.1</ele><time>2022-08-07T09:00:59.000Z</time></trkpt><trkpt lon="5.778315" lat="51.019238"><ele>35.1</ele><time>2022-08-07T09:01:07.000Z</time></trkpt><trkpt lon="5.778475" lat="51.01981"><ele>35.2</ele><time>2022-08-07T09:01:15.000Z</time></trkpt><trkpt lon="5.778498" lat="51.019952"><ele>35.2</ele><time>2022-08-07T09:01:17.000Z</time></trkpt><trkpt lon="5.778499" lat="51.020539"><ele>35.3</ele><time>2022-08-07T09:01:25.000Z</time></trkpt><trkpt lon="5.778359" lat="51.021042"><ele>35.4</ele><time>2022-08-07T09:01:32.000Z</time></trkpt><trkpt lon="5.778128" lat="51.021597"><ele>35.4</ele><time>2022-08-07T09:01:40.000Z</time></trkpt><trkpt lon="5.778054" lat="51.021794"><ele>35.4</ele><time>2022-08-07T09:01:43.000Z</time></trkpt><trkpt lon="5.777879" lat="51.022281"><ele>35.3</ele><time>2022-08-07T09:01:50.000Z</time></trkpt><trkpt lon="5.777708" lat="51.02272"><ele>35.2</ele><time>2022-08-07T09:01:56.000Z</time></trkpt><trkpt lon="5.777685" lat="51.022792"><ele>35.2</ele><time>2022-08-07T09:01:57.000Z</time></trkpt><trkpt lon="5.77755" lat="51.023369"><ele>34.8</ele><time>2022-08-07T09:02:05.000Z</time></trkpt><trkpt lon="5.777544" lat="51.02389"><ele>34.5</ele><time>2022-08-07T09:02:12.000Z</time></trkpt><trkpt lon="5.777623" lat="51.024345"><ele>34.3</ele><time>2022-08-07T09:02:19.000Z</time></trkpt><trkpt lon="5.777637" lat="51.024412"><ele>34.3</ele><time>2022-08-07T09:02:20.000Z</time></trkpt><trkpt lon="5.777556" lat="51.024542"><ele>34.2</ele><time>2022-08-07T09:02:22.000Z</time></trkpt><trkpt lon="5.777249" lat="51.024745"><ele>34</ele><time>2022-08-07T09:02:26.000Z</time></trkpt><trkpt lon="5.776993" lat="51.024992"><ele>33.8</ele><time>2022-08-07T09:02:31.000Z</time></trkpt><trkpt lon="5.776962" lat="51.02503"><ele>33.8</ele><time>2022-08-07T09:02:33.000Z</time></trkpt><trkpt lon="5.776962" lat="51.025033"><ele>33.8</ele><time>2022-08-07T09:02:34.000Z</time></trkpt><trkpt lon="5.776962" lat="51.025033"><ele>33.8</ele><time>2022-08-07T09:02:35.000Z</time></trkpt><trkpt lon="5.776857" lat="51.025045"><ele>33.8</ele><time>2022-08-07T09:11:55.000Z</time></trkpt><trkpt lon="5.776799" lat="51.025099"><ele>33.8</ele><time>2022-08-07T09:11:57.000Z</time></trkpt><trkpt lon="5.77664" lat="51.025268"><ele>33.8</ele><time>2022-08-07T09:12:02.000Z</time></trkpt><trkpt lon="5.776501" lat="51.025415"><ele>33.9</ele><time>2022-08-07T09:12:06.000Z</time></trkpt><trkpt lon="5.776374" lat="51.02554"><ele>34</ele><time>2022-08-07T09:12:08.000Z</time></trkpt><trkpt lon="5.776252" lat="51.025651"><ele>34</ele><time>2022-08-07T09:12:12.000Z</time></trkpt><trkpt lon="5.776122" lat="51.025746"><ele>34.1</ele><time>2022-08-07T09:12:15.000Z</time></trkpt><trkpt lon="5.776088" lat="51.025787"><ele>34.1</ele><time>2022-08-07T09:12:16.000Z</time></trkpt><trkpt lon="5.775989" lat="51.025923"><ele>34.2</ele><time>2022-08-07T09:12:19.000Z</time></trkpt><trkpt lon="5.775919" lat="51.026016"><ele>34.3</ele><time>2022-08-07T09:12:21.000Z</time></trkpt><trkpt lon="5.775847" lat="51.026166"><ele>34.3</ele><time>2022-08-07T09:12:24.000Z</time></trkpt><trkpt lon="5.775792" lat="51.026328"><ele>34.4</ele><time>2022-08-07T09:12:27.000Z</time></trkpt><trkpt lon="5.775733" lat="51.026619"><ele>34.3</ele><time>2022-08-07T09:12:32.000Z</time></trkpt><trkpt lon="5.775712" lat="51.026852"><ele>34.1</ele><time>2022-08-07T09:12:36.000Z</time></trkpt><trkpt lon="5.775674" lat="51.027208"><ele>33.8</ele><time>2022-08-07T09:12:42.000Z</time></trkpt><trkpt lon="5.775678" lat="51.027269"><ele>33.7</ele><time>2022-08-07T09:12:43.000Z</time></trkpt><trkpt lon="5.775776" lat="51.027522"><ele>33.6</ele><time>2022-08-07T09:12:47.000Z</time></trkpt><trkpt lon="5.775837" lat="51.027892"><ele>33.3</ele><time>2022-08-07T09:12:53.000Z</time></trkpt><trkpt lon="5.775861" lat="51.028222"><ele>33.1</ele><time>2022-08-07T09:12:58.000Z</time></trkpt><trkpt lon="5.775866" lat="51.028406"><ele>33.2</ele><time>2022-08-07T09:13:01.000Z</time></trkpt><trkpt lon="5.775863" lat="51.028463"><ele>33.3</ele><time>2022-08-07T09:13:02.000Z</time></trkpt><trkpt lon="5.775833" lat="51.028633"><ele>33.5</ele><time>2022-08-07T09:13:05.000Z</time></trkpt><trkpt lon="5.775782" lat="51.028684"><ele>33.5</ele><time>2022-08-07T09:13:06.000Z</time></trkpt><trkpt lon="5.775704" lat="51.028722"><ele>33.5</ele><time>2022-08-07T09:13:07.000Z</time></trkpt><trkpt lon="5.775511" lat="51.028747"><ele>33.4</ele><time>2022-08-07T09:13:09.000Z</time></trkpt><trkpt lon="5.774854" lat="51.028688"><ele>33.5</ele><time>2022-08-07T09:13:15.000Z</time></trkpt><trkpt lon="5.774062" lat="51.028593"><ele>33.2</ele><time>2022-08-07T09:13:22.000Z</time></trkpt><trkpt lon="5.773548" lat="51.028539"><ele>33</ele><time>2022-08-07T09:13:27.000Z</time></trkpt><trkpt lon="5.773469" lat="51.028564"><ele>32.8</ele><time>2022-08-07T09:13:28.000Z</time></trkpt><trkpt lon="5.773411" lat="51.028608"><ele>32.7</ele><time>2022-08-07T09:13:29.000Z</time></trkpt><trkpt lon="5.77336" lat="51.028735"><ele>32.4</ele><time>2022-08-07T09:13:31.000Z</time></trkpt><trkpt lon="5.773241" lat="51.029159"><ele>32</ele><time>2022-08-07T09:13:37.000Z</time></trkpt><trkpt lon="5.773049" lat="51.029729"><ele>31.7</ele><time>2022-08-07T09:13:45.000Z</time></trkpt><trkpt lon="5.772956" lat="51.030017"><ele>31.7</ele><time>2022-08-07T09:13:49.000Z</time></trkpt><trkpt lon="5.772836" lat="51.030378"><ele>31.7</ele><time>2022-08-07T09:13:54.000Z</time></trkpt><trkpt lon="5.772722" lat="51.030587"><ele>31.6</ele><time>2022-08-07T09:13:57.000Z</time></trkpt><trkpt lon="5.772312" lat="51.031108"><ele>31.8</ele><time>2022-08-07T09:14:05.000Z</time></trkpt><trkpt lon="5.771901" lat="51.03163"><ele>32</ele><time>2022-08-07T09:14:13.000Z</time></trkpt><trkpt lon="5.771862" lat="51.031694"><ele>32</ele><time>2022-08-07T09:14:14.000Z</time></trkpt><trkpt lon="5.771789" lat="51.031844"><ele>32.1</ele><time>2022-08-07T09:14:16.000Z</time></trkpt><trkpt lon="5.771734" lat="51.032038"><ele>32.2</ele><time>2022-08-07T09:14:19.000Z</time></trkpt><trkpt lon="5.771712" lat="51.032318"><ele>32.3</ele><time>2022-08-07T09:14:23.000Z</time></trkpt><trkpt lon="5.771728" lat="51.032474"><ele>32.3</ele><time>2022-08-07T09:14:25.000Z</time></trkpt><trkpt lon="5.771827" lat="51.033031"><ele>32.1</ele><time>2022-08-07T09:14:33.000Z</time></trkpt><trkpt lon="5.771861" lat="51.033234"><ele>32</ele><time>2022-08-07T09:14:36.000Z</time></trkpt><trkpt lon="5.772054" lat="51.033651"><ele>31.8</ele><time>2022-08-07T09:14:42.000Z</time></trkpt><trkpt lon="5.772388" lat="51.034203"><ele>31.5</ele><time>2022-08-07T09:14:50.000Z</time></trkpt><trkpt lon="5.772475" lat="51.034412"><ele>31.6</ele><time>2022-08-07T09:14:53.000Z</time></trkpt><trkpt lon="5.772568" lat="51.03491"><ele>32.3</ele><time>2022-08-07T09:15:00.000Z</time></trkpt><trkpt lon="5.772593" lat="51.0351"><ele>32.8</ele><time>2022-08-07T09:15:03.000Z</time></trkpt><trkpt lon="5.772644" lat="51.035225"><ele>32.9</ele><time>2022-08-07T09:15:05.000Z</time></trkpt><trkpt lon="5.772665" lat="51.035289"><ele>32.9</ele><time>2022-08-07T09:15:06.000Z</time></trkpt><trkpt lon="5.772682" lat="51.035499"><ele>32.9</ele><time>2022-08-07T09:15:09.000Z</time></trkpt><trkpt lon="5.772681" lat="51.035851"><ele>32.9</ele><time>2022-08-07T09:15:14.000Z</time></trkpt><trkpt lon="5.772561" lat="51.036271"><ele>32.9</ele><time>2022-08-07T09:15:20.000Z</time></trkpt><trkpt lon="5.772307" lat="51.036708"><ele>32.9</ele><time>2022-08-07T09:15:26.000Z</time></trkpt><trkpt lon="5.771949" lat="51.037238"><ele>33.1</ele><time>2022-08-07T09:15:34.000Z</time></trkpt><trkpt lon="5.771885" lat="51.037313"><ele>33.1</ele><time>2022-08-07T09:15:35.000Z</time></trkpt><trkpt lon="5.771693" lat="51.037484"><ele>33.2</ele><time>2022-08-07T09:15:38.000Z</time></trkpt><trkpt lon="5.771186" lat="51.037897"><ele>33.4</ele><time>2022-08-07T09:15:45.000Z</time></trkpt><trkpt lon="5.771128" lat="51.037945"><ele>33.4</ele><time>2022-08-07T09:15:46.000Z</time></trkpt><trkpt lon="5.771059" lat="51.038005"><ele>33.4</ele><time>2022-08-07T09:15:47.000Z</time></trkpt><trkpt lon="5.770629" lat="51.038447"><ele>33.5</ele><time>2022-08-07T09:15:54.000Z</time></trkpt><trkpt lon="5.770568" lat="51.038512"><ele>33.5</ele><time>2022-08-07T09:15:55.000Z</time></trkpt><trkpt lon="5.770381" lat="51.0387"><ele>33.5</ele><time>2022-08-07T09:15:58.000Z</time></trkpt><trkpt lon="5.770219" lat="51.038859"><ele>33.5</ele><time>2022-08-07T09:16:01.000Z</time></trkpt><trkpt lon="5.770076" lat="51.039012"><ele>33.4</ele><time>2022-08-07T09:16:05.000Z</time></trkpt><trkpt lon="5.769852" lat="51.039277"><ele>33.2</ele><time>2022-08-07T09:16:10.000Z</time></trkpt><trkpt lon="5.769803" lat="51.039336"><ele>33.2</ele><time>2022-08-07T09:16:11.000Z</time></trkpt><trkpt lon="5.769496" lat="51.039706"><ele>33.1</ele><time>2022-08-07T09:16:17.000Z</time></trkpt><trkpt lon="5.769125" lat="51.040165"><ele>32.9</ele><time>2022-08-07T09:16:25.000Z</time></trkpt><trkpt lon="5.769079" lat="51.040216"><ele>32.9</ele><time>2022-08-07T09:16:26.000Z</time></trkpt><trkpt lon="5.768994" lat="51.040301"><ele>32.8</ele><time>2022-08-07T09:16:28.000Z</time></trkpt><trkpt lon="5.768799" lat="51.040573"><ele>32.7</ele><time>2022-08-07T09:16:33.000Z</time></trkpt><trkpt lon="5.768771" lat="51.040623"><ele>32.7</ele><time>2022-08-07T09:16:34.000Z</time></trkpt><trkpt lon="5.768719" lat="51.040747"><ele>32.6</ele><time>2022-08-07T09:16:36.000Z</time></trkpt><trkpt lon="5.768714" lat="51.040792"><ele>32.6</ele><time>2022-08-07T09:16:37.000Z</time></trkpt><trkpt lon="5.768789" lat="51.040896"><ele>32.5</ele><time>2022-08-07T09:16:39.000Z</time></trkpt><trkpt lon="5.76895" lat="51.040964"><ele>32.5</ele><time>2022-08-07T09:16:41.000Z</time></trkpt><trkpt lon="5.769122" lat="51.041041"><ele>32.4</ele><time>2022-08-07T09:16:43.000Z</time></trkpt><trkpt lon="5.769889" lat="51.041341"><ele>32.2</ele><time>2022-08-07T09:16:51.000Z</time></trkpt><trkpt lon="5.770232" lat="51.041447"><ele>32.2</ele><time>2022-08-07T09:16:55.000Z</time></trkpt><trkpt lon="5.770276" lat="51.041504"><ele>32.1</ele><time>2022-08-07T09:16:56.000Z</time></trkpt><trkpt lon="5.770269" lat="51.04155"><ele>32</ele><time>2022-08-07T09:16:57.000Z</time></trkpt><trkpt lon="5.770193" lat="51.041669"><ele>31.8</ele><time>2022-08-07T09:16:59.000Z</time></trkpt><trkpt lon="5.769983" lat="51.041975"><ele>31.5</ele><time>2022-08-07T09:17:04.000Z</time></trkpt><trkpt lon="5.769606" lat="51.042423"><ele>31.4</ele><time>2022-08-07T09:17:12.000Z</time></trkpt><trkpt lon="5.769569" lat="51.042467"><ele>31.4</ele><time>2022-08-07T09:17:13.000Z</time></trkpt><trkpt lon="5.769589" lat="51.042558"><ele>31.4</ele><time>2022-08-07T09:17:15.000Z</time></trkpt><trkpt lon="5.76965" lat="51.042586"><ele>31.5</ele><time>2022-08-07T09:17:16.000Z</time></trkpt><trkpt lon="5.769847" lat="51.042655"><ele>31.4</ele><time>2022-08-07T09:17:18.000Z</time></trkpt><trkpt lon="5.770016" lat="51.042694"><ele>31.4</ele><time>2022-08-07T09:17:20.000Z</time></trkpt><trkpt lon="5.770365" lat="51.042763"><ele>31.4</ele><time>2022-08-07T09:17:24.000Z</time></trkpt><trkpt lon="5.770428" lat="51.042787"><ele>31.4</ele><time>2022-08-07T09:17:25.000Z</time></trkpt><trkpt lon="5.770477" lat="51.042809"><ele>31.4</ele><time>2022-08-07T09:17:26.000Z</time></trkpt><trkpt lon="5.770522" lat="51.042863"><ele>31.5</ele><time>2022-08-07T09:17:28.000Z</time></trkpt><trkpt lon="5.770531" lat="51.042948"><ele>31.5</ele><time>2022-08-07T09:17:30.000Z</time></trkpt><trkpt lon="5.770595" lat="51.043031"><ele>31.6</ele><time>2022-08-07T09:17:32.000Z</time></trkpt><trkpt lon="5.770717" lat="51.043131"><ele>31.5</ele><time>2022-08-07T09:17:34.000Z</time></trkpt><trkpt lon="5.77084" lat="51.043221"><ele>31.3</ele><time>2022-08-07T09:17:36.000Z</time></trkpt><trkpt lon="5.770998" lat="51.043309"><ele>31.1</ele><time>2022-08-07T09:17:37.000Z</time></trkpt><trkpt lon="5.771107" lat="51.04335"><ele>31</ele><time>2022-08-07T09:17:39.000Z</time></trkpt><trkpt lon="5.771641" lat="51.043573"><ele>31.2</ele><time>2022-08-07T09:17:45.000Z</time></trkpt><trkpt lon="5.771738" lat="51.043609"><ele>31.1</ele><time>2022-08-07T09:17:46.000Z</time></trkpt><trkpt lon="5.772431" lat="51.04385"><ele>31.1</ele><time>2022-08-07T09:17:53.000Z</time></trkpt><trkpt lon="5.772612" lat="51.043907"><ele>31.1</ele><time>2022-08-07T09:17:55.000Z</time></trkpt><trkpt lon="5.773029" lat="51.044015"><ele>31.1</ele><time>2022-08-07T09:17:59.000Z</time></trkpt><trkpt lon="5.77326" lat="51.044069"><ele>31.2</ele><time>2022-08-07T09:18:01.000Z</time></trkpt><trkpt lon="5.773471" lat="51.044121"><ele>31.2</ele><time>2022-08-07T09:18:03.000Z</time></trkpt><trkpt lon="5.773654" lat="51.044176"><ele>31.2</ele><time>2022-08-07T09:18:05.000Z</time></trkpt><trkpt lon="5.774363" lat="51.044418"><ele>31.2</ele><time>2022-08-07T09:18:12.000Z</time></trkpt><trkpt lon="5.774947" lat="51.044627"><ele>31.2</ele><time>2022-08-07T09:18:18.000Z</time></trkpt><trkpt lon="5.775503" lat="51.044865"><ele>31</ele><time>2022-08-07T09:18:24.000Z</time></trkpt><trkpt lon="5.775928" lat="51.045136"><ele>31</ele><time>2022-08-07T09:18:30.000Z</time></trkpt><trkpt lon="5.776079" lat="51.045161"><ele>31</ele><time>2022-08-07T09:18:32.000Z</time></trkpt><trkpt lon="5.776243" lat="51.045098"><ele>30.8</ele><time>2022-08-07T09:18:34.000Z</time></trkpt><trkpt lon="5.776315" lat="51.045049"><ele>30.7</ele><time>2022-08-07T09:18:35.000Z</time></trkpt><trkpt lon="5.776474" lat="51.044942"><ele>30.5</ele><time>2022-08-07T09:18:37.000Z</time></trkpt><trkpt lon="5.776722" lat="51.044781"><ele>30.4</ele><time>2022-08-07T09:18:40.000Z</time></trkpt><trkpt lon="5.776969" lat="51.044631"><ele>30.4</ele><time>2022-08-07T09:18:43.000Z</time></trkpt><trkpt lon="5.777236" lat="51.044471"><ele>30.4</ele><time>2022-08-07T09:18:46.000Z</time></trkpt><trkpt lon="5.777401" lat="51.044396"><ele>30.5</ele><time>2022-08-07T09:18:48.000Z</time></trkpt><trkpt lon="5.777622" lat="51.044334"><ele>30.7</ele><time>2022-08-07T09:18:50.000Z</time></trkpt><trkpt lon="5.777929" lat="51.04428"><ele>31</ele><time>2022-08-07T09:18:54.000Z</time></trkpt><trkpt lon="5.777994" lat="51.044276"><ele>31</ele><time>2022-08-07T09:18:55.000Z</time></trkpt><trkpt lon="5.778132" lat="51.044304"><ele>31</ele><time>2022-08-07T09:18:57.000Z</time></trkpt><trkpt lon="5.778316" lat="51.044356"><ele>31.1</ele><time>2022-08-07T09:18:59.000Z</time></trkpt><trkpt lon="5.778505" lat="51.044374"><ele>31.2</ele><time>2022-08-07T09:19:01.000Z</time></trkpt><trkpt lon="5.779232" lat="51.044421"><ele>31.3</ele><time>2022-08-07T09:19:08.000Z</time></trkpt><trkpt lon="5.779862" lat="51.044482"><ele>31.3</ele><time>2022-08-07T09:19:14.000Z</time></trkpt><trkpt lon="5.779967" lat="51.044497"><ele>31.3</ele><time>2022-08-07T09:19:15.000Z</time></trkpt><trkpt lon="5.780177" lat="51.044572"><ele>31.3</ele><time>2022-08-07T09:19:17.000Z</time></trkpt><trkpt lon="5.780331" lat="51.044654"><ele>31.3</ele><time>2022-08-07T09:19:19.000Z</time></trkpt><trkpt lon="5.780568" lat="51.044821"><ele>31.2</ele><time>2022-08-07T09:19:22.000Z</time></trkpt><trkpt lon="5.781055" lat="51.045151"><ele>31.1</ele><time>2022-08-07T09:19:28.000Z</time></trkpt><trkpt lon="5.781468" lat="51.045526"><ele>31.1</ele><time>2022-08-07T09:19:34.000Z</time></trkpt><trkpt lon="5.78154" lat="51.04559"><ele>31.1</ele><time>2022-08-07T09:19:35.000Z</time></trkpt><trkpt lon="5.781681" lat="51.045715"><ele>31.2</ele><time>2022-08-07T09:19:37.000Z</time></trkpt><trkpt lon="5.782218" lat="51.046198"><ele>31.5</ele><time>2022-08-07T09:19:45.000Z</time></trkpt><trkpt lon="5.782427" lat="51.046386"><ele>31.7</ele><time>2022-08-07T09:19:48.000Z</time></trkpt><trkpt lon="5.782605" lat="51.046481"><ele>31.7</ele><time>2022-08-07T09:19:50.000Z</time></trkpt><trkpt lon="5.782837" lat="51.046547"><ele>31.7</ele><time>2022-08-07T09:19:52.000Z</time></trkpt><trkpt lon="5.783037" lat="51.046577"><ele>31.8</ele><time>2022-08-07T09:19:54.000Z</time></trkpt><trkpt lon="5.783742" lat="51.046665"><ele>31.9</ele><time>2022-08-07T09:20:00.000Z</time></trkpt><trkpt lon="5.78383" lat="51.046673"><ele>31.9</ele><time>2022-08-07T09:20:01.000Z</time></trkpt><trkpt lon="5.784766" lat="51.046723"><ele>31.9</ele><time>2022-08-07T09:20:09.000Z</time></trkpt><trkpt lon="5.784872" lat="51.046722"><ele>31.9</ele><time>2022-08-07T09:20:10.000Z</time></trkpt><trkpt lon="5.785786" lat="51.046691"><ele>31.6</ele><time>2022-08-07T09:20:18.000Z</time></trkpt><trkpt lon="5.785897" lat="51.046685"><ele>31.6</ele><time>2022-08-07T09:20:19.000Z</time></trkpt><trkpt lon="5.78667" lat="51.0466"><ele>31.1</ele><time>2022-08-07T09:20:26.000Z</time></trkpt><trkpt lon="5.787319" lat="51.046491"><ele>31.3</ele><time>2022-08-07T09:20:32.000Z</time></trkpt><trkpt lon="5.787412" lat="51.04649"><ele>31.3</ele><time>2022-08-07T09:20:33.000Z</time></trkpt><trkpt lon="5.787492" lat="51.046516"><ele>31.4</ele><time>2022-08-07T09:20:34.000Z</time></trkpt><trkpt lon="5.787535" lat="51.046554"><ele>31.4</ele><time>2022-08-07T09:20:35.000Z</time></trkpt><trkpt lon="5.787573" lat="51.04661"><ele>31.4</ele><time>2022-08-07T09:20:36.000Z</time></trkpt><trkpt lon="5.78767" lat="51.046806"><ele>31.3</ele><time>2022-08-07T09:20:39.000Z</time></trkpt><trkpt lon="5.787853" lat="51.047222"><ele>30.9</ele><time>2022-08-07T09:20:45.000Z</time></trkpt><trkpt lon="5.788157" lat="51.047783"><ele>31.2</ele><time>2022-08-07T09:20:53.000Z</time></trkpt><trkpt lon="5.788499" lat="51.048164"><ele>31.2</ele><time>2022-08-07T09:20:59.000Z</time></trkpt><trkpt lon="5.788768" lat="51.0485"><ele>31.1</ele><time>2022-08-07T09:21:04.000Z</time></trkpt><trkpt lon="5.788873" lat="51.048633"><ele>31</ele><time>2022-08-07T09:21:06.000Z</time></trkpt><trkpt lon="5.789292" lat="51.049146"><ele>30.8</ele><time>2022-08-07T09:21:14.000Z</time></trkpt><trkpt lon="5.789346" lat="51.049213"><ele>30.8</ele><time>2022-08-07T09:21:15.000Z</time></trkpt><trkpt lon="5.789444" lat="51.049335"><ele>30.7</ele><time>2022-08-07T09:21:17.000Z</time></trkpt><trkpt lon="5.789554" lat="51.049484"><ele>30.7</ele><time>2022-08-07T09:21:19.000Z</time></trkpt><trkpt lon="5.789671" lat="51.049677"><ele>30.7</ele><time>2022-08-07T09:21:22.000Z</time></trkpt><trkpt lon="5.789785" lat="51.049943"><ele>30.7</ele><time>2022-08-07T09:21:26.000Z</time></trkpt><trkpt lon="5.789818" lat="51.050097"><ele>30.6</ele><time>2022-08-07T09:21:28.000Z</time></trkpt><trkpt lon="5.789876" lat="51.050295"><ele>30.4</ele><time>2022-08-07T09:21:31.000Z</time></trkpt><trkpt lon="5.789987" lat="51.050436"><ele>30.2</ele><time>2022-08-07T09:21:33.000Z</time></trkpt><trkpt lon="5.79042" lat="51.050908"><ele>28.6</ele><time>2022-08-07T09:21:40.000Z</time></trkpt><trkpt lon="5.790838" lat="51.051371"><ele>28.9</ele><time>2022-08-07T09:21:46.000Z</time></trkpt><trkpt lon="5.790929" lat="51.051487"><ele>29.4</ele><time>2022-08-07T09:21:48.000Z</time></trkpt><trkpt lon="5.790962" lat="51.051641"><ele>29.9</ele><time>2022-08-07T09:21:50.000Z</time></trkpt><trkpt lon="5.79098" lat="51.05177"><ele>30.3</ele><time>2022-08-07T09:21:52.000Z</time></trkpt><trkpt lon="5.791019" lat="51.051844"><ele>30.4</ele><time>2022-08-07T09:21:53.000Z</time></trkpt><trkpt lon="5.791379" lat="51.052244"><ele>30.8</ele><time>2022-08-07T09:21:59.000Z</time></trkpt><trkpt lon="5.791826" lat="51.052704"><ele>31.1</ele><time>2022-08-07T09:22:06.000Z</time></trkpt><trkpt lon="5.792303" lat="51.053209"><ele>31.3</ele><time>2022-08-07T09:22:14.000Z</time></trkpt><trkpt lon="5.792367" lat="51.053269"><ele>31.3</ele><time>2022-08-07T09:22:15.000Z</time></trkpt><trkpt lon="5.792728" lat="51.05363"><ele>31.3</ele><time>2022-08-07T09:22:21.000Z</time></trkpt><trkpt lon="5.792814" lat="51.0537"><ele>31.3</ele><time>2022-08-07T09:22:22.000Z</time></trkpt><trkpt lon="5.793382" lat="51.054052"><ele>31.3</ele><time>2022-08-07T09:22:29.000Z</time></trkpt><trkpt lon="5.794065" lat="51.054487"><ele>31.4</ele><time>2022-08-07T09:22:37.000Z</time></trkpt><trkpt lon="5.794396" lat="51.054695"><ele>31.3</ele><time>2022-08-07T09:22:41.000Z</time></trkpt><trkpt lon="5.794624" lat="51.054837"><ele>31.4</ele><time>2022-08-07T09:22:44.000Z</time></trkpt><trkpt lon="5.795201" lat="51.055188"><ele>31.7</ele><time>2022-08-07T09:22:51.000Z</time></trkpt><trkpt lon="5.795718" lat="51.055439"><ele>31.7</ele><time>2022-08-07T09:22:57.000Z</time></trkpt><trkpt lon="5.796387" lat="51.055621"><ele>31.6</ele><time>2022-08-07T09:23:03.000Z</time></trkpt><trkpt lon="5.797243" lat="51.055843"><ele>31.5</ele><time>2022-08-07T09:23:11.000Z</time></trkpt><trkpt lon="5.797698" lat="51.055948"><ele>31.6</ele><time>2022-08-07T09:23:15.000Z</time></trkpt><trkpt lon="5.798242" lat="51.056088"><ele>31.5</ele><time>2022-08-07T09:23:20.000Z</time></trkpt><trkpt lon="5.799122" lat="51.056323"><ele>31.6</ele><time>2022-08-07T09:23:28.000Z</time></trkpt><trkpt lon="5.799321" lat="51.056373"><ele>31.6</ele><time>2022-08-07T09:23:30.000Z</time></trkpt><trkpt lon="5.800033" lat="51.056624"><ele>31.5</ele><time>2022-08-07T09:23:37.000Z</time></trkpt><trkpt lon="5.800714" lat="51.056953"><ele>31.6</ele><time>2022-08-07T09:23:44.000Z</time></trkpt><trkpt lon="5.801386" lat="51.057371"><ele>31.5</ele><time>2022-08-07T09:23:52.000Z</time></trkpt><trkpt lon="5.802079" lat="51.057791"><ele>31.5</ele><time>2022-08-07T09:24:00.000Z</time></trkpt><trkpt lon="5.802135" lat="51.057835"><ele>31.5</ele><time>2022-08-07T09:24:01.000Z</time></trkpt><trkpt lon="5.802716" lat="51.058215"><ele>31.6</ele><time>2022-08-07T09:24:08.000Z</time></trkpt><trkpt lon="5.802785" lat="51.058265"><ele>31.6</ele><time>2022-08-07T09:24:09.000Z</time></trkpt><trkpt lon="5.802901" lat="51.058363"><ele>31.6</ele><time>2022-08-07T09:24:11.000Z</time></trkpt><trkpt lon="5.802961" lat="51.058431"><ele>31.6</ele><time>2022-08-07T09:24:12.000Z</time></trkpt><trkpt lon="5.803177" lat="51.058725"><ele>31.5</ele><time>2022-08-07T09:24:16.000Z</time></trkpt><trkpt lon="5.803492" lat="51.05919"><ele>31.5</ele><time>2022-08-07T09:24:23.000Z</time></trkpt><trkpt lon="5.803605" lat="51.059639"><ele>31.5</ele><time>2022-08-07T09:24:29.000Z</time></trkpt><trkpt lon="5.803617" lat="51.060222"><ele>31.5</ele><time>2022-08-07T09:24:37.000Z</time></trkpt><trkpt lon="5.803621" lat="51.060372"><ele>31.5</ele><time>2022-08-07T09:24:39.000Z</time></trkpt><trkpt lon="5.803651" lat="51.060788"><ele>31.4</ele><time>2022-08-07T09:24:44.000Z</time></trkpt><trkpt lon="5.803649" lat="51.060898"><ele>31.4</ele><time>2022-08-07T09:24:47.000Z</time></trkpt><trkpt lon="5.803657" lat="51.061126"><ele>31.4</ele><time>2022-08-07T09:24:51.000Z</time></trkpt><trkpt lon="5.803653" lat="51.06125"><ele>31.4</ele><time>2022-08-07T09:24:53.000Z</time></trkpt><trkpt lon="5.803655" lat="51.061393"><ele>31.3</ele><time>2022-08-07T09:24:56.000Z</time></trkpt><trkpt lon="5.803703" lat="51.061444"><ele>31.2</ele><time>2022-08-07T09:24:57.000Z</time></trkpt><trkpt lon="5.803781" lat="51.061473"><ele>31.1</ele><time>2022-08-07T09:24:58.000Z</time></trkpt><trkpt lon="5.803948" lat="51.061514"><ele>30.8</ele><time>2022-08-07T09:25:00.000Z</time></trkpt><trkpt lon="5.804237" lat="51.061585"><ele>30.5</ele><time>2022-08-07T09:25:03.000Z</time></trkpt><trkpt lon="5.804364" lat="51.061621"><ele>30.4</ele><time>2022-08-07T09:25:05.000Z</time></trkpt><trkpt lon="5.804434" lat="51.061637"><ele>30.4</ele><time>2022-08-07T09:25:06.000Z</time></trkpt><trkpt lon="5.804637" lat="51.061676"><ele>30.5</ele><time>2022-08-07T09:25:10.000Z</time></trkpt><trkpt lon="5.804689" lat="51.061698"><ele>30.6</ele><time>2022-08-07T09:25:11.000Z</time></trkpt><trkpt lon="5.804753" lat="51.06176"><ele>30.7</ele><time>2022-08-07T09:25:13.000Z</time></trkpt><trkpt lon="5.804747" lat="51.061807"><ele>30.3</ele><time>2022-08-07T09:25:14.000Z</time></trkpt><trkpt lon="5.804682" lat="51.061912"><ele>30</ele><time>2022-08-07T09:25:16.000Z</time></trkpt><trkpt lon="5.804462" lat="51.062298"><ele>29.7</ele><time>2022-08-07T09:25:22.000Z</time></trkpt><trkpt lon="5.804281" lat="51.062681"><ele>29.8</ele><time>2022-08-07T09:25:28.000Z</time></trkpt><trkpt lon="5.804283" lat="51.062747"><ele>29.9</ele><time>2022-08-07T09:25:29.000Z</time></trkpt><trkpt lon="5.804308" lat="51.062811"><ele>29.8</ele><time>2022-08-07T09:25:30.000Z</time></trkpt><trkpt lon="5.804418" lat="51.062941"><ele>29.8</ele><time>2022-08-07T09:25:32.000Z</time></trkpt><trkpt lon="5.80477" lat="51.063212"><ele>29.7</ele><time>2022-08-07T09:25:38.000Z</time></trkpt><trkpt lon="5.804885" lat="51.063308"><ele>29.8</ele><time>2022-08-07T09:25:40.000Z</time></trkpt><trkpt lon="5.804898" lat="51.063351"><ele>29.8</ele><time>2022-08-07T09:25:41.000Z</time></trkpt><trkpt lon="5.804873" lat="51.063404"><ele>29.9</ele><time>2022-08-07T09:25:42.000Z</time></trkpt><trkpt lon="5.804806" lat="51.063442"><ele>29.9</ele><time>2022-08-07T09:25:43.000Z</time></trkpt><trkpt lon="5.804698" lat="51.063467"><ele>29.9</ele><time>2022-08-07T09:25:44.000Z</time></trkpt><trkpt lon="5.804531" lat="51.063519"><ele>30.1</ele><time>2022-08-07T09:25:46.000Z</time></trkpt><trkpt lon="5.804069" lat="51.063761"><ele>31.1</ele><time>2022-08-07T09:25:52.000Z</time></trkpt><trkpt lon="5.803969" lat="51.06384"><ele>31.4</ele><time>2022-08-07T09:25:54.000Z</time></trkpt><trkpt lon="5.803943" lat="51.063916"><ele>31.5</ele><time>2022-08-07T09:25:56.000Z</time></trkpt><trkpt lon="5.803928" lat="51.063971"><ele>31.6</ele><time>2022-08-07T09:25:57.000Z</time></trkpt><trkpt lon="5.80385" lat="51.064095"><ele>31.7</ele><time>2022-08-07T09:25:59.000Z</time></trkpt><trkpt lon="5.803824" lat="51.064141"><ele>31.7</ele><time>2022-08-07T09:26:00.000Z</time></trkpt><trkpt lon="5.803819" lat="51.064293"><ele>31.7</ele><time>2022-08-07T09:26:02.000Z</time></trkpt><trkpt lon="5.803961" lat="51.064857"><ele>31.7</ele><time>2022-08-07T09:26:11.000Z</time></trkpt><trkpt lon="5.803969" lat="51.064923"><ele>31.7</ele><time>2022-08-07T09:26:12.000Z</time></trkpt><trkpt lon="5.804021" lat="51.065112"><ele>31.7</ele><time>2022-08-07T09:26:15.000Z</time></trkpt><trkpt lon="5.804113" lat="51.065371"><ele>31.7</ele><time>2022-08-07T09:26:19.000Z</time></trkpt><trkpt lon="5.804351" lat="51.065825"><ele>31.6</ele><time>2022-08-07T09:26:26.000Z</time></trkpt><trkpt lon="5.804632" lat="51.066372"><ele>31.6</ele><time>2022-08-07T09:26:34.000Z</time></trkpt><trkpt lon="5.804817" lat="51.066624"><ele>31.6</ele><time>2022-08-07T09:26:38.000Z</time></trkpt><trkpt lon="5.804865" lat="51.066689"><ele>31.6</ele><time>2022-08-07T09:26:39.000Z</time></trkpt><trkpt lon="5.805257" lat="51.067144"><ele>31.6</ele><time>2022-08-07T09:26:46.000Z</time></trkpt><trkpt lon="5.805697" lat="51.067651"><ele>31.6</ele><time>2022-08-07T09:26:54.000Z</time></trkpt><trkpt lon="5.805755" lat="51.067717"><ele>31.5</ele><time>2022-08-07T09:26:55.000Z</time></trkpt><trkpt lon="5.805994" lat="51.067983"><ele>31.4</ele><time>2022-08-07T09:26:59.000Z</time></trkpt><trkpt lon="5.806046" lat="51.068056"><ele>31.4</ele><time>2022-08-07T09:27:00.000Z</time></trkpt><trkpt lon="5.806093" lat="51.06813"><ele>31.4</ele><time>2022-08-07T09:27:01.000Z</time></trkpt><trkpt lon="5.806193" lat="51.068356"><ele>31.3</ele><time>2022-08-07T09:27:04.000Z</time></trkpt><trkpt lon="5.806238" lat="51.068578"><ele>31.3</ele><time>2022-08-07T09:27:07.000Z</time></trkpt><trkpt lon="5.806264" lat="51.068801"><ele>31.3</ele><time>2022-08-07T09:27:10.000Z</time></trkpt><trkpt lon="5.80632" lat="51.069112"><ele>31.3</ele><time>2022-08-07T09:27:14.000Z</time></trkpt><trkpt lon="5.806329" lat="51.069267"><ele>31.2</ele><time>2022-08-07T09:27:16.000Z</time></trkpt><trkpt lon="5.806398" lat="51.069832"><ele>31.2</ele><time>2022-08-07T09:27:23.000Z</time></trkpt><trkpt lon="5.8065" lat="51.07021"><ele>31.3</ele><time>2022-08-07T09:27:28.000Z</time></trkpt><trkpt lon="5.806582" lat="51.07043"><ele>31.3</ele><time>2022-08-07T09:27:31.000Z</time></trkpt><trkpt lon="5.806702" lat="51.070644"><ele>31.4</ele><time>2022-08-07T09:27:34.000Z</time></trkpt><trkpt lon="5.806778" lat="51.070705"><ele>31.5</ele><time>2022-08-07T09:27:35.000Z</time></trkpt><trkpt lon="5.80687" lat="51.070756"><ele>31.5</ele><time>2022-08-07T09:27:36.000Z</time></trkpt><trkpt lon="5.807057" lat="51.070841"><ele>31.4</ele><time>2022-08-07T09:27:38.000Z</time></trkpt><trkpt lon="5.807136" lat="51.070896"><ele>31.4</ele><time>2022-08-07T09:27:39.000Z</time></trkpt><trkpt lon="5.807196" lat="51.070961"><ele>31.4</ele><time>2022-08-07T09:27:40.000Z</time></trkpt><trkpt lon="5.807264" lat="51.071119"><ele>31.4</ele><time>2022-08-07T09:27:42.000Z</time></trkpt><trkpt lon="5.807247" lat="51.071426"><ele>31.3</ele><time>2022-08-07T09:27:46.000Z</time></trkpt><trkpt lon="5.807231" lat="51.072002"><ele>31.5</ele><time>2022-08-07T09:27:54.000Z</time></trkpt><trkpt lon="5.807252" lat="51.072074"><ele>31.5</ele><time>2022-08-07T09:27:55.000Z</time></trkpt><trkpt lon="5.807419" lat="51.072499"><ele>31.5</ele><time>2022-08-07T09:28:01.000Z</time></trkpt><trkpt lon="5.807516" lat="51.072714"><ele>31.6</ele><time>2022-08-07T09:28:04.000Z</time></trkpt><trkpt lon="5.807583" lat="51.072933"><ele>31.7</ele><time>2022-08-07T09:28:07.000Z</time></trkpt><trkpt lon="5.807579" lat="51.073085"><ele>31.6</ele><time>2022-08-07T09:28:09.000Z</time></trkpt><trkpt lon="5.807609" lat="51.073624"><ele>31.6</ele><time>2022-08-07T09:28:16.000Z</time></trkpt><trkpt lon="5.807784" lat="51.074211"><ele>31.5</ele><time>2022-08-07T09:28:24.000Z</time></trkpt><trkpt lon="5.807809" lat="51.074283"><ele>31.5</ele><time>2022-08-07T09:28:25.000Z</time></trkpt><trkpt lon="5.807882" lat="51.074793"><ele>31.5</ele><time>2022-08-07T09:28:32.000Z</time></trkpt><trkpt lon="5.807785" lat="51.075397"><ele>31.5</ele><time>2022-08-07T09:28:40.000Z</time></trkpt><trkpt lon="5.807596" lat="51.075993"><ele>31.6</ele><time>2022-08-07T09:28:48.000Z</time></trkpt><trkpt lon="5.807468" lat="51.076204"><ele>31.6</ele><time>2022-08-07T09:28:50.000Z</time></trkpt><trkpt lon="5.807354" lat="51.076333"><ele>31.6</ele><time>2022-08-07T09:28:53.000Z</time></trkpt><trkpt lon="5.806925" lat="51.07671"><ele>31.5</ele><time>2022-08-07T09:28:59.000Z</time></trkpt><trkpt lon="5.806415" lat="51.077222"><ele>31.4</ele><time>2022-08-07T09:29:07.000Z</time></trkpt><trkpt lon="5.80613" lat="51.07747"><ele>31.4</ele><time>2022-08-07T09:29:11.000Z</time></trkpt><trkpt lon="5.806033" lat="51.077606"><ele>31.4</ele><time>2022-08-07T09:29:13.000Z</time></trkpt><trkpt lon="5.80601" lat="51.07776"><ele>31.4</ele><time>2022-08-07T09:29:15.000Z</time></trkpt><trkpt lon="5.806033" lat="51.077836"><ele>31.4</ele><time>2022-08-07T09:29:16.000Z</time></trkpt><trkpt lon="5.806067" lat="51.077914"><ele>31.4</ele><time>2022-08-07T09:29:17.000Z</time></trkpt><trkpt lon="5.806187" lat="51.078212"><ele>31.5</ele><time>2022-08-07T09:29:21.000Z</time></trkpt><trkpt lon="5.806164" lat="51.078643"><ele>31.4</ele><time>2022-08-07T09:29:27.000Z</time></trkpt><trkpt lon="5.805981" lat="51.079063"><ele>31.4</ele><time>2022-08-07T09:29:33.000Z</time></trkpt><trkpt lon="5.805718" lat="51.079578"><ele>31.4</ele><time>2022-08-07T09:29:40.000Z</time></trkpt><trkpt lon="5.805623" lat="51.079807"><ele>31.4</ele><time>2022-08-07T09:29:43.000Z</time></trkpt><trkpt lon="5.805312" lat="51.080386"><ele>31.4</ele><time>2022-08-07T09:29:51.000Z</time></trkpt><trkpt lon="5.805045" lat="51.08081"><ele>31.4</ele><time>2022-08-07T09:29:57.000Z</time></trkpt><trkpt lon="5.804933" lat="51.081027"><ele>31.3</ele><time>2022-08-07T09:30:00.000Z</time></trkpt><trkpt lon="5.804653" lat="51.081491"><ele>31.2</ele><time>2022-08-07T09:30:07.000Z</time></trkpt><trkpt lon="5.804491" lat="51.081745"><ele>31.2</ele><time>2022-08-07T09:30:11.000Z</time></trkpt><trkpt lon="5.804447" lat="51.081809"><ele>31.2</ele><time>2022-08-07T09:30:12.000Z</time></trkpt><trkpt lon="5.80415" lat="51.08222"><ele>31</ele><time>2022-08-07T09:30:19.000Z</time></trkpt><trkpt lon="5.803924" lat="51.082549"><ele>30.4</ele><time>2022-08-07T09:30:25.000Z</time></trkpt><trkpt lon="5.803756" lat="51.082765"><ele>30.1</ele><time>2022-08-07T09:30:30.000Z</time></trkpt><trkpt lon="5.80356" lat="51.083043"><ele>29.8</ele><time>2022-08-07T09:30:37.000Z</time></trkpt><trkpt lon="5.803541" lat="51.083084"><ele>29.7</ele><time>2022-08-07T09:30:38.000Z</time></trkpt><trkpt lon="5.803554" lat="51.083173"><ele>29.6</ele><time>2022-08-07T09:30:40.000Z</time></trkpt><trkpt lon="5.803607" lat="51.083216"><ele>29.4</ele><time>2022-08-07T09:30:41.000Z</time></trkpt><trkpt lon="5.803687" lat="51.083246"><ele>29.3</ele><time>2022-08-07T09:30:42.000Z</time></trkpt><trkpt lon="5.803784" lat="51.08325"><ele>29</ele><time>2022-08-07T09:30:43.000Z</time></trkpt><trkpt lon="5.803886" lat="51.083243"><ele>28.8</ele><time>2022-08-07T09:30:44.000Z</time></trkpt><trkpt lon="5.804325" lat="51.083195"><ele>28.2</ele><time>2022-08-07T09:30:48.000Z</time></trkpt><trkpt lon="5.804773" lat="51.083191"><ele>28</ele><time>2022-08-07T09:30:51.000Z</time></trkpt><trkpt lon="5.805093" lat="51.083209"><ele>28.3</ele><time>2022-08-07T09:30:55.000Z</time></trkpt><trkpt lon="5.805638" lat="51.083308"><ele>28.4</ele><time>2022-08-07T09:31:00.000Z</time></trkpt><trkpt lon="5.806292" lat="51.083544"><ele>28.4</ele><time>2022-08-07T09:31:06.000Z</time></trkpt><trkpt lon="5.806501" lat="51.083605"><ele>28.3</ele><time>2022-08-07T09:31:08.000Z</time></trkpt><trkpt lon="5.806759" lat="51.083732"><ele>28.2</ele><time>2022-08-07T09:31:11.000Z</time></trkpt><trkpt lon="5.807284" lat="51.08401"><ele>28.6</ele><time>2022-08-07T09:31:18.000Z</time></trkpt><trkpt lon="5.807427" lat="51.084081"><ele>28.8</ele><time>2022-08-07T09:31:22.000Z</time></trkpt><trkpt lon="5.807446" lat="51.084092"><ele>28.8</ele><time>2022-08-07T09:31:25.000Z</time></trkpt><trkpt lon="5.807446" lat="51.084092"><ele>28.8</ele><time>2022-08-07T09:31:26.000Z</time></trkpt><trkpt lon="5.80749" lat="51.084134"><ele>28.8</ele><time>2022-08-07T09:31:36.000Z</time></trkpt><trkpt lon="5.807511" lat="51.084227"><ele>28.7</ele><time>2022-08-07T09:31:40.000Z</time></trkpt><trkpt lon="5.807479" lat="51.084257"><ele>28.7</ele><time>2022-08-07T09:31:41.000Z</time></trkpt><trkpt lon="5.807369" lat="51.084325"><ele>28.5</ele><time>2022-08-07T09:31:43.000Z</time></trkpt><trkpt lon="5.807213" lat="51.084402"><ele>28.4</ele><time>2022-08-07T09:31:45.000Z</time></trkpt><trkpt lon="5.80679" lat="51.084651"><ele>28.2</ele><time>2022-08-07T09:31:50.000Z</time></trkpt><trkpt lon="5.806152" lat="51.085009"><ele>28.2</ele><time>2022-08-07T09:31:57.000Z</time></trkpt><trkpt lon="5.805627" lat="51.085304"><ele>28.3</ele><time>2022-08-07T09:32:03.000Z</time></trkpt><trkpt lon="5.805152" lat="51.08562"><ele>28.5</ele><time>2022-08-07T09:32:09.000Z</time></trkpt><trkpt lon="5.805014" lat="51.085743"><ele>28.5</ele><time>2022-08-07T09:32:11.000Z</time></trkpt><trkpt lon="5.804508" lat="51.086248"><ele>28.6</ele><time>2022-08-07T09:32:19.000Z</time></trkpt><trkpt lon="5.80444" lat="51.086312"><ele>28.7</ele><time>2022-08-07T09:32:20.000Z</time></trkpt><trkpt lon="5.80394" lat="51.086802"><ele>29.1</ele><time>2022-08-07T09:32:28.000Z</time></trkpt><trkpt lon="5.803879" lat="51.086859"><ele>29.2</ele><time>2022-08-07T09:32:29.000Z</time></trkpt><trkpt lon="5.803608" lat="51.087128"><ele>29.4</ele><time>2022-08-07T09:32:34.000Z</time></trkpt><trkpt lon="5.803217" lat="51.087493"><ele>29.9</ele><time>2022-08-07T09:32:40.000Z</time></trkpt><trkpt lon="5.802876" lat="51.08783"><ele>30.3</ele><time>2022-08-07T09:32:45.000Z</time></trkpt><trkpt lon="5.802494" lat="51.088216"><ele>30.4</ele><time>2022-08-07T09:32:51.000Z</time></trkpt><trkpt lon="5.80223" lat="51.088466"><ele>30.1</ele><time>2022-08-07T09:32:55.000Z</time></trkpt><trkpt lon="5.802162" lat="51.088535"><ele>30</ele><time>2022-08-07T09:32:56.000Z</time></trkpt><trkpt lon="5.801627" lat="51.089051"><ele>29.6</ele><time>2022-08-07T09:33:04.000Z</time></trkpt><trkpt lon="5.801495" lat="51.089182"><ele>29.6</ele><time>2022-08-07T09:33:06.000Z</time></trkpt><trkpt lon="5.80123" lat="51.08944"><ele>29.6</ele><time>2022-08-07T09:33:10.000Z</time></trkpt><trkpt lon="5.800968" lat="51.0897"><ele>29.6</ele><time>2022-08-07T09:33:14.000Z</time></trkpt><trkpt lon="5.800907" lat="51.089764"><ele>29.6</ele><time>2022-08-07T09:33:15.000Z</time></trkpt><trkpt lon="5.800638" lat="51.090182"><ele>29.6</ele><time>2022-08-07T09:33:21.000Z</time></trkpt><trkpt lon="5.800606" lat="51.090547"><ele>29.5</ele><time>2022-08-07T09:33:26.000Z</time></trkpt><trkpt lon="5.800644" lat="51.091153"><ele>29.4</ele><time>2022-08-07T09:33:34.000Z</time></trkpt><trkpt lon="5.800634" lat="51.091223"><ele>29.5</ele><time>2022-08-07T09:33:35.000Z</time></trkpt><trkpt lon="5.800508" lat="51.091574"><ele>29.8</ele><time>2022-08-07T09:33:40.000Z</time></trkpt><trkpt lon="5.800395" lat="51.091698"><ele>29.9</ele><time>2022-08-07T09:33:42.000Z</time></trkpt><trkpt lon="5.800253" lat="51.091807"><ele>30.1</ele><time>2022-08-07T09:33:44.000Z</time></trkpt><trkpt lon="5.799735" lat="51.09211"><ele>30.7</ele><time>2022-08-07T09:33:50.000Z</time></trkpt><trkpt lon="5.799192" lat="51.092435"><ele>32.7</ele><time>2022-08-07T09:33:57.000Z</time></trkpt><trkpt lon="5.798741" lat="51.092708"><ele>34.3</ele><time>2022-08-07T09:34:03.000Z</time></trkpt><trkpt lon="5.798581" lat="51.092801"><ele>34.6</ele><time>2022-08-07T09:34:05.000Z</time></trkpt><trkpt lon="5.79793" lat="51.093178"><ele>34.6</ele><time>2022-08-07T09:34:13.000Z</time></trkpt><trkpt lon="5.797804" lat="51.093254"><ele>34.5</ele><time>2022-08-07T09:34:15.000Z</time></trkpt><trkpt lon="5.797633" lat="51.093364"><ele>33.8</ele><time>2022-08-07T09:34:19.000Z</time></trkpt><trkpt lon="5.797448" lat="51.093454"><ele>32.8</ele><time>2022-08-07T09:34:23.000Z</time></trkpt><trkpt lon="5.797316" lat="51.093508"><ele>32.1</ele><time>2022-08-07T09:34:25.000Z</time></trkpt><trkpt lon="5.797122" lat="51.093623"><ele>31.1</ele><time>2022-08-07T09:34:30.000Z</time></trkpt><trkpt lon="5.797101" lat="51.093668"><ele>31.1</ele><time>2022-08-07T09:34:32.000Z</time></trkpt><trkpt lon="5.797074" lat="51.093726"><ele>31.1</ele><time>2022-08-07T09:34:34.000Z</time></trkpt><trkpt lon="5.796905" lat="51.093775"><ele>30.6</ele><time>2022-08-07T09:34:37.000Z</time></trkpt><trkpt lon="5.796693" lat="51.09382"><ele>30.2</ele><time>2022-08-07T09:34:40.000Z</time></trkpt><trkpt lon="5.796547" lat="51.093847"><ele>29.9</ele><time>2022-08-07T09:34:42.000Z</time></trkpt><trkpt lon="5.796497" lat="51.093869"><ele>29.7</ele><time>2022-08-07T09:34:43.000Z</time></trkpt><trkpt lon="5.796487" lat="51.093902"><ele>29.7</ele><time>2022-08-07T09:34:44.000Z</time></trkpt><trkpt lon="5.796505" lat="51.093946"><ele>29.6</ele><time>2022-08-07T09:34:45.000Z</time></trkpt><trkpt lon="5.796665" lat="51.09425"><ele>29.5</ele><time>2022-08-07T09:34:51.000Z</time></trkpt><trkpt lon="5.796808" lat="51.094645"><ele>29.4</ele><time>2022-08-07T09:34:58.000Z</time></trkpt><trkpt lon="5.796846" lat="51.094701"><ele>29.4</ele><time>2022-08-07T09:34:59.000Z</time></trkpt><trkpt lon="5.796914" lat="51.094747"><ele>29.4</ele><time>2022-08-07T09:35:00.000Z</time></trkpt><trkpt lon="5.797108" lat="51.094776"><ele>29.3</ele><time>2022-08-07T09:35:02.000Z</time></trkpt><trkpt lon="5.797516" lat="51.094804"><ele>29.1</ele><time>2022-08-07T09:35:06.000Z</time></trkpt><trkpt lon="5.797595" lat="51.094839"><ele>29.1</ele><time>2022-08-07T09:35:07.000Z</time></trkpt><trkpt lon="5.797656" lat="51.094886"><ele>29.1</ele><time>2022-08-07T09:35:08.000Z</time></trkpt><trkpt lon="5.797798" lat="51.095048"><ele>28.9</ele><time>2022-08-07T09:35:11.000Z</time></trkpt><trkpt lon="5.797995" lat="51.095289"><ele>28.8</ele><time>2022-08-07T09:35:15.000Z</time></trkpt><trkpt lon="5.798053" lat="51.095326"><ele>28.7</ele><time>2022-08-07T09:35:16.000Z</time></trkpt><trkpt lon="5.79825" lat="51.095454"><ele>28.6</ele><time>2022-08-07T09:35:19.000Z</time></trkpt><trkpt lon="5.798418" lat="51.095638"><ele>28.4</ele><time>2022-08-07T09:35:22.000Z</time></trkpt><trkpt lon="5.798857" lat="51.096044"><ele>28.3</ele><time>2022-08-07T09:35:29.000Z</time></trkpt><trkpt lon="5.798907" lat="51.096106"><ele>28.2</ele><time>2022-08-07T09:35:30.000Z</time></trkpt><trkpt lon="5.798957" lat="51.096169"><ele>28.2</ele><time>2022-08-07T09:35:31.000Z</time></trkpt><trkpt lon="5.79927" lat="51.096596"><ele>28.3</ele><time>2022-08-07T09:35:38.000Z</time></trkpt><trkpt lon="5.79946" lat="51.096952"><ele>28.8</ele><time>2022-08-07T09:35:44.000Z</time></trkpt><trkpt lon="5.799486" lat="51.097006"><ele>28.8</ele><time>2022-08-07T09:35:45.000Z</time></trkpt><trkpt lon="5.799505" lat="51.097058"><ele>28.7</ele><time>2022-08-07T09:35:46.000Z</time></trkpt><trkpt lon="5.799486" lat="51.097161"><ele>28.7</ele><time>2022-08-07T09:35:48.000Z</time></trkpt><trkpt lon="5.799403" lat="51.097269"><ele>28.7</ele><time>2022-08-07T09:35:50.000Z</time></trkpt><trkpt lon="5.799269" lat="51.09737"><ele>28.7</ele><time>2022-08-07T09:35:52.000Z</time></trkpt><trkpt lon="5.799054" lat="51.097524"><ele>28.7</ele><time>2022-08-07T09:35:55.000Z</time></trkpt><trkpt lon="5.79874" lat="51.097719"><ele>28.7</ele><time>2022-08-07T09:35:59.000Z</time></trkpt><trkpt lon="5.798229" lat="51.098082"><ele>29</ele><time>2022-08-07T09:36:06.000Z</time></trkpt><trkpt lon="5.798156" lat="51.098139"><ele>29</ele><time>2022-08-07T09:36:07.000Z</time></trkpt><trkpt lon="5.797543" lat="51.098547"><ele>29.2</ele><time>2022-08-07T09:36:15.000Z</time></trkpt><trkpt lon="5.796956" lat="51.09877"><ele>29.3</ele><time>2022-08-07T09:36:21.000Z</time></trkpt><trkpt lon="5.796754" lat="51.098829"><ele>29.3</ele><time>2022-08-07T09:36:23.000Z</time></trkpt><trkpt lon="5.796464" lat="51.098875"><ele>29.5</ele><time>2022-08-07T09:36:26.000Z</time></trkpt><trkpt lon="5.796119" lat="51.098865"><ele>29.7</ele><time>2022-08-07T09:36:30.000Z</time></trkpt><trkpt lon="5.795915" lat="51.09887"><ele>29.8</ele><time>2022-08-07T09:36:34.000Z</time></trkpt><trkpt lon="5.795891" lat="51.098876"><ele>29.8</ele><time>2022-08-07T09:36:35.000Z</time></trkpt><trkpt lon="5.795861" lat="51.098892"><ele>29.8</ele><time>2022-08-07T09:36:37.000Z</time></trkpt><trkpt lon="5.795802" lat="51.098917"><ele>29.8</ele><time>2022-08-07T09:36:41.000Z</time></trkpt><trkpt lon="5.795763" lat="51.098926"><ele>29.7</ele><time>2022-08-07T09:36:42.000Z</time></trkpt><trkpt lon="5.795658" lat="51.098963"><ele>29.6</ele><time>2022-08-07T09:36:44.000Z</time></trkpt><trkpt lon="5.7955" lat="51.09902"><ele>29.5</ele><time>2022-08-07T09:36:46.000Z</time></trkpt><trkpt lon="5.79541" lat="51.099048"><ele>29.4</ele><time>2022-08-07T09:36:47.000Z</time></trkpt><trkpt lon="5.795196" lat="51.099107"><ele>29.4</ele><time>2022-08-07T09:36:49.000Z</time></trkpt><trkpt lon="5.795009" lat="51.099148"><ele>29.4</ele><time>2022-08-07T09:36:51.000Z</time></trkpt><trkpt lon="5.794136" lat="51.099349"><ele>29</ele><time>2022-08-07T09:36:59.000Z</time></trkpt><trkpt lon="5.794025" lat="51.09937"><ele>29</ele><time>2022-08-07T09:37:00.000Z</time></trkpt><trkpt lon="5.793452" lat="51.099475"><ele>28.9</ele><time>2022-08-07T09:37:05.000Z</time></trkpt><trkpt lon="5.793336" lat="51.099493"><ele>28.9</ele><time>2022-08-07T09:37:06.000Z</time></trkpt><trkpt lon="5.792505" lat="51.099596"><ele>28.9</ele><time>2022-08-07T09:37:13.000Z</time></trkpt><trkpt lon="5.792146" lat="51.09962"><ele>29</ele><time>2022-08-07T09:37:16.000Z</time></trkpt><trkpt lon="5.791761" lat="51.099638"><ele>29</ele><time>2022-08-07T09:37:19.000Z</time></trkpt><trkpt lon="5.791292" lat="51.099657"><ele>28.9</ele><time>2022-08-07T09:37:23.000Z</time></trkpt><trkpt lon="5.790382" lat="51.099664"><ele>29</ele><time>2022-08-07T09:37:30.000Z</time></trkpt><trkpt lon="5.789425" lat="51.09961"><ele>29.2</ele><time>2022-08-07T09:37:38.000Z</time></trkpt><trkpt lon="5.789303" lat="51.099599"><ele>29.2</ele><time>2022-08-07T09:37:39.000Z</time></trkpt><trkpt lon="5.788487" lat="51.099506"><ele>29.4</ele><time>2022-08-07T09:37:46.000Z</time></trkpt><trkpt lon="5.788284" lat="51.099537"><ele>29.4</ele><time>2022-08-07T09:37:48.000Z</time></trkpt><trkpt lon="5.788209" lat="51.099583"><ele>29.4</ele><time>2022-08-07T09:37:49.000Z</time></trkpt><trkpt lon="5.788165" lat="51.099647"><ele>29.3</ele><time>2022-08-07T09:37:50.000Z</time></trkpt><trkpt lon="5.788089" lat="51.09979"><ele>29.2</ele><time>2022-08-07T09:37:52.000Z</time></trkpt><trkpt lon="5.788047" lat="51.099859"><ele>29</ele><time>2022-08-07T09:37:53.000Z</time></trkpt><trkpt lon="5.78802" lat="51.099932"><ele>28.9</ele><time>2022-08-07T09:37:54.000Z</time></trkpt><trkpt lon="5.787974" lat="51.100154"><ele>28.9</ele><time>2022-08-07T09:37:57.000Z</time></trkpt><trkpt lon="5.787877" lat="51.100592"><ele>28.9</ele><time>2022-08-07T09:38:03.000Z</time></trkpt><trkpt lon="5.787845" lat="51.100742"><ele>28.9</ele><time>2022-08-07T09:38:05.000Z</time></trkpt><trkpt lon="5.787825" lat="51.100886"><ele>28.9</ele><time>2022-08-07T09:38:08.000Z</time></trkpt><trkpt lon="5.787816" lat="51.100927"><ele>28.9</ele><time>2022-08-07T09:38:09.000Z</time></trkpt><trkpt lon="5.787788" lat="51.10102"><ele>29</ele><time>2022-08-07T09:38:11.000Z</time></trkpt><trkpt lon="5.787765" lat="51.101129"><ele>29</ele><time>2022-08-07T09:38:13.000Z</time></trkpt><trkpt lon="5.7877" lat="51.101467"><ele>29</ele><time>2022-08-07T09:38:18.000Z</time></trkpt><trkpt lon="5.787602" lat="51.101951"><ele>29.1</ele><time>2022-08-07T09:38:25.000Z</time></trkpt><trkpt lon="5.787464" lat="51.102541"><ele>28.9</ele><time>2022-08-07T09:38:33.000Z</time></trkpt><trkpt lon="5.787459" lat="51.102614"><ele>28.9</ele><time>2022-08-07T09:38:34.000Z</time></trkpt><trkpt lon="5.787496" lat="51.10276"><ele>28.9</ele><time>2022-08-07T09:38:36.000Z</time></trkpt><trkpt lon="5.787577" lat="51.10289"><ele>28.9</ele><time>2022-08-07T09:38:38.000Z</time></trkpt><trkpt lon="5.787801" lat="51.103167"><ele>29</ele><time>2022-08-07T09:38:43.000Z</time></trkpt><trkpt lon="5.787781" lat="51.103273"><ele>29</ele><time>2022-08-07T09:38:45.000Z</time></trkpt><trkpt lon="5.787724" lat="51.103321"><ele>28.9</ele><time>2022-08-07T09:38:46.000Z</time></trkpt><trkpt lon="5.787638" lat="51.103356"><ele>28.9</ele><time>2022-08-07T09:38:47.000Z</time></trkpt><trkpt lon="5.787342" lat="51.10344"><ele>28.8</ele><time>2022-08-07T09:38:50.000Z</time></trkpt><trkpt lon="5.786707" lat="51.103595"><ele>28.6</ele><time>2022-08-07T09:38:56.000Z</time></trkpt><trkpt lon="5.786161" lat="51.103737"><ele>28.6</ele><time>2022-08-07T09:39:01.000Z</time></trkpt><trkpt lon="5.785809" lat="51.103804"><ele>28.8</ele><time>2022-08-07T09:39:04.000Z</time></trkpt><trkpt lon="5.784884" lat="51.103924"><ele>29.5</ele><time>2022-08-07T09:39:12.000Z</time></trkpt><trkpt lon="5.784768" lat="51.103927"><ele>29.6</ele><time>2022-08-07T09:39:13.000Z</time></trkpt><trkpt lon="5.784087" lat="51.103921"><ele>30.4</ele><time>2022-08-07T09:39:19.000Z</time></trkpt><trkpt lon="5.783917" lat="51.103968"><ele>30.7</ele><time>2022-08-07T09:39:21.000Z</time></trkpt><trkpt lon="5.783888" lat="51.104015"><ele>30.9</ele><time>2022-08-07T09:39:22.000Z</time></trkpt><trkpt lon="5.783962" lat="51.104144"><ele>30.9</ele><time>2022-08-07T09:39:24.000Z</time></trkpt><trkpt lon="5.784016" lat="51.104204"><ele>30.9</ele><time>2022-08-07T09:39:25.000Z</time></trkpt><trkpt lon="5.784201" lat="51.104428"><ele>31</ele><time>2022-08-07T09:39:29.000Z</time></trkpt><trkpt lon="5.78421" lat="51.10448"><ele>30.9</ele><time>2022-08-07T09:39:30.000Z</time></trkpt><trkpt lon="5.784177" lat="51.104524"><ele>30.8</ele><time>2022-08-07T09:39:31.000Z</time></trkpt><trkpt lon="5.784107" lat="51.104562"><ele>30.8</ele><time>2022-08-07T09:39:32.000Z</time></trkpt><trkpt lon="5.784019" lat="51.104598"><ele>30.7</ele><time>2022-08-07T09:39:33.000Z</time></trkpt><trkpt lon="5.78358" lat="51.104773"><ele>30.4</ele><time>2022-08-07T09:39:38.000Z</time></trkpt><trkpt lon="5.783093" lat="51.105021"><ele>30.3</ele><time>2022-08-07T09:39:44.000Z</time></trkpt><trkpt lon="5.782947" lat="51.105128"><ele>30.3</ele><time>2022-08-07T09:39:46.000Z</time></trkpt><trkpt lon="5.782833" lat="51.10525"><ele>30.3</ele><time>2022-08-07T09:39:48.000Z</time></trkpt><trkpt lon="5.782633" lat="51.105683"><ele>30.3</ele><time>2022-08-07T09:39:54.000Z</time></trkpt><trkpt lon="5.782612" lat="51.106059"><ele>30.4</ele><time>2022-08-07T09:39:59.000Z</time></trkpt><trkpt lon="5.782639" lat="51.106283"><ele>30.4</ele><time>2022-08-07T09:40:02.000Z</time></trkpt><trkpt lon="5.782649" lat="51.106355"><ele>30.4</ele><time>2022-08-07T09:40:03.000Z</time></trkpt><trkpt lon="5.78266" lat="51.106566"><ele>30.4</ele><time>2022-08-07T09:40:06.000Z</time></trkpt><trkpt lon="5.78262" lat="51.107059"><ele>30.6</ele><time>2022-08-07T09:40:13.000Z</time></trkpt><trkpt lon="5.782558" lat="51.107639"><ele>30.9</ele><time>2022-08-07T09:40:21.000Z</time></trkpt><trkpt lon="5.782555" lat="51.107713"><ele>30.9</ele><time>2022-08-07T09:40:22.000Z</time></trkpt><trkpt lon="5.78258" lat="51.108002"><ele>31</ele><time>2022-08-07T09:40:26.000Z</time></trkpt><trkpt lon="5.782655" lat="51.108147"><ele>31</ele><time>2022-08-07T09:40:28.000Z</time></trkpt><trkpt lon="5.782881" lat="51.108406"><ele>31.1</ele><time>2022-08-07T09:40:32.000Z</time></trkpt><trkpt lon="5.78294" lat="51.108468"><ele>31.1</ele><time>2022-08-07T09:40:33.000Z</time></trkpt><trkpt lon="5.782997" lat="51.108531"><ele>31.1</ele><time>2022-08-07T09:40:34.000Z</time></trkpt><trkpt lon="5.783252" lat="51.108903"><ele>31.1</ele><time>2022-08-07T09:40:40.000Z</time></trkpt><trkpt lon="5.783335" lat="51.109034"><ele>31.1</ele><time>2022-08-07T09:40:42.000Z</time></trkpt><trkpt lon="5.783431" lat="51.10916"><ele>31.2</ele><time>2022-08-07T09:40:44.000Z</time></trkpt><trkpt lon="5.783466" lat="51.109225"><ele>31.3</ele><time>2022-08-07T09:40:45.000Z</time></trkpt><trkpt lon="5.783718" lat="51.109767"><ele>31.4</ele><time>2022-08-07T09:40:53.000Z</time></trkpt><trkpt lon="5.783998" lat="51.110245"><ele>31.4</ele><time>2022-08-07T09:41:00.000Z</time></trkpt><trkpt lon="5.784427" lat="51.110751"><ele>31.4</ele><time>2022-08-07T09:41:08.000Z</time></trkpt><trkpt lon="5.784589" lat="51.11095"><ele>31.4</ele><time>2022-08-07T09:41:11.000Z</time></trkpt><trkpt lon="5.785009" lat="51.111402"><ele>31.5</ele><time>2022-08-07T09:41:18.000Z</time></trkpt><trkpt lon="5.785139" lat="51.111525"><ele>31.6</ele><time>2022-08-07T09:41:20.000Z</time></trkpt><trkpt lon="5.785588" lat="51.112029"><ele>31.7</ele><time>2022-08-07T09:41:28.000Z</time></trkpt><trkpt lon="5.785694" lat="51.112238"><ele>31.7</ele><time>2022-08-07T09:41:31.000Z</time></trkpt><trkpt lon="5.785726" lat="51.112309"><ele>31.7</ele><time>2022-08-07T09:41:32.000Z</time></trkpt><trkpt lon="5.785925" lat="51.112741"><ele>31.6</ele><time>2022-08-07T09:41:38.000Z</time></trkpt><trkpt lon="5.786199" lat="51.113165"><ele>31.4</ele><time>2022-08-07T09:41:44.000Z</time></trkpt><trkpt lon="5.786624" lat="51.113533"><ele>31.3</ele><time>2022-08-07T09:41:50.000Z</time></trkpt><trkpt lon="5.78676" lat="51.11366"><ele>31.2</ele><time>2022-08-07T09:41:52.000Z</time></trkpt><trkpt lon="5.786916" lat="51.113866"><ele>31.1</ele><time>2022-08-07T09:41:55.000Z</time></trkpt><trkpt lon="5.786946" lat="51.113936"><ele>31.1</ele><time>2022-08-07T09:41:56.000Z</time></trkpt><trkpt lon="5.78697" lat="51.114291"><ele>31</ele><time>2022-08-07T09:42:01.000Z</time></trkpt><trkpt lon="5.786966" lat="51.114391"><ele>31.1</ele><time>2022-08-07T09:42:03.000Z</time></trkpt><trkpt lon="5.786969" lat="51.114417"><ele>31.1</ele><time>2022-08-07T09:42:04.000Z</time></trkpt><trkpt lon="5.786966" lat="51.114464"><ele>31.1</ele><time>2022-08-07T09:42:08.000Z</time></trkpt><trkpt lon="5.786936" lat="51.114596"><ele>30.8</ele><time>2022-08-07T09:42:13.000Z</time></trkpt><trkpt lon="5.786935" lat="51.114814"><ele>30.3</ele><time>2022-08-07T09:42:17.000Z</time></trkpt><trkpt lon="5.78693" lat="51.114941"><ele>30.2</ele><time>2022-08-07T09:42:19.000Z</time></trkpt><trkpt lon="5.78692" lat="51.115271"><ele>29.9</ele><time>2022-08-07T09:42:24.000Z</time></trkpt><trkpt lon="5.786859" lat="51.115698"><ele>29.7</ele><time>2022-08-07T09:42:30.000Z</time></trkpt><trkpt lon="5.786841" lat="51.115774"><ele>29.7</ele><time>2022-08-07T09:42:31.000Z</time></trkpt><trkpt lon="5.786768" lat="51.115992"><ele>29.7</ele><time>2022-08-07T09:42:34.000Z</time></trkpt><trkpt lon="5.786662" lat="51.116282"><ele>29.7</ele><time>2022-08-07T09:42:38.000Z</time></trkpt><trkpt lon="5.786637" lat="51.116356"><ele>29.7</ele><time>2022-08-07T09:42:39.000Z</time></trkpt><trkpt lon="5.786604" lat="51.116875"><ele>29.9</ele><time>2022-08-07T09:42:45.000Z</time></trkpt><trkpt lon="5.786764" lat="51.117383"><ele>30</ele><time>2022-08-07T09:42:53.000Z</time></trkpt><trkpt lon="5.786912" lat="51.117834"><ele>29.8</ele><time>2022-08-07T09:42:59.000Z</time></trkpt><trkpt lon="5.786962" lat="51.118138"><ele>29.9</ele><time>2022-08-07T09:43:03.000Z</time></trkpt><trkpt lon="5.786872" lat="51.118352"><ele>30</ele><time>2022-08-07T09:43:06.000Z</time></trkpt><trkpt lon="5.786733" lat="51.118565"><ele>30.1</ele><time>2022-08-07T09:43:09.000Z</time></trkpt><trkpt lon="5.786697" lat="51.118717"><ele>30.1</ele><time>2022-08-07T09:43:11.000Z</time></trkpt><trkpt lon="5.786696" lat="51.118791"><ele>30.1</ele><time>2022-08-07T09:43:12.000Z</time></trkpt><trkpt lon="5.786767" lat="51.11903"><ele>30.2</ele><time>2022-08-07T09:43:15.000Z</time></trkpt><trkpt lon="5.78702" lat="51.119588"><ele>30.6</ele><time>2022-08-07T09:43:23.000Z</time></trkpt><trkpt lon="5.787059" lat="51.119658"><ele>30.6</ele><time>2022-08-07T09:43:24.000Z</time></trkpt><trkpt lon="5.787259" lat="51.120026"><ele>30.7</ele><time>2022-08-07T09:43:29.000Z</time></trkpt><trkpt lon="5.787549" lat="51.120527"><ele>30.9</ele><time>2022-08-07T09:43:36.000Z</time></trkpt><trkpt lon="5.787881" lat="51.121035"><ele>30.9</ele><time>2022-08-07T09:43:43.000Z</time></trkpt><trkpt lon="5.787983" lat="51.121159"><ele>30.9</ele><time>2022-08-07T09:43:45.000Z</time></trkpt><trkpt lon="5.788334" lat="51.121564"><ele>31</ele><time>2022-08-07T09:43:51.000Z</time></trkpt><trkpt lon="5.788744" lat="51.122099"><ele>30.7</ele><time>2022-08-07T09:43:59.000Z</time></trkpt><trkpt lon="5.788819" lat="51.122238"><ele>30.5</ele><time>2022-08-07T09:44:01.000Z</time></trkpt><trkpt lon="5.788966" lat="51.122668"><ele>30.4</ele><time>2022-08-07T09:44:07.000Z</time></trkpt><trkpt lon="5.788945" lat="51.123016"><ele>30.3</ele><time>2022-08-07T09:44:12.000Z</time></trkpt><trkpt lon="5.789002" lat="51.123138"><ele>30.3</ele><time>2022-08-07T09:44:14.000Z</time></trkpt><trkpt lon="5.789089" lat="51.123247"><ele>30.4</ele><time>2022-08-07T09:44:16.000Z</time></trkpt><trkpt lon="5.789152" lat="51.123349"><ele>30.4</ele><time>2022-08-07T09:44:18.000Z</time></trkpt><trkpt lon="5.789128" lat="51.123392"><ele>30.4</ele><time>2022-08-07T09:44:19.000Z</time></trkpt><trkpt lon="5.78898" lat="51.123414"><ele>30.3</ele><time>2022-08-07T09:44:21.000Z</time></trkpt><trkpt lon="5.788892" lat="51.123396"><ele>30.3</ele><time>2022-08-07T09:44:22.000Z</time></trkpt><trkpt lon="5.78861" lat="51.123317"><ele>30.3</ele><time>2022-08-07T09:44:25.000Z</time></trkpt><trkpt lon="5.788092" lat="51.123211"><ele>30.7</ele><time>2022-08-07T09:44:30.000Z</time></trkpt><trkpt lon="5.787985" lat="51.123199"><ele>30.7</ele><time>2022-08-07T09:44:31.000Z</time></trkpt><trkpt lon="5.787568" lat="51.123184"><ele>30.9</ele><time>2022-08-07T09:44:35.000Z</time></trkpt><trkpt lon="5.787259" lat="51.123185"><ele>31</ele><time>2022-08-07T09:44:38.000Z</time></trkpt><trkpt lon="5.786927" lat="51.123164"><ele>31.1</ele><time>2022-08-07T09:44:41.000Z</time></trkpt><trkpt lon="5.786353" lat="51.123151"><ele>31.3</ele><time>2022-08-07T09:44:46.000Z</time></trkpt><trkpt lon="5.785537" lat="51.123128"><ele>31.4</ele><time>2022-08-07T09:44:53.000Z</time></trkpt><trkpt lon="5.785194" lat="51.123107"><ele>31.5</ele><time>2022-08-07T09:44:56.000Z</time></trkpt><trkpt lon="5.784978" lat="51.123035"><ele>31.5</ele><time>2022-08-07T09:44:58.000Z</time></trkpt><trkpt lon="5.784787" lat="51.122953"><ele>31.4</ele><time>2022-08-07T09:45:00.000Z</time></trkpt><trkpt lon="5.784577" lat="51.122863"><ele>31.3</ele><time>2022-08-07T09:45:02.000Z</time></trkpt><trkpt lon="5.784334" lat="51.122835"><ele>31.1</ele><time>2022-08-07T09:45:04.000Z</time></trkpt><trkpt lon="5.783985" lat="51.122887"><ele>30.9</ele><time>2022-08-07T09:45:07.000Z</time></trkpt><trkpt lon="5.783645" lat="51.122952"><ele>30.8</ele><time>2022-08-07T09:45:10.000Z</time></trkpt><trkpt lon="5.783307" lat="51.123016"><ele>30.7</ele><time>2022-08-07T09:45:13.000Z</time></trkpt><trkpt lon="5.782957" lat="51.123076"><ele>30.6</ele><time>2022-08-07T09:45:16.000Z</time></trkpt><trkpt lon="5.782839" lat="51.123095"><ele>30.6</ele><time>2022-08-07T09:45:17.000Z</time></trkpt><trkpt lon="5.782722" lat="51.123114"><ele>30.6</ele><time>2022-08-07T09:45:18.000Z</time></trkpt><trkpt lon="5.782373" lat="51.12318"><ele>30.6</ele><time>2022-08-07T09:45:21.000Z</time></trkpt><trkpt lon="5.782138" lat="51.123218"><ele>30.6</ele><time>2022-08-07T09:45:23.000Z</time></trkpt><trkpt lon="5.781203" lat="51.123374"><ele>30.5</ele><time>2022-08-07T09:45:31.000Z</time></trkpt><trkpt lon="5.780965" lat="51.123414"><ele>30.5</ele><time>2022-08-07T09:45:33.000Z</time></trkpt><trkpt lon="5.78014" lat="51.123563"><ele>30.7</ele><time>2022-08-07T09:45:40.000Z</time></trkpt><trkpt lon="5.779654" lat="51.123647"><ele>30.8</ele><time>2022-08-07T09:45:44.000Z</time></trkpt><trkpt lon="5.778954" lat="51.123779"><ele>31</ele><time>2022-08-07T09:45:50.000Z</time></trkpt><trkpt lon="5.778471" lat="51.12386"><ele>30.9</ele><time>2022-08-07T09:45:54.000Z</time></trkpt><trkpt lon="5.778113" lat="51.123922"><ele>31</ele><time>2022-08-07T09:45:57.000Z</time></trkpt><trkpt lon="5.777996" lat="51.123947"><ele>31</ele><time>2022-08-07T09:45:58.000Z</time></trkpt><trkpt lon="5.777642" lat="51.124018"><ele>31</ele><time>2022-08-07T09:46:01.000Z</time></trkpt><trkpt lon="5.777184" lat="51.124128"><ele>31.1</ele><time>2022-08-07T09:46:05.000Z</time></trkpt><trkpt lon="5.776619" lat="51.124276"><ele>31.3</ele><time>2022-08-07T09:46:10.000Z</time></trkpt><trkpt lon="5.776278" lat="51.124361"><ele>31.3</ele><time>2022-08-07T09:46:13.000Z</time></trkpt><trkpt lon="5.775709" lat="51.124492"><ele>31.4</ele><time>2022-08-07T09:46:18.000Z</time></trkpt><trkpt lon="5.775365" lat="51.124565"><ele>31.5</ele><time>2022-08-07T09:46:21.000Z</time></trkpt><trkpt lon="5.775251" lat="51.124587"><ele>31.5</ele><time>2022-08-07T09:46:22.000Z</time></trkpt><trkpt lon="5.774662" lat="51.124677"><ele>31.4</ele><time>2022-08-07T09:46:27.000Z</time></trkpt><trkpt lon="5.774294" lat="51.124733"><ele>31.4</ele><time>2022-08-07T09:46:30.000Z</time></trkpt><trkpt lon="5.773934" lat="51.124799"><ele>31.3</ele><time>2022-08-07T09:46:33.000Z</time></trkpt><trkpt lon="5.773695" lat="51.124854"><ele>31.2</ele><time>2022-08-07T09:46:35.000Z</time></trkpt><trkpt lon="5.773578" lat="51.124886"><ele>31.2</ele><time>2022-08-07T09:46:36.000Z</time></trkpt><trkpt lon="5.773244" lat="51.124991"><ele>31.1</ele><time>2022-08-07T09:46:39.000Z</time></trkpt><trkpt lon="5.772941" lat="51.125117"><ele>31.1</ele><time>2022-08-07T09:46:42.000Z</time></trkpt><trkpt lon="5.772257" lat="51.125449"><ele>30.9</ele><time>2022-08-07T09:46:49.000Z</time></trkpt><trkpt lon="5.772064" lat="51.125543"><ele>30.7</ele><time>2022-08-07T09:46:51.000Z</time></trkpt><trkpt lon="5.771778" lat="51.125684"><ele>30.6</ele><time>2022-08-07T09:46:54.000Z</time></trkpt><trkpt lon="5.771004" lat="51.126058"><ele>30.2</ele><time>2022-08-07T09:47:02.000Z</time></trkpt><trkpt lon="5.770812" lat="51.126151"><ele>30</ele><time>2022-08-07T09:47:04.000Z</time></trkpt><trkpt lon="5.770025" lat="51.126512"><ele>29.4</ele><time>2022-08-07T09:47:12.000Z</time></trkpt><trkpt lon="5.769933" lat="51.126562"><ele>29.4</ele><time>2022-08-07T09:47:13.000Z</time></trkpt><trkpt lon="5.76985" lat="51.126619"><ele>29.4</ele><time>2022-08-07T09:47:14.000Z</time></trkpt><trkpt lon="5.769713" lat="51.126744"><ele>29.5</ele><time>2022-08-07T09:47:16.000Z</time></trkpt><trkpt lon="5.769654" lat="51.126815"><ele>29.5</ele><time>2022-08-07T09:47:17.000Z</time></trkpt><trkpt lon="5.769457" lat="51.127086"><ele>29.6</ele><time>2022-08-07T09:47:21.000Z</time></trkpt><trkpt lon="5.769328" lat="51.127291"><ele>29.6</ele><time>2022-08-07T09:47:24.000Z</time></trkpt><trkpt lon="5.769288" lat="51.127362"><ele>29.6</ele><time>2022-08-07T09:47:25.000Z</time></trkpt><trkpt lon="5.769063" lat="51.127862"><ele>29.4</ele><time>2022-08-07T09:47:32.000Z</time></trkpt><trkpt lon="5.768905" lat="51.128404"><ele>29.1</ele><time>2022-08-07T09:47:39.000Z</time></trkpt><trkpt lon="5.768734" lat="51.129"><ele>28.9</ele><time>2022-08-07T09:47:47.000Z</time></trkpt><trkpt lon="5.768643" lat="51.129282"><ele>28.9</ele><time>2022-08-07T09:47:51.000Z</time></trkpt><trkpt lon="5.768603" lat="51.129419"><ele>29</ele><time>2022-08-07T09:47:53.000Z</time></trkpt><trkpt lon="5.768518" lat="51.129704"><ele>29</ele><time>2022-08-07T09:47:57.000Z</time></trkpt><trkpt lon="5.768445" lat="51.129926"><ele>29.1</ele><time>2022-08-07T09:48:00.000Z</time></trkpt><trkpt lon="5.768405" lat="51.130071"><ele>29.2</ele><time>2022-08-07T09:48:02.000Z</time></trkpt><trkpt lon="5.76827" lat="51.130583"><ele>29.3</ele><time>2022-08-07T09:48:09.000Z</time></trkpt><trkpt lon="5.768088" lat="51.131099"><ele>29.2</ele><time>2022-08-07T09:48:16.000Z</time></trkpt><trkpt lon="5.768014" lat="51.131248"><ele>29.1</ele><time>2022-08-07T09:48:18.000Z</time></trkpt><trkpt lon="5.767721" lat="51.131772"><ele>28.7</ele><time>2022-08-07T09:48:25.000Z</time></trkpt><trkpt lon="5.767581" lat="51.132066"><ele>28.7</ele><time>2022-08-07T09:48:29.000Z</time></trkpt><trkpt lon="5.767379" lat="51.132585"><ele>28.6</ele><time>2022-08-07T09:48:36.000Z</time></trkpt><trkpt lon="5.767267" lat="51.133193"><ele>29.2</ele><time>2022-08-07T09:48:44.000Z</time></trkpt><trkpt lon="5.767252" lat="51.133267"><ele>29.3</ele><time>2022-08-07T09:48:45.000Z</time></trkpt><trkpt lon="5.767149" lat="51.133813"><ele>30.7</ele><time>2022-08-07T09:48:53.000Z</time></trkpt><trkpt lon="5.767144" lat="51.133868"><ele>30.9</ele><time>2022-08-07T09:48:54.000Z</time></trkpt><trkpt lon="5.767104" lat="51.133969"><ele>31.2</ele><time>2022-08-07T09:48:56.000Z</time></trkpt><trkpt lon="5.767044" lat="51.134002"><ele>31.2</ele><time>2022-08-07T09:48:57.000Z</time></trkpt><trkpt lon="5.766964" lat="51.13402"><ele>31.2</ele><time>2022-08-07T09:48:58.000Z</time></trkpt><trkpt lon="5.766766" lat="51.134027"><ele>31.1</ele><time>2022-08-07T09:49:00.000Z</time></trkpt><trkpt lon="5.765815" lat="51.13407"><ele>31.2</ele><time>2022-08-07T09:49:09.000Z</time></trkpt><trkpt lon="5.765151" lat="51.134092"><ele>31.2</ele><time>2022-08-07T09:49:15.000Z</time></trkpt><trkpt lon="5.764913" lat="51.134098"><ele>31.2</ele><time>2022-08-07T09:49:17.000Z</time></trkpt><trkpt lon="5.763945" lat="51.134136"><ele>31.5</ele><time>2022-08-07T09:49:25.000Z</time></trkpt><trkpt lon="5.763134" lat="51.134244"><ele>31.1</ele><time>2022-08-07T09:49:32.000Z</time></trkpt><trkpt lon="5.762297" lat="51.134377"><ele>31</ele><time>2022-08-07T09:49:39.000Z</time></trkpt><trkpt lon="5.761434" lat="51.134503"><ele>30.9</ele><time>2022-08-07T09:49:46.000Z</time></trkpt><trkpt lon="5.76131" lat="51.134521"><ele>30.9</ele><time>2022-08-07T09:49:47.000Z</time></trkpt><trkpt lon="5.760438" lat="51.134647"><ele>30.9</ele><time>2022-08-07T09:49:54.000Z</time></trkpt><trkpt lon="5.76019" lat="51.134696"><ele>30.9</ele><time>2022-08-07T09:49:56.000Z</time></trkpt><trkpt lon="5.75934" lat="51.13489"><ele>31.3</ele><time>2022-08-07T09:50:03.000Z</time></trkpt><trkpt lon="5.758532" lat="51.135107"><ele>31.4</ele><time>2022-08-07T09:50:10.000Z</time></trkpt><trkpt lon="5.75833" lat="51.135157"><ele>31.4</ele><time>2022-08-07T09:50:12.000Z</time></trkpt><trkpt lon="5.757775" lat="51.135293"><ele>31.6</ele><time>2022-08-07T09:50:17.000Z</time></trkpt><trkpt lon="5.757677" lat="51.135295"><ele>31.6</ele><time>2022-08-07T09:50:18.000Z</time></trkpt><trkpt lon="5.757585" lat="51.135289"><ele>31.7</ele><time>2022-08-07T09:50:19.000Z</time></trkpt><trkpt lon="5.757405" lat="51.135287"><ele>31.7</ele><time>2022-08-07T09:50:21.000Z</time></trkpt><trkpt lon="5.757203" lat="51.135409"><ele>31.5</ele><time>2022-08-07T09:50:24.000Z</time></trkpt><trkpt lon="5.75677" lat="51.135722"><ele>31.2</ele><time>2022-08-07T09:50:30.000Z</time></trkpt><trkpt lon="5.756554" lat="51.135873"><ele>31.2</ele><time>2022-08-07T09:50:33.000Z</time></trkpt><trkpt lon="5.756116" lat="51.136171"><ele>31.3</ele><time>2022-08-07T09:50:39.000Z</time></trkpt><trkpt lon="5.755483" lat="51.136591"><ele>31.5</ele><time>2022-08-07T09:50:47.000Z</time></trkpt><trkpt lon="5.755403" lat="51.136642"><ele>31.5</ele><time>2022-08-07T09:50:48.000Z</time></trkpt><trkpt lon="5.755243" lat="51.136748"><ele>31.5</ele><time>2022-08-07T09:50:50.000Z</time></trkpt><trkpt lon="5.754601" lat="51.137175"><ele>31.5</ele><time>2022-08-07T09:50:58.000Z</time></trkpt><trkpt lon="5.754525" lat="51.137222"><ele>31.5</ele><time>2022-08-07T09:50:59.000Z</time></trkpt><trkpt lon="5.754062" lat="51.13754"><ele>31.4</ele><time>2022-08-07T09:51:05.000Z</time></trkpt><trkpt lon="5.753427" lat="51.137972"><ele>31.2</ele><time>2022-08-07T09:51:13.000Z</time></trkpt><trkpt lon="5.75286" lat="51.138347"><ele>31.1</ele><time>2022-08-07T09:51:20.000Z</time></trkpt><trkpt lon="5.752219" lat="51.138772"><ele>31.1</ele><time>2022-08-07T09:51:28.000Z</time></trkpt><trkpt lon="5.751724" lat="51.139094"><ele>31.1</ele><time>2022-08-07T09:51:34.000Z</time></trkpt><trkpt lon="5.751645" lat="51.139148"><ele>31.1</ele><time>2022-08-07T09:51:35.000Z</time></trkpt><trkpt lon="5.750986" lat="51.139597"><ele>31</ele><time>2022-08-07T09:51:43.000Z</time></trkpt><trkpt lon="5.750322" lat="51.140028"><ele>30.9</ele><time>2022-08-07T09:51:51.000Z</time></trkpt><trkpt lon="5.750218" lat="51.140096"><ele>30.9</ele><time>2022-08-07T09:51:52.000Z</time></trkpt><trkpt lon="5.749546" lat="51.140538"><ele>30.9</ele><time>2022-08-07T09:52:00.000Z</time></trkpt><trkpt lon="5.749477" lat="51.140581"><ele>30.9</ele><time>2022-08-07T09:52:01.000Z</time></trkpt><trkpt lon="5.748859" lat="51.140971"><ele>31.1</ele><time>2022-08-07T09:52:08.000Z</time></trkpt><trkpt lon="5.748203" lat="51.141413"><ele>31</ele><time>2022-08-07T09:52:16.000Z</time></trkpt><trkpt lon="5.748104" lat="51.141481"><ele>31</ele><time>2022-08-07T09:52:17.000Z</time></trkpt><trkpt lon="5.747508" lat="51.141873"><ele>31.1</ele><time>2022-08-07T09:52:24.000Z</time></trkpt><trkpt lon="5.747085" lat="51.142148"><ele>31.2</ele><time>2022-08-07T09:52:29.000Z</time></trkpt><trkpt lon="5.746494" lat="51.14254"><ele>31.3</ele><time>2022-08-07T09:52:36.000Z</time></trkpt><trkpt lon="5.745828" lat="51.14299"><ele>31.3</ele><time>2022-08-07T09:52:44.000Z</time></trkpt><trkpt lon="5.745742" lat="51.143047"><ele>31.4</ele><time>2022-08-07T09:52:45.000Z</time></trkpt><trkpt lon="5.745144" lat="51.143437"><ele>31.5</ele><time>2022-08-07T09:52:52.000Z</time></trkpt><trkpt lon="5.744816" lat="51.14366"><ele>31.7</ele><time>2022-08-07T09:52:56.000Z</time></trkpt><trkpt lon="5.744333" lat="51.143995"><ele>31.7</ele><time>2022-08-07T09:53:02.000Z</time></trkpt><trkpt lon="5.743747" lat="51.144389"><ele>31.8</ele><time>2022-08-07T09:53:09.000Z</time></trkpt><trkpt lon="5.743575" lat="51.1445"><ele>31.8</ele><time>2022-08-07T09:53:11.000Z</time></trkpt><trkpt lon="5.743075" lat="51.144832"><ele>31.9</ele><time>2022-08-07T09:53:17.000Z</time></trkpt><trkpt lon="5.742671" lat="51.145065"><ele>32</ele><time>2022-08-07T09:53:22.000Z</time></trkpt><trkpt lon="5.742175" lat="51.145368"><ele>32.1</ele><time>2022-08-07T09:53:29.000Z</time></trkpt><trkpt lon="5.742062" lat="51.14545"><ele>32.1</ele><time>2022-08-07T09:53:31.000Z</time></trkpt><trkpt lon="5.742044" lat="51.14549"><ele>32.1</ele><time>2022-08-07T09:53:32.000Z</time></trkpt><trkpt lon="5.742061" lat="51.145541"><ele>32.2</ele><time>2022-08-07T09:53:33.000Z</time></trkpt><trkpt lon="5.742183" lat="51.145617"><ele>32.3</ele><time>2022-08-07T09:53:35.000Z</time></trkpt><trkpt lon="5.742417" lat="51.145697"><ele>32.4</ele><time>2022-08-07T09:53:38.000Z</time></trkpt><trkpt lon="5.742501" lat="51.145714"><ele>32.4</ele><time>2022-08-07T09:53:39.000Z</time></trkpt><trkpt lon="5.742666" lat="51.145732"><ele>32.3</ele><time>2022-08-07T09:53:41.000Z</time></trkpt><trkpt lon="5.74298" lat="51.145745"><ele>32.3</ele><time>2022-08-07T09:53:45.000Z</time></trkpt><trkpt lon="5.743212" lat="51.145778"><ele>32.3</ele><time>2022-08-07T09:53:48.000Z</time></trkpt><trkpt lon="5.743252" lat="51.145806"><ele>32.3</ele><time>2022-08-07T09:53:49.000Z</time></trkpt><trkpt lon="5.743255" lat="51.14584"><ele>32.3</ele><time>2022-08-07T09:53:50.000Z</time></trkpt><trkpt lon="5.743226" lat="51.145924"><ele>32.3</ele><time>2022-08-07T09:53:52.000Z</time></trkpt><trkpt lon="5.743211" lat="51.145981"><ele>32.2</ele><time>2022-08-07T09:53:56.000Z</time></trkpt><trkpt lon="5.743212" lat="51.145985"><ele>32.2</ele><time>2022-08-07T09:53:58.000Z</time></trkpt></trkseg></trk></gpx>